<?xml version='1.0' encoding='UTF-8'?><gpx version="1.1" creator="JPX - https://github.com/jenetics/jpx" xmlns="http://www.topografix.com/GPX/1/1"><trk><trkseg><trkpt lat="43.7931633" lon="12.4928933"><ele>215.00000000000003</ele><time>2026-04-26T09:25:02.547Z</time></trkpt><trkpt lat="43.7932517" lon="12.4928767"><ele>215.0</ele><time>2026-04-26T09:25:05.547Z</time></trkpt><trkpt lat="43.7933417" lon="12.49285"><ele>215.0</ele><time>2026-04-26T09:25:08.548Z</time></trkpt><trkpt lat="43.7934083" lon="12.492815"><ele>215.0</ele><time>2026-04-26T09:25:10.548Z</time></trkpt><trkpt lat="43.7934683" lon="12.4927533"><ele>215.00000000000003</ele><time>2026-04-26T09:25:12.548Z</time></trkpt><trkpt lat="43.79354" lon="12.4926633"><ele>215.0</ele><time>2026-04-26T09:25:15.548Z</time></trkpt><trkpt lat="43.7936233" lon="12.492605"><ele>214.2</ele><time>2026-04-26T09:25:17.547Z</time></trkpt><trkpt lat="43.7936867" lon="12.4926017"><ele>213.4</ele><time>2026-04-26T09:25:18.548Z</time></trkpt><trkpt lat="43.7937783" lon="12.49261"><ele>212.60000000000002</ele><time>2026-04-26T09:25:19.547Z</time></trkpt><trkpt lat="43.7939" lon="12.4926367"><ele>211.8</ele><time>2026-04-26T09:25:20.548Z</time></trkpt><trkpt lat="43.794045" lon="12.49267"><ele>211.0</ele><time>2026-04-26T09:25:21.547Z</time></trkpt><trkpt lat="43.7941783" lon="12.4926933"><ele>211.0</ele><time>2026-04-26T09:25:22.548Z</time></trkpt><trkpt lat="43.7943" lon="12.4927117"><ele>211.0</ele><time>2026-04-26T09:25:23.548Z</time></trkpt><trkpt lat="43.7944133" lon="12.49273"><ele>211.0</ele><time>2026-04-26T09:25:24.547Z</time></trkpt><trkpt lat="43.7945167" lon="12.4927433"><ele>211.0</ele><time>2026-04-26T09:25:25.548Z</time></trkpt><trkpt lat="43.794615" lon="12.4927583"><ele>211.0</ele><time>2026-04-26T09:25:26.548Z</time></trkpt><trkpt lat="43.7947083" lon="12.4927717"><ele>211.0</ele><time>2026-04-26T09:25:27.548Z</time></trkpt><trkpt lat="43.7947967" lon="12.4927867"><ele>211.0</ele><time>2026-04-26T09:25:28.547Z</time></trkpt><trkpt lat="43.7948767" lon="12.4928"><ele>211.0</ele><time>2026-04-26T09:25:29.548Z</time></trkpt><trkpt lat="43.7949667" lon="12.492815"><ele>211.0</ele><time>2026-04-26T09:25:30.547Z</time></trkpt><trkpt lat="43.7950617" lon="12.4928283"><ele>211.0</ele><time>2026-04-26T09:25:31.548Z</time></trkpt><trkpt lat="43.795165" lon="12.4928467"><ele>210.20000000000002</ele><time>2026-04-26T09:25:32.548Z</time></trkpt><trkpt lat="43.79527" lon="12.492865"><ele>209.4</ele><time>2026-04-26T09:25:33.547Z</time></trkpt><trkpt lat="43.79538" lon="12.492885"><ele>208.6</ele><time>2026-04-26T09:25:34.548Z</time></trkpt><trkpt lat="43.795485" lon="12.49291"><ele>207.8</ele><time>2026-04-26T09:25:35.548Z</time></trkpt><trkpt lat="43.7955817" lon="12.4929333"><ele>207.0</ele><time>2026-04-26T09:25:36.548Z</time></trkpt><trkpt lat="43.7956683" lon="12.4929533"><ele>207.0</ele><time>2026-04-26T09:25:37.548Z</time></trkpt><trkpt lat="43.7957483" lon="12.4929717"><ele>207.0</ele><time>2026-04-26T09:25:38.548Z</time></trkpt><trkpt lat="43.7958233" lon="12.4929883"><ele>207.0</ele><time>2026-04-26T09:25:39.548Z</time></trkpt><trkpt lat="43.7959133" lon="12.4929867"><ele>207.0</ele><time>2026-04-26T09:25:40.548Z</time></trkpt><trkpt lat="43.7960017" lon="12.4929667"><ele>207.0</ele><time>2026-04-26T09:25:41.548Z</time></trkpt><trkpt lat="43.7960867" lon="12.49292"><ele>207.0</ele><time>2026-04-26T09:25:42.548Z</time></trkpt><trkpt lat="43.7961733" lon="12.4928417"><ele>211.0</ele><time>2026-04-26T09:25:43.547Z</time></trkpt><trkpt lat="43.796275" lon="12.4927283"><ele>215.0</ele><time>2026-04-26T09:25:44.548Z</time></trkpt><trkpt lat="43.7963567" lon="12.4926033"><ele>219.0</ele><time>2026-04-26T09:25:45.548Z</time></trkpt><trkpt lat="43.7964333" lon="12.4924917"><ele>223.0</ele><time>2026-04-26T09:25:46.548Z</time></trkpt><trkpt lat="43.7965117" lon="12.4923883"><ele>223.0</ele><time>2026-04-26T09:25:47.548Z</time></trkpt><trkpt lat="43.7965983" lon="12.4922967"><ele>223.0</ele><time>2026-04-26T09:25:48.548Z</time></trkpt><trkpt lat="43.7966917" lon="12.492215"><ele>223.0</ele><time>2026-04-26T09:25:49.548Z</time></trkpt><trkpt lat="43.7967983" lon="12.4921383"><ele>223.0</ele><time>2026-04-26T09:25:50.547Z</time></trkpt><trkpt lat="43.7969267" lon="12.492055"><ele>230.0</ele><time>2026-04-26T09:25:51.548Z</time></trkpt><trkpt lat="43.7970667" lon="12.4919733"><ele>237.0</ele><time>2026-04-26T09:25:52.548Z</time></trkpt><trkpt lat="43.7972033" lon="12.491885"><ele>244.0</ele><time>2026-04-26T09:25:53.548Z</time></trkpt><trkpt lat="43.7973233" lon="12.4918083"><ele>251.0</ele><time>2026-04-26T09:25:54.547Z</time></trkpt><trkpt lat="43.79743" lon="12.4917317"><ele>251.0</ele><time>2026-04-26T09:25:55.548Z</time></trkpt><trkpt lat="43.7975317" lon="12.4916583"><ele>251.00000000000003</ele><time>2026-04-26T09:25:56.548Z</time></trkpt><trkpt lat="43.7976317" lon="12.4916"><ele>251.00000000000003</ele><time>2026-04-26T09:25:57.548Z</time></trkpt><trkpt lat="43.7977167" lon="12.4915833"><ele>251.0</ele><time>2026-04-26T09:25:58.547Z</time></trkpt><trkpt lat="43.7978033" lon="12.4915867"><ele>251.0</ele><time>2026-04-26T09:25:59.548Z</time></trkpt><trkpt lat="43.7978767" lon="12.4916233"><ele>252.16666666666669</ele><time>2026-04-26T09:26:00.548Z</time></trkpt><trkpt lat="43.7979433" lon="12.4916617"><ele>253.33333333333334</ele><time>2026-04-26T09:26:01.548Z</time></trkpt><trkpt lat="43.7979867" lon="12.4917517"><ele>254.5</ele><time>2026-04-26T09:26:02.548Z</time></trkpt><trkpt lat="43.798015" lon="12.49186"><ele>255.66666666666669</ele><time>2026-04-26T09:26:03.548Z</time></trkpt><trkpt lat="43.7980383" lon="12.4919717"><ele>256.8333333333333</ele><time>2026-04-26T09:26:04.548Z</time></trkpt><trkpt lat="43.7980733" lon="12.4920567"><ele>258.0</ele><time>2026-04-26T09:26:05.547Z</time></trkpt><trkpt lat="43.7981317" lon="12.49211"><ele>258.0</ele><time>2026-04-26T09:26:06.548Z</time></trkpt><trkpt lat="43.7982117" lon="12.4921233"><ele>258.0</ele><time>2026-04-26T09:26:07.547Z</time></trkpt><trkpt lat="43.7983017" lon="12.49209"><ele>258.0</ele><time>2026-04-26T09:26:08.548Z</time></trkpt><trkpt lat="43.798405" lon="12.4920183"><ele>258.0</ele><time>2026-04-26T09:26:09.548Z</time></trkpt><trkpt lat="43.7985183" lon="12.4919067"><ele>258.0</ele><time>2026-04-26T09:26:10.548Z</time></trkpt><trkpt lat="43.798625" lon="12.491775"><ele>259.5</ele><time>2026-04-26T09:26:11.548Z</time></trkpt><trkpt lat="43.7987217" lon="12.4916167"><ele>261.0</ele><time>2026-04-26T09:26:12.548Z</time></trkpt><trkpt lat="43.7988167" lon="12.49144"><ele>262.5</ele><time>2026-04-26T09:26:13.548Z</time></trkpt><trkpt lat="43.7988983" lon="12.4912867"><ele>264.0</ele><time>2026-04-26T09:26:14.548Z</time></trkpt><trkpt lat="43.7989783" lon="12.491145"><ele>266.0</ele><time>2026-04-26T09:26:15.548Z</time></trkpt><trkpt lat="43.7990433" lon="12.4910067"><ele>268.0</ele><time>2026-04-26T09:26:16.548Z</time></trkpt><trkpt lat="43.7991017" lon="12.49088"><ele>270.0</ele><time>2026-04-26T09:26:17.548Z</time></trkpt><trkpt lat="43.799155" lon="12.4907683"><ele>272.0</ele><time>2026-04-26T09:26:18.548Z</time></trkpt><trkpt lat="43.7992217" lon="12.4906667"><ele>274.0</ele><time>2026-04-26T09:26:19.547Z</time></trkpt><trkpt lat="43.7992983" lon="12.49057"><ele>274.75</ele><time>2026-04-26T09:26:20.547Z</time></trkpt><trkpt lat="43.79939" lon="12.49048"><ele>275.5</ele><time>2026-04-26T09:26:21.548Z</time></trkpt><trkpt lat="43.7994833" lon="12.49039"><ele>276.25</ele><time>2026-04-26T09:26:22.548Z</time></trkpt><trkpt lat="43.7995767" lon="12.4903083"><ele>277.0</ele><time>2026-04-26T09:26:23.548Z</time></trkpt><trkpt lat="43.7996783" lon="12.4902267"><ele>278.4</ele><time>2026-04-26T09:26:24.548Z</time></trkpt><trkpt lat="43.799775" lon="12.490145"><ele>279.79999999999995</ele><time>2026-04-26T09:26:25.547Z</time></trkpt><trkpt lat="43.7998633" lon="12.4900667"><ele>281.2</ele><time>2026-04-26T09:26:26.547Z</time></trkpt><trkpt lat="43.7999383" lon="12.4900017"><ele>282.59999999999997</ele><time>2026-04-26T09:26:27.548Z</time></trkpt><trkpt lat="43.8000067" lon="12.4898617"><ele>284.0</ele><time>2026-04-26T09:26:29.548Z</time></trkpt><trkpt lat="43.8000183" lon="12.4897667"><ele>284.0</ele><time>2026-04-26T09:26:30.547Z</time></trkpt><trkpt lat="43.800035" lon="12.4896567"><ele>284.0</ele><time>2026-04-26T09:26:31.547Z</time></trkpt><trkpt lat="43.80006" lon="12.4895433"><ele>284.0</ele><time>2026-04-26T09:26:32.548Z</time></trkpt><trkpt lat="43.800085" lon="12.4894333"><ele>284.0</ele><time>2026-04-26T09:26:33.547Z</time></trkpt><trkpt lat="43.8001" lon="12.4893433"><ele>284.0</ele><time>2026-04-26T09:26:34.548Z</time></trkpt><trkpt lat="43.800095" lon="12.4891767"><ele>284.0</ele><time>2026-04-26T09:26:36.548Z</time></trkpt><trkpt lat="43.8000767" lon="12.489005"><ele>285.59999999999997</ele><time>2026-04-26T09:26:38.546Z</time></trkpt><trkpt lat="43.8000267" lon="12.48885"><ele>287.2</ele><time>2026-04-26T09:26:40.547Z</time></trkpt><trkpt lat="43.79999" lon="12.4887717"><ele>288.79999999999995</ele><time>2026-04-26T09:26:41.547Z</time></trkpt><trkpt lat="43.7999417" lon="12.4886783"><ele>290.4</ele><time>2026-04-26T09:26:42.547Z</time></trkpt><trkpt lat="43.7999" lon="12.4885683"><ele>292.0</ele><time>2026-04-26T09:26:43.547Z</time></trkpt><trkpt lat="43.7998733" lon="12.4884383"><ele>294.0</ele><time>2026-04-26T09:26:44.547Z</time></trkpt><trkpt lat="43.7998633" lon="12.4883217"><ele>296.0</ele><time>2026-04-26T09:26:45.546Z</time></trkpt><trkpt lat="43.7998617" lon="12.4882283"><ele>298.0</ele><time>2026-04-26T09:26:46.546Z</time></trkpt><trkpt lat="43.7998283" lon="12.4881083"><ele>300.0</ele><time>2026-04-26T09:26:48.547Z</time></trkpt><trkpt lat="43.7997267" lon="12.4880083"><ele>302.0</ele><time>2026-04-26T09:26:50.547Z</time></trkpt><trkpt lat="43.7996517" lon="12.4879783"><ele>304.0</ele><time>2026-04-26T09:26:51.547Z</time></trkpt><trkpt lat="43.7995783" lon="12.4879533"><ele>306.7142857142857</ele><time>2026-04-26T09:26:52.547Z</time></trkpt><trkpt lat="43.799515" lon="12.4879067"><ele>309.42857142857144</ele><time>2026-04-26T09:26:53.547Z</time></trkpt><trkpt lat="43.79947" lon="12.4878383"><ele>312.14285714285717</ele><time>2026-04-26T09:26:54.547Z</time></trkpt><trkpt lat="43.79943" lon="12.487745"><ele>314.8571428571429</ele><time>2026-04-26T09:26:55.546Z</time></trkpt><trkpt lat="43.7994233" lon="12.4876467"><ele>317.57142857142856</ele><time>2026-04-26T09:26:56.547Z</time></trkpt><trkpt lat="43.7994317" lon="12.48755"><ele>320.28571428571433</ele><time>2026-04-26T09:26:57.547Z</time></trkpt><trkpt lat="43.7994667" lon="12.4874633"><ele>323.0</ele><time>2026-04-26T09:26:58.547Z</time></trkpt><trkpt lat="43.7995133" lon="12.4873717"><ele>323.0</ele><time>2026-04-26T09:26:59.547Z</time></trkpt><trkpt lat="43.7995783" lon="12.4872933"><ele>323.0</ele><time>2026-04-26T09:27:00.546Z</time></trkpt><trkpt lat="43.7996483" lon="12.4872217"><ele>323.0</ele><time>2026-04-26T09:27:01.547Z</time></trkpt><trkpt lat="43.7997267" lon="12.4871517"><ele>323.0</ele><time>2026-04-26T09:27:02.547Z</time></trkpt><trkpt lat="43.7998167" lon="12.48709"><ele>323.0</ele><time>2026-04-26T09:27:03.547Z</time></trkpt><trkpt lat="43.7999033" lon="12.4870533"><ele>323.0</ele><time>2026-04-26T09:27:04.547Z</time></trkpt><trkpt lat="43.799985" lon="12.48705"><ele>323.0</ele><time>2026-04-26T09:27:05.547Z</time></trkpt><trkpt lat="43.80006" lon="12.4870717"><ele>323.0</ele><time>2026-04-26T09:27:06.547Z</time></trkpt><trkpt lat="43.8001383" lon="12.487125"><ele>323.0</ele><time>2026-04-26T09:27:07.547Z</time></trkpt><trkpt lat="43.80022" lon="12.487185"><ele>323.0</ele><time>2026-04-26T09:27:08.546Z</time></trkpt><trkpt lat="43.8003" lon="12.4872267"><ele>323.0</ele><time>2026-04-26T09:27:09.547Z</time></trkpt><trkpt lat="43.80041" lon="12.4872567"><ele>324.0</ele><time>2026-04-26T09:27:11.547Z</time></trkpt><trkpt lat="43.8004667" lon="12.48721"><ele>325.0</ele><time>2026-04-26T09:27:13.547Z</time></trkpt><trkpt lat="43.80049" lon="12.48709"><ele>326.0</ele><time>2026-04-26T09:27:15.547Z</time></trkpt><trkpt lat="43.8004783" lon="12.486945"><ele>327.0</ele><time>2026-04-26T09:27:17.547Z</time></trkpt><trkpt lat="43.800435" lon="12.48678"><ele>328.0</ele><time>2026-04-26T09:27:19.547Z</time></trkpt><trkpt lat="43.8004017" lon="12.4866833"><ele>328.0</ele><time>2026-04-26T09:27:20.546Z</time></trkpt><trkpt lat="43.8003617" lon="12.4865817"><ele>328.0</ele><time>2026-04-26T09:27:21.547Z</time></trkpt><trkpt lat="43.8003317" lon="12.4864733"><ele>328.0</ele><time>2026-04-26T09:27:22.546Z</time></trkpt><trkpt lat="43.8003117" lon="12.4863533"><ele>328.0</ele><time>2026-04-26T09:27:23.547Z</time></trkpt><trkpt lat="43.8002933" lon="12.486235"><ele>328.0</ele><time>2026-04-26T09:27:24.547Z</time></trkpt><trkpt lat="43.8002783" lon="12.4861067"><ele>328.0</ele><time>2026-04-26T09:27:25.547Z</time></trkpt><trkpt lat="43.800265" lon="12.4859867"><ele>329.0</ele><time>2026-04-26T09:27:26.547Z</time></trkpt><trkpt lat="43.800255" lon="12.4858683"><ele>330.0</ele><time>2026-04-26T09:27:27.546Z</time></trkpt><trkpt lat="43.80024" lon="12.4857433"><ele>331.0</ele><time>2026-04-26T09:27:28.547Z</time></trkpt><trkpt lat="43.80022" lon="12.4855933"><ele>332.0</ele><time>2026-04-26T09:27:29.547Z</time></trkpt><trkpt lat="43.800195" lon="12.48543"><ele>333.0</ele><time>2026-04-26T09:27:30.547Z</time></trkpt><trkpt lat="43.8001767" lon="12.48526"><ele>338.8333333333333</ele><time>2026-04-26T09:27:31.546Z</time></trkpt><trkpt lat="43.8001633" lon="12.4851133"><ele>344.6666666666667</ele><time>2026-04-26T09:27:32.547Z</time></trkpt><trkpt lat="43.8001583" lon="12.4849967"><ele>350.5</ele><time>2026-04-26T09:27:33.547Z</time></trkpt><trkpt lat="43.8001517" lon="12.484895"><ele>356.33333333333337</ele><time>2026-04-26T09:27:34.547Z</time></trkpt><trkpt lat="43.80013" lon="12.4847583"><ele>362.1666666666667</ele><time>2026-04-26T09:27:36.547Z</time></trkpt><trkpt lat="43.8000867" lon="12.4846767"><ele>368.0</ele><time>2026-04-26T09:27:37.547Z</time></trkpt><trkpt lat="43.8000417" lon="12.4845783"><ele>370.4</ele><time>2026-04-26T09:27:38.547Z</time></trkpt><trkpt lat="43.8000133" lon="12.4844567"><ele>372.79999999999995</ele><time>2026-04-26T09:27:39.547Z</time></trkpt><trkpt lat="43.7999917" lon="12.4843317"><ele>375.2</ele><time>2026-04-26T09:27:40.547Z</time></trkpt><trkpt lat="43.7999717" lon="12.4842"><ele>377.6</ele><time>2026-04-26T09:27:41.546Z</time></trkpt><trkpt lat="43.799945" lon="12.48407"><ele>380.0</ele><time>2026-04-26T09:27:42.546Z</time></trkpt><trkpt lat="43.7999333" lon="12.4839433"><ele>380.0</ele><time>2026-04-26T09:27:43.547Z</time></trkpt><trkpt lat="43.7999183" lon="12.483805"><ele>380.0</ele><time>2026-04-26T09:27:44.547Z</time></trkpt><trkpt lat="43.7999083" lon="12.4836583"><ele>380.0</ele><time>2026-04-26T09:27:45.547Z</time></trkpt><trkpt lat="43.7998983" lon="12.4835167"><ele>380.0</ele><time>2026-04-26T09:27:46.546Z</time></trkpt><trkpt lat="43.7998883" lon="12.4833733"><ele>380.0</ele><time>2026-04-26T09:27:47.546Z</time></trkpt><trkpt lat="43.7998733" lon="12.4832483"><ele>383.6</ele><time>2026-04-26T09:27:48.546Z</time></trkpt><trkpt lat="43.7998733" lon="12.4831483"><ele>387.2</ele><time>2026-04-26T09:27:49.547Z</time></trkpt><trkpt lat="43.7998767" lon="12.48305"><ele>390.79999999999995</ele><time>2026-04-26T09:27:50.547Z</time></trkpt><trkpt lat="43.7999167" lon="12.4828983"><ele>394.4</ele><time>2026-04-26T09:27:52.547Z</time></trkpt><trkpt lat="43.7999567" lon="12.4827383"><ele>398.0</ele><time>2026-04-26T09:27:54.547Z</time></trkpt><trkpt lat="43.799965" lon="12.4826383"><ele>399.8333333333333</ele><time>2026-04-26T09:27:55.546Z</time></trkpt><trkpt lat="43.7999533" lon="12.482525"><ele>401.66666666666663</ele><time>2026-04-26T09:27:56.547Z</time></trkpt><trkpt lat="43.79993" lon="12.4823983"><ele>403.5</ele><time>2026-04-26T09:27:57.547Z</time></trkpt><trkpt lat="43.799915" lon="12.4822883"><ele>405.33333333333337</ele><time>2026-04-26T09:27:58.547Z</time></trkpt><trkpt lat="43.7998967" lon="12.4821767"><ele>407.1666666666667</ele><time>2026-04-26T09:27:59.546Z</time></trkpt><trkpt lat="43.7998633" lon="12.4820683"><ele>409.0</ele><time>2026-04-26T09:28:00.547Z</time></trkpt><trkpt lat="43.7998233" lon="12.48195"><ele>410.57142857142856</ele><time>2026-04-26T09:28:01.547Z</time></trkpt><trkpt lat="43.799785" lon="12.4818517"><ele>412.14285714285717</ele><time>2026-04-26T09:28:02.547Z</time></trkpt><trkpt lat="43.79975" lon="12.4817667"><ele>413.7142857142857</ele><time>2026-04-26T09:28:03.546Z</time></trkpt><trkpt lat="43.7997217" lon="12.481675"><ele>415.2857142857143</ele><time>2026-04-26T09:28:04.547Z</time></trkpt><trkpt lat="43.7997033" lon="12.4815733"><ele>416.8571428571429</ele><time>2026-04-26T09:28:05.546Z</time></trkpt><trkpt lat="43.7996967" lon="12.481465"><ele>418.42857142857144</ele><time>2026-04-26T09:28:06.547Z</time></trkpt><trkpt lat="43.7997033" lon="12.4813683"><ele>420.0</ele><time>2026-04-26T09:28:07.547Z</time></trkpt><trkpt lat="43.7997317" lon="12.48121"><ele>422.4</ele><time>2026-04-26T09:28:09.547Z</time></trkpt><trkpt lat="43.7997683" lon="12.4810283"><ele>424.8</ele><time>2026-04-26T09:28:11.547Z</time></trkpt><trkpt lat="43.7997617" lon="12.4809217"><ele>427.20000000000005</ele><time>2026-04-26T09:28:12.547Z</time></trkpt><trkpt lat="43.799725" lon="12.48083"><ele>429.6</ele><time>2026-04-26T09:28:13.546Z</time></trkpt><trkpt lat="43.7996667" lon="12.4807417"><ele>432.0</ele><time>2026-04-26T09:28:14.547Z</time></trkpt><trkpt lat="43.799615" lon="12.4806567"><ele>432.0</ele><time>2026-04-26T09:28:15.547Z</time></trkpt><trkpt lat="43.799555" lon="12.4805467"><ele>432.00000000000006</ele><time>2026-04-26T09:28:16.546Z</time></trkpt><trkpt lat="43.799475" lon="12.4804167"><ele>432.00000000000006</ele><time>2026-04-26T09:28:17.547Z</time></trkpt><trkpt lat="43.79939" lon="12.4803117"><ele>432.0</ele><time>2026-04-26T09:28:18.547Z</time></trkpt><trkpt lat="43.799315" lon="12.4802083"><ele>432.0</ele><time>2026-04-26T09:28:19.547Z</time></trkpt><trkpt lat="43.79925" lon="12.4800867"><ele>434.5</ele><time>2026-04-26T09:28:20.546Z</time></trkpt><trkpt lat="43.7991833" lon="12.4799517"><ele>437.0</ele><time>2026-04-26T09:28:21.547Z</time></trkpt><trkpt lat="43.7991183" lon="12.4798017"><ele>439.5</ele><time>2026-04-26T09:28:22.546Z</time></trkpt><trkpt lat="43.7990483" lon="12.479685"><ele>442.0</ele><time>2026-04-26T09:28:23.547Z</time></trkpt><trkpt lat="43.7989633" lon="12.479585"><ele>442.00000000000006</ele><time>2026-04-26T09:28:24.547Z</time></trkpt><trkpt lat="43.7988683" lon="12.4795"><ele>442.0</ele><time>2026-04-26T09:28:25.547Z</time></trkpt><trkpt lat="43.7987883" lon="12.479425"><ele>442.0</ele><time>2026-04-26T09:28:26.546Z</time></trkpt><trkpt lat="43.7987217" lon="12.4793633"><ele>442.0</ele><time>2026-04-26T09:28:27.547Z</time></trkpt><trkpt lat="43.7986683" lon="12.4792967"><ele>442.00000000000006</ele><time>2026-04-26T09:28:28.547Z</time></trkpt><trkpt lat="43.7986283" lon="12.4792167"><ele>442.0</ele><time>2026-04-26T09:28:29.546Z</time></trkpt><trkpt lat="43.79859" lon="12.47909"><ele>442.0</ele><time>2026-04-26T09:28:30.547Z</time></trkpt><trkpt lat="43.798555" lon="12.47894"><ele>442.00000000000006</ele><time>2026-04-26T09:28:31.547Z</time></trkpt><trkpt lat="43.7985283" lon="12.4787917"><ele>442.00000000000006</ele><time>2026-04-26T09:28:32.547Z</time></trkpt><trkpt lat="43.79851" lon="12.4786667"><ele>442.0</ele><time>2026-04-26T09:28:33.547Z</time></trkpt><trkpt lat="43.7984967" lon="12.4785567"><ele>442.0</ele><time>2026-04-26T09:28:34.546Z</time></trkpt><trkpt lat="43.7984917" lon="12.4784417"><ele>442.20000000000005</ele><time>2026-04-26T09:28:35.547Z</time></trkpt><trkpt lat="43.7985017" lon="12.478315"><ele>442.40000000000003</ele><time>2026-04-26T09:28:36.547Z</time></trkpt><trkpt lat="43.7985467" lon="12.4781767"><ele>442.59999999999997</ele><time>2026-04-26T09:28:37.547Z</time></trkpt><trkpt lat="43.7986017" lon="12.4780483"><ele>442.79999999999995</ele><time>2026-04-26T09:28:38.547Z</time></trkpt><trkpt lat="43.7986583" lon="12.47794"><ele>443.0</ele><time>2026-04-26T09:28:39.546Z</time></trkpt><trkpt lat="43.798705" lon="12.477865"><ele>441.66666666666663</ele><time>2026-04-26T09:28:40.547Z</time></trkpt><trkpt lat="43.79876" lon="12.47781"><ele>440.3333333333333</ele><time>2026-04-26T09:28:41.547Z</time></trkpt><trkpt lat="43.7988167" lon="12.477765"><ele>439.0</ele><time>2026-04-26T09:28:42.547Z</time></trkpt><trkpt lat="43.7988883" lon="12.477725"><ele>437.66666666666663</ele><time>2026-04-26T09:28:43.546Z</time></trkpt><trkpt lat="43.79898" lon="12.4776933"><ele>436.3333333333333</ele><time>2026-04-26T09:28:44.546Z</time></trkpt><trkpt lat="43.7990817" lon="12.4776617"><ele>435.0</ele><time>2026-04-26T09:28:45.547Z</time></trkpt><trkpt lat="43.7991933" lon="12.4776283"><ele>435.0</ele><time>2026-04-26T09:28:46.547Z</time></trkpt><trkpt lat="43.7992983" lon="12.477605"><ele>435.0</ele><time>2026-04-26T09:28:47.546Z</time></trkpt><trkpt lat="43.7993932" lon="12.4775796"><ele>435.0</ele><time>2026-04-26T09:28:48.546Z</time></trkpt><trkpt lat="43.799465" lon="12.4775552"><ele>435.0</ele><time>2026-04-26T09:28:49.546Z</time></trkpt><trkpt lat="43.7995325" lon="12.4774826"><ele>435.0</ele><time>2026-04-26T09:28:51.547Z</time></trkpt><trkpt lat="43.7995356" lon="12.4773218"><ele>439.6</ele><time>2026-04-26T09:28:53.547Z</time></trkpt><trkpt lat="43.7995263" lon="12.4771883"><ele>444.2</ele><time>2026-04-26T09:28:54.546Z</time></trkpt><trkpt lat="43.7995245" lon="12.4770278"><ele>448.79999999999995</ele><time>2026-04-26T09:28:55.546Z</time></trkpt><trkpt lat="43.7995281" lon="12.4768659"><ele>453.4</ele><time>2026-04-26T09:28:56.547Z</time></trkpt><trkpt lat="43.7995266" lon="12.4767201"><ele>458.0</ele><time>2026-04-26T09:28:57.547Z</time></trkpt><trkpt lat="43.7995257" lon="12.4765915"><ele>459.79999999999995</ele><time>2026-04-26T09:28:58.546Z</time></trkpt><trkpt lat="43.799541" lon="12.4764796"><ele>461.59999999999997</ele><time>2026-04-26T09:28:59.547Z</time></trkpt><trkpt lat="43.7995722" lon="12.4763741"><ele>463.40000000000003</ele><time>2026-04-26T09:29:00.547Z</time></trkpt><trkpt lat="43.7996145" lon="12.4762584"><ele>465.20000000000005</ele><time>2026-04-26T09:29:01.547Z</time></trkpt><trkpt lat="43.7996632" lon="12.4761352"><ele>467.0</ele><time>2026-04-26T09:29:02.546Z</time></trkpt><trkpt lat="43.7997206" lon="12.4760159"><ele>468.40000000000003</ele><time>2026-04-26T09:29:03.547Z</time></trkpt><trkpt lat="43.7997736" lon="12.4759175"><ele>469.80000000000007</ele><time>2026-04-26T09:29:04.547Z</time></trkpt><trkpt lat="43.7998067" lon="12.4758379"><ele>471.2</ele><time>2026-04-26T09:29:05.547Z</time></trkpt><trkpt lat="43.7998083" lon="12.4756916"><ele>472.6</ele><time>2026-04-26T09:29:07.547Z</time></trkpt><trkpt lat="43.7997123" lon="12.4755343"><ele>474.0</ele><time>2026-04-26T09:29:09.547Z</time></trkpt><trkpt lat="43.7996294" lon="12.4754283"><ele>472.75</ele><time>2026-04-26T09:29:10.547Z</time></trkpt><trkpt lat="43.799542" lon="12.4753053"><ele>471.5</ele><time>2026-04-26T09:29:11.547Z</time></trkpt><trkpt lat="43.7994594" lon="12.4751655"><ele>470.25</ele><time>2026-04-26T09:29:12.546Z</time></trkpt><trkpt lat="43.7993755" lon="12.4750236"><ele>469.0</ele><time>2026-04-26T09:29:13.547Z</time></trkpt><trkpt lat="43.7993058" lon="12.4749088"><ele>469.00000000000006</ele><time>2026-04-26T09:29:14.547Z</time></trkpt><trkpt lat="43.7992489" lon="12.4748168"><ele>469.0</ele><time>2026-04-26T09:29:15.547Z</time></trkpt><trkpt lat="43.7992021" lon="12.4747387"><ele>469.0</ele><time>2026-04-26T09:29:16.547Z</time></trkpt><trkpt lat="43.7991683" lon="12.4746556"><ele>469.0</ele><time>2026-04-26T09:29:17.546Z</time></trkpt><trkpt lat="43.7991354" lon="12.4745716"><ele>469.00000000000006</ele><time>2026-04-26T09:29:18.547Z</time></trkpt><trkpt lat="43.7991091" lon="12.4744576"><ele>469.0</ele><time>2026-04-26T09:29:20.547Z</time></trkpt><trkpt lat="43.7991667" lon="12.47438"><ele>470.6</ele><time>2026-04-26T09:29:23.546Z</time></trkpt><trkpt lat="43.79923" lon="12.474355"><ele>472.2</ele><time>2026-04-26T09:29:24.547Z</time></trkpt><trkpt lat="43.799315" lon="12.4743167"><ele>473.80000000000007</ele><time>2026-04-26T09:29:25.546Z</time></trkpt><trkpt lat="43.79942" lon="12.4742717"><ele>475.40000000000003</ele><time>2026-04-26T09:29:26.547Z</time></trkpt><trkpt lat="43.7995467" lon="12.4742117"><ele>477.0</ele><time>2026-04-26T09:29:27.547Z</time></trkpt><trkpt lat="43.799675" lon="12.4741433"><ele>482.33333333333337</ele><time>2026-04-26T09:29:28.547Z</time></trkpt><trkpt lat="43.799815" lon="12.4740667"><ele>487.6666666666667</ele><time>2026-04-26T09:29:29.547Z</time></trkpt><trkpt lat="43.7999717" lon="12.4739883"><ele>493.0</ele><time>2026-04-26T09:29:30.547Z</time></trkpt><trkpt lat="43.8001117" lon="12.4739167"><ele>493.75</ele><time>2026-04-26T09:29:31.546Z</time></trkpt><trkpt lat="43.800235" lon="12.4738667"><ele>494.5</ele><time>2026-04-26T09:29:32.546Z</time></trkpt><trkpt lat="43.80035" lon="12.47381"><ele>495.25</ele><time>2026-04-26T09:29:33.546Z</time></trkpt><trkpt lat="43.8004533" lon="12.4737533"><ele>496.0</ele><time>2026-04-26T09:29:34.546Z</time></trkpt><trkpt lat="43.8005367" lon="12.4737117"><ele>496.6</ele><time>2026-04-26T09:29:35.547Z</time></trkpt><trkpt lat="43.800605" lon="12.473675"><ele>497.20000000000005</ele><time>2026-04-26T09:29:36.547Z</time></trkpt><trkpt lat="43.8006617" lon="12.473635"><ele>497.79999999999995</ele><time>2026-04-26T09:29:37.547Z</time></trkpt><trkpt lat="43.8007183" lon="12.473555"><ele>498.4</ele><time>2026-04-26T09:29:39.547Z</time></trkpt><trkpt lat="43.8007183" lon="12.4733483"><ele>499.0</ele><time>2026-04-26T09:29:41.546Z</time></trkpt><trkpt lat="43.8007167" lon="12.47316"><ele>504.0</ele><time>2026-04-26T09:29:42.547Z</time></trkpt><trkpt lat="43.8007167" lon="12.472935"><ele>509.0</ele><time>2026-04-26T09:29:43.547Z</time></trkpt><trkpt lat="43.8007233" lon="12.472715"><ele>514.0</ele><time>2026-04-26T09:29:44.547Z</time></trkpt><trkpt lat="43.800725" lon="12.47253"><ele>514.0</ele><time>2026-04-26T09:29:45.546Z</time></trkpt><trkpt lat="43.8007267" lon="12.4723767"><ele>514.0</ele><time>2026-04-26T09:29:46.547Z</time></trkpt><trkpt lat="43.80073" lon="12.4722567"><ele>514.0</ele><time>2026-04-26T09:29:47.547Z</time></trkpt><trkpt lat="43.800725" lon="12.472155"><ele>514.0</ele><time>2026-04-26T09:29:48.546Z</time></trkpt><trkpt lat="43.8007067" lon="12.4720367"><ele>514.0</ele><time>2026-04-26T09:29:49.546Z</time></trkpt><trkpt lat="43.8006817" lon="12.471865"><ele>514.75</ele><time>2026-04-26T09:29:50.547Z</time></trkpt><trkpt lat="43.800665" lon="12.4716733"><ele>515.5</ele><time>2026-04-26T09:29:51.547Z</time></trkpt><trkpt lat="43.8006617" lon="12.471475"><ele>516.25</ele><time>2026-04-26T09:29:52.547Z</time></trkpt><trkpt lat="43.8006717" lon="12.471255"><ele>517.0</ele><time>2026-04-26T09:29:53.547Z</time></trkpt><trkpt lat="43.800685" lon="12.471035"><ele>515.5</ele><time>2026-04-26T09:29:54.547Z</time></trkpt><trkpt lat="43.8007" lon="12.4708267"><ele>514.0</ele><time>2026-04-26T09:29:55.547Z</time></trkpt><trkpt lat="43.800715" lon="12.4706333"><ele>512.5</ele><time>2026-04-26T09:29:56.547Z</time></trkpt><trkpt lat="43.8007367" lon="12.4704583"><ele>511.0</ele><time>2026-04-26T09:29:57.546Z</time></trkpt><trkpt lat="43.8007817" lon="12.4703067"><ele>512.5</ele><time>2026-04-26T09:29:58.546Z</time></trkpt><trkpt lat="43.80084" lon="12.4701583"><ele>514.0</ele><time>2026-04-26T09:29:59.547Z</time></trkpt><trkpt lat="43.80092" lon="12.4700183"><ele>515.5</ele><time>2026-04-26T09:30:00.547Z</time></trkpt><trkpt lat="43.80102" lon="12.4698817"><ele>517.0</ele><time>2026-04-26T09:30:01.547Z</time></trkpt><trkpt lat="43.8011083" lon="12.4697517"><ele>517.0</ele><time>2026-04-26T09:30:02.547Z</time></trkpt><trkpt lat="43.80118" lon="12.4696133"><ele>517.0</ele><time>2026-04-26T09:30:03.547Z</time></trkpt><trkpt lat="43.8012317" lon="12.4694433"><ele>517.0</ele><time>2026-04-26T09:30:04.547Z</time></trkpt><trkpt lat="43.8012817" lon="12.4692517"><ele>517.0</ele><time>2026-04-26T09:30:05.546Z</time></trkpt><trkpt lat="43.801325" lon="12.469025"><ele>512.3333333333334</ele><time>2026-04-26T09:30:06.546Z</time></trkpt><trkpt lat="43.8013467" lon="12.468795"><ele>507.66666666666663</ele><time>2026-04-26T09:30:07.547Z</time></trkpt><trkpt lat="43.8013683" lon="12.4685517"><ele>503.0</ele><time>2026-04-26T09:30:08.546Z</time></trkpt><trkpt lat="43.8013817" lon="12.4683"><ele>500.66666666666663</ele><time>2026-04-26T09:30:09.547Z</time></trkpt><trkpt lat="43.8013917" lon="12.4680533"><ele>498.33333333333337</ele><time>2026-04-26T09:30:10.547Z</time></trkpt><trkpt lat="43.8013983" lon="12.4678133"><ele>496.0</ele><time>2026-04-26T09:30:11.546Z</time></trkpt><trkpt lat="43.801405" lon="12.4675867"><ele>494.0</ele><time>2026-04-26T09:30:12.546Z</time></trkpt><trkpt lat="43.801415" lon="12.4673633"><ele>492.0</ele><time>2026-04-26T09:30:13.547Z</time></trkpt><trkpt lat="43.8014133" lon="12.4671233"><ele>490.0</ele><time>2026-04-26T09:30:14.547Z</time></trkpt><trkpt lat="43.80142" lon="12.4668783"><ele>487.33333333333337</ele><time>2026-04-26T09:30:15.547Z</time></trkpt><trkpt lat="43.8014317" lon="12.466635"><ele>484.66666666666663</ele><time>2026-04-26T09:30:16.546Z</time></trkpt><trkpt lat="43.801425" lon="12.4664033"><ele>482.0</ele><time>2026-04-26T09:30:17.547Z</time></trkpt><trkpt lat="43.801415" lon="12.4661717"><ele>479.0</ele><time>2026-04-26T09:30:18.546Z</time></trkpt><trkpt lat="43.8013933" lon="12.4659233"><ele>476.0</ele><time>2026-04-26T09:30:19.546Z</time></trkpt><trkpt lat="43.801355" lon="12.46566"><ele>473.0</ele><time>2026-04-26T09:30:20.547Z</time></trkpt><trkpt lat="43.80132" lon="12.46541"><ele>469.66666666666663</ele><time>2026-04-26T09:30:21.547Z</time></trkpt><trkpt lat="43.8012883" lon="12.4651717"><ele>466.33333333333337</ele><time>2026-04-26T09:30:22.547Z</time></trkpt><trkpt lat="43.80127" lon="12.4649317"><ele>463.0</ele><time>2026-04-26T09:30:23.546Z</time></trkpt><trkpt lat="43.8012683" lon="12.4646733"><ele>465.33333333333337</ele><time>2026-04-26T09:30:24.547Z</time></trkpt><trkpt lat="43.8012833" lon="12.4643967"><ele>467.66666666666663</ele><time>2026-04-26T09:30:25.547Z</time></trkpt><trkpt lat="43.80131" lon="12.464095"><ele>470.0</ele><time>2026-04-26T09:30:26.547Z</time></trkpt><trkpt lat="43.8013417" lon="12.463805"><ele>472.66666666666663</ele><time>2026-04-26T09:30:27.547Z</time></trkpt><trkpt lat="43.8013767" lon="12.46354"><ele>475.33333333333337</ele><time>2026-04-26T09:30:28.547Z</time></trkpt><trkpt lat="43.801405" lon="12.46329"><ele>478.0</ele><time>2026-04-26T09:30:29.546Z</time></trkpt><trkpt lat="43.8014233" lon="12.46305"><ele>478.5</ele><time>2026-04-26T09:30:30.546Z</time></trkpt><trkpt lat="43.801435" lon="12.46284"><ele>479.0</ele><time>2026-04-26T09:30:31.547Z</time></trkpt><trkpt lat="43.801405" lon="12.4626417"><ele>479.5</ele><time>2026-04-26T09:30:32.547Z</time></trkpt><trkpt lat="43.8013583" lon="12.4624433"><ele>480.0</ele><time>2026-04-26T09:30:33.547Z</time></trkpt><trkpt lat="43.801315" lon="12.4622467"><ele>483.0</ele><time>2026-04-26T09:30:34.547Z</time></trkpt><trkpt lat="43.8013067" lon="12.462055"><ele>486.0</ele><time>2026-04-26T09:30:35.547Z</time></trkpt><trkpt lat="43.8013317" lon="12.461845"><ele>489.0</ele><time>2026-04-26T09:30:36.547Z</time></trkpt><trkpt lat="43.8013783" lon="12.4616217"><ele>489.0</ele><time>2026-04-26T09:30:37.547Z</time></trkpt><trkpt lat="43.8014333" lon="12.4614133"><ele>489.0</ele><time>2026-04-26T09:30:38.547Z</time></trkpt><trkpt lat="43.8014883" lon="12.4612117"><ele>489.0</ele><time>2026-04-26T09:30:39.546Z</time></trkpt><trkpt lat="43.80156" lon="12.4610117"><ele>490.66666666666663</ele><time>2026-04-26T09:30:40.547Z</time></trkpt><trkpt lat="43.8016367" lon="12.4608017"><ele>492.3333333333333</ele><time>2026-04-26T09:30:41.547Z</time></trkpt><trkpt lat="43.801705" lon="12.4606167"><ele>494.0</ele><time>2026-04-26T09:30:42.547Z</time></trkpt><trkpt lat="43.8017683" lon="12.4604467"><ele>490.75</ele><time>2026-04-26T09:30:43.547Z</time></trkpt><trkpt lat="43.801835" lon="12.460295"><ele>487.5</ele><time>2026-04-26T09:30:44.547Z</time></trkpt><trkpt lat="43.8019183" lon="12.4601583"><ele>484.25</ele><time>2026-04-26T09:30:45.547Z</time></trkpt><trkpt lat="43.80203" lon="12.4600283"><ele>481.0</ele><time>2026-04-26T09:30:46.546Z</time></trkpt><trkpt lat="43.8021617" lon="12.4599033"><ele>481.0</ele><time>2026-04-26T09:30:47.547Z</time></trkpt><trkpt lat="43.802285" lon="12.459785"><ele>481.0</ele><time>2026-04-26T09:30:48.547Z</time></trkpt><trkpt lat="43.8023917" lon="12.4596483"><ele>481.0</ele><time>2026-04-26T09:30:49.547Z</time></trkpt><trkpt lat="43.8024867" lon="12.459485"><ele>481.0</ele><time>2026-04-26T09:30:50.547Z</time></trkpt><trkpt lat="43.8025767" lon="12.459295"><ele>480.33333333333337</ele><time>2026-04-26T09:30:51.546Z</time></trkpt><trkpt lat="43.8026533" lon="12.4591033"><ele>479.66666666666663</ele><time>2026-04-26T09:30:52.547Z</time></trkpt><trkpt lat="43.8027217" lon="12.4589167"><ele>479.0</ele><time>2026-04-26T09:30:53.546Z</time></trkpt><trkpt lat="43.80276" lon="12.4587217"><ele>479.0</ele><time>2026-04-26T09:30:54.547Z</time></trkpt><trkpt lat="43.8027817" lon="12.45851"><ele>479.0</ele><time>2026-04-26T09:30:55.546Z</time></trkpt><trkpt lat="43.802775" lon="12.4582783"><ele>479.0</ele><time>2026-04-26T09:30:56.547Z</time></trkpt><trkpt lat="43.8027517" lon="12.4580433"><ele>482.3333333333333</ele><time>2026-04-26T09:30:57.547Z</time></trkpt><trkpt lat="43.8027317" lon="12.45782"><ele>485.66666666666663</ele><time>2026-04-26T09:30:58.547Z</time></trkpt><trkpt lat="43.80272" lon="12.4575917"><ele>489.0</ele><time>2026-04-26T09:30:59.545Z</time></trkpt><trkpt lat="43.8027" lon="12.457385"><ele>489.0</ele><time>2026-04-26T09:31:00.546Z</time></trkpt><trkpt lat="43.8026883" lon="12.457175"><ele>489.0</ele><time>2026-04-26T09:31:01.546Z</time></trkpt><trkpt lat="43.802665" lon="12.456985"><ele>489.0</ele><time>2026-04-26T09:31:02.546Z</time></trkpt><trkpt lat="43.8026317" lon="12.4568017"><ele>489.0</ele><time>2026-04-26T09:31:03.545Z</time></trkpt><trkpt lat="43.8025817" lon="12.456625"><ele>484.79999999999995</ele><time>2026-04-26T09:31:04.546Z</time></trkpt><trkpt lat="43.8025217" lon="12.4564567"><ele>480.59999999999997</ele><time>2026-04-26T09:31:05.546Z</time></trkpt><trkpt lat="43.80247" lon="12.456305"><ele>476.4</ele><time>2026-04-26T09:31:06.546Z</time></trkpt><trkpt lat="43.802425" lon="12.456185"><ele>472.2</ele><time>2026-04-26T09:31:07.545Z</time></trkpt><trkpt lat="43.8023883" lon="12.45608"><ele>468.0</ele><time>2026-04-26T09:31:08.546Z</time></trkpt><trkpt lat="43.8023809" lon="12.4559875"><ele>465.59999999999997</ele><time>2026-04-26T09:31:09.546Z</time></trkpt><trkpt lat="43.8024142" lon="12.4559079"><ele>463.19999999999993</ele><time>2026-04-26T09:31:10.546Z</time></trkpt><trkpt lat="43.8024798" lon="12.4558481"><ele>460.8</ele><time>2026-04-26T09:31:11.546Z</time></trkpt><trkpt lat="43.8025717" lon="12.4558055"><ele>458.4</ele><time>2026-04-26T09:31:12.546Z</time></trkpt><trkpt lat="43.8026982" lon="12.4557747"><ele>456.0</ele><time>2026-04-26T09:31:13.546Z</time></trkpt><trkpt lat="43.8028873" lon="12.4557655"><ele>455.66666666666663</ele><time>2026-04-26T09:31:14.546Z</time></trkpt><trkpt lat="43.8030807" lon="12.455758"><ele>455.3333333333333</ele><time>2026-04-26T09:31:15.546Z</time></trkpt><trkpt lat="43.8032637" lon="12.4557425"><ele>455.0</ele><time>2026-04-26T09:31:16.546Z</time></trkpt><trkpt lat="43.8034218" lon="12.4557189"><ele>456.25</ele><time>2026-04-26T09:31:17.546Z</time></trkpt><trkpt lat="43.8035678" lon="12.4556802"><ele>457.5</ele><time>2026-04-26T09:31:18.545Z</time></trkpt><trkpt lat="43.8037044" lon="12.4556266"><ele>458.75</ele><time>2026-04-26T09:31:19.545Z</time></trkpt><trkpt lat="43.8038255" lon="12.4555422"><ele>460.0</ele><time>2026-04-26T09:31:20.546Z</time></trkpt><trkpt lat="43.8039327" lon="12.4554231"><ele>454.6666666666667</ele><time>2026-04-26T09:31:21.546Z</time></trkpt><trkpt lat="43.804029" lon="12.4552681"><ele>449.33333333333337</ele><time>2026-04-26T09:31:22.546Z</time></trkpt><trkpt lat="43.8041131" lon="12.4550739"><ele>444.0</ele><time>2026-04-26T09:31:23.546Z</time></trkpt><trkpt lat="43.8041872" lon="12.4548407"><ele>440.0</ele><time>2026-04-26T09:31:24.545Z</time></trkpt><trkpt lat="43.8042548" lon="12.4545933"><ele>436.0</ele><time>2026-04-26T09:31:25.546Z</time></trkpt><trkpt lat="43.8043202" lon="12.4543561"><ele>432.0</ele><time>2026-04-26T09:31:26.546Z</time></trkpt><trkpt lat="43.8043836" lon="12.4541232"><ele>432.0</ele><time>2026-04-26T09:31:27.546Z</time></trkpt><trkpt lat="43.8044444" lon="12.4538988"><ele>432.0</ele><time>2026-04-26T09:31:28.546Z</time></trkpt><trkpt lat="43.8045028" lon="12.4536851"><ele>432.0</ele><time>2026-04-26T09:31:29.546Z</time></trkpt><trkpt lat="43.8045577" lon="12.4534755"><ele>428.0</ele><time>2026-04-26T09:31:30.545Z</time></trkpt><trkpt lat="43.8046177" lon="12.4532765"><ele>424.0</ele><time>2026-04-26T09:31:31.546Z</time></trkpt><trkpt lat="43.8046853" lon="12.4530904"><ele>420.0</ele><time>2026-04-26T09:31:32.546Z</time></trkpt><trkpt lat="43.8047678" lon="12.4528986"><ele>418.5</ele><time>2026-04-26T09:31:33.546Z</time></trkpt><trkpt lat="43.8048608" lon="12.452724"><ele>417.0</ele><time>2026-04-26T09:31:34.546Z</time></trkpt><trkpt lat="43.8049472" lon="12.452568"><ele>415.5</ele><time>2026-04-26T09:31:35.545Z</time></trkpt><trkpt lat="43.8050214" lon="12.4524387"><ele>414.0</ele><time>2026-04-26T09:31:36.546Z</time></trkpt><trkpt lat="43.8050906" lon="12.4523283"><ele>410.79999999999995</ele><time>2026-04-26T09:31:37.546Z</time></trkpt><trkpt lat="43.8051656" lon="12.4522537"><ele>407.59999999999997</ele><time>2026-04-26T09:31:38.546Z</time></trkpt><trkpt lat="43.8052485" lon="12.4522276"><ele>404.4</ele><time>2026-04-26T09:31:39.546Z</time></trkpt><trkpt lat="43.8053435" lon="12.4522542"><ele>401.2</ele><time>2026-04-26T09:31:40.546Z</time></trkpt><trkpt lat="43.8054471" lon="12.4523441"><ele>398.0</ele><time>2026-04-26T09:31:41.545Z</time></trkpt><trkpt lat="43.8055524" lon="12.4524699"><ele>398.0</ele><time>2026-04-26T09:31:42.546Z</time></trkpt><trkpt lat="43.805647" lon="12.4526037"><ele>398.0</ele><time>2026-04-26T09:31:43.545Z</time></trkpt><trkpt lat="43.8057482" lon="12.4527191"><ele>398.0</ele><time>2026-04-26T09:31:44.546Z</time></trkpt><trkpt lat="43.8058708" lon="12.4528043"><ele>398.0</ele><time>2026-04-26T09:31:45.546Z</time></trkpt><trkpt lat="43.8060049" lon="12.4528754"><ele>397.5</ele><time>2026-04-26T09:31:46.546Z</time></trkpt><trkpt lat="43.8061459" lon="12.4529335"><ele>397.0</ele><time>2026-04-26T09:31:47.546Z</time></trkpt><trkpt lat="43.8062783" lon="12.4529906"><ele>396.5</ele><time>2026-04-26T09:31:48.545Z</time></trkpt><trkpt lat="43.8063983" lon="12.4530434"><ele>396.0</ele><time>2026-04-26T09:31:49.546Z</time></trkpt><trkpt lat="43.8065066" lon="12.4530868"><ele>396.0</ele><time>2026-04-26T09:31:50.545Z</time></trkpt><trkpt lat="43.8066073" lon="12.4531025"><ele>396.0</ele><time>2026-04-26T09:31:51.546Z</time></trkpt><trkpt lat="43.8067108" lon="12.4530809"><ele>396.0</ele><time>2026-04-26T09:31:52.546Z</time></trkpt><trkpt lat="43.8068103" lon="12.4530127"><ele>396.0</ele><time>2026-04-26T09:31:53.546Z</time></trkpt><trkpt lat="43.8068943" lon="12.4529044"><ele>396.0</ele><time>2026-04-26T09:31:54.546Z</time></trkpt><trkpt lat="43.806972" lon="12.4527615"><ele>393.33333333333337</ele><time>2026-04-26T09:31:55.546Z</time></trkpt><trkpt lat="43.8070529" lon="12.4525798"><ele>390.6666666666667</ele><time>2026-04-26T09:31:56.546Z</time></trkpt><trkpt lat="43.807137" lon="12.4523934"><ele>388.0</ele><time>2026-04-26T09:31:57.546Z</time></trkpt><trkpt lat="43.807219" lon="12.4522131"><ele>385.75</ele><time>2026-04-26T09:31:58.546Z</time></trkpt><trkpt lat="43.8072968" lon="12.4520515"><ele>383.5</ele><time>2026-04-26T09:31:59.546Z</time></trkpt><trkpt lat="43.8073571" lon="12.4519007"><ele>381.25</ele><time>2026-04-26T09:32:00.546Z</time></trkpt><trkpt lat="43.8074045" lon="12.4517449"><ele>379.0</ele><time>2026-04-26T09:32:01.546Z</time></trkpt><trkpt lat="43.80744" lon="12.4515773"><ele>379.0</ele><time>2026-04-26T09:32:02.546Z</time></trkpt><trkpt lat="43.8074608" lon="12.4513963"><ele>379.0</ele><time>2026-04-26T09:32:03.546Z</time></trkpt><trkpt lat="43.8074718" lon="12.4512138"><ele>379.0</ele><time>2026-04-26T09:32:04.546Z</time></trkpt><trkpt lat="43.807481" lon="12.451036"><ele>379.0</ele><time>2026-04-26T09:32:05.546Z</time></trkpt><trkpt lat="43.8075015" lon="12.4508609"><ele>377.0</ele><time>2026-04-26T09:32:06.546Z</time></trkpt><trkpt lat="43.8075313" lon="12.4506862"><ele>375.0</ele><time>2026-04-26T09:32:07.545Z</time></trkpt><trkpt lat="43.8075719" lon="12.4505215"><ele>373.0</ele><time>2026-04-26T09:32:08.546Z</time></trkpt><trkpt lat="43.8076196" lon="12.450362"><ele>371.0</ele><time>2026-04-26T09:32:09.545Z</time></trkpt><trkpt lat="43.8076625" lon="12.4502007"><ele>371.0</ele><time>2026-04-26T09:32:10.546Z</time></trkpt><trkpt lat="43.8076863" lon="12.4500339"><ele>371.0</ele><time>2026-04-26T09:32:11.546Z</time></trkpt><trkpt lat="43.8076868" lon="12.4498531"><ele>371.0</ele><time>2026-04-26T09:32:12.546Z</time></trkpt><trkpt lat="43.8076567" lon="12.449654"><ele>371.0</ele><time>2026-04-26T09:32:13.546Z</time></trkpt><trkpt lat="43.8076085" lon="12.4494633"><ele>369.75</ele><time>2026-04-26T09:32:14.546Z</time></trkpt><trkpt lat="43.8075433" lon="12.449295"><ele>368.5</ele><time>2026-04-26T09:32:15.546Z</time></trkpt><trkpt lat="43.8074717" lon="12.449155"><ele>367.25</ele><time>2026-04-26T09:32:16.546Z</time></trkpt><trkpt lat="43.8073717" lon="12.44904"><ele>366.0</ele><time>2026-04-26T09:32:17.546Z</time></trkpt><trkpt lat="43.80726" lon="12.448935"><ele>366.0</ele><time>2026-04-26T09:32:18.546Z</time></trkpt><trkpt lat="43.807145" lon="12.44886"><ele>366.0</ele><time>2026-04-26T09:32:19.546Z</time></trkpt><trkpt lat="43.80704" lon="12.4487783"><ele>366.0</ele><time>2026-04-26T09:32:20.546Z</time></trkpt><trkpt lat="43.8069433" lon="12.4486517"><ele>366.0</ele><time>2026-04-26T09:32:21.546Z</time></trkpt><trkpt lat="43.8068483" lon="12.4485017"><ele>366.25</ele><time>2026-04-26T09:32:22.546Z</time></trkpt><trkpt lat="43.8067683" lon="12.44834"><ele>366.5</ele><time>2026-04-26T09:32:23.546Z</time></trkpt><trkpt lat="43.8066983" lon="12.448205"><ele>366.75</ele><time>2026-04-26T09:32:24.545Z</time></trkpt><trkpt lat="43.80663" lon="12.4480767"><ele>367.0</ele><time>2026-04-26T09:32:25.545Z</time></trkpt><trkpt lat="43.8065667" lon="12.44796"><ele>370.25</ele><time>2026-04-26T09:32:26.545Z</time></trkpt><trkpt lat="43.8065017" lon="12.4478333"><ele>373.5</ele><time>2026-04-26T09:32:27.546Z</time></trkpt><trkpt lat="43.8064383" lon="12.4476783"><ele>376.75</ele><time>2026-04-26T09:32:28.546Z</time></trkpt><trkpt lat="43.8063767" lon="12.4475117"><ele>380.0</ele><time>2026-04-26T09:32:29.545Z</time></trkpt><trkpt lat="43.8063133" lon="12.447345"><ele>380.0</ele><time>2026-04-26T09:32:30.545Z</time></trkpt><trkpt lat="43.8062567" lon="12.447175"><ele>380.0</ele><time>2026-04-26T09:32:31.546Z</time></trkpt><trkpt lat="43.8061933" lon="12.4470033"><ele>380.0</ele><time>2026-04-26T09:32:32.545Z</time></trkpt><trkpt lat="43.806115" lon="12.4468283"><ele>380.0</ele><time>2026-04-26T09:32:33.546Z</time></trkpt><trkpt lat="43.80604" lon="12.4466533"><ele>375.25</ele><time>2026-04-26T09:32:34.546Z</time></trkpt><trkpt lat="43.8059733" lon="12.4464917"><ele>370.5</ele><time>2026-04-26T09:32:35.545Z</time></trkpt><trkpt lat="43.80591" lon="12.4463433"><ele>365.75</ele><time>2026-04-26T09:32:36.545Z</time></trkpt><trkpt lat="43.80583" lon="12.44619"><ele>361.0</ele><time>2026-04-26T09:32:37.546Z</time></trkpt><trkpt lat="43.8057633" lon="12.4460433"><ele>361.0</ele><time>2026-04-26T09:32:38.546Z</time></trkpt><trkpt lat="43.8057133" lon="12.4459"><ele>361.0</ele><time>2026-04-26T09:32:39.546Z</time></trkpt><trkpt lat="43.8056783" lon="12.44576"><ele>361.0</ele><time>2026-04-26T09:32:40.546Z</time></trkpt><trkpt lat="43.80565" lon="12.44563"><ele>361.0</ele><time>2026-04-26T09:32:41.546Z</time></trkpt><trkpt lat="43.8056317" lon="12.44552"><ele>361.0</ele><time>2026-04-26T09:32:42.546Z</time></trkpt><trkpt lat="43.8056167" lon="12.44542"><ele>359.8333333333333</ele><time>2026-04-26T09:32:43.546Z</time></trkpt><trkpt lat="43.805605" lon="12.4453167"><ele>358.66666666666663</ele><time>2026-04-26T09:32:44.546Z</time></trkpt><trkpt lat="43.8055983" lon="12.4452217"><ele>357.5</ele><time>2026-04-26T09:32:45.546Z</time></trkpt><trkpt lat="43.8056017" lon="12.4450983"><ele>356.3333333333333</ele><time>2026-04-26T09:32:46.546Z</time></trkpt><trkpt lat="43.805625" lon="12.44496"><ele>355.1666666666667</ele><time>2026-04-26T09:32:47.546Z</time></trkpt><trkpt lat="43.805665" lon="12.4448217"><ele>354.0</ele><time>2026-04-26T09:32:48.546Z</time></trkpt><trkpt lat="43.8057133" lon="12.4446883"><ele>352.3333333333333</ele><time>2026-04-26T09:32:49.546Z</time></trkpt><trkpt lat="43.8058017" lon="12.4445433"><ele>350.66666666666663</ele><time>2026-04-26T09:32:50.546Z</time></trkpt><trkpt lat="43.805925" lon="12.4443983"><ele>349.0</ele><time>2026-04-26T09:32:51.546Z</time></trkpt><trkpt lat="43.8060767" lon="12.4442417"><ele>349.0</ele><time>2026-04-26T09:32:52.546Z</time></trkpt><trkpt lat="43.8062467" lon="12.444065"><ele>349.0</ele><time>2026-04-26T09:32:53.546Z</time></trkpt><trkpt lat="43.8064167" lon="12.4438883"><ele>349.0</ele><time>2026-04-26T09:32:54.546Z</time></trkpt><trkpt lat="43.80658" lon="12.44373"><ele>345.0</ele><time>2026-04-26T09:32:55.546Z</time></trkpt><trkpt lat="43.8067283" lon="12.443605"><ele>341.0</ele><time>2026-04-26T09:32:56.546Z</time></trkpt><trkpt lat="43.8068667" lon="12.443525"><ele>337.0</ele><time>2026-04-26T09:32:57.546Z</time></trkpt><trkpt lat="43.8070167" lon="12.4434717"><ele>337.0</ele><time>2026-04-26T09:32:58.546Z</time></trkpt><trkpt lat="43.8071767" lon="12.4434333"><ele>337.0</ele><time>2026-04-26T09:32:59.546Z</time></trkpt><trkpt lat="43.80735" lon="12.44342"><ele>337.0</ele><time>2026-04-26T09:33:00.546Z</time></trkpt><trkpt lat="43.80751" lon="12.443415"><ele>337.0</ele><time>2026-04-26T09:33:01.546Z</time></trkpt><trkpt lat="43.8076583" lon="12.4434117"><ele>337.0</ele><time>2026-04-26T09:33:02.546Z</time></trkpt><trkpt lat="43.8078117" lon="12.4434117"><ele>337.0</ele><time>2026-04-26T09:33:03.546Z</time></trkpt><trkpt lat="43.8079717" lon="12.4434067"><ele>336.0</ele><time>2026-04-26T09:33:04.545Z</time></trkpt><trkpt lat="43.8081533" lon="12.4434033"><ele>335.0</ele><time>2026-04-26T09:33:05.545Z</time></trkpt><trkpt lat="43.808325" lon="12.4434033"><ele>334.0</ele><time>2026-04-26T09:33:06.546Z</time></trkpt><trkpt lat="43.8084983" lon="12.4434"><ele>334.0</ele><time>2026-04-26T09:33:07.545Z</time></trkpt><trkpt lat="43.8086683" lon="12.4433917"><ele>334.0</ele><time>2026-04-26T09:33:08.545Z</time></trkpt><trkpt lat="43.808835" lon="12.4433917"><ele>334.0</ele><time>2026-04-26T09:33:09.545Z</time></trkpt><trkpt lat="43.8089767" lon="12.44339"><ele>334.0</ele><time>2026-04-26T09:33:10.546Z</time></trkpt><trkpt lat="43.8090983" lon="12.4433867"><ele>334.0</ele><time>2026-04-26T09:33:11.545Z</time></trkpt><trkpt lat="43.8092033" lon="12.4433583"><ele>334.0</ele><time>2026-04-26T09:33:12.546Z</time></trkpt><trkpt lat="43.8092867" lon="12.4433017"><ele>334.0</ele><time>2026-04-26T09:33:13.546Z</time></trkpt><trkpt lat="43.8093433" lon="12.4432367"><ele>334.0</ele><time>2026-04-26T09:33:14.546Z</time></trkpt><trkpt lat="43.8094233" lon="12.4431333"><ele>335.75</ele><time>2026-04-26T09:33:16.546Z</time></trkpt><trkpt lat="43.8094917" lon="12.443095"><ele>337.5</ele><time>2026-04-26T09:33:17.546Z</time></trkpt><trkpt lat="43.8095867" lon="12.44307"><ele>339.25</ele><time>2026-04-26T09:33:18.545Z</time></trkpt><trkpt lat="43.80973" lon="12.4430717"><ele>341.0</ele><time>2026-04-26T09:33:19.546Z</time></trkpt><trkpt lat="43.8098917" lon="12.4430767"><ele>341.0</ele><time>2026-04-26T09:33:20.546Z</time></trkpt><trkpt lat="43.810045" lon="12.4430883"><ele>341.0</ele><time>2026-04-26T09:33:21.546Z</time></trkpt><trkpt lat="43.8101967" lon="12.44312"><ele>341.0</ele><time>2026-04-26T09:33:22.546Z</time></trkpt><trkpt lat="43.8103717" lon="12.443175"><ele>341.6666666666667</ele><time>2026-04-26T09:33:23.546Z</time></trkpt><trkpt lat="43.8105567" lon="12.4432283"><ele>342.3333333333333</ele><time>2026-04-26T09:33:24.546Z</time></trkpt><trkpt lat="43.81073" lon="12.4432783"><ele>343.0</ele><time>2026-04-26T09:33:25.545Z</time></trkpt><trkpt lat="43.810895" lon="12.4433383"><ele>340.3333333333333</ele><time>2026-04-26T09:33:26.546Z</time></trkpt><trkpt lat="43.811055" lon="12.4434033"><ele>337.6666666666667</ele><time>2026-04-26T09:33:27.546Z</time></trkpt><trkpt lat="43.8112133" lon="12.4434817"><ele>335.0</ele><time>2026-04-26T09:33:28.546Z</time></trkpt><trkpt lat="43.8113617" lon="12.4435617"><ele>335.0</ele><time>2026-04-26T09:33:29.545Z</time></trkpt><trkpt lat="43.811515" lon="12.4436533"><ele>335.0</ele><time>2026-04-26T09:33:30.546Z</time></trkpt><trkpt lat="43.8116867" lon="12.4436933"><ele>335.0</ele><time>2026-04-26T09:33:31.545Z</time></trkpt><trkpt lat="43.8118833" lon="12.4437383"><ele>335.0</ele><time>2026-04-26T09:33:32.545Z</time></trkpt><trkpt lat="43.812075" lon="12.443755"><ele>335.0</ele><time>2026-04-26T09:33:33.546Z</time></trkpt><trkpt lat="43.8122583" lon="12.443775"><ele>335.0</ele><time>2026-04-26T09:33:34.546Z</time></trkpt><trkpt lat="43.8124383" lon="12.443795"><ele>336.6666666666667</ele><time>2026-04-26T09:33:35.545Z</time></trkpt><trkpt lat="43.8126283" lon="12.4438583"><ele>338.3333333333333</ele><time>2026-04-26T09:33:36.546Z</time></trkpt><trkpt lat="43.812805" lon="12.4439117"><ele>340.0</ele><time>2026-04-26T09:33:37.546Z</time></trkpt><trkpt lat="43.81298" lon="12.44398"><ele>340.0</ele><time>2026-04-26T09:33:38.546Z</time></trkpt><trkpt lat="43.8131617" lon="12.4440767"><ele>340.0</ele><time>2026-04-26T09:33:39.545Z</time></trkpt><trkpt lat="43.81335" lon="12.444195"><ele>340.0</ele><time>2026-04-26T09:33:40.546Z</time></trkpt><trkpt lat="43.8135433" lon="12.44433"><ele>341.66666666666663</ele><time>2026-04-26T09:33:41.546Z</time></trkpt><trkpt lat="43.8137217" lon="12.44447"><ele>343.3333333333333</ele><time>2026-04-26T09:33:42.546Z</time></trkpt><trkpt lat="43.81387" lon="12.4445983"><ele>345.0</ele><time>2026-04-26T09:33:43.545Z</time></trkpt><trkpt lat="43.814" lon="12.4447317"><ele>345.0</ele><time>2026-04-26T09:33:44.545Z</time></trkpt><trkpt lat="43.814125" lon="12.444875"><ele>345.0</ele><time>2026-04-26T09:33:45.546Z</time></trkpt><trkpt lat="43.8142483" lon="12.4450267"><ele>345.0</ele><time>2026-04-26T09:33:46.546Z</time></trkpt><trkpt lat="43.8143583" lon="12.4451717"><ele>346.6</ele><time>2026-04-26T09:33:47.546Z</time></trkpt><trkpt lat="43.814455" lon="12.4453067"><ele>348.2</ele><time>2026-04-26T09:33:48.546Z</time></trkpt><trkpt lat="43.8145367" lon="12.4454217"><ele>349.79999999999995</ele><time>2026-04-26T09:33:49.546Z</time></trkpt><trkpt lat="43.8146017" lon="12.4455133"><ele>351.4</ele><time>2026-04-26T09:33:50.545Z</time></trkpt><trkpt lat="43.8146667" lon="12.4455683"><ele>353.0</ele><time>2026-04-26T09:33:51.545Z</time></trkpt><trkpt lat="43.814745" lon="12.4455783"><ele>353.0</ele><time>2026-04-26T09:33:52.545Z</time></trkpt><trkpt lat="43.8148417" lon="12.445525"><ele>353.0</ele><time>2026-04-26T09:33:53.545Z</time></trkpt><trkpt lat="43.8149717" lon="12.4454467"><ele>353.0</ele><time>2026-04-26T09:33:54.546Z</time></trkpt><trkpt lat="43.8151433" lon="12.4453667"><ele>353.0</ele><time>2026-04-26T09:33:55.545Z</time></trkpt><trkpt lat="43.8153267" lon="12.4452833"><ele>356.6666666666667</ele><time>2026-04-26T09:33:56.545Z</time></trkpt><trkpt lat="43.81552" lon="12.445195"><ele>360.3333333333333</ele><time>2026-04-26T09:33:57.545Z</time></trkpt><trkpt lat="43.8157033" lon="12.4451033"><ele>364.0</ele><time>2026-04-26T09:33:58.546Z</time></trkpt><trkpt lat="43.8158783" lon="12.4450167"><ele>373.3333333333333</ele><time>2026-04-26T09:33:59.546Z</time></trkpt><trkpt lat="43.8160233" lon="12.4449217"><ele>382.66666666666663</ele><time>2026-04-26T09:34:00.546Z</time></trkpt><trkpt lat="43.8161467" lon="12.4448017"><ele>392.0</ele><time>2026-04-26T09:34:01.546Z</time></trkpt><trkpt lat="43.81625" lon="12.4446483"><ele>388.3333333333333</ele><time>2026-04-26T09:34:02.545Z</time></trkpt><trkpt lat="43.81634" lon="12.4444583"><ele>384.66666666666663</ele><time>2026-04-26T09:34:03.546Z</time></trkpt><trkpt lat="43.8164283" lon="12.4442383"><ele>381.0</ele><time>2026-04-26T09:34:04.546Z</time></trkpt><trkpt lat="43.8165133" lon="12.4440217"><ele>381.0</ele><time>2026-04-26T09:34:05.545Z</time></trkpt><trkpt lat="43.816595" lon="12.443865"><ele>381.0</ele><time>2026-04-26T09:34:06.546Z</time></trkpt><trkpt lat="43.8166967" lon="12.4437433"><ele>381.0</ele><time>2026-04-26T09:34:07.546Z</time></trkpt><trkpt lat="43.8168217" lon="12.4436367"><ele>381.0</ele><time>2026-04-26T09:34:08.546Z</time></trkpt><trkpt lat="43.81697" lon="12.4435467"><ele>381.6666666666667</ele><time>2026-04-26T09:34:09.546Z</time></trkpt><trkpt lat="43.8171383" lon="12.4434567"><ele>382.33333333333337</ele><time>2026-04-26T09:34:10.546Z</time></trkpt><trkpt lat="43.8173133" lon="12.4433983"><ele>383.0</ele><time>2026-04-26T09:34:11.546Z</time></trkpt><trkpt lat="43.8174817" lon="12.4433567"><ele>383.0</ele><time>2026-04-26T09:34:12.545Z</time></trkpt><trkpt lat="43.8176467" lon="12.4433317"><ele>383.0</ele><time>2026-04-26T09:34:13.546Z</time></trkpt><trkpt lat="43.8178083" lon="12.4433283"><ele>383.0</ele><time>2026-04-26T09:34:14.546Z</time></trkpt><trkpt lat="43.8179683" lon="12.4433567"><ele>383.33333333333337</ele><time>2026-04-26T09:34:15.546Z</time></trkpt><trkpt lat="43.8181333" lon="12.4434167"><ele>383.6666666666667</ele><time>2026-04-26T09:34:16.546Z</time></trkpt><trkpt lat="43.8183283" lon="12.4435"><ele>384.0</ele><time>2026-04-26T09:34:17.546Z</time></trkpt><trkpt lat="43.818515" lon="12.4435633"><ele>385.66666666666663</ele><time>2026-04-26T09:34:18.546Z</time></trkpt><trkpt lat="43.818675" lon="12.4436167"><ele>387.3333333333333</ele><time>2026-04-26T09:34:19.546Z</time></trkpt><trkpt lat="43.8188133" lon="12.4436883"><ele>389.0</ele><time>2026-04-26T09:34:20.546Z</time></trkpt><trkpt lat="43.8189367" lon="12.44379"><ele>391.66666666666663</ele><time>2026-04-26T09:34:21.546Z</time></trkpt><trkpt lat="43.8190567" lon="12.4439167"><ele>394.33333333333337</ele><time>2026-04-26T09:34:22.546Z</time></trkpt><trkpt lat="43.81919" lon="12.444035"><ele>397.0</ele><time>2026-04-26T09:34:23.546Z</time></trkpt><trkpt lat="43.8193467" lon="12.4441133"><ele>398.33333333333337</ele><time>2026-04-26T09:34:24.546Z</time></trkpt><trkpt lat="43.8195167" lon="12.4441533"><ele>399.66666666666663</ele><time>2026-04-26T09:34:25.546Z</time></trkpt><trkpt lat="43.8197133" lon="12.4441517"><ele>401.0</ele><time>2026-04-26T09:34:26.546Z</time></trkpt><trkpt lat="43.819925" lon="12.4441183"><ele>406.5</ele><time>2026-04-26T09:34:27.546Z</time></trkpt><trkpt lat="43.820175" lon="12.4440783"><ele>412.0</ele><time>2026-04-26T09:34:28.546Z</time></trkpt><trkpt lat="43.8204033" lon="12.4439817"><ele>412.0</ele><time>2026-04-26T09:34:29.546Z</time></trkpt><trkpt lat="43.82064" lon="12.443875"><ele>412.0</ele><time>2026-04-26T09:34:30.546Z</time></trkpt><trkpt lat="43.820855" lon="12.4437817"><ele>418.33333333333337</ele><time>2026-04-26T09:34:31.546Z</time></trkpt><trkpt lat="43.82104" lon="12.443705"><ele>424.66666666666663</ele><time>2026-04-26T09:34:32.546Z</time></trkpt><trkpt lat="43.82119" lon="12.4436533"><ele>431.0</ele><time>2026-04-26T09:34:33.546Z</time></trkpt><trkpt lat="43.8212983" lon="12.44364"><ele>431.0</ele><time>2026-04-26T09:34:34.545Z</time></trkpt><trkpt lat="43.8214017" lon="12.4436667"><ele>431.0</ele><time>2026-04-26T09:34:35.546Z</time></trkpt><trkpt lat="43.8214917" lon="12.4437283"><ele>431.0</ele><time>2026-04-26T09:34:36.546Z</time></trkpt><trkpt lat="43.8215717" lon="12.4438183"><ele>431.0</ele><time>2026-04-26T09:34:37.546Z</time></trkpt><trkpt lat="43.821645" lon="12.4439433"><ele>431.0</ele><time>2026-04-26T09:34:38.545Z</time></trkpt><trkpt lat="43.8217067" lon="12.4441017"><ele>430.25</ele><time>2026-04-26T09:34:39.546Z</time></trkpt><trkpt lat="43.8217567" lon="12.444275"><ele>429.5</ele><time>2026-04-26T09:34:40.546Z</time></trkpt><trkpt lat="43.8217833" lon="12.4444667"><ele>428.75</ele><time>2026-04-26T09:34:41.546Z</time></trkpt><trkpt lat="43.8217767" lon="12.44467"><ele>428.0</ele><time>2026-04-26T09:34:42.546Z</time></trkpt><trkpt lat="43.82175" lon="12.4448817"><ele>428.0</ele><time>2026-04-26T09:34:43.546Z</time></trkpt><trkpt lat="43.821725" lon="12.44506"><ele>427.99999999999994</ele><time>2026-04-26T09:34:44.546Z</time></trkpt><trkpt lat="43.82171" lon="12.4452133"><ele>427.99999999999994</ele><time>2026-04-26T09:34:45.545Z</time></trkpt><trkpt lat="43.8217133" lon="12.4453183"><ele>428.0</ele><time>2026-04-26T09:34:46.545Z</time></trkpt><trkpt lat="43.8217833" lon="12.4454583"><ele>428.0</ele><time>2026-04-26T09:34:48.546Z</time></trkpt><trkpt lat="43.8218617" lon="12.4454833"><ele>433.3333333333333</ele><time>2026-04-26T09:34:49.546Z</time></trkpt><trkpt lat="43.8219833" lon="12.445455"><ele>438.66666666666663</ele><time>2026-04-26T09:34:50.545Z</time></trkpt><trkpt lat="43.82212" lon="12.4453883"><ele>444.0</ele><time>2026-04-26T09:34:51.546Z</time></trkpt><trkpt lat="43.8222833" lon="12.44527"><ele>444.0</ele><time>2026-04-26T09:34:52.546Z</time></trkpt><trkpt lat="43.82246" lon="12.4451333"><ele>444.0</ele><time>2026-04-26T09:34:53.546Z</time></trkpt><trkpt lat="43.82266" lon="12.4449883"><ele>444.0</ele><time>2026-04-26T09:34:54.546Z</time></trkpt><trkpt lat="43.822865" lon="12.4448383"><ele>451.5</ele><time>2026-04-26T09:34:55.546Z</time></trkpt><trkpt lat="43.82308" lon="12.4446833"><ele>459.0</ele><time>2026-04-26T09:34:56.546Z</time></trkpt><trkpt lat="43.8232733" lon="12.444535"><ele>459.0</ele><time>2026-04-26T09:34:57.546Z</time></trkpt><trkpt lat="43.8234567" lon="12.4443883"><ele>459.0</ele><time>2026-04-26T09:34:58.546Z</time></trkpt><trkpt lat="43.8236433" lon="12.444235"><ele>459.0</ele><time>2026-04-26T09:34:59.546Z</time></trkpt><trkpt lat="43.8238233" lon="12.4440933"><ele>463.0</ele><time>2026-04-26T09:35:00.546Z</time></trkpt><trkpt lat="43.8239883" lon="12.44397"><ele>467.0</ele><time>2026-04-26T09:35:01.546Z</time></trkpt><trkpt lat="43.8241383" lon="12.4438417"><ele>471.0</ele><time>2026-04-26T09:35:02.545Z</time></trkpt><trkpt lat="43.8242633" lon="12.4437"><ele>473.75</ele><time>2026-04-26T09:35:03.546Z</time></trkpt><trkpt lat="43.8243633" lon="12.4435517"><ele>476.5</ele><time>2026-04-26T09:35:04.545Z</time></trkpt><trkpt lat="43.8244433" lon="12.4434017"><ele>479.25</ele><time>2026-04-26T09:35:05.546Z</time></trkpt><trkpt lat="43.8245283" lon="12.44328"><ele>482.0</ele><time>2026-04-26T09:35:06.545Z</time></trkpt><trkpt lat="43.8246017" lon="12.4431867"><ele>482.0</ele><time>2026-04-26T09:35:07.546Z</time></trkpt><trkpt lat="43.82468" lon="12.4431317"><ele>482.0</ele><time>2026-04-26T09:35:08.546Z</time></trkpt><trkpt lat="43.8247817" lon="12.44311"><ele>482.0</ele><time>2026-04-26T09:35:09.546Z</time></trkpt><trkpt lat="43.8249167" lon="12.44315"><ele>482.0</ele><time>2026-04-26T09:35:10.546Z</time></trkpt><trkpt lat="43.8250733" lon="12.4432217"><ele>483.16666666666663</ele><time>2026-04-26T09:35:11.546Z</time></trkpt><trkpt lat="43.8251983" lon="12.44327"><ele>484.3333333333333</ele><time>2026-04-26T09:35:12.545Z</time></trkpt><trkpt lat="43.825295" lon="12.4433183"><ele>485.5</ele><time>2026-04-26T09:35:13.545Z</time></trkpt><trkpt lat="43.82536" lon="12.4433583"><ele>486.66666666666663</ele><time>2026-04-26T09:35:14.546Z</time></trkpt><trkpt lat="43.8254267" lon="12.443365"><ele>487.8333333333333</ele><time>2026-04-26T09:35:16.546Z</time></trkpt><trkpt lat="43.8254583" lon="12.4432667"><ele>489.0</ele><time>2026-04-26T09:35:18.546Z</time></trkpt><trkpt lat="43.825455" lon="12.4431483"><ele>489.0</ele><time>2026-04-26T09:35:19.545Z</time></trkpt><trkpt lat="43.82546" lon="12.4429867"><ele>489.0</ele><time>2026-04-26T09:35:20.546Z</time></trkpt><trkpt lat="43.8255017" lon="12.4427917"><ele>489.0</ele><time>2026-04-26T09:35:21.545Z</time></trkpt><trkpt lat="43.8255567" lon="12.4426017"><ele>489.0</ele><time>2026-04-26T09:35:22.546Z</time></trkpt><trkpt lat="43.8256517" lon="12.442415"><ele>489.66666666666663</ele><time>2026-04-26T09:35:23.545Z</time></trkpt><trkpt lat="43.8257783" lon="12.442245"><ele>490.3333333333333</ele><time>2026-04-26T09:35:24.546Z</time></trkpt><trkpt lat="43.8259183" lon="12.4420933"><ele>491.0</ele><time>2026-04-26T09:35:25.546Z</time></trkpt><trkpt lat="43.8260867" lon="12.4419667"><ele>494.3333333333333</ele><time>2026-04-26T09:35:26.546Z</time></trkpt><trkpt lat="43.8262667" lon="12.44186"><ele>497.66666666666663</ele><time>2026-04-26T09:35:27.546Z</time></trkpt><trkpt lat="43.8264467" lon="12.4417717"><ele>501.0</ele><time>2026-04-26T09:35:28.546Z</time></trkpt><trkpt lat="43.8266183" lon="12.4416783"><ele>501.0</ele><time>2026-04-26T09:35:29.546Z</time></trkpt><trkpt lat="43.8267783" lon="12.4415333"><ele>501.0</ele><time>2026-04-26T09:35:30.546Z</time></trkpt><trkpt lat="43.82694" lon="12.44136"><ele>501.0</ele><time>2026-04-26T09:35:31.546Z</time></trkpt><trkpt lat="43.8270917" lon="12.4411817"><ele>506.0</ele><time>2026-04-26T09:35:32.546Z</time></trkpt><trkpt lat="43.8272283" lon="12.4409967"><ele>511.0</ele><time>2026-04-26T09:35:33.546Z</time></trkpt><trkpt lat="43.8273433" lon="12.4408217"><ele>516.0</ele><time>2026-04-26T09:35:34.546Z</time></trkpt><trkpt lat="43.8274367" lon="12.44063"><ele>514.6666666666666</ele><time>2026-04-26T09:35:35.545Z</time></trkpt><trkpt lat="43.8275167" lon="12.44041"><ele>513.3333333333333</ele><time>2026-04-26T09:35:36.545Z</time></trkpt><trkpt lat="43.8275833" lon="12.4401583"><ele>512.0</ele><time>2026-04-26T09:35:37.545Z</time></trkpt><trkpt lat="43.8276383" lon="12.4398783"><ele>522.3333333333333</ele><time>2026-04-26T09:35:38.545Z</time></trkpt><trkpt lat="43.8276833" lon="12.439605"><ele>532.6666666666666</ele><time>2026-04-26T09:35:39.546Z</time></trkpt><trkpt lat="43.8277217" lon="12.43936"><ele>543.0</ele><time>2026-04-26T09:35:40.546Z</time></trkpt><trkpt lat="43.827745" lon="12.4391417"><ele>543.0</ele><time>2026-04-26T09:35:41.545Z</time></trkpt><trkpt lat="43.8277367" lon="12.4389567"><ele>543.0</ele><time>2026-04-26T09:35:42.545Z</time></trkpt><trkpt lat="43.827685" lon="12.4387883"><ele>543.0</ele><time>2026-04-26T09:35:43.546Z</time></trkpt><trkpt lat="43.8275983" lon="12.4386217"><ele>543.0</ele><time>2026-04-26T09:35:44.546Z</time></trkpt><trkpt lat="43.82748" lon="12.4384433"><ele>540.6666666666666</ele><time>2026-04-26T09:35:45.546Z</time></trkpt><trkpt lat="43.8273317" lon="12.43826"><ele>538.3333333333333</ele><time>2026-04-26T09:35:46.545Z</time></trkpt><trkpt lat="43.8271633" lon="12.4380667"><ele>536.0</ele><time>2026-04-26T09:35:47.545Z</time></trkpt><trkpt lat="43.8269833" lon="12.4378783"><ele>536.3333333333333</ele><time>2026-04-26T09:35:48.546Z</time></trkpt><trkpt lat="43.826815" lon="12.437715"><ele>536.6666666666666</ele><time>2026-04-26T09:35:49.546Z</time></trkpt><trkpt lat="43.82667" lon="12.43758"><ele>537.0</ele><time>2026-04-26T09:35:50.545Z</time></trkpt><trkpt lat="43.8265583" lon="12.4374483"><ele>537.0</ele><time>2026-04-26T09:35:51.546Z</time></trkpt><trkpt lat="43.826475" lon="12.4373117"><ele>537.0</ele><time>2026-04-26T09:35:52.546Z</time></trkpt><trkpt lat="43.82642" lon="12.4371683"><ele>537.0</ele><time>2026-04-26T09:35:53.545Z</time></trkpt><trkpt lat="43.82639" lon="12.4370317"><ele>537.0</ele><time>2026-04-26T09:35:54.546Z</time></trkpt><trkpt lat="43.8264" lon="12.4369033"><ele>537.0</ele><time>2026-04-26T09:35:55.545Z</time></trkpt><trkpt lat="43.82644" lon="12.4367783"><ele>536.5</ele><time>2026-04-26T09:35:56.546Z</time></trkpt><trkpt lat="43.826515" lon="12.436675"><ele>536.0</ele><time>2026-04-26T09:35:57.546Z</time></trkpt><trkpt lat="43.826615" lon="12.4366067"><ele>535.5</ele><time>2026-04-26T09:35:58.546Z</time></trkpt><trkpt lat="43.8267717" lon="12.4365633"><ele>535.0</ele><time>2026-04-26T09:35:59.545Z</time></trkpt><trkpt lat="43.8269617" lon="12.4365367"><ele>539.6666666666667</ele><time>2026-04-26T09:36:00.546Z</time></trkpt><trkpt lat="43.827165" lon="12.436535"><ele>544.3333333333334</ele><time>2026-04-26T09:36:01.546Z</time></trkpt><trkpt lat="43.8273583" lon="12.4365433"><ele>549.0</ele><time>2026-04-26T09:36:02.546Z</time></trkpt><trkpt lat="43.8275183" lon="12.4365333"><ele>552.75</ele><time>2026-04-26T09:36:03.545Z</time></trkpt><trkpt lat="43.8276517" lon="12.4364983"><ele>556.5</ele><time>2026-04-26T09:36:04.546Z</time></trkpt><trkpt lat="43.827765" lon="12.43641"><ele>560.25</ele><time>2026-04-26T09:36:05.546Z</time></trkpt><trkpt lat="43.8278467" lon="12.4362733"><ele>564.0</ele><time>2026-04-26T09:36:06.546Z</time></trkpt><trkpt lat="43.827915" lon="12.4360917"><ele>564.0</ele><time>2026-04-26T09:36:07.546Z</time></trkpt><trkpt lat="43.8279567" lon="12.43589"><ele>564.0</ele><time>2026-04-26T09:36:08.546Z</time></trkpt><trkpt lat="43.8279667" lon="12.435705"><ele>564.0</ele><time>2026-04-26T09:36:09.546Z</time></trkpt><trkpt lat="43.8280017" lon="12.4355533"><ele>564.0</ele><time>2026-04-26T09:36:10.546Z</time></trkpt><trkpt lat="43.8280817" lon="12.4354133"><ele>567.0</ele><time>2026-04-26T09:36:11.546Z</time></trkpt><trkpt lat="43.8281933" lon="12.43528"><ele>570.0</ele><time>2026-04-26T09:36:12.546Z</time></trkpt><trkpt lat="43.8283333" lon="12.43517"><ele>573.0</ele><time>2026-04-26T09:36:13.546Z</time></trkpt><trkpt lat="43.8284817" lon="12.4351017"><ele>573.0</ele><time>2026-04-26T09:36:14.546Z</time></trkpt><trkpt lat="43.828615" lon="12.4350517"><ele>573.0</ele><time>2026-04-26T09:36:15.546Z</time></trkpt><trkpt lat="43.8287233" lon="12.4349967"><ele>573.0</ele><time>2026-04-26T09:36:16.546Z</time></trkpt><trkpt lat="43.8288117" lon="12.4349183"><ele>573.0</ele><time>2026-04-26T09:36:17.546Z</time></trkpt><trkpt lat="43.8288733" lon="12.4347983"><ele>572.5</ele><time>2026-04-26T09:36:18.546Z</time></trkpt><trkpt lat="43.8289033" lon="12.4346317"><ele>572.0</ele><time>2026-04-26T09:36:19.546Z</time></trkpt><trkpt lat="43.82891" lon="12.4344367"><ele>571.5</ele><time>2026-04-26T09:36:20.546Z</time></trkpt><trkpt lat="43.82892" lon="12.4342217"><ele>571.0</ele><time>2026-04-26T09:36:21.546Z</time></trkpt><trkpt lat="43.8289317" lon="12.4339967"><ele>572.6666666666667</ele><time>2026-04-26T09:36:22.546Z</time></trkpt><trkpt lat="43.8289483" lon="12.433735"><ele>574.3333333333334</ele><time>2026-04-26T09:36:23.545Z</time></trkpt><trkpt lat="43.8289417" lon="12.433455"><ele>576.0</ele><time>2026-04-26T09:36:24.545Z</time></trkpt><trkpt lat="43.82894" lon="12.4332"><ele>577.0</ele><time>2026-04-26T09:36:25.544Z</time></trkpt><trkpt lat="43.8289467" lon="12.43297"><ele>578.0</ele><time>2026-04-26T09:36:26.544Z</time></trkpt><trkpt lat="43.828955" lon="12.4327733"><ele>579.0</ele><time>2026-04-26T09:36:27.544Z</time></trkpt><trkpt lat="43.828985" lon="12.43262"><ele>580.0</ele><time>2026-04-26T09:36:28.544Z</time></trkpt><trkpt lat="43.8290283" lon="12.43253"><ele>580.0</ele><time>2026-04-26T09:36:29.544Z</time></trkpt><trkpt lat="43.8290917" lon="12.4324867"><ele>580.0</ele><time>2026-04-26T09:36:30.544Z</time></trkpt><trkpt lat="43.8291817" lon="12.4325"><ele>580.0</ele><time>2026-04-26T09:36:31.545Z</time></trkpt><trkpt lat="43.8292733" lon="12.43259"><ele>580.0</ele><time>2026-04-26T09:36:32.545Z</time></trkpt><trkpt lat="43.829345" lon="12.4327417"><ele>580.0</ele><time>2026-04-26T09:36:33.545Z</time></trkpt><trkpt lat="43.82942" lon="12.432925"><ele>582.25</ele><time>2026-04-26T09:36:34.544Z</time></trkpt><trkpt lat="43.829495" lon="12.4331167"><ele>584.5</ele><time>2026-04-26T09:36:35.545Z</time></trkpt><trkpt lat="43.8295667" lon="12.4333017"><ele>586.75</ele><time>2026-04-26T09:36:36.545Z</time></trkpt><trkpt lat="43.8296383" lon="12.4334517"><ele>589.0</ele><time>2026-04-26T09:36:37.545Z</time></trkpt><trkpt lat="43.8297183" lon="12.43357"><ele>589.0</ele><time>2026-04-26T09:36:38.545Z</time></trkpt><trkpt lat="43.829805" lon="12.4336417"><ele>589.0</ele><time>2026-04-26T09:36:39.544Z</time></trkpt><trkpt lat="43.8299017" lon="12.4336617"><ele>589.0</ele><time>2026-04-26T09:36:40.544Z</time></trkpt><trkpt lat="43.8299983" lon="12.43363"><ele>589.0</ele><time>2026-04-26T09:36:41.545Z</time></trkpt><trkpt lat="43.8300817" lon="12.4335467"><ele>589.0</ele><time>2026-04-26T09:36:42.545Z</time></trkpt><trkpt lat="43.8301467" lon="12.4333983"><ele>589.5</ele><time>2026-04-26T09:36:43.544Z</time></trkpt><trkpt lat="43.8301817" lon="12.43322"><ele>590.0</ele><time>2026-04-26T09:36:44.545Z</time></trkpt><trkpt lat="43.83018" lon="12.4330217"><ele>590.5</ele><time>2026-04-26T09:36:45.544Z</time></trkpt><trkpt lat="43.8301567" lon="12.4328083"><ele>591.0</ele><time>2026-04-26T09:36:46.544Z</time></trkpt><trkpt lat="43.8301217" lon="12.4325833"><ele>591.6</ele><time>2026-04-26T09:36:47.544Z</time></trkpt><trkpt lat="43.8301017" lon="12.4323833"><ele>592.2</ele><time>2026-04-26T09:36:48.544Z</time></trkpt><trkpt lat="43.8301" lon="12.4322217"><ele>592.8</ele><time>2026-04-26T09:36:49.544Z</time></trkpt><trkpt lat="43.8301" lon="12.4320917"><ele>593.4</ele><time>2026-04-26T09:36:50.545Z</time></trkpt><trkpt lat="43.8301017" lon="12.4319717"><ele>594.0</ele><time>2026-04-26T09:36:51.545Z</time></trkpt><trkpt lat="43.8301133" lon="12.4318717"><ele>594.0</ele><time>2026-04-26T09:36:52.545Z</time></trkpt><trkpt lat="43.8301117" lon="12.4317583"><ele>594.0</ele><time>2026-04-26T09:36:54.544Z</time></trkpt><trkpt lat="43.8300567" lon="12.43182"><ele>594.0</ele><time>2026-04-26T09:36:57.544Z</time></trkpt><trkpt lat="43.83007" lon="12.43197"><ele>594.0</ele><time>2026-04-26T09:36:59.545Z</time></trkpt><trkpt lat="43.8300883" lon="12.4321"><ele>594.0</ele><time>2026-04-26T09:37:00.545Z</time></trkpt><trkpt lat="43.8301067" lon="12.4323067"><ele>594.0</ele><time>2026-04-26T09:37:01.545Z</time></trkpt><trkpt lat="43.8301333" lon="12.4325733"><ele>594.0</ele><time>2026-04-26T09:37:02.544Z</time></trkpt><trkpt lat="43.8301567" lon="12.4328483"><ele>594.0</ele><time>2026-04-26T09:37:03.545Z</time></trkpt><trkpt lat="43.8301683" lon="12.4330633"><ele>593.0</ele><time>2026-04-26T09:37:04.544Z</time></trkpt><trkpt lat="43.83017" lon="12.433225"><ele>592.0</ele><time>2026-04-26T09:37:05.545Z</time></trkpt><trkpt lat="43.830155" lon="12.4333667"><ele>591.0</ele><time>2026-04-26T09:37:06.545Z</time></trkpt><trkpt lat="43.8301167" lon="12.433485"><ele>590.0</ele><time>2026-04-26T09:37:07.544Z</time></trkpt><trkpt lat="43.830055" lon="12.4335667"><ele>589.0</ele><time>2026-04-26T09:37:08.545Z</time></trkpt><trkpt lat="43.82998" lon="12.4336117"><ele>589.0</ele><time>2026-04-26T09:37:09.545Z</time></trkpt><trkpt lat="43.8299083" lon="12.43362"><ele>589.0</ele><time>2026-04-26T09:37:10.544Z</time></trkpt><trkpt lat="43.8298317" lon="12.4336633"><ele>589.0</ele><time>2026-04-26T09:37:12.545Z</time></trkpt><trkpt lat="43.8298633" lon="12.433785"><ele>589.0</ele><time>2026-04-26T09:37:14.544Z</time></trkpt><trkpt lat="43.8299133" lon="12.4338667"><ele>589.0</ele><time>2026-04-26T09:37:15.545Z</time></trkpt><trkpt lat="43.82997" lon="12.4339633"><ele>589.0</ele><time>2026-04-26T09:37:16.545Z</time></trkpt><trkpt lat="43.8300317" lon="12.4340517"><ele>588.3333333333334</ele><time>2026-04-26T09:37:17.544Z</time></trkpt><trkpt lat="43.8300817" lon="12.4341067"><ele>587.6666666666667</ele><time>2026-04-26T09:37:18.544Z</time></trkpt><trkpt lat="43.8301583" lon="12.434135"><ele>587.0</ele><time>2026-04-26T09:37:20.545Z</time></trkpt><trkpt lat="43.8302467" lon="12.4341033"><ele>586.3333333333334</ele><time>2026-04-26T09:37:22.545Z</time></trkpt><trkpt lat="43.8303433" lon="12.4340417"><ele>585.6666666666666</ele><time>2026-04-26T09:37:24.544Z</time></trkpt><trkpt lat="43.830395" lon="12.433945"><ele>585.0</ele><time>2026-04-26T09:37:26.545Z</time></trkpt><trkpt lat="43.8304383" lon="12.4338633"><ele>583.8333333333334</ele><time>2026-04-26T09:37:28.545Z</time></trkpt><trkpt lat="43.8305017" lon="12.4338717"><ele>582.6666666666666</ele><time>2026-04-26T09:37:30.544Z</time></trkpt><trkpt lat="43.8305817" lon="12.4339583"><ele>581.5</ele><time>2026-04-26T09:37:32.544Z</time></trkpt><trkpt lat="43.8306833" lon="12.4340683"><ele>580.3333333333333</ele><time>2026-04-26T09:37:34.545Z</time></trkpt><trkpt lat="43.83074" lon="12.4341317"><ele>579.1666666666666</ele><time>2026-04-26T09:37:35.545Z</time></trkpt><trkpt lat="43.8307967" lon="12.4342"><ele>578.0</ele><time>2026-04-26T09:37:36.545Z</time></trkpt><trkpt lat="43.830845" lon="12.4342617"><ele>578.0</ele><time>2026-04-26T09:37:37.544Z</time></trkpt><trkpt lat="43.8309033" lon="12.4343317"><ele>578.0</ele><time>2026-04-26T09:37:38.544Z</time></trkpt><trkpt lat="43.830955" lon="12.4344033"><ele>578.0</ele><time>2026-04-26T09:37:39.544Z</time></trkpt><trkpt lat="43.8310033" lon="12.4344733"><ele>578.0</ele><time>2026-04-26T09:37:40.545Z</time></trkpt><trkpt lat="43.831055" lon="12.4345383"><ele>578.0</ele><time>2026-04-26T09:37:41.544Z</time></trkpt><trkpt lat="43.8311117" lon="12.43461"><ele>578.0</ele><time>2026-04-26T09:37:42.544Z</time></trkpt><trkpt lat="43.8311733" lon="12.4346817"><ele>578.0</ele><time>2026-04-26T09:37:43.545Z</time></trkpt><trkpt lat="43.8312383" lon="12.434745"><ele>575.5</ele><time>2026-04-26T09:37:44.545Z</time></trkpt><trkpt lat="43.8313133" lon="12.4348133"><ele>573.0</ele><time>2026-04-26T09:37:45.545Z</time></trkpt><trkpt lat="43.831385" lon="12.4348717"><ele>570.5</ele><time>2026-04-26T09:37:46.545Z</time></trkpt><trkpt lat="43.8314567" lon="12.434915"><ele>568.0</ele><time>2026-04-26T09:37:47.544Z</time></trkpt><trkpt lat="43.8315233" lon="12.4349567"><ele>565.5</ele><time>2026-04-26T09:37:48.544Z</time></trkpt><trkpt lat="43.8315933" lon="12.4349933"><ele>563.0</ele><time>2026-04-26T09:37:49.545Z</time></trkpt><trkpt lat="43.8316617" lon="12.4350283"><ele>563.0</ele><time>2026-04-26T09:37:50.545Z</time></trkpt><trkpt lat="43.8317233" lon="12.4350617"><ele>563.0</ele><time>2026-04-26T09:37:51.545Z</time></trkpt><trkpt lat="43.831785" lon="12.4351033"><ele>563.0</ele><time>2026-04-26T09:37:52.545Z</time></trkpt><trkpt lat="43.8318567" lon="12.4351567"><ele>563.0</ele><time>2026-04-26T09:37:53.545Z</time></trkpt><trkpt lat="43.83194" lon="12.4352267"><ele>563.0</ele><time>2026-04-26T09:37:54.544Z</time></trkpt><trkpt lat="43.8320183" lon="12.4352983"><ele>563.0</ele><time>2026-04-26T09:37:55.545Z</time></trkpt><trkpt lat="43.8320733" lon="12.4353817"><ele>562.4</ele><time>2026-04-26T09:37:56.545Z</time></trkpt><trkpt lat="43.8321067" lon="12.435485"><ele>561.8</ele><time>2026-04-26T09:37:57.545Z</time></trkpt><trkpt lat="43.83213" lon="12.43562"><ele>561.2</ele><time>2026-04-26T09:37:58.545Z</time></trkpt><trkpt lat="43.8321517" lon="12.4357667"><ele>560.6</ele><time>2026-04-26T09:37:59.545Z</time></trkpt><trkpt lat="43.8321783" lon="12.43591"><ele>560.0</ele><time>2026-04-26T09:38:00.545Z</time></trkpt><trkpt lat="43.832205" lon="12.4360567"><ele>560.0</ele><time>2026-04-26T09:38:01.545Z</time></trkpt><trkpt lat="43.8322317" lon="12.436205"><ele>560.0</ele><time>2026-04-26T09:38:02.545Z</time></trkpt><trkpt lat="43.8322633" lon="12.4363417"><ele>560.0</ele><time>2026-04-26T09:38:03.545Z</time></trkpt><trkpt lat="43.8323117" lon="12.436485"><ele>560.0</ele><time>2026-04-26T09:38:04.545Z</time></trkpt><trkpt lat="43.8323617" lon="12.43662"><ele>560.0</ele><time>2026-04-26T09:38:05.544Z</time></trkpt><trkpt lat="43.8324167" lon="12.4367467"><ele>559.5</ele><time>2026-04-26T09:38:06.545Z</time></trkpt><trkpt lat="43.8324667" lon="12.4368467"><ele>559.0</ele><time>2026-04-26T09:38:07.545Z</time></trkpt><trkpt lat="43.8325183" lon="12.4369217"><ele>558.5</ele><time>2026-04-26T09:38:08.545Z</time></trkpt><trkpt lat="43.8325633" lon="12.4369833"><ele>558.0</ele><time>2026-04-26T09:38:09.545Z</time></trkpt><trkpt lat="43.8326517" lon="12.4370767"><ele>557.5</ele><time>2026-04-26T09:38:11.545Z</time></trkpt><trkpt lat="43.83258" lon="12.4369867"><ele>557.0</ele><time>2026-04-26T09:42:13.544Z</time></trkpt><trkpt lat="43.8325367" lon="12.4369083"><ele>557.0</ele><time>2026-04-26T09:42:17.543Z</time></trkpt><trkpt lat="43.832605" lon="12.4369433"><ele>557.0</ele><time>2026-04-26T09:42:27.544Z</time></trkpt><trkpt lat="43.832685" lon="12.4370117"><ele>557.0</ele><time>2026-04-26T09:44:30.543Z</time></trkpt><trkpt lat="43.832745" lon="12.4370717"><ele>557.0</ele><time>2026-04-26T09:44:32.544Z</time></trkpt><trkpt lat="43.832825" lon="12.4371667"><ele>557.0</ele><time>2026-04-26T09:44:34.543Z</time></trkpt><trkpt lat="43.8329083" lon="12.4372783"><ele>555.0</ele><time>2026-04-26T09:44:36.543Z</time></trkpt><trkpt lat="43.8329967" lon="12.4373917"><ele>553.0</ele><time>2026-04-26T09:44:38.544Z</time></trkpt><trkpt lat="43.8330467" lon="12.43745"><ele>551.0</ele><time>2026-04-26T09:44:39.544Z</time></trkpt><trkpt lat="43.8331" lon="12.4375033"><ele>549.0</ele><time>2026-04-26T09:44:40.544Z</time></trkpt><trkpt lat="43.833155" lon="12.43755"><ele>547.0</ele><time>2026-04-26T09:44:41.544Z</time></trkpt><trkpt lat="43.8332083" lon="12.4375967"><ele>545.0</ele><time>2026-04-26T09:44:42.544Z</time></trkpt><trkpt lat="43.83326" lon="12.4376467"><ele>543.0</ele><time>2026-04-26T09:44:43.544Z</time></trkpt><trkpt lat="43.8333467" lon="12.4377383"><ele>543.0</ele><time>2026-04-26T09:44:45.544Z</time></trkpt><trkpt lat="43.8334383" lon="12.43785"><ele>543.0</ele><time>2026-04-26T09:44:47.544Z</time></trkpt><trkpt lat="43.833485" lon="12.4379167"><ele>543.0</ele><time>2026-04-26T09:44:48.544Z</time></trkpt><trkpt lat="43.833535" lon="12.4379717"><ele>543.0</ele><time>2026-04-26T09:44:49.544Z</time></trkpt><trkpt lat="43.8336183" lon="12.4380417"><ele>543.0</ele><time>2026-04-26T09:44:51.544Z</time></trkpt><trkpt lat="43.83369" lon="12.43812"><ele>543.0</ele><time>2026-04-26T09:44:53.544Z</time></trkpt><trkpt lat="43.8337567" lon="12.438215"><ele>539.6</ele><time>2026-04-26T09:44:55.543Z</time></trkpt><trkpt lat="43.8338283" lon="12.4383117"><ele>536.1999999999999</ele><time>2026-04-26T09:44:57.544Z</time></trkpt><trkpt lat="43.8338633" lon="12.4384283"><ele>532.8</ele><time>2026-04-26T09:44:59.544Z</time></trkpt><trkpt lat="43.8338717" lon="12.4385467"><ele>529.4</ele><time>2026-04-26T09:45:01.544Z</time></trkpt><trkpt lat="43.833855" lon="12.4386833"><ele>526.0</ele><time>2026-04-26T09:45:03.544Z</time></trkpt><trkpt lat="43.8338417" lon="12.43881"><ele>524.8</ele><time>2026-04-26T09:45:05.544Z</time></trkpt><trkpt lat="43.8338117" lon="12.438935"><ele>523.6</ele><time>2026-04-26T09:45:08.543Z</time></trkpt><trkpt lat="43.8337467" lon="12.4390433"><ele>522.4</ele><time>2026-04-26T09:45:10.543Z</time></trkpt><trkpt lat="43.833645" lon="12.4391483"><ele>521.2</ele><time>2026-04-26T09:45:12.544Z</time></trkpt><trkpt lat="43.8336067" lon="12.4392833"><ele>520.0</ele><time>2026-04-26T09:45:14.543Z</time></trkpt><trkpt lat="43.8336417" lon="12.4394233"><ele>520.0</ele><time>2026-04-26T09:45:16.543Z</time></trkpt><trkpt lat="43.833725" lon="12.4395633"><ele>520.0</ele><time>2026-04-26T09:45:18.543Z</time></trkpt><trkpt lat="43.83377" lon="12.4396333"><ele>520.0</ele><time>2026-04-26T09:45:19.544Z</time></trkpt><trkpt lat="43.833805" lon="12.43971"><ele>520.0</ele><time>2026-04-26T09:45:20.544Z</time></trkpt><trkpt lat="43.833825" lon="12.4398"><ele>520.0</ele><time>2026-04-26T09:45:21.544Z</time></trkpt><trkpt lat="43.833845" lon="12.439905"><ele>520.0</ele><time>2026-04-26T09:45:22.544Z</time></trkpt><trkpt lat="43.8338733" lon="12.4400083"><ele>517.2</ele><time>2026-04-26T09:45:23.544Z</time></trkpt><trkpt lat="43.833875" lon="12.440115"><ele>514.4</ele><time>2026-04-26T09:45:24.544Z</time></trkpt><trkpt lat="43.833935" lon="12.4402617"><ele>511.6</ele><time>2026-04-26T09:45:26.544Z</time></trkpt><trkpt lat="43.8339983" lon="12.44034"><ele>508.8</ele><time>2026-04-26T09:45:27.543Z</time></trkpt><trkpt lat="43.83407" lon="12.4404183"><ele>506.0</ele><time>2026-04-26T09:45:28.544Z</time></trkpt><trkpt lat="43.8341417" lon="12.440505"><ele>504.6</ele><time>2026-04-26T09:45:29.544Z</time></trkpt><trkpt lat="43.834215" lon="12.44059"><ele>503.20000000000005</ele><time>2026-04-26T09:45:30.543Z</time></trkpt><trkpt lat="43.834295" lon="12.44067"><ele>501.79999999999995</ele><time>2026-04-26T09:45:31.544Z</time></trkpt><trkpt lat="43.8343717" lon="12.4407383"><ele>500.4</ele><time>2026-04-26T09:45:32.544Z</time></trkpt><trkpt lat="43.8344433" lon="12.4408067"><ele>499.0</ele><time>2026-04-26T09:45:33.544Z</time></trkpt><trkpt lat="43.8345167" lon="12.4408783"><ele>497.4</ele><time>2026-04-26T09:45:34.544Z</time></trkpt><trkpt lat="43.8345717" lon="12.4409733"><ele>495.79999999999995</ele><time>2026-04-26T09:45:35.544Z</time></trkpt><trkpt lat="43.8346367" lon="12.44107"><ele>494.20000000000005</ele><time>2026-04-26T09:45:36.543Z</time></trkpt><trkpt lat="43.8346883" lon="12.4411767"><ele>492.6</ele><time>2026-04-26T09:45:37.543Z</time></trkpt><trkpt lat="43.83475" lon="12.4412717"><ele>491.0</ele><time>2026-04-26T09:45:38.543Z</time></trkpt><trkpt lat="43.8348067" lon="12.4413567"><ele>490.99999999999994</ele><time>2026-04-26T09:45:39.544Z</time></trkpt><trkpt lat="43.83488" lon="12.4414283"><ele>491.0</ele><time>2026-04-26T09:45:40.543Z</time></trkpt><trkpt lat="43.8349417" lon="12.4414967"><ele>491.0</ele><time>2026-04-26T09:45:41.543Z</time></trkpt><trkpt lat="43.8349967" lon="12.4415617"><ele>491.0</ele><time>2026-04-26T09:45:42.544Z</time></trkpt><trkpt lat="43.83505" lon="12.4417233"><ele>490.99999999999994</ele><time>2026-04-26T09:45:44.544Z</time></trkpt><trkpt lat="43.8350683" lon="12.4418183"><ele>491.0</ele><time>2026-04-26T09:45:45.544Z</time></trkpt><trkpt lat="43.8350983" lon="12.4419717"><ele>490.99999999999994</ele><time>2026-04-26T09:45:47.543Z</time></trkpt><trkpt lat="43.835135" lon="12.4420433"><ele>491.0</ele><time>2026-04-26T09:45:48.544Z</time></trkpt><trkpt lat="43.8351817" lon="12.4421067"><ele>491.0</ele><time>2026-04-26T09:45:49.544Z</time></trkpt><trkpt lat="43.83524" lon="12.4421667"><ele>491.0</ele><time>2026-04-26T09:45:50.543Z</time></trkpt><trkpt lat="43.835285" lon="12.4423083"><ele>490.99999999999994</ele><time>2026-04-26T09:45:52.544Z</time></trkpt><trkpt lat="43.8352933" lon="12.4423983"><ele>491.0</ele><time>2026-04-26T09:45:53.543Z</time></trkpt><trkpt lat="43.83528" lon="12.44256"><ele>488.3333333333333</ele><time>2026-04-26T09:45:55.544Z</time></trkpt><trkpt lat="43.8352667" lon="12.442695"><ele>485.66666666666663</ele><time>2026-04-26T09:45:57.544Z</time></trkpt><trkpt lat="43.83528" lon="12.4428433"><ele>483.0</ele><time>2026-04-26T09:45:59.544Z</time></trkpt><trkpt lat="43.8352917" lon="12.4429333"><ele>480.33333333333337</ele><time>2026-04-26T09:46:00.544Z</time></trkpt><trkpt lat="43.83531" lon="12.4430183"><ele>477.6666666666667</ele><time>2026-04-26T09:46:01.544Z</time></trkpt><trkpt lat="43.8353233" lon="12.4431067"><ele>475.0</ele><time>2026-04-26T09:46:02.544Z</time></trkpt><trkpt lat="43.8353417" lon="12.4432133"><ele>473.83333333333337</ele><time>2026-04-26T09:46:03.544Z</time></trkpt><trkpt lat="43.83536" lon="12.44332"><ele>472.6666666666667</ele><time>2026-04-26T09:46:04.543Z</time></trkpt><trkpt lat="43.8353733" lon="12.4434133"><ele>471.5</ele><time>2026-04-26T09:46:05.544Z</time></trkpt><trkpt lat="43.8353533" lon="12.4435067"><ele>470.33333333333337</ele><time>2026-04-26T09:46:06.544Z</time></trkpt><trkpt lat="43.83533" lon="12.4435933"><ele>469.1666666666667</ele><time>2026-04-26T09:46:07.544Z</time></trkpt><trkpt lat="43.8353267" lon="12.4437617"><ele>468.0</ele><time>2026-04-26T09:46:09.543Z</time></trkpt><trkpt lat="43.8353433" lon="12.4439367"><ele>466.6666666666667</ele><time>2026-04-26T09:46:11.543Z</time></trkpt><trkpt lat="43.835375" lon="12.4440983"><ele>465.33333333333337</ele><time>2026-04-26T09:46:13.543Z</time></trkpt><trkpt lat="43.8354083" lon="12.4441767"><ele>464.0</ele><time>2026-04-26T09:46:14.543Z</time></trkpt><trkpt lat="43.8354317" lon="12.4442683"><ele>462.6666666666667</ele><time>2026-04-26T09:46:15.543Z</time></trkpt><trkpt lat="43.83546" lon="12.4443633"><ele>461.33333333333337</ele><time>2026-04-26T09:46:16.544Z</time></trkpt><trkpt lat="43.8354933" lon="12.4444517"><ele>460.0</ele><time>2026-04-26T09:46:17.544Z</time></trkpt><trkpt lat="43.83554" lon="12.444545"><ele>458.0</ele><time>2026-04-26T09:46:18.543Z</time></trkpt><trkpt lat="43.83557" lon="12.44465"><ele>456.0</ele><time>2026-04-26T09:46:19.544Z</time></trkpt><trkpt lat="43.83562" lon="12.4447517"><ele>454.0</ele><time>2026-04-26T09:46:20.543Z</time></trkpt><trkpt lat="43.8356767" lon="12.4448483"><ele>452.0</ele><time>2026-04-26T09:46:21.544Z</time></trkpt><trkpt lat="43.8357333" lon="12.4449533"><ele>450.0</ele><time>2026-04-26T09:46:22.543Z</time></trkpt><trkpt lat="43.8358017" lon="12.445055"><ele>450.0</ele><time>2026-04-26T09:46:23.543Z</time></trkpt><trkpt lat="43.8358617" lon="12.4451367"><ele>450.0</ele><time>2026-04-26T09:46:24.544Z</time></trkpt><trkpt lat="43.835905" lon="12.4452133"><ele>450.0</ele><time>2026-04-26T09:46:25.544Z</time></trkpt><trkpt lat="43.8359467" lon="12.44529"><ele>450.0</ele><time>2026-04-26T09:46:26.544Z</time></trkpt><trkpt lat="43.8359683" lon="12.4453767"><ele>450.0</ele><time>2026-04-26T09:46:27.544Z</time></trkpt><trkpt lat="43.8359867" lon="12.445475"><ele>450.0</ele><time>2026-04-26T09:46:28.544Z</time></trkpt><trkpt lat="43.8359883" lon="12.44562"><ele>449.5</ele><time>2026-04-26T09:46:29.543Z</time></trkpt><trkpt lat="43.8359883" lon="12.44577"><ele>449.0</ele><time>2026-04-26T09:46:30.543Z</time></trkpt><trkpt lat="43.8359717" lon="12.445895"><ele>448.5</ele><time>2026-04-26T09:46:31.544Z</time></trkpt><trkpt lat="43.8359583" lon="12.4459967"><ele>448.0</ele><time>2026-04-26T09:46:32.544Z</time></trkpt><trkpt lat="43.835935" lon="12.446085"><ele>447.5</ele><time>2026-04-26T09:46:33.544Z</time></trkpt><trkpt lat="43.8359067" lon="12.44617"><ele>447.0</ele><time>2026-04-26T09:46:34.544Z</time></trkpt><trkpt lat="43.8358933" lon="12.446335"><ele>446.20000000000005</ele><time>2026-04-26T09:46:36.544Z</time></trkpt><trkpt lat="43.8359267" lon="12.4464317"><ele>445.40000000000003</ele><time>2026-04-26T09:46:37.543Z</time></trkpt><trkpt lat="43.8359767" lon="12.4465233"><ele>444.59999999999997</ele><time>2026-04-26T09:46:38.544Z</time></trkpt><trkpt lat="43.83604" lon="12.4466333"><ele>443.79999999999995</ele><time>2026-04-26T09:46:39.543Z</time></trkpt><trkpt lat="43.8360933" lon="12.4467583"><ele>443.0</ele><time>2026-04-26T09:46:40.544Z</time></trkpt><trkpt lat="43.8361383" lon="12.4468967"><ele>443.0</ele><time>2026-04-26T09:46:41.543Z</time></trkpt><trkpt lat="43.8361883" lon="12.4470317"><ele>442.99999999999994</ele><time>2026-04-26T09:46:42.544Z</time></trkpt><trkpt lat="43.836235" lon="12.4471583"><ele>442.99999999999994</ele><time>2026-04-26T09:46:43.544Z</time></trkpt><trkpt lat="43.8362717" lon="12.447275"><ele>443.0</ele><time>2026-04-26T09:46:44.544Z</time></trkpt><trkpt lat="43.8363" lon="12.44738"><ele>443.0</ele><time>2026-04-26T09:46:45.544Z</time></trkpt><trkpt lat="43.8363183" lon="12.4474833"><ele>442.99999999999994</ele><time>2026-04-26T09:46:46.544Z</time></trkpt><trkpt lat="43.8363233" lon="12.4476"><ele>443.0</ele><time>2026-04-26T09:46:47.544Z</time></trkpt><trkpt lat="43.83632" lon="12.4477217"><ele>443.0</ele><time>2026-04-26T09:46:48.544Z</time></trkpt><trkpt lat="43.8363183" lon="12.447845"><ele>443.0</ele><time>2026-04-26T09:46:49.544Z</time></trkpt><trkpt lat="43.8363133" lon="12.4479683"><ele>442.99999999999994</ele><time>2026-04-26T09:46:50.544Z</time></trkpt><trkpt lat="43.8363133" lon="12.4480933"><ele>443.0</ele><time>2026-04-26T09:46:51.544Z</time></trkpt><trkpt lat="43.836305" lon="12.4482033"><ele>442.66666666666663</ele><time>2026-04-26T09:46:52.544Z</time></trkpt><trkpt lat="43.8363067" lon="12.4483"><ele>442.3333333333333</ele><time>2026-04-26T09:46:53.544Z</time></trkpt><trkpt lat="43.836309" lon="12.448392"><ele>442.0</ele><time>2026-04-26T09:46:54.544Z</time></trkpt><trkpt lat="43.8363205" lon="12.4484841"><ele>441.66666666666663</ele><time>2026-04-26T09:46:55.544Z</time></trkpt><trkpt lat="43.8363404" lon="12.4485798"><ele>441.3333333333333</ele><time>2026-04-26T09:46:56.544Z</time></trkpt><trkpt lat="43.8363555" lon="12.448703"><ele>441.0</ele><time>2026-04-26T09:46:57.543Z</time></trkpt><trkpt lat="43.8363833" lon="12.4488373"><ele>440.5</ele><time>2026-04-26T09:46:58.544Z</time></trkpt><trkpt lat="43.8364022" lon="12.4489592"><ele>440.0</ele><time>2026-04-26T09:46:59.544Z</time></trkpt><trkpt lat="43.8364185" lon="12.4490651"><ele>439.5</ele><time>2026-04-26T09:47:00.544Z</time></trkpt><trkpt lat="43.8364399" lon="12.4491738"><ele>439.0</ele><time>2026-04-26T09:47:01.544Z</time></trkpt><trkpt lat="43.8364702" lon="12.4492901"><ele>438.5</ele><time>2026-04-26T09:47:02.544Z</time></trkpt><trkpt lat="43.836501" lon="12.4494017"><ele>438.0</ele><time>2026-04-26T09:47:03.543Z</time></trkpt><trkpt lat="43.8365241" lon="12.4495105"><ele>438.0</ele><time>2026-04-26T09:47:04.544Z</time></trkpt><trkpt lat="43.8365393" lon="12.4496249"><ele>437.99999999999994</ele><time>2026-04-26T09:47:05.544Z</time></trkpt><trkpt lat="43.8365512" lon="12.4497492"><ele>437.99999999999994</ele><time>2026-04-26T09:47:06.544Z</time></trkpt><trkpt lat="43.8365591" lon="12.4498749"><ele>438.0</ele><time>2026-04-26T09:47:07.544Z</time></trkpt><trkpt lat="43.8365625" lon="12.4500038"><ele>438.0</ele><time>2026-04-26T09:47:08.544Z</time></trkpt><trkpt lat="43.8365741" lon="12.4501383"><ele>436.3333333333333</ele><time>2026-04-26T09:47:09.544Z</time></trkpt><trkpt lat="43.8365818" lon="12.4502675"><ele>434.66666666666663</ele><time>2026-04-26T09:47:10.544Z</time></trkpt><trkpt lat="43.8365927" lon="12.4503839"><ele>433.0</ele><time>2026-04-26T09:47:11.543Z</time></trkpt><trkpt lat="43.836604" lon="12.4504904"><ele>431.3333333333333</ele><time>2026-04-26T09:47:12.544Z</time></trkpt><trkpt lat="43.8366245" lon="12.4506005"><ele>429.66666666666663</ele><time>2026-04-26T09:47:13.544Z</time></trkpt><trkpt lat="43.8366508" lon="12.4507076"><ele>428.0</ele><time>2026-04-26T09:47:14.543Z</time></trkpt><trkpt lat="43.8366903" lon="12.4508157"><ele>426.3333333333333</ele><time>2026-04-26T09:47:15.544Z</time></trkpt><trkpt lat="43.8367386" lon="12.4509162"><ele>424.66666666666663</ele><time>2026-04-26T09:47:16.544Z</time></trkpt><trkpt lat="43.8367972" lon="12.4510083"><ele>423.0</ele><time>2026-04-26T09:47:17.543Z</time></trkpt><trkpt lat="43.83686" lon="12.4510853"><ele>421.33333333333337</ele><time>2026-04-26T09:47:18.544Z</time></trkpt><trkpt lat="43.8369197" lon="12.4511539"><ele>419.6666666666667</ele><time>2026-04-26T09:47:19.543Z</time></trkpt><trkpt lat="43.836982" lon="12.4512098"><ele>418.0</ele><time>2026-04-26T09:47:20.542Z</time></trkpt><trkpt lat="43.8370964" lon="12.4512397"><ele>415.59999999999997</ele><time>2026-04-26T09:47:22.543Z</time></trkpt><trkpt lat="43.8371964" lon="12.451297"><ele>413.2</ele><time>2026-04-26T09:47:24.543Z</time></trkpt><trkpt lat="43.83721" lon="12.45146"><ele>410.8</ele><time>2026-04-26T09:47:26.543Z</time></trkpt><trkpt lat="43.837185" lon="12.45157"><ele>408.4</ele><time>2026-04-26T09:47:27.543Z</time></trkpt><trkpt lat="43.8371617" lon="12.4517133"><ele>406.0</ele><time>2026-04-26T09:47:28.543Z</time></trkpt><trkpt lat="43.8371317" lon="12.4518867"><ele>406.0</ele><time>2026-04-26T09:47:29.543Z</time></trkpt><trkpt lat="43.8371" lon="12.4520833"><ele>406.0</ele><time>2026-04-26T09:47:30.543Z</time></trkpt><trkpt lat="43.837065" lon="12.4522733"><ele>406.0</ele><time>2026-04-26T09:47:31.543Z</time></trkpt><trkpt lat="43.837025" lon="12.4524383"><ele>406.0</ele><time>2026-04-26T09:47:32.543Z</time></trkpt><trkpt lat="43.8369933" lon="12.4525833"><ele>405.1666666666667</ele><time>2026-04-26T09:47:33.543Z</time></trkpt><trkpt lat="43.83699" lon="12.4527033"><ele>404.33333333333337</ele><time>2026-04-26T09:47:34.543Z</time></trkpt><trkpt lat="43.8370133" lon="12.45279"><ele>403.5</ele><time>2026-04-26T09:47:35.543Z</time></trkpt><trkpt lat="43.8370467" lon="12.4528867"><ele>402.66666666666663</ele><time>2026-04-26T09:47:36.543Z</time></trkpt><trkpt lat="43.8370917" lon="12.4529933"><ele>401.8333333333333</ele><time>2026-04-26T09:47:37.543Z</time></trkpt><trkpt lat="43.8371383" lon="12.4531217"><ele>401.0</ele><time>2026-04-26T09:47:38.543Z</time></trkpt><trkpt lat="43.8371883" lon="12.4532733"><ele>400.0</ele><time>2026-04-26T09:47:39.543Z</time></trkpt><trkpt lat="43.837245" lon="12.4534317"><ele>399.0</ele><time>2026-04-26T09:47:40.543Z</time></trkpt><trkpt lat="43.83728" lon="12.453575"><ele>398.0</ele><time>2026-04-26T09:47:41.543Z</time></trkpt><trkpt lat="43.83733" lon="12.453675"><ele>397.0</ele><time>2026-04-26T09:47:42.543Z</time></trkpt><trkpt lat="43.8373733" lon="12.4537567"><ele>396.0</ele><time>2026-04-26T09:47:43.543Z</time></trkpt><trkpt lat="43.8374317" lon="12.4538367"><ele>395.8333333333333</ele><time>2026-04-26T09:47:44.542Z</time></trkpt><trkpt lat="43.8374717" lon="12.4539233"><ele>395.66666666666663</ele><time>2026-04-26T09:47:45.543Z</time></trkpt><trkpt lat="43.8375167" lon="12.4540067"><ele>395.5</ele><time>2026-04-26T09:47:46.543Z</time></trkpt><trkpt lat="43.8375517" lon="12.4540933"><ele>395.3333333333333</ele><time>2026-04-26T09:47:47.542Z</time></trkpt><trkpt lat="43.837595" lon="12.45422"><ele>395.16666666666663</ele><time>2026-04-26T09:47:49.543Z</time></trkpt><trkpt lat="43.83763" lon="12.4543"><ele>395.0</ele><time>2026-04-26T09:47:51.543Z</time></trkpt><trkpt lat="43.8376833" lon="12.4544"><ele>392.49999999999994</ele><time>2026-04-26T09:47:54.543Z</time></trkpt><trkpt lat="43.83771" lon="12.45452"><ele>390.0</ele><time>2026-04-26T09:47:59.543Z</time></trkpt><trkpt lat="43.83776" lon="12.454645"><ele>387.5</ele><time>2026-04-26T09:48:30.543Z</time></trkpt><trkpt lat="43.8377883" lon="12.45473"><ele>385.0</ele><time>2026-04-26T09:48:31.543Z</time></trkpt><trkpt lat="43.83782" lon="12.4548417"><ele>382.5</ele><time>2026-04-26T09:48:32.542Z</time></trkpt><trkpt lat="43.837855" lon="12.4549667"><ele>380.0</ele><time>2026-04-26T09:48:33.542Z</time></trkpt><trkpt lat="43.8378867" lon="12.4551083"><ele>379.75</ele><time>2026-04-26T09:48:34.542Z</time></trkpt><trkpt lat="43.8379317" lon="12.455265"><ele>379.5</ele><time>2026-04-26T09:48:35.543Z</time></trkpt><trkpt lat="43.8379733" lon="12.4554183"><ele>379.25</ele><time>2026-04-26T09:48:36.542Z</time></trkpt><trkpt lat="43.8380383" lon="12.4555617"><ele>379.0</ele><time>2026-04-26T09:48:37.543Z</time></trkpt><trkpt lat="43.8381083" lon="12.4557"><ele>380.0</ele><time>2026-04-26T09:48:38.542Z</time></trkpt><trkpt lat="43.83817" lon="12.4558417"><ele>381.0</ele><time>2026-04-26T09:48:39.542Z</time></trkpt><trkpt lat="43.838235" lon="12.4559833"><ele>382.0</ele><time>2026-04-26T09:48:40.543Z</time></trkpt><trkpt lat="43.838295" lon="12.4561067"><ele>383.0</ele><time>2026-04-26T09:48:41.542Z</time></trkpt><trkpt lat="43.8383467" lon="12.45622"><ele>384.0</ele><time>2026-04-26T09:48:42.542Z</time></trkpt><trkpt lat="43.838395" lon="12.4563317"><ele>385.0</ele><time>2026-04-26T09:48:43.542Z</time></trkpt><trkpt lat="43.8384517" lon="12.4564583"><ele>386.0</ele><time>2026-04-26T09:48:44.543Z</time></trkpt><trkpt lat="43.8384717" lon="12.4565917"><ele>387.0</ele><time>2026-04-26T09:48:45.543Z</time></trkpt><trkpt lat="43.8384967" lon="12.45671"><ele>388.0</ele><time>2026-04-26T09:48:46.543Z</time></trkpt><trkpt lat="43.8385083" lon="12.4568317"><ele>389.0</ele><time>2026-04-26T09:48:47.543Z</time></trkpt><trkpt lat="43.838515" lon="12.45694"><ele>388.99999999999994</ele><time>2026-04-26T09:48:48.543Z</time></trkpt><trkpt lat="43.8385233" lon="12.45704"><ele>389.0</ele><time>2026-04-26T09:48:49.543Z</time></trkpt><trkpt lat="43.83854" lon="12.45716"><ele>389.0</ele><time>2026-04-26T09:48:50.543Z</time></trkpt><trkpt lat="43.8385417" lon="12.45728"><ele>389.0</ele><time>2026-04-26T09:48:51.542Z</time></trkpt><trkpt lat="43.83853" lon="12.4573817"><ele>388.99999999999994</ele><time>2026-04-26T09:48:52.543Z</time></trkpt><trkpt lat="43.838515" lon="12.457475"><ele>389.0</ele><time>2026-04-26T09:48:53.543Z</time></trkpt><trkpt lat="43.8384933" lon="12.4576267"><ele>389.0</ele><time>2026-04-26T09:48:55.543Z</time></trkpt><trkpt lat="43.8384817" lon="12.4577133"><ele>389.0</ele><time>2026-04-26T09:48:56.543Z</time></trkpt><trkpt lat="43.8384533" lon="12.45787"><ele>389.0</ele><time>2026-04-26T09:48:58.543Z</time></trkpt><trkpt lat="43.8384333" lon="12.457955"><ele>389.0</ele><time>2026-04-26T09:48:59.543Z</time></trkpt><trkpt lat="43.8384183" lon="12.4580417"><ele>389.0</ele><time>2026-04-26T09:49:00.543Z</time></trkpt><trkpt lat="43.838395" lon="12.4581333"><ele>389.0</ele><time>2026-04-26T09:49:01.543Z</time></trkpt><trkpt lat="43.8383767" lon="12.4582183"><ele>389.0</ele><time>2026-04-26T09:49:02.543Z</time></trkpt><trkpt lat="43.8383633" lon="12.45838"><ele>392.0</ele><time>2026-04-26T09:49:04.543Z</time></trkpt><trkpt lat="43.8383733" lon="12.4584717"><ele>395.0</ele><time>2026-04-26T09:49:05.542Z</time></trkpt><trkpt lat="43.8383817" lon="12.4585733"><ele>398.0</ele><time>2026-04-26T09:49:06.543Z</time></trkpt><trkpt lat="43.8383867" lon="12.458675"><ele>401.0</ele><time>2026-04-26T09:49:07.543Z</time></trkpt><trkpt lat="43.8383883" lon="12.4588433"><ele>404.0</ele><time>2026-04-26T09:49:09.543Z</time></trkpt><trkpt lat="43.8384317" lon="12.4589983"><ele>404.2</ele><time>2026-04-26T09:49:11.543Z</time></trkpt><trkpt lat="43.8385" lon="12.45915"><ele>404.4</ele><time>2026-04-26T09:49:13.543Z</time></trkpt><trkpt lat="43.8385517" lon="12.4592967"><ele>404.6</ele><time>2026-04-26T09:49:15.543Z</time></trkpt><trkpt lat="43.8385733" lon="12.4593817"><ele>404.8</ele><time>2026-04-26T09:49:16.542Z</time></trkpt><trkpt lat="43.8385967" lon="12.4595467"><ele>405.0</ele><time>2026-04-26T09:49:18.543Z</time></trkpt><trkpt lat="43.8385967" lon="12.4596917"><ele>405.6666666666667</ele><time>2026-04-26T09:49:20.542Z</time></trkpt><trkpt lat="43.8386117" lon="12.459815"><ele>406.33333333333337</ele><time>2026-04-26T09:49:22.543Z</time></trkpt><trkpt lat="43.838635" lon="12.4599467"><ele>407.0</ele><time>2026-04-26T09:49:24.543Z</time></trkpt><trkpt lat="43.8386617" lon="12.4600417"><ele>407.6666666666667</ele><time>2026-04-26T09:49:25.542Z</time></trkpt><trkpt lat="43.8386883" lon="12.4601483"><ele>408.33333333333337</ele><time>2026-04-26T09:49:26.543Z</time></trkpt><trkpt lat="43.838705" lon="12.4602633"><ele>409.0</ele><time>2026-04-26T09:49:27.543Z</time></trkpt><trkpt lat="43.8387167" lon="12.4603833"><ele>410.33333333333337</ele><time>2026-04-26T09:49:28.543Z</time></trkpt><trkpt lat="43.8387217" lon="12.4605017"><ele>411.6666666666667</ele><time>2026-04-26T09:49:29.543Z</time></trkpt><trkpt lat="43.8387317" lon="12.4606167"><ele>413.0</ele><time>2026-04-26T09:49:30.543Z</time></trkpt><trkpt lat="43.838755" lon="12.46072"><ele>414.33333333333337</ele><time>2026-04-26T09:49:31.543Z</time></trkpt><trkpt lat="43.838775" lon="12.4608133"><ele>415.6666666666667</ele><time>2026-04-26T09:49:32.543Z</time></trkpt><trkpt lat="43.8387967" lon="12.460905"><ele>417.0</ele><time>2026-04-26T09:49:33.543Z</time></trkpt><trkpt lat="43.83882" lon="12.4609933"><ele>417.0</ele><time>2026-04-26T09:49:34.542Z</time></trkpt><trkpt lat="43.838845" lon="12.4610833"><ele>417.0</ele><time>2026-04-26T09:49:35.542Z</time></trkpt><trkpt lat="43.8388733" lon="12.46118"><ele>417.0</ele><time>2026-04-26T09:49:36.543Z</time></trkpt><trkpt lat="43.83891" lon="12.4612683"><ele>417.0</ele><time>2026-04-26T09:49:37.543Z</time></trkpt><trkpt lat="43.8389483" lon="12.4613467"><ele>417.0</ele><time>2026-04-26T09:49:38.542Z</time></trkpt><trkpt lat="43.8390167" lon="12.4615017"><ele>417.0</ele><time>2026-04-26T09:49:40.543Z</time></trkpt><trkpt lat="43.8390333" lon="12.4615867"><ele>418.5</ele><time>2026-04-26T09:49:41.543Z</time></trkpt><trkpt lat="43.8390417" lon="12.4617483"><ele>420.0</ele><time>2026-04-26T09:49:43.543Z</time></trkpt><trkpt lat="43.8390567" lon="12.4618367"><ele>421.5</ele><time>2026-04-26T09:49:44.543Z</time></trkpt><trkpt lat="43.8390833" lon="12.4619183"><ele>423.0</ele><time>2026-04-26T09:49:45.542Z</time></trkpt><trkpt lat="43.8391517" lon="12.4620433"><ele>424.5</ele><time>2026-04-26T09:49:47.543Z</time></trkpt><trkpt lat="43.8392" lon="12.4621183"><ele>426.0</ele><time>2026-04-26T09:49:48.543Z</time></trkpt><trkpt lat="43.8392533" lon="12.4622083"><ele>426.0</ele><time>2026-04-26T09:49:49.542Z</time></trkpt><trkpt lat="43.8393067" lon="12.4623"><ele>426.0</ele><time>2026-04-26T09:49:50.543Z</time></trkpt><trkpt lat="43.8393633" lon="12.4623767"><ele>426.0</ele><time>2026-04-26T09:49:51.543Z</time></trkpt><trkpt lat="43.839415" lon="12.4624467"><ele>426.0</ele><time>2026-04-26T09:49:52.543Z</time></trkpt><trkpt lat="43.8394633" lon="12.462585"><ele>426.0</ele><time>2026-04-26T09:49:54.543Z</time></trkpt><trkpt lat="43.8394817" lon="12.4626833"><ele>426.0</ele><time>2026-04-26T09:49:55.543Z</time></trkpt><trkpt lat="43.8395067" lon="12.4628083"><ele>427.4</ele><time>2026-04-26T09:49:56.543Z</time></trkpt><trkpt lat="43.8395417" lon="12.462955"><ele>428.8</ele><time>2026-04-26T09:49:57.543Z</time></trkpt><trkpt lat="43.8395783" lon="12.463105"><ele>430.19999999999993</ele><time>2026-04-26T09:49:58.543Z</time></trkpt><trkpt lat="43.8396033" lon="12.4632333"><ele>431.59999999999997</ele><time>2026-04-26T09:49:59.543Z</time></trkpt><trkpt lat="43.83961" lon="12.463375"><ele>433.0</ele><time>2026-04-26T09:50:00.543Z</time></trkpt><trkpt lat="43.8396" lon="12.4635067"><ele>433.00000000000006</ele><time>2026-04-26T09:50:01.542Z</time></trkpt><trkpt lat="43.83959" lon="12.463625"><ele>433.0</ele><time>2026-04-26T09:50:02.543Z</time></trkpt><trkpt lat="43.8395817" lon="12.46372"><ele>433.0</ele><time>2026-04-26T09:50:03.542Z</time></trkpt><trkpt lat="43.8395783" lon="12.46381"><ele>433.0</ele><time>2026-04-26T09:50:04.543Z</time></trkpt><trkpt lat="43.83959" lon="12.4639067"><ele>433.00000000000006</ele><time>2026-04-26T09:50:05.543Z</time></trkpt><trkpt lat="43.83962" lon="12.4640167"><ele>433.0</ele><time>2026-04-26T09:50:06.543Z</time></trkpt><trkpt lat="43.8396667" lon="12.4641467"><ele>433.0</ele><time>2026-04-26T09:50:07.543Z</time></trkpt><trkpt lat="43.8397117" lon="12.4642867"><ele>433.0</ele><time>2026-04-26T09:50:08.542Z</time></trkpt><trkpt lat="43.83975" lon="12.4644467"><ele>433.0</ele><time>2026-04-26T09:50:09.542Z</time></trkpt><trkpt lat="43.83978" lon="12.4646133"><ele>433.0</ele><time>2026-04-26T09:50:10.543Z</time></trkpt><trkpt lat="43.8398083" lon="12.4647617"><ele>433.0</ele><time>2026-04-26T09:50:11.543Z</time></trkpt><trkpt lat="43.8398533" lon="12.4649033"><ele>432.99999999999994</ele><time>2026-04-26T09:50:12.543Z</time></trkpt><trkpt lat="43.8398983" lon="12.4650467"><ele>432.99999999999994</ele><time>2026-04-26T09:50:13.542Z</time></trkpt><trkpt lat="43.8399467" lon="12.46519"><ele>433.0</ele><time>2026-04-26T09:50:14.543Z</time></trkpt><trkpt lat="43.8399883" lon="12.4653233"><ele>433.0</ele><time>2026-04-26T09:50:15.543Z</time></trkpt><trkpt lat="43.840025" lon="12.4654617"><ele>433.0</ele><time>2026-04-26T09:50:16.543Z</time></trkpt><trkpt lat="43.840055" lon="12.4656133"><ele>432.99999999999994</ele><time>2026-04-26T09:50:17.543Z</time></trkpt><trkpt lat="43.840075" lon="12.4657583"><ele>432.99999999999994</ele><time>2026-04-26T09:50:18.542Z</time></trkpt><trkpt lat="43.8400867" lon="12.465885"><ele>433.0</ele><time>2026-04-26T09:50:19.543Z</time></trkpt><trkpt lat="43.8400933" lon="12.4659867"><ele>433.0</ele><time>2026-04-26T09:50:20.543Z</time></trkpt><trkpt lat="43.840135" lon="12.4661583"><ele>433.2</ele><time>2026-04-26T09:50:22.543Z</time></trkpt><trkpt lat="43.8401667" lon="12.466265"><ele>433.4</ele><time>2026-04-26T09:50:23.543Z</time></trkpt><trkpt lat="43.8402033" lon="12.466395"><ele>433.59999999999997</ele><time>2026-04-26T09:50:24.543Z</time></trkpt><trkpt lat="43.840245" lon="12.4665367"><ele>433.79999999999995</ele><time>2026-04-26T09:50:25.542Z</time></trkpt><trkpt lat="43.8402883" lon="12.4666783"><ele>434.0</ele><time>2026-04-26T09:50:26.543Z</time></trkpt><trkpt lat="43.8403333" lon="12.466815"><ele>434.0</ele><time>2026-04-26T09:50:27.543Z</time></trkpt><trkpt lat="43.840375" lon="12.4669383"><ele>434.0</ele><time>2026-04-26T09:50:28.543Z</time></trkpt><trkpt lat="43.8404067" lon="12.46706"><ele>434.0</ele><time>2026-04-26T09:50:29.543Z</time></trkpt><trkpt lat="43.8404433" lon="12.46716"><ele>434.0</ele><time>2026-04-26T09:50:30.542Z</time></trkpt><trkpt lat="43.840495" lon="12.4672567"><ele>434.0</ele><time>2026-04-26T09:50:31.543Z</time></trkpt><trkpt lat="43.8405583" lon="12.467365"><ele>434.79999999999995</ele><time>2026-04-26T09:50:32.543Z</time></trkpt><trkpt lat="43.84063" lon="12.467455"><ele>435.59999999999997</ele><time>2026-04-26T09:50:33.543Z</time></trkpt><trkpt lat="43.8407067" lon="12.4675383"><ele>436.4</ele><time>2026-04-26T09:50:34.543Z</time></trkpt><trkpt lat="43.8407883" lon="12.46763"><ele>437.2</ele><time>2026-04-26T09:50:35.542Z</time></trkpt><trkpt lat="43.8408683" lon="12.46772"><ele>438.0</ele><time>2026-04-26T09:50:36.543Z</time></trkpt><trkpt lat="43.8409483" lon="12.4678117"><ele>438.3333333333333</ele><time>2026-04-26T09:50:37.543Z</time></trkpt><trkpt lat="43.841035" lon="12.4678967"><ele>438.66666666666663</ele><time>2026-04-26T09:50:38.542Z</time></trkpt><trkpt lat="43.841115" lon="12.46796"><ele>439.0</ele><time>2026-04-26T09:50:39.543Z</time></trkpt><trkpt lat="43.8411883" lon="12.4680083"><ele>439.3333333333333</ele><time>2026-04-26T09:50:40.542Z</time></trkpt><trkpt lat="43.84126" lon="12.468045"><ele>439.66666666666663</ele><time>2026-04-26T09:50:41.543Z</time></trkpt><trkpt lat="43.841335" lon="12.4680933"><ele>440.0</ele><time>2026-04-26T09:50:42.542Z</time></trkpt><trkpt lat="43.8414167" lon="12.4681733"><ele>440.0</ele><time>2026-04-26T09:50:43.542Z</time></trkpt><trkpt lat="43.8414967" lon="12.4682583"><ele>440.0</ele><time>2026-04-26T09:50:44.543Z</time></trkpt><trkpt lat="43.84157" lon="12.4683417"><ele>440.0</ele><time>2026-04-26T09:50:45.543Z</time></trkpt><trkpt lat="43.84164" lon="12.4684183"><ele>440.0</ele><time>2026-04-26T09:50:46.543Z</time></trkpt><trkpt lat="43.841715" lon="12.4684617"><ele>440.0</ele><time>2026-04-26T09:50:47.543Z</time></trkpt><trkpt lat="43.8418033" lon="12.4685133"><ele>439.49999999999994</ele><time>2026-04-26T09:50:48.542Z</time></trkpt><trkpt lat="43.841895" lon="12.468575"><ele>439.0</ele><time>2026-04-26T09:50:49.542Z</time></trkpt><trkpt lat="43.841975" lon="12.4686317"><ele>438.5</ele><time>2026-04-26T09:50:50.543Z</time></trkpt><trkpt lat="43.84205" lon="12.4686933"><ele>438.0</ele><time>2026-04-26T09:50:51.543Z</time></trkpt><trkpt lat="43.8421167" lon="12.4687717"><ele>437.49999999999994</ele><time>2026-04-26T09:50:52.542Z</time></trkpt><trkpt lat="43.8421783" lon="12.4688333"><ele>437.0</ele><time>2026-04-26T09:50:53.542Z</time></trkpt><trkpt lat="43.8422433" lon="12.468875"><ele>436.99999999999994</ele><time>2026-04-26T09:50:54.543Z</time></trkpt><trkpt lat="43.8423233" lon="12.4688883"><ele>437.0</ele><time>2026-04-26T09:50:55.542Z</time></trkpt><trkpt lat="43.8424183" lon="12.4688917"><ele>437.0</ele><time>2026-04-26T09:50:56.543Z</time></trkpt><trkpt lat="43.8425033" lon="12.4689"><ele>437.0</ele><time>2026-04-26T09:50:57.543Z</time></trkpt><trkpt lat="43.8425783" lon="12.4689483"><ele>436.99999999999994</ele><time>2026-04-26T09:50:58.542Z</time></trkpt><trkpt lat="43.8426467" lon="12.4690383"><ele>437.0</ele><time>2026-04-26T09:50:59.543Z</time></trkpt><trkpt lat="43.842705" lon="12.469125"><ele>437.16666666666663</ele><time>2026-04-26T09:51:00.543Z</time></trkpt><trkpt lat="43.8427567" lon="12.4691883"><ele>437.3333333333333</ele><time>2026-04-26T09:51:01.543Z</time></trkpt><trkpt lat="43.84281" lon="12.4692417"><ele>437.5</ele><time>2026-04-26T09:51:02.543Z</time></trkpt><trkpt lat="43.842865" lon="12.4692967"><ele>437.66666666666663</ele><time>2026-04-26T09:51:03.543Z</time></trkpt><trkpt lat="43.8429183" lon="12.4693533"><ele>437.8333333333333</ele><time>2026-04-26T09:51:04.543Z</time></trkpt><trkpt lat="43.8429733" lon="12.4694117"><ele>438.0</ele><time>2026-04-26T09:51:05.543Z</time></trkpt><trkpt lat="43.8430617" lon="12.4695233"><ele>438.4</ele><time>2026-04-26T09:51:07.542Z</time></trkpt><trkpt lat="43.8431433" lon="12.46962"><ele>438.79999999999995</ele><time>2026-04-26T09:51:09.543Z</time></trkpt><trkpt lat="43.84322" lon="12.4697017"><ele>439.2</ele><time>2026-04-26T09:51:11.543Z</time></trkpt><trkpt lat="43.8432917" lon="12.469795"><ele>439.6</ele><time>2026-04-26T09:51:34.543Z</time></trkpt><trkpt lat="43.8433417" lon="12.4699617"><ele>440.0</ele><time>2026-04-26T09:51:36.543Z</time></trkpt><trkpt lat="43.8433717" lon="12.47009"><ele>440.0</ele><time>2026-04-26T09:51:37.543Z</time></trkpt><trkpt lat="43.8434117" lon="12.4702633"><ele>440.0</ele><time>2026-04-26T09:51:38.542Z</time></trkpt><trkpt lat="43.8434567" lon="12.4704533"><ele>440.0</ele><time>2026-04-26T09:51:39.543Z</time></trkpt><trkpt lat="43.8434967" lon="12.470615"><ele>440.0</ele><time>2026-04-26T09:51:40.542Z</time></trkpt><trkpt lat="43.84355" lon="12.470755"><ele>444.0</ele><time>2026-04-26T09:51:41.543Z</time></trkpt><trkpt lat="43.8436283" lon="12.47088"><ele>448.0</ele><time>2026-04-26T09:51:42.543Z</time></trkpt><trkpt lat="43.8437267" lon="12.471"><ele>452.0</ele><time>2026-04-26T09:51:43.543Z</time></trkpt><trkpt lat="43.8438317" lon="12.4710967"><ele>456.0</ele><time>2026-04-26T09:51:44.543Z</time></trkpt><trkpt lat="43.8439283" lon="12.4711633"><ele>456.0</ele><time>2026-04-26T09:51:45.543Z</time></trkpt><trkpt lat="43.844035" lon="12.471185"><ele>456.0</ele><time>2026-04-26T09:51:46.542Z</time></trkpt><trkpt lat="43.8441467" lon="12.4711733"><ele>456.0</ele><time>2026-04-26T09:51:47.543Z</time></trkpt><trkpt lat="43.8442567" lon="12.47113"><ele>456.0</ele><time>2026-04-26T09:51:48.542Z</time></trkpt><trkpt lat="43.8443783" lon="12.4710467"><ele>456.6</ele><time>2026-04-26T09:51:49.543Z</time></trkpt><trkpt lat="43.844505" lon="12.47094"><ele>457.20000000000005</ele><time>2026-04-26T09:51:50.543Z</time></trkpt><trkpt lat="43.8446033" lon="12.47085"><ele>457.79999999999995</ele><time>2026-04-26T09:51:51.542Z</time></trkpt><trkpt lat="43.844685" lon="12.4708083"><ele>458.4</ele><time>2026-04-26T09:51:52.542Z</time></trkpt><trkpt lat="43.8447633" lon="12.47082"><ele>459.0</ele><time>2026-04-26T09:51:53.543Z</time></trkpt><trkpt lat="43.8448283" lon="12.4708767"><ele>459.0</ele><time>2026-04-26T09:51:54.543Z</time></trkpt><trkpt lat="43.84489" lon="12.470985"><ele>459.0</ele><time>2026-04-26T09:51:55.543Z</time></trkpt><trkpt lat="43.8449433" lon="12.4711583"><ele>459.0</ele><time>2026-04-26T09:51:56.542Z</time></trkpt><trkpt lat="43.8450083" lon="12.4713367"><ele>459.0</ele><time>2026-04-26T09:51:57.543Z</time></trkpt><trkpt lat="43.8451067" lon="12.4714883"><ele>463.0</ele><time>2026-04-26T09:51:58.543Z</time></trkpt><trkpt lat="43.84524" lon="12.4716183"><ele>467.0</ele><time>2026-04-26T09:51:59.542Z</time></trkpt><trkpt lat="43.8453717" lon="12.4717267"><ele>471.0</ele><time>2026-04-26T09:52:00.542Z</time></trkpt><trkpt lat="43.8454917" lon="12.4718267"><ele>471.0</ele><time>2026-04-26T09:52:01.543Z</time></trkpt><trkpt lat="43.845595" lon="12.4719083"><ele>471.0</ele><time>2026-04-26T09:52:02.542Z</time></trkpt><trkpt lat="43.845705" lon="12.4719817"><ele>471.0</ele><time>2026-04-26T09:52:03.542Z</time></trkpt><trkpt lat="43.8458333" lon="12.47203"><ele>471.0</ele><time>2026-04-26T09:52:04.543Z</time></trkpt><trkpt lat="43.8459567" lon="12.47206"><ele>470.6</ele><time>2026-04-26T09:52:05.543Z</time></trkpt><trkpt lat="43.84607" lon="12.472115"><ele>470.20000000000005</ele><time>2026-04-26T09:52:06.543Z</time></trkpt><trkpt lat="43.8461533" lon="12.4721917"><ele>469.79999999999995</ele><time>2026-04-26T09:52:07.542Z</time></trkpt><trkpt lat="43.8461967" lon="12.472305"><ele>469.4</ele><time>2026-04-26T09:52:08.542Z</time></trkpt><trkpt lat="43.8462217" lon="12.47243"><ele>469.0</ele><time>2026-04-26T09:52:09.543Z</time></trkpt><trkpt lat="43.846235" lon="12.47257"><ele>469.0</ele><time>2026-04-26T09:52:10.542Z</time></trkpt><trkpt lat="43.8462517" lon="12.47271"><ele>469.0</ele><time>2026-04-26T09:52:11.543Z</time></trkpt><trkpt lat="43.8462633" lon="12.4728517"><ele>469.0</ele><time>2026-04-26T09:52:12.542Z</time></trkpt><trkpt lat="43.846285" lon="12.472985"><ele>469.0</ele><time>2026-04-26T09:52:13.543Z</time></trkpt><trkpt lat="43.84632" lon="12.4731083"><ele>469.0</ele><time>2026-04-26T09:52:14.543Z</time></trkpt><trkpt lat="43.8463783" lon="12.47323"><ele>472.0</ele><time>2026-04-26T09:52:15.542Z</time></trkpt><trkpt lat="43.8464483" lon="12.4733533"><ele>475.0</ele><time>2026-04-26T09:52:16.543Z</time></trkpt><trkpt lat="43.8465217" lon="12.473475"><ele>478.0</ele><time>2026-04-26T09:52:17.543Z</time></trkpt><trkpt lat="43.8465733" lon="12.4735833"><ele>481.0</ele><time>2026-04-26T09:52:18.543Z</time></trkpt><trkpt lat="43.84662" lon="12.4736883"><ele>484.0</ele><time>2026-04-26T09:52:19.543Z</time></trkpt><trkpt lat="43.8466517" lon="12.4738067"><ele>485.50000000000006</ele><time>2026-04-26T09:52:20.543Z</time></trkpt><trkpt lat="43.8466767" lon="12.47392"><ele>487.0</ele><time>2026-04-26T09:52:21.543Z</time></trkpt><trkpt lat="43.8466967" lon="12.47404"><ele>488.5</ele><time>2026-04-26T09:52:22.543Z</time></trkpt><trkpt lat="43.8467117" lon="12.47416"><ele>490.0</ele><time>2026-04-26T09:52:23.543Z</time></trkpt><trkpt lat="43.8467183" lon="12.4742683"><ele>491.50000000000006</ele><time>2026-04-26T09:52:24.543Z</time></trkpt><trkpt lat="43.8467117" lon="12.4743683"><ele>493.0</ele><time>2026-04-26T09:52:25.542Z</time></trkpt><trkpt lat="43.846695" lon="12.4744683"><ele>493.0</ele><time>2026-04-26T09:52:26.543Z</time></trkpt><trkpt lat="43.84667" lon="12.4745683"><ele>492.99999999999994</ele><time>2026-04-26T09:52:27.543Z</time></trkpt><trkpt lat="43.846625" lon="12.4746633"><ele>492.99999999999994</ele><time>2026-04-26T09:52:28.542Z</time></trkpt><trkpt lat="43.8465617" lon="12.474755"><ele>493.0</ele><time>2026-04-26T09:52:29.543Z</time></trkpt><trkpt lat="43.8464817" lon="12.4748417"><ele>493.0</ele><time>2026-04-26T09:52:30.543Z</time></trkpt><trkpt lat="43.84638" lon="12.4749167"><ele>492.5</ele><time>2026-04-26T09:52:31.543Z</time></trkpt><trkpt lat="43.846255" lon="12.4749833"><ele>492.0</ele><time>2026-04-26T09:52:32.543Z</time></trkpt><trkpt lat="43.8461117" lon="12.4750383"><ele>491.5</ele><time>2026-04-26T09:52:33.543Z</time></trkpt><trkpt lat="43.845995" lon="12.47507"><ele>491.0</ele><time>2026-04-26T09:52:34.543Z</time></trkpt><trkpt lat="43.8459017" lon="12.475095"><ele>492.3333333333333</ele><time>2026-04-26T09:52:35.543Z</time></trkpt><trkpt lat="43.8458333" lon="12.47513"><ele>493.66666666666663</ele><time>2026-04-26T09:52:36.542Z</time></trkpt><trkpt lat="43.84577" lon="12.4751667"><ele>495.0</ele><time>2026-04-26T09:52:37.543Z</time></trkpt><trkpt lat="43.8457117" lon="12.4752333"><ele>496.33333333333337</ele><time>2026-04-26T09:52:38.543Z</time></trkpt><trkpt lat="43.8456517" lon="12.4753683"><ele>497.6666666666667</ele><time>2026-04-26T09:52:40.543Z</time></trkpt><trkpt lat="43.8456883" lon="12.4755033"><ele>499.0</ele><time>2026-04-26T09:52:42.543Z</time></trkpt><trkpt lat="43.8457533" lon="12.47558"><ele>498.4</ele><time>2026-04-26T09:52:43.543Z</time></trkpt><trkpt lat="43.84584" lon="12.4756467"><ele>497.79999999999995</ele><time>2026-04-26T09:52:44.543Z</time></trkpt><trkpt lat="43.8459133" lon="12.4757117"><ele>497.20000000000005</ele><time>2026-04-26T09:52:45.543Z</time></trkpt><trkpt lat="43.84598" lon="12.47581"><ele>496.6</ele><time>2026-04-26T09:52:46.543Z</time></trkpt><trkpt lat="43.846055" lon="12.4759033"><ele>496.0</ele><time>2026-04-26T09:52:47.542Z</time></trkpt><trkpt lat="43.8461117" lon="12.476035"><ele>496.0</ele><time>2026-04-26T09:52:48.543Z</time></trkpt><trkpt lat="43.8461617" lon="12.476175"><ele>496.0</ele><time>2026-04-26T09:52:49.543Z</time></trkpt><trkpt lat="43.84619" lon="12.4763267"><ele>496.0</ele><time>2026-04-26T09:52:50.543Z</time></trkpt><trkpt lat="43.846225" lon="12.4764317"><ele>496.0</ele><time>2026-04-26T09:52:51.543Z</time></trkpt><trkpt lat="43.84625" lon="12.476565"><ele>496.0</ele><time>2026-04-26T09:52:52.543Z</time></trkpt><trkpt lat="43.8462633" lon="12.476705"><ele>498.6</ele><time>2026-04-26T09:52:53.543Z</time></trkpt><trkpt lat="43.8462667" lon="12.4768633"><ele>501.20000000000005</ele><time>2026-04-26T09:52:54.543Z</time></trkpt><trkpt lat="43.8462717" lon="12.4770117"><ele>503.79999999999995</ele><time>2026-04-26T09:52:55.542Z</time></trkpt><trkpt lat="43.84628" lon="12.4771383"><ele>506.4</ele><time>2026-04-26T09:52:56.543Z</time></trkpt><trkpt lat="43.8463133" lon="12.4772517"><ele>509.0</ele><time>2026-04-26T09:52:57.543Z</time></trkpt><trkpt lat="43.8463833" lon="12.477355"><ele>511.0</ele><time>2026-04-26T09:52:58.543Z</time></trkpt><trkpt lat="43.846465" lon="12.4774183"><ele>513.0</ele><time>2026-04-26T09:52:59.543Z</time></trkpt><trkpt lat="43.8465817" lon="12.4774817"><ele>515.0</ele><time>2026-04-26T09:53:00.543Z</time></trkpt><trkpt lat="43.8466933" lon="12.477535"><ele>517.0</ele><time>2026-04-26T09:53:01.543Z</time></trkpt><trkpt lat="43.8468217" lon="12.477555"><ele>517.8000000000001</ele><time>2026-04-26T09:53:02.542Z</time></trkpt><trkpt lat="43.8469417" lon="12.4775517"><ele>518.6</ele><time>2026-04-26T09:53:03.543Z</time></trkpt><trkpt lat="43.8470633" lon="12.4775483"><ele>519.4000000000001</ele><time>2026-04-26T09:53:04.543Z</time></trkpt><trkpt lat="43.8471683" lon="12.4775533"><ele>520.2</ele><time>2026-04-26T09:53:05.542Z</time></trkpt><trkpt lat="43.8472617" lon="12.4775717"><ele>521.0</ele><time>2026-04-26T09:53:06.542Z</time></trkpt><trkpt lat="43.8473483" lon="12.4776067"><ele>521.0</ele><time>2026-04-26T09:53:07.542Z</time></trkpt><trkpt lat="43.8474067" lon="12.477655"><ele>521.0</ele><time>2026-04-26T09:53:08.543Z</time></trkpt><trkpt lat="43.84744" lon="12.4777333"><ele>521.0</ele><time>2026-04-26T09:53:09.543Z</time></trkpt><trkpt lat="43.84747" lon="12.4778167"><ele>521.0</ele><time>2026-04-26T09:53:10.543Z</time></trkpt><trkpt lat="43.8474917" lon="12.4779133"><ele>521.0</ele><time>2026-04-26T09:53:11.542Z</time></trkpt><trkpt lat="43.847515" lon="12.4779983"><ele>521.0</ele><time>2026-04-26T09:53:12.543Z</time></trkpt><trkpt lat="43.8476017" lon="12.478135"><ele>522.8</ele><time>2026-04-26T09:53:14.543Z</time></trkpt><trkpt lat="43.84765" lon="12.4782217"><ele>524.6</ele><time>2026-04-26T09:53:15.543Z</time></trkpt><trkpt lat="43.847715" lon="12.4783333"><ele>526.4</ele><time>2026-04-26T09:53:16.543Z</time></trkpt><trkpt lat="43.8478033" lon="12.478435"><ele>528.2</ele><time>2026-04-26T09:53:17.543Z</time></trkpt><trkpt lat="43.8478733" lon="12.4785383"><ele>530.0</ele><time>2026-04-26T09:53:18.542Z</time></trkpt><trkpt lat="43.8479483" lon="12.4786133"><ele>530.0</ele><time>2026-04-26T09:53:19.543Z</time></trkpt><trkpt lat="43.8480167" lon="12.4786883"><ele>530.0</ele><time>2026-04-26T09:53:20.542Z</time></trkpt><trkpt lat="43.8480733" lon="12.4787817"><ele>530.0</ele><time>2026-04-26T09:53:21.542Z</time></trkpt><trkpt lat="43.8481433" lon="12.47887"><ele>530.0</ele><time>2026-04-26T09:53:22.542Z</time></trkpt><trkpt lat="43.8482133" lon="12.4789783"><ele>530.0</ele><time>2026-04-26T09:53:23.542Z</time></trkpt><trkpt lat="43.848285" lon="12.4790717"><ele>531.1666666666666</ele><time>2026-04-26T09:53:24.542Z</time></trkpt><trkpt lat="43.8483683" lon="12.479165"><ele>532.3333333333333</ele><time>2026-04-26T09:53:25.542Z</time></trkpt><trkpt lat="43.8484367" lon="12.4792433"><ele>533.5</ele><time>2026-04-26T09:53:26.541Z</time></trkpt><trkpt lat="43.848505" lon="12.4793067"><ele>534.6666666666666</ele><time>2026-04-26T09:53:27.542Z</time></trkpt><trkpt lat="43.8485633" lon="12.4793617"><ele>535.8333333333334</ele><time>2026-04-26T09:53:28.542Z</time></trkpt><trkpt lat="43.8486267" lon="12.4794033"><ele>537.0</ele><time>2026-04-26T09:53:29.542Z</time></trkpt><trkpt lat="43.8486867" lon="12.4794767"><ele>538.6</ele><time>2026-04-26T09:53:31.542Z</time></trkpt><trkpt lat="43.848755" lon="12.4795867"><ele>540.2</ele><time>2026-04-26T09:53:43.542Z</time></trkpt><trkpt lat="43.84881" lon="12.47967"><ele>541.8</ele><time>2026-04-26T09:53:45.541Z</time></trkpt><trkpt lat="43.8489117" lon="12.4797833"><ele>543.4</ele><time>2026-04-26T09:53:47.542Z</time></trkpt><trkpt lat="43.8489783" lon="12.479855"><ele>545.0</ele><time>2026-04-26T09:53:48.541Z</time></trkpt><trkpt lat="43.8490517" lon="12.479945"><ele>545.0</ele><time>2026-04-26T09:53:49.542Z</time></trkpt><trkpt lat="43.8491333" lon="12.4800383"><ele>545.0</ele><time>2026-04-26T09:53:50.542Z</time></trkpt><trkpt lat="43.8492117" lon="12.48013"><ele>545.0</ele><time>2026-04-26T09:53:51.542Z</time></trkpt><trkpt lat="43.8492867" lon="12.48021"><ele>545.0</ele><time>2026-04-26T09:53:52.542Z</time></trkpt><trkpt lat="43.8493617" lon="12.4803017"><ele>545.0</ele><time>2026-04-26T09:53:53.542Z</time></trkpt><trkpt lat="43.8494283" lon="12.480405"><ele>546.8333333333333</ele><time>2026-04-26T09:53:54.541Z</time></trkpt><trkpt lat="43.8494783" lon="12.4805083"><ele>548.6666666666666</ele><time>2026-04-26T09:53:55.541Z</time></trkpt><trkpt lat="43.84952" lon="12.48058"><ele>550.5</ele><time>2026-04-26T09:53:56.541Z</time></trkpt><trkpt lat="43.849565" lon="12.4806433"><ele>552.3333333333334</ele><time>2026-04-26T09:53:57.541Z</time></trkpt><trkpt lat="43.849625" lon="12.4807033"><ele>554.1666666666667</ele><time>2026-04-26T09:53:58.542Z</time></trkpt><trkpt lat="43.8496917" lon="12.480755"><ele>556.0</ele><time>2026-04-26T09:53:59.541Z</time></trkpt><trkpt lat="43.8497733" lon="12.48081"><ele>556.0</ele><time>2026-04-26T09:54:00.542Z</time></trkpt><trkpt lat="43.8498567" lon="12.480865"><ele>556.0</ele><time>2026-04-26T09:54:01.542Z</time></trkpt><trkpt lat="43.8499217" lon="12.480945"><ele>556.0</ele><time>2026-04-26T09:54:02.541Z</time></trkpt><trkpt lat="43.8499817" lon="12.4810183"><ele>556.0</ele><time>2026-04-26T09:54:03.541Z</time></trkpt><trkpt lat="43.8500317" lon="12.481125"><ele>556.0</ele><time>2026-04-26T09:54:04.542Z</time></trkpt><trkpt lat="43.8500517" lon="12.4812633"><ele>555.8</ele><time>2026-04-26T09:54:05.542Z</time></trkpt><trkpt lat="43.8500683" lon="12.4813633"><ele>555.6</ele><time>2026-04-26T09:54:06.542Z</time></trkpt><trkpt lat="43.8501283" lon="12.4815067"><ele>555.4</ele><time>2026-04-26T09:54:08.541Z</time></trkpt><trkpt lat="43.8502133" lon="12.481555"><ele>555.2</ele><time>2026-04-26T09:54:09.542Z</time></trkpt><trkpt lat="43.8503" lon="12.4816283"><ele>555.0</ele><time>2026-04-26T09:54:10.542Z</time></trkpt><trkpt lat="43.8503667" lon="12.481695"><ele>555.0</ele><time>2026-04-26T09:54:11.542Z</time></trkpt><trkpt lat="43.8504217" lon="12.48175"><ele>555.0</ele><time>2026-04-26T09:54:12.542Z</time></trkpt><trkpt lat="43.850525" lon="12.4818417"><ele>555.0</ele><time>2026-04-26T09:54:14.541Z</time></trkpt><trkpt lat="43.8506067" lon="12.4819467"><ele>555.0</ele><time>2026-04-26T09:54:16.541Z</time></trkpt><trkpt lat="43.8505983" lon="12.4820483"><ele>555.0</ele><time>2026-04-26T09:54:17.542Z</time></trkpt><trkpt lat="43.8505567" lon="12.4821683"><ele>550.6</ele><time>2026-04-26T09:54:18.542Z</time></trkpt><trkpt lat="43.8504983" lon="12.4822917"><ele>546.2</ele><time>2026-04-26T09:54:19.542Z</time></trkpt><trkpt lat="43.8504383" lon="12.48242"><ele>541.8</ele><time>2026-04-26T09:54:20.542Z</time></trkpt><trkpt lat="43.8503783" lon="12.482555"><ele>537.4</ele><time>2026-04-26T09:54:21.541Z</time></trkpt><trkpt lat="43.8503267" lon="12.4826817"><ele>533.0</ele><time>2026-04-26T09:54:22.541Z</time></trkpt><trkpt lat="43.8502733" lon="12.4828117"><ele>531.1999999999999</ele><time>2026-04-26T09:54:23.541Z</time></trkpt><trkpt lat="43.8502317" lon="12.4829383"><ele>529.4</ele><time>2026-04-26T09:54:24.542Z</time></trkpt><trkpt lat="43.8501967" lon="12.48307"><ele>527.5999999999999</ele><time>2026-04-26T09:54:25.542Z</time></trkpt><trkpt lat="43.8501733" lon="12.4832017"><ele>525.8</ele><time>2026-04-26T09:54:26.542Z</time></trkpt><trkpt lat="43.8501283" lon="12.4833367"><ele>524.0</ele><time>2026-04-26T09:54:27.542Z</time></trkpt><trkpt lat="43.8500867" lon="12.4834683"><ele>524.0</ele><time>2026-04-26T09:54:28.542Z</time></trkpt><trkpt lat="43.85005" lon="12.4835883"><ele>524.0</ele><time>2026-04-26T09:54:29.542Z</time></trkpt><trkpt lat="43.84999" lon="12.4837167"><ele>524.0</ele><time>2026-04-26T09:54:30.542Z</time></trkpt><trkpt lat="43.8499433" lon="12.4838383"><ele>524.0</ele><time>2026-04-26T09:54:31.541Z</time></trkpt><trkpt lat="43.84991" lon="12.4839433"><ele>524.0</ele><time>2026-04-26T09:54:32.542Z</time></trkpt><trkpt lat="43.8499017" lon="12.4840433"><ele>523.8333333333333</ele><time>2026-04-26T09:54:33.542Z</time></trkpt><trkpt lat="43.8498983" lon="12.4841417"><ele>523.6666666666666</ele><time>2026-04-26T09:54:34.542Z</time></trkpt><trkpt lat="43.8498917" lon="12.4842433"><ele>523.5</ele><time>2026-04-26T09:54:35.541Z</time></trkpt><trkpt lat="43.8498867" lon="12.484345"><ele>523.3333333333334</ele><time>2026-04-26T09:54:36.542Z</time></trkpt><trkpt lat="43.84987" lon="12.48445"><ele>523.1666666666667</ele><time>2026-04-26T09:54:37.541Z</time></trkpt><trkpt lat="43.8498683" lon="12.484565"><ele>523.0</ele><time>2026-04-26T09:54:38.542Z</time></trkpt><trkpt lat="43.8498717" lon="12.4846833"><ele>521.4</ele><time>2026-04-26T09:54:39.542Z</time></trkpt><trkpt lat="43.8498683" lon="12.4848017"><ele>519.8</ele><time>2026-04-26T09:54:40.541Z</time></trkpt><trkpt lat="43.8498517" lon="12.4849133"><ele>518.2</ele><time>2026-04-26T09:54:41.542Z</time></trkpt><trkpt lat="43.84985" lon="12.4850067"><ele>516.6</ele><time>2026-04-26T09:54:42.542Z</time></trkpt><trkpt lat="43.8498617" lon="12.4851667"><ele>515.0</ele><time>2026-04-26T09:54:44.542Z</time></trkpt><trkpt lat="43.8498683" lon="12.4853317"><ele>513.1666666666666</ele><time>2026-04-26T09:54:46.541Z</time></trkpt><trkpt lat="43.8498667" lon="12.4854383"><ele>511.3333333333333</ele><time>2026-04-26T09:54:48.542Z</time></trkpt><trkpt lat="43.8498767" lon="12.4855317"><ele>509.5</ele><time>2026-04-26T09:54:51.541Z</time></trkpt><trkpt lat="43.84989" lon="12.48563"><ele>507.66666666666663</ele><time>2026-04-26T09:54:53.542Z</time></trkpt><trkpt lat="43.8499217" lon="12.4857917"><ele>505.8333333333333</ele><time>2026-04-26T09:54:55.542Z</time></trkpt><trkpt lat="43.8499383" lon="12.4858983"><ele>504.0</ele><time>2026-04-26T09:54:56.542Z</time></trkpt><trkpt lat="43.8499583" lon="12.4860067"><ele>504.0</ele><time>2026-04-26T09:54:57.542Z</time></trkpt><trkpt lat="43.8499683" lon="12.4861167"><ele>504.0</ele><time>2026-04-26T09:54:58.542Z</time></trkpt><trkpt lat="43.8499933" lon="12.4862267"><ele>504.0</ele><time>2026-04-26T09:54:59.542Z</time></trkpt><trkpt lat="43.8500017" lon="12.48635"><ele>504.0</ele><time>2026-04-26T09:55:00.542Z</time></trkpt><trkpt lat="43.8500167" lon="12.4864683"><ele>504.0</ele><time>2026-04-26T09:55:01.542Z</time></trkpt><trkpt lat="43.8500217" lon="12.4865783"><ele>504.0</ele><time>2026-04-26T09:55:02.542Z</time></trkpt><trkpt lat="43.8500233" lon="12.48669"><ele>502.3333333333333</ele><time>2026-04-26T09:55:03.542Z</time></trkpt><trkpt lat="43.850025" lon="12.4867867"><ele>500.66666666666663</ele><time>2026-04-26T09:55:04.542Z</time></trkpt><trkpt lat="43.8500333" lon="12.4868833"><ele>499.0</ele><time>2026-04-26T09:55:05.542Z</time></trkpt><trkpt lat="43.8500383" lon="12.4869733"><ele>497.3333333333333</ele><time>2026-04-26T09:55:06.542Z</time></trkpt><trkpt lat="43.8500367" lon="12.4871533"><ele>495.66666666666663</ele><time>2026-04-26T09:55:08.542Z</time></trkpt><trkpt lat="43.85002" lon="12.48725"><ele>494.0</ele><time>2026-04-26T09:55:09.542Z</time></trkpt><trkpt lat="43.8500033" lon="12.48734"><ele>492.0</ele><time>2026-04-26T09:55:10.542Z</time></trkpt><trkpt lat="43.8499633" lon="12.4874917"><ele>490.0</ele><time>2026-04-26T09:55:12.542Z</time></trkpt><trkpt lat="43.8498583" lon="12.4875983"><ele>488.0</ele><time>2026-04-26T09:55:14.541Z</time></trkpt><trkpt lat="43.8497817" lon="12.487665"><ele>486.0</ele><time>2026-04-26T09:55:15.542Z</time></trkpt><trkpt lat="43.849725" lon="12.48772"><ele>484.0</ele><time>2026-04-26T09:55:16.542Z</time></trkpt><trkpt lat="43.8496667" lon="12.4877867"><ele>484.00000000000006</ele><time>2026-04-26T09:55:17.541Z</time></trkpt><trkpt lat="43.8496283" lon="12.4878933"><ele>484.0</ele><time>2026-04-26T09:55:19.542Z</time></trkpt><trkpt lat="43.8495933" lon="12.4880167"><ele>484.0</ele><time>2026-04-26T09:55:21.542Z</time></trkpt><trkpt lat="43.8495783" lon="12.4881067"><ele>484.0</ele><time>2026-04-26T09:55:22.542Z</time></trkpt><trkpt lat="43.8495783" lon="12.488205"><ele>484.00000000000006</ele><time>2026-04-26T09:55:23.542Z</time></trkpt><trkpt lat="43.8495983" lon="12.4883033"><ele>484.0</ele><time>2026-04-26T09:55:24.542Z</time></trkpt><trkpt lat="43.8496183" lon="12.4884033"><ele>484.1666666666667</ele><time>2026-04-26T09:55:25.542Z</time></trkpt><trkpt lat="43.8496417" lon="12.4885017"><ele>484.33333333333337</ele><time>2026-04-26T09:55:26.541Z</time></trkpt><trkpt lat="43.8496783" lon="12.488615"><ele>484.5</ele><time>2026-04-26T09:55:27.541Z</time></trkpt><trkpt lat="43.84971" lon="12.4887367"><ele>484.66666666666663</ele><time>2026-04-26T09:55:28.541Z</time></trkpt><trkpt lat="43.8497317" lon="12.4888417"><ele>484.8333333333333</ele><time>2026-04-26T09:55:29.541Z</time></trkpt><trkpt lat="43.8497617" lon="12.4889217"><ele>485.0</ele><time>2026-04-26T09:55:30.542Z</time></trkpt><trkpt lat="43.8498117" lon="12.4890033"><ele>484.99999999999994</ele><time>2026-04-26T09:55:31.542Z</time></trkpt><trkpt lat="43.8498567" lon="12.489085"><ele>485.0</ele><time>2026-04-26T09:55:32.541Z</time></trkpt><trkpt lat="43.8498933" lon="12.48918"><ele>485.0</ele><time>2026-04-26T09:55:34.542Z</time></trkpt><trkpt lat="43.8499283" lon="12.4893117"><ele>485.0</ele><time>2026-04-26T09:55:36.542Z</time></trkpt><trkpt lat="43.849955" lon="12.4894083"><ele>484.99999999999994</ele><time>2026-04-26T09:55:37.541Z</time></trkpt><trkpt lat="43.8499783" lon="12.4895283"><ele>485.0</ele><time>2026-04-26T09:55:38.542Z</time></trkpt><trkpt lat="43.8500083" lon="12.4896533"><ele>484.4</ele><time>2026-04-26T09:55:39.541Z</time></trkpt><trkpt lat="43.85005" lon="12.4897867"><ele>483.8</ele><time>2026-04-26T09:55:40.542Z</time></trkpt><trkpt lat="43.85009" lon="12.4899367"><ele>483.20000000000005</ele><time>2026-04-26T09:55:41.542Z</time></trkpt><trkpt lat="43.850125" lon="12.4900717"><ele>482.6</ele><time>2026-04-26T09:55:42.542Z</time></trkpt><trkpt lat="43.850155" lon="12.4902"><ele>482.0</ele><time>2026-04-26T09:55:43.542Z</time></trkpt><trkpt lat="43.850185" lon="12.4903183"><ele>481.16666666666663</ele><time>2026-04-26T09:55:44.541Z</time></trkpt><trkpt lat="43.8502153" lon="12.4904297"><ele>480.3333333333333</ele><time>2026-04-26T09:55:45.541Z</time></trkpt><trkpt lat="43.8502448" lon="12.490523"><ele>479.5</ele><time>2026-04-26T09:55:46.542Z</time></trkpt><trkpt lat="43.8502818" lon="12.4906177"><ele>478.66666666666663</ele><time>2026-04-26T09:55:47.542Z</time></trkpt><trkpt lat="43.8503283" lon="12.4907203"><ele>477.8333333333333</ele><time>2026-04-26T09:55:48.542Z</time></trkpt><trkpt lat="43.8503687" lon="12.490825"><ele>477.0</ele><time>2026-04-26T09:55:49.542Z</time></trkpt><trkpt lat="43.8503895" lon="12.4909526"><ele>477.0</ele><time>2026-04-26T09:55:50.542Z</time></trkpt><trkpt lat="43.8503965" lon="12.4911012"><ele>477.0</ele><time>2026-04-26T09:55:51.542Z</time></trkpt><trkpt lat="43.8504229" lon="12.4912685"><ele>477.0</ele><time>2026-04-26T09:55:52.542Z</time></trkpt><trkpt lat="43.8504507" lon="12.491433"><ele>477.0</ele><time>2026-04-26T09:55:53.542Z</time></trkpt><trkpt lat="43.8504759" lon="12.4915787"><ele>477.1666666666667</ele><time>2026-04-26T09:55:54.542Z</time></trkpt><trkpt lat="43.850494" lon="12.4917048"><ele>477.33333333333337</ele><time>2026-04-26T09:55:55.541Z</time></trkpt><trkpt lat="43.8504995" lon="12.4918"><ele>477.5</ele><time>2026-04-26T09:55:56.542Z</time></trkpt><trkpt lat="43.8505074" lon="12.4919582"><ele>477.6666666666667</ele><time>2026-04-26T09:55:58.542Z</time></trkpt><trkpt lat="43.8505371" lon="12.4920353"><ele>477.83333333333337</ele><time>2026-04-26T09:55:59.541Z</time></trkpt><trkpt lat="43.8505842" lon="12.4921283"><ele>478.0</ele><time>2026-04-26T09:56:00.542Z</time></trkpt><trkpt lat="43.8506233" lon="12.4922244"><ele>478.6666666666667</ele><time>2026-04-26T09:56:01.542Z</time></trkpt><trkpt lat="43.8506558" lon="12.4923906"><ele>479.33333333333337</ele><time>2026-04-26T09:56:03.541Z</time></trkpt><trkpt lat="43.850672" lon="12.4924894"><ele>480.0</ele><time>2026-04-26T09:56:04.541Z</time></trkpt><trkpt lat="43.8507002" lon="12.4926004"><ele>480.66666666666663</ele><time>2026-04-26T09:56:05.542Z</time></trkpt><trkpt lat="43.8507388" lon="12.4926984"><ele>481.3333333333333</ele><time>2026-04-26T09:56:06.542Z</time></trkpt><trkpt lat="43.8507852" lon="12.4927891"><ele>482.0</ele><time>2026-04-26T09:56:07.542Z</time></trkpt><trkpt lat="43.8508392" lon="12.4928853"><ele>482.49999999999994</ele><time>2026-04-26T09:56:08.542Z</time></trkpt><trkpt lat="43.8508908" lon="12.4929776"><ele>483.0</ele><time>2026-04-26T09:56:09.542Z</time></trkpt><trkpt lat="43.8509409" lon="12.4930716"><ele>483.5</ele><time>2026-04-26T09:56:10.542Z</time></trkpt><trkpt lat="43.8509857" lon="12.4931715"><ele>484.0</ele><time>2026-04-26T09:56:11.542Z</time></trkpt><trkpt lat="43.8510182" lon="12.4932816"><ele>484.49999999999994</ele><time>2026-04-26T09:56:12.542Z</time></trkpt><trkpt lat="43.8510305" lon="12.4933933"><ele>485.0</ele><time>2026-04-26T09:56:13.542Z</time></trkpt><trkpt lat="43.851034" lon="12.493516"><ele>483.99999999999994</ele><time>2026-04-26T09:56:14.542Z</time></trkpt><trkpt lat="43.8510461" lon="12.4936336"><ele>483.0</ele><time>2026-04-26T09:56:15.541Z</time></trkpt><trkpt lat="43.8510755" lon="12.4937441"><ele>482.0</ele><time>2026-04-26T09:56:16.542Z</time></trkpt><trkpt lat="43.8511063" lon="12.4938484"><ele>481.0</ele><time>2026-04-26T09:56:17.542Z</time></trkpt><trkpt lat="43.8511283" lon="12.4939483"><ele>479.99999999999994</ele><time>2026-04-26T09:56:18.541Z</time></trkpt><trkpt lat="43.851145" lon="12.4940433"><ele>479.0</ele><time>2026-04-26T09:56:19.541Z</time></trkpt><trkpt lat="43.851165" lon="12.4941367"><ele>479.0</ele><time>2026-04-26T09:56:20.542Z</time></trkpt><trkpt lat="43.8511783" lon="12.4942317"><ele>479.0</ele><time>2026-04-26T09:56:21.542Z</time></trkpt><trkpt lat="43.8511883" lon="12.4943417"><ele>479.0</ele><time>2026-04-26T09:56:22.542Z</time></trkpt><trkpt lat="43.8512067" lon="12.4944783"><ele>479.0</ele><time>2026-04-26T09:56:23.541Z</time></trkpt><trkpt lat="43.8512167" lon="12.494625"><ele>479.0</ele><time>2026-04-26T09:56:24.541Z</time></trkpt><trkpt lat="43.8512217" lon="12.4947717"><ele>480.6</ele><time>2026-04-26T09:56:25.542Z</time></trkpt><trkpt lat="43.8512217" lon="12.49491"><ele>482.2</ele><time>2026-04-26T09:56:26.542Z</time></trkpt><trkpt lat="43.85124" lon="12.4950417"><ele>483.80000000000007</ele><time>2026-04-26T09:56:27.542Z</time></trkpt><trkpt lat="43.85127" lon="12.4951783"><ele>485.40000000000003</ele><time>2026-04-26T09:56:28.542Z</time></trkpt><trkpt lat="43.851315" lon="12.4953083"><ele>487.0</ele><time>2026-04-26T09:56:29.542Z</time></trkpt><trkpt lat="43.851365" lon="12.4954333"><ele>488.50000000000006</ele><time>2026-04-26T09:56:30.542Z</time></trkpt><trkpt lat="43.85141" lon="12.4955667"><ele>490.0</ele><time>2026-04-26T09:56:31.541Z</time></trkpt><trkpt lat="43.8514467" lon="12.4956867"><ele>491.5</ele><time>2026-04-26T09:56:32.542Z</time></trkpt><trkpt lat="43.8514683" lon="12.4957983"><ele>493.0</ele><time>2026-04-26T09:56:33.542Z</time></trkpt><trkpt lat="43.85149" lon="12.495895"><ele>494.50000000000006</ele><time>2026-04-26T09:56:34.542Z</time></trkpt><trkpt lat="43.8515083" lon="12.4959883"><ele>496.0</ele><time>2026-04-26T09:56:35.542Z</time></trkpt><trkpt lat="43.85153" lon="12.496075"><ele>496.0</ele><time>2026-04-26T09:56:36.542Z</time></trkpt><trkpt lat="43.85155" lon="12.4961617"><ele>496.00000000000006</ele><time>2026-04-26T09:56:37.542Z</time></trkpt><trkpt lat="43.8515383" lon="12.4962833"><ele>496.0</ele><time>2026-04-26T09:56:39.541Z</time></trkpt><trkpt lat="43.8515167" lon="12.4963667"><ele>496.0</ele><time>2026-04-26T09:56:40.542Z</time></trkpt><trkpt lat="43.8514983" lon="12.49646"><ele>496.00000000000006</ele><time>2026-04-26T09:56:41.541Z</time></trkpt><trkpt lat="43.85149" lon="12.496565"><ele>496.0</ele><time>2026-04-26T09:56:42.542Z</time></trkpt><trkpt lat="43.85149" lon="12.4966783"><ele>496.0</ele><time>2026-04-26T09:56:43.542Z</time></trkpt><trkpt lat="43.851495" lon="12.49681"><ele>497.8</ele><time>2026-04-26T09:56:44.542Z</time></trkpt><trkpt lat="43.8514967" lon="12.4969467"><ele>499.6</ele><time>2026-04-26T09:56:45.542Z</time></trkpt><trkpt lat="43.8514933" lon="12.497095"><ele>501.4</ele><time>2026-04-26T09:56:46.542Z</time></trkpt><trkpt lat="43.8514767" lon="12.497245"><ele>503.2</ele><time>2026-04-26T09:56:47.542Z</time></trkpt><trkpt lat="43.85144" lon="12.497395"><ele>505.0</ele><time>2026-04-26T09:56:48.541Z</time></trkpt><trkpt lat="43.8514067" lon="12.4975267"><ele>506.2</ele><time>2026-04-26T09:56:49.542Z</time></trkpt><trkpt lat="43.8514017" lon="12.497645"><ele>507.4</ele><time>2026-04-26T09:56:50.542Z</time></trkpt><trkpt lat="43.851425" lon="12.497765"><ele>508.6</ele><time>2026-04-26T09:56:51.542Z</time></trkpt><trkpt lat="43.8514617" lon="12.4979"><ele>509.8</ele><time>2026-04-26T09:56:52.541Z</time></trkpt><trkpt lat="43.8514933" lon="12.4980417"><ele>511.0</ele><time>2026-04-26T09:56:53.542Z</time></trkpt><trkpt lat="43.8515133" lon="12.4981883"><ele>513.4</ele><time>2026-04-26T09:56:54.542Z</time></trkpt><trkpt lat="43.8515217" lon="12.4983367"><ele>515.8</ele><time>2026-04-26T09:56:55.541Z</time></trkpt><trkpt lat="43.8515333" lon="12.4984917"><ele>518.1999999999999</ele><time>2026-04-26T09:56:56.542Z</time></trkpt><trkpt lat="43.8515417" lon="12.498635"><ele>520.6</ele><time>2026-04-26T09:56:57.542Z</time></trkpt><trkpt lat="43.8515633" lon="12.4987717"><ele>523.0</ele><time>2026-04-26T09:56:58.542Z</time></trkpt><trkpt lat="43.8516033" lon="12.4989017"><ele>525.6</ele><time>2026-04-26T09:56:59.542Z</time></trkpt><trkpt lat="43.8516483" lon="12.4990283"><ele>528.1999999999999</ele><time>2026-04-26T09:57:00.542Z</time></trkpt><trkpt lat="43.8516783" lon="12.4991467"><ele>530.8</ele><time>2026-04-26T09:57:01.542Z</time></trkpt><trkpt lat="43.8516883" lon="12.49926"><ele>533.4</ele><time>2026-04-26T09:57:02.542Z</time></trkpt><trkpt lat="43.8516933" lon="12.49939"><ele>536.0</ele><time>2026-04-26T09:57:03.541Z</time></trkpt><trkpt lat="43.85168" lon="12.4995533"><ele>538.0</ele><time>2026-04-26T09:57:04.542Z</time></trkpt><trkpt lat="43.8516617" lon="12.49973"><ele>540.0</ele><time>2026-04-26T09:57:05.541Z</time></trkpt><trkpt lat="43.8516517" lon="12.4999217"><ele>542.0</ele><time>2026-04-26T09:57:06.542Z</time></trkpt><trkpt lat="43.8516617" lon="12.5000933"><ele>544.0</ele><time>2026-04-26T09:57:07.541Z</time></trkpt><trkpt lat="43.8516783" lon="12.5002417"><ele>544.0</ele><time>2026-04-26T09:57:08.542Z</time></trkpt><trkpt lat="43.851685" lon="12.5003617"><ele>544.0</ele><time>2026-04-26T09:57:09.542Z</time></trkpt><trkpt lat="43.851695" lon="12.5004683"><ele>544.0</ele><time>2026-04-26T09:57:10.541Z</time></trkpt><trkpt lat="43.8517117" lon="12.5005667"><ele>544.0</ele><time>2026-04-26T09:57:11.542Z</time></trkpt><trkpt lat="43.851755" lon="12.500715"><ele>544.0</ele><time>2026-04-26T09:57:13.542Z</time></trkpt><trkpt lat="43.8518317" lon="12.500815"><ele>544.2</ele><time>2026-04-26T09:57:15.541Z</time></trkpt><trkpt lat="43.85192" lon="12.500895"><ele>544.4</ele><time>2026-04-26T09:57:17.542Z</time></trkpt><trkpt lat="43.8519733" lon="12.500965"><ele>544.6</ele><time>2026-04-26T09:57:18.541Z</time></trkpt><trkpt lat="43.8520333" lon="12.501065"><ele>544.8</ele><time>2026-04-26T09:57:19.541Z</time></trkpt><trkpt lat="43.8520967" lon="12.5012017"><ele>545.0</ele><time>2026-04-26T09:57:20.542Z</time></trkpt><trkpt lat="43.8521583" lon="12.5013783"><ele>545.0</ele><time>2026-04-26T09:57:21.542Z</time></trkpt><trkpt lat="43.852205" lon="12.5015717"><ele>545.0</ele><time>2026-04-26T09:57:22.542Z</time></trkpt><trkpt lat="43.852265" lon="12.50174"><ele>545.0</ele><time>2026-04-26T09:57:23.542Z</time></trkpt><trkpt lat="43.8523367" lon="12.50189"><ele>545.0</ele><time>2026-04-26T09:57:24.542Z</time></trkpt><trkpt lat="43.85242" lon="12.502025"><ele>545.75</ele><time>2026-04-26T09:57:25.542Z</time></trkpt><trkpt lat="43.8525117" lon="12.5021333"><ele>546.5</ele><time>2026-04-26T09:57:26.542Z</time></trkpt><trkpt lat="43.8526117" lon="12.5022367"><ele>547.25</ele><time>2026-04-26T09:57:27.542Z</time></trkpt><trkpt lat="43.8527133" lon="12.5023233"><ele>548.0</ele><time>2026-04-26T09:57:28.542Z</time></trkpt><trkpt lat="43.8528033" lon="12.502405"><ele>549.3333333333333</ele><time>2026-04-26T09:57:29.542Z</time></trkpt><trkpt lat="43.8528783" lon="12.5024817"><ele>550.6666666666666</ele><time>2026-04-26T09:57:30.542Z</time></trkpt><trkpt lat="43.8529367" lon="12.50254"><ele>552.0</ele><time>2026-04-26T09:57:31.542Z</time></trkpt><trkpt lat="43.8529967" lon="12.5025933"><ele>553.3333333333334</ele><time>2026-04-26T09:57:32.542Z</time></trkpt><trkpt lat="43.8530583" lon="12.50265"><ele>554.6666666666667</ele><time>2026-04-26T09:57:33.542Z</time></trkpt><trkpt lat="43.8531233" lon="12.5027167"><ele>556.0</ele><time>2026-04-26T09:57:34.542Z</time></trkpt><trkpt lat="43.8531833" lon="12.5027933"><ele>556.0</ele><time>2026-04-26T09:57:35.542Z</time></trkpt><trkpt lat="43.85324" lon="12.5028833"><ele>556.0</ele><time>2026-04-26T09:57:36.542Z</time></trkpt><trkpt lat="43.8532917" lon="12.50297"><ele>556.0</ele><time>2026-04-26T09:57:37.541Z</time></trkpt><trkpt lat="43.8533633" lon="12.503085"><ele>556.0</ele><time>2026-04-26T09:57:39.541Z</time></trkpt><trkpt lat="43.853455" lon="12.5031983"><ele>556.0</ele><time>2026-04-26T09:57:41.541Z</time></trkpt><trkpt lat="43.8535583" lon="12.5032633"><ele>558.2</ele><time>2026-04-26T09:57:43.542Z</time></trkpt><trkpt lat="43.85365" lon="12.5033033"><ele>560.4000000000001</ele><time>2026-04-26T09:57:45.541Z</time></trkpt><trkpt lat="43.8537083" lon="12.5034183"><ele>562.6</ele><time>2026-04-26T09:57:47.541Z</time></trkpt><trkpt lat="43.8537133" lon="12.5035417"><ele>564.8000000000001</ele><time>2026-04-26T09:57:48.541Z</time></trkpt><trkpt lat="43.8536983" lon="12.503715"><ele>567.0</ele><time>2026-04-26T09:57:49.542Z</time></trkpt><trkpt lat="43.8537067" lon="12.5039067"><ele>568.0</ele><time>2026-04-26T09:57:50.542Z</time></trkpt><trkpt lat="43.853745" lon="12.504105"><ele>569.0</ele><time>2026-04-26T09:57:51.542Z</time></trkpt><trkpt lat="43.8538117" lon="12.5043067"><ele>570.0</ele><time>2026-04-26T09:57:52.542Z</time></trkpt><trkpt lat="43.8538833" lon="12.5045017"><ele>566.5</ele><time>2026-04-26T09:57:53.541Z</time></trkpt><trkpt lat="43.85395" lon="12.5046867"><ele>563.0</ele><time>2026-04-26T09:57:54.542Z</time></trkpt><trkpt lat="43.854015" lon="12.5048633"><ele>559.5</ele><time>2026-04-26T09:57:55.542Z</time></trkpt><trkpt lat="43.8540933" lon="12.5050333"><ele>556.0</ele><time>2026-04-26T09:57:56.542Z</time></trkpt><trkpt lat="43.85416" lon="12.5051783"><ele>556.0</ele><time>2026-04-26T09:57:57.542Z</time></trkpt><trkpt lat="43.8542367" lon="12.505305"><ele>556.0</ele><time>2026-04-26T09:57:58.542Z</time></trkpt><trkpt lat="43.8543267" lon="12.5054183"><ele>556.0</ele><time>2026-04-26T09:57:59.542Z</time></trkpt><trkpt lat="43.854425" lon="12.505505"><ele>556.0</ele><time>2026-04-26T09:58:00.542Z</time></trkpt><trkpt lat="43.85454" lon="12.5055767"><ele>554.5</ele><time>2026-04-26T09:58:01.541Z</time></trkpt><trkpt lat="43.8546617" lon="12.5056233"><ele>553.0</ele><time>2026-04-26T09:58:02.542Z</time></trkpt><trkpt lat="43.8548033" lon="12.505675"><ele>551.5</ele><time>2026-04-26T09:58:03.542Z</time></trkpt><trkpt lat="43.8549467" lon="12.5057217"><ele>550.0</ele><time>2026-04-26T09:58:04.542Z</time></trkpt><trkpt lat="43.8550817" lon="12.505775"><ele>552.25</ele><time>2026-04-26T09:58:05.541Z</time></trkpt><trkpt lat="43.8552017" lon="12.5058317"><ele>554.5</ele><time>2026-04-26T09:58:06.542Z</time></trkpt><trkpt lat="43.8553133" lon="12.505925"><ele>556.75</ele><time>2026-04-26T09:58:07.542Z</time></trkpt><trkpt lat="43.85542" lon="12.5060317"><ele>559.0</ele><time>2026-04-26T09:58:08.542Z</time></trkpt><trkpt lat="43.8555117" lon="12.50615"><ele>555.25</ele><time>2026-04-26T09:58:09.542Z</time></trkpt><trkpt lat="43.8555867" lon="12.5062917"><ele>551.5</ele><time>2026-04-26T09:58:10.541Z</time></trkpt><trkpt lat="43.8556433" lon="12.5064567"><ele>547.75</ele><time>2026-04-26T09:58:11.541Z</time></trkpt><trkpt lat="43.8556917" lon="12.5066417"><ele>544.0</ele><time>2026-04-26T09:58:12.542Z</time></trkpt><trkpt lat="43.8557283" lon="12.5068383"><ele>544.0</ele><time>2026-04-26T09:58:13.542Z</time></trkpt><trkpt lat="43.85577" lon="12.5070517"><ele>544.0</ele><time>2026-04-26T09:58:14.541Z</time></trkpt><trkpt lat="43.8558167" lon="12.5072767"><ele>544.0</ele><time>2026-04-26T09:58:15.542Z</time></trkpt><trkpt lat="43.8558567" lon="12.5075067"><ele>541.5</ele><time>2026-04-26T09:58:16.542Z</time></trkpt><trkpt lat="43.8558917" lon="12.5077283"><ele>539.0</ele><time>2026-04-26T09:58:17.541Z</time></trkpt><trkpt lat="43.8559267" lon="12.5079267"><ele>536.5</ele><time>2026-04-26T09:58:18.541Z</time></trkpt><trkpt lat="43.8559633" lon="12.5080983"><ele>534.0</ele><time>2026-04-26T09:58:19.542Z</time></trkpt><trkpt lat="43.8559883" lon="12.50825"><ele>532.0</ele><time>2026-04-26T09:58:20.541Z</time></trkpt><trkpt lat="43.8560167" lon="12.508395"><ele>530.0</ele><time>2026-04-26T09:58:21.542Z</time></trkpt><trkpt lat="43.856045" lon="12.50855"><ele>528.0</ele><time>2026-04-26T09:58:22.542Z</time></trkpt><trkpt lat="43.8560883" lon="12.50869"><ele>526.0</ele><time>2026-04-26T09:58:23.541Z</time></trkpt><trkpt lat="43.856165" lon="12.5088133"><ele>526.0</ele><time>2026-04-26T09:58:24.541Z</time></trkpt><trkpt lat="43.856255" lon="12.5089233"><ele>526.0</ele><time>2026-04-26T09:58:25.541Z</time></trkpt><trkpt lat="43.8563483" lon="12.5090117"><ele>526.0</ele><time>2026-04-26T09:58:26.542Z</time></trkpt><trkpt lat="43.8564433" lon="12.5090667"><ele>526.0</ele><time>2026-04-26T09:58:27.542Z</time></trkpt><trkpt lat="43.8565417" lon="12.5090833"><ele>526.0</ele><time>2026-04-26T09:58:28.542Z</time></trkpt><trkpt lat="43.8566483" lon="12.50908"><ele>526.0</ele><time>2026-04-26T09:58:29.542Z</time></trkpt><trkpt lat="43.856765" lon="12.5090467"><ele>526.0</ele><time>2026-04-26T09:58:30.542Z</time></trkpt><trkpt lat="43.85689" lon="12.5089883"><ele>526.0</ele><time>2026-04-26T09:58:31.542Z</time></trkpt><trkpt lat="43.8569867" lon="12.5089017"><ele>526.0</ele><time>2026-04-26T09:58:32.542Z</time></trkpt><trkpt lat="43.8570583" lon="12.50879"><ele>522.25</ele><time>2026-04-26T09:58:33.542Z</time></trkpt><trkpt lat="43.8571067" lon="12.50864"><ele>518.5</ele><time>2026-04-26T09:58:34.541Z</time></trkpt><trkpt lat="43.857125" lon="12.5084617"><ele>514.75</ele><time>2026-04-26T09:58:35.542Z</time></trkpt><trkpt lat="43.8571167" lon="12.5082567"><ele>511.0</ele><time>2026-04-26T09:58:36.542Z</time></trkpt><trkpt lat="43.8571117" lon="12.5080683"><ele>511.5</ele><time>2026-04-26T09:58:37.542Z</time></trkpt><trkpt lat="43.85714" lon="12.5078883"><ele>512.0</ele><time>2026-04-26T09:58:38.542Z</time></trkpt><trkpt lat="43.8572017" lon="12.507715"><ele>512.5</ele><time>2026-04-26T09:58:39.541Z</time></trkpt><trkpt lat="43.85729" lon="12.5075417"><ele>513.0</ele><time>2026-04-26T09:58:40.542Z</time></trkpt><trkpt lat="43.8574017" lon="12.5073683"><ele>513.0</ele><time>2026-04-26T09:58:41.542Z</time></trkpt><trkpt lat="43.8575167" lon="12.5071967"><ele>513.0</ele><time>2026-04-26T09:58:42.542Z</time></trkpt><trkpt lat="43.85763" lon="12.5070367"><ele>513.0</ele><time>2026-04-26T09:58:43.542Z</time></trkpt><trkpt lat="43.8577433" lon="12.5068883"><ele>511.25</ele><time>2026-04-26T09:58:44.541Z</time></trkpt><trkpt lat="43.8578617" lon="12.5067733"><ele>509.5</ele><time>2026-04-26T09:58:45.542Z</time></trkpt><trkpt lat="43.8579767" lon="12.506715"><ele>507.75</ele><time>2026-04-26T09:58:46.542Z</time></trkpt><trkpt lat="43.8580917" lon="12.5066983"><ele>506.0</ele><time>2026-04-26T09:58:47.542Z</time></trkpt><trkpt lat="43.8582317" lon="12.506715"><ele>506.0</ele><time>2026-04-26T09:58:48.542Z</time></trkpt><trkpt lat="43.8583833" lon="12.5067383"><ele>506.0</ele><time>2026-04-26T09:58:49.541Z</time></trkpt><trkpt lat="43.8585233" lon="12.5067583"><ele>506.0</ele><time>2026-04-26T09:58:50.542Z</time></trkpt><trkpt lat="43.8586683" lon="12.5067667"><ele>506.0</ele><time>2026-04-26T09:58:51.542Z</time></trkpt><trkpt lat="43.8588117" lon="12.5067517"><ele>500.0</ele><time>2026-04-26T09:58:52.542Z</time></trkpt><trkpt lat="43.8589583" lon="12.506695"><ele>494.0</ele><time>2026-04-26T09:58:53.541Z</time></trkpt><trkpt lat="43.8591" lon="12.506595"><ele>488.0</ele><time>2026-04-26T09:58:54.542Z</time></trkpt><trkpt lat="43.859245" lon="12.5064967"><ele>485.66666666666663</ele><time>2026-04-26T09:58:55.541Z</time></trkpt><trkpt lat="43.859395" lon="12.5063867"><ele>483.33333333333337</ele><time>2026-04-26T09:58:56.542Z</time></trkpt><trkpt lat="43.85954" lon="12.5062717"><ele>481.0</ele><time>2026-04-26T09:58:57.542Z</time></trkpt><trkpt lat="43.85968" lon="12.506155"><ele>481.0</ele><time>2026-04-26T09:58:58.541Z</time></trkpt><trkpt lat="43.859835" lon="12.5060533"><ele>481.0</ele><time>2026-04-26T09:58:59.541Z</time></trkpt><trkpt lat="43.8599883" lon="12.5059617"><ele>481.0</ele><time>2026-04-26T09:59:00.541Z</time></trkpt><trkpt lat="43.8601583" lon="12.5058883"><ele>476.6666666666667</ele><time>2026-04-26T09:59:01.542Z</time></trkpt><trkpt lat="43.8603283" lon="12.5058417"><ele>472.33333333333337</ele><time>2026-04-26T09:59:02.542Z</time></trkpt><trkpt lat="43.8605017" lon="12.5058117"><ele>468.0</ele><time>2026-04-26T09:59:03.542Z</time></trkpt><trkpt lat="43.860675" lon="12.5058067"><ele>468.0</ele><time>2026-04-26T09:59:04.542Z</time></trkpt><trkpt lat="43.86086" lon="12.5058067"><ele>468.0</ele><time>2026-04-26T09:59:05.541Z</time></trkpt><trkpt lat="43.8610367" lon="12.5058217"><ele>468.0</ele><time>2026-04-26T09:59:06.542Z</time></trkpt><trkpt lat="43.8612133" lon="12.505845"><ele>465.33333333333337</ele><time>2026-04-26T09:59:07.542Z</time></trkpt><trkpt lat="43.861384" lon="12.5058602"><ele>462.6666666666667</ele><time>2026-04-26T09:59:08.542Z</time></trkpt><trkpt lat="43.8615486" lon="12.5058684"><ele>460.0</ele><time>2026-04-26T09:59:09.542Z</time></trkpt><trkpt lat="43.8617123" lon="12.5058659"><ele>458.33333333333337</ele><time>2026-04-26T09:59:10.542Z</time></trkpt><trkpt lat="43.8618794" lon="12.5058546"><ele>456.66666666666663</ele><time>2026-04-26T09:59:11.542Z</time></trkpt><trkpt lat="43.8620506" lon="12.5058464"><ele>455.0</ele><time>2026-04-26T09:59:12.541Z</time></trkpt><trkpt lat="43.8622221" lon="12.5058535"><ele>455.0</ele><time>2026-04-26T09:59:13.542Z</time></trkpt><trkpt lat="43.8623774" lon="12.5058961"><ele>455.0</ele><time>2026-04-26T09:59:14.541Z</time></trkpt><trkpt lat="43.862513" lon="12.5059689"><ele>455.0</ele><time>2026-04-26T09:59:15.542Z</time></trkpt><trkpt lat="43.8626297" lon="12.5060528"><ele>455.0</ele><time>2026-04-26T09:59:16.542Z</time></trkpt><trkpt lat="43.8627259" lon="12.5061197"><ele>453.0</ele><time>2026-04-26T09:59:17.541Z</time></trkpt><trkpt lat="43.8628146" lon="12.5061448"><ele>451.0</ele><time>2026-04-26T09:59:18.542Z</time></trkpt><trkpt lat="43.8629042" lon="12.5061135"><ele>449.0</ele><time>2026-04-26T09:59:19.542Z</time></trkpt><trkpt lat="43.8629812" lon="12.5060271"><ele>447.0</ele><time>2026-04-26T09:59:20.542Z</time></trkpt><trkpt lat="43.8630544" lon="12.5058874"><ele>445.0</ele><time>2026-04-26T09:59:21.541Z</time></trkpt><trkpt lat="43.863128" lon="12.5057233"><ele>445.0</ele><time>2026-04-26T09:59:22.542Z</time></trkpt><trkpt lat="43.8632093" lon="12.5055701"><ele>445.0</ele><time>2026-04-26T09:59:23.542Z</time></trkpt><trkpt lat="43.8633016" lon="12.5054343"><ele>445.0</ele><time>2026-04-26T09:59:24.542Z</time></trkpt><trkpt lat="43.8634044" lon="12.5053212"><ele>445.0</ele><time>2026-04-26T09:59:25.542Z</time></trkpt><trkpt lat="43.8635183" lon="12.5052447"><ele>441.5</ele><time>2026-04-26T09:59:26.541Z</time></trkpt><trkpt lat="43.8636435" lon="12.5052066"><ele>438.0</ele><time>2026-04-26T09:59:27.542Z</time></trkpt><trkpt lat="43.8637928" lon="12.5052093"><ele>434.5</ele><time>2026-04-26T09:59:28.541Z</time></trkpt><trkpt lat="43.8639621" lon="12.5052442"><ele>431.0</ele><time>2026-04-26T09:59:29.541Z</time></trkpt><trkpt lat="43.8641307" lon="12.5052916"><ele>429.66666666666663</ele><time>2026-04-26T09:59:30.542Z</time></trkpt><trkpt lat="43.8642886" lon="12.5053383"><ele>428.33333333333337</ele><time>2026-04-26T09:59:31.542Z</time></trkpt><trkpt lat="43.8644448" lon="12.5053849"><ele>427.0</ele><time>2026-04-26T09:59:32.542Z</time></trkpt><trkpt lat="43.8646065" lon="12.5054258"><ele>427.0</ele><time>2026-04-26T09:59:33.542Z</time></trkpt><trkpt lat="43.8647688" lon="12.5054652"><ele>427.0</ele><time>2026-04-26T09:59:34.542Z</time></trkpt><trkpt lat="43.8649327" lon="12.5055075"><ele>427.0</ele><time>2026-04-26T09:59:35.542Z</time></trkpt><trkpt lat="43.8650985" lon="12.5055448"><ele>425.5</ele><time>2026-04-26T09:59:36.542Z</time></trkpt><trkpt lat="43.8652631" lon="12.5055781"><ele>424.0</ele><time>2026-04-26T09:59:37.542Z</time></trkpt><trkpt lat="43.8654037" lon="12.5056162"><ele>422.5</ele><time>2026-04-26T09:59:38.542Z</time></trkpt><trkpt lat="43.8655266" lon="12.5056549"><ele>421.0</ele><time>2026-04-26T09:59:39.542Z</time></trkpt><trkpt lat="43.8656298" lon="12.5057164"><ele>421.0</ele><time>2026-04-26T09:59:40.542Z</time></trkpt><trkpt lat="43.8657036" lon="12.505809"><ele>421.0</ele><time>2026-04-26T09:59:41.542Z</time></trkpt><trkpt lat="43.865747" lon="12.5059249"><ele>421.0</ele><time>2026-04-26T09:59:42.542Z</time></trkpt><trkpt lat="43.8657572" lon="12.5060674"><ele>421.0</ele><time>2026-04-26T09:59:43.542Z</time></trkpt><trkpt lat="43.8657399" lon="12.5062384"><ele>421.0</ele><time>2026-04-26T09:59:44.541Z</time></trkpt><trkpt lat="43.8656935" lon="12.5064245"><ele>419.75</ele><time>2026-04-26T09:59:45.541Z</time></trkpt><trkpt lat="43.8656212" lon="12.506611"><ele>418.5</ele><time>2026-04-26T09:59:46.542Z</time></trkpt><trkpt lat="43.8655536" lon="12.5067822"><ele>417.25</ele><time>2026-04-26T09:59:47.542Z</time></trkpt><trkpt lat="43.8655154" lon="12.5069401"><ele>416.0</ele><time>2026-04-26T09:59:48.542Z</time></trkpt><trkpt lat="43.8655147" lon="12.507083"><ele>413.4</ele><time>2026-04-26T09:59:49.542Z</time></trkpt><trkpt lat="43.8655549" lon="12.5072016"><ele>410.8</ele><time>2026-04-26T09:59:50.542Z</time></trkpt><trkpt lat="43.8656322" lon="12.5072802"><ele>408.2</ele><time>2026-04-26T09:59:51.542Z</time></trkpt><trkpt lat="43.8657384" lon="12.5073107"><ele>405.59999999999997</ele><time>2026-04-26T09:59:52.542Z</time></trkpt><trkpt lat="43.8658679" lon="12.5072888"><ele>403.0</ele><time>2026-04-26T09:59:53.542Z</time></trkpt><trkpt lat="43.8660054" lon="12.5072139"><ele>403.33333333333337</ele><time>2026-04-26T09:59:54.542Z</time></trkpt><trkpt lat="43.8661375" lon="12.5070881"><ele>403.66666666666663</ele><time>2026-04-26T09:59:55.542Z</time></trkpt><trkpt lat="43.8662563" lon="12.5069359"><ele>404.0</ele><time>2026-04-26T09:59:56.541Z</time></trkpt><trkpt lat="43.8663587" lon="12.5067778"><ele>404.0</ele><time>2026-04-26T09:59:57.542Z</time></trkpt><trkpt lat="43.8664518" lon="12.5066274"><ele>404.0</ele><time>2026-04-26T09:59:58.542Z</time></trkpt><trkpt lat="43.8665403" lon="12.5064829"><ele>404.0</ele><time>2026-04-26T09:59:59.542Z</time></trkpt><trkpt lat="43.8666321" lon="12.5063503"><ele>404.0</ele><time>2026-04-26T10:00:00.542Z</time></trkpt><trkpt lat="43.8667294" lon="12.5062254"><ele>402.75</ele><time>2026-04-26T10:00:01.541Z</time></trkpt><trkpt lat="43.8668345" lon="12.5061145"><ele>401.5</ele><time>2026-04-26T10:00:02.542Z</time></trkpt><trkpt lat="43.8669497" lon="12.5060443"><ele>400.25</ele><time>2026-04-26T10:00:03.541Z</time></trkpt><trkpt lat="43.8670685" lon="12.5060198"><ele>399.0</ele><time>2026-04-26T10:00:04.54Z</time></trkpt><trkpt lat="43.8671988" lon="12.506052"><ele>399.0</ele><time>2026-04-26T10:00:05.541Z</time></trkpt><trkpt lat="43.867339" lon="12.5061258"><ele>399.0</ele><time>2026-04-26T10:00:06.541Z</time></trkpt><trkpt lat="43.8674677" lon="12.5062061"><ele>399.0</ele><time>2026-04-26T10:00:07.541Z</time></trkpt><trkpt lat="43.8675792" lon="12.5062611"><ele>399.0</ele><time>2026-04-26T10:00:08.541Z</time></trkpt><trkpt lat="43.8676782" lon="12.5062834"><ele>396.2</ele><time>2026-04-26T10:00:09.541Z</time></trkpt><trkpt lat="43.8677666" lon="12.5062605"><ele>393.4</ele><time>2026-04-26T10:00:10.54Z</time></trkpt><trkpt lat="43.8678365" lon="12.5061988"><ele>390.6</ele><time>2026-04-26T10:00:11.54Z</time></trkpt><trkpt lat="43.8678857" lon="12.5061001"><ele>387.8</ele><time>2026-04-26T10:00:12.54Z</time></trkpt><trkpt lat="43.8679178" lon="12.5059565"><ele>385.0</ele><time>2026-04-26T10:00:13.541Z</time></trkpt><trkpt lat="43.8679377" lon="12.5057716"><ele>384.75</ele><time>2026-04-26T10:00:14.541Z</time></trkpt><trkpt lat="43.867954" lon="12.5055713"><ele>384.5</ele><time>2026-04-26T10:00:15.541Z</time></trkpt><trkpt lat="43.8679736" lon="12.5053804"><ele>384.25</ele><time>2026-04-26T10:00:16.54Z</time></trkpt><trkpt lat="43.8679975" lon="12.5052034"><ele>384.0</ele><time>2026-04-26T10:00:17.54Z</time></trkpt><trkpt lat="43.8680296" lon="12.5050412"><ele>383.25</ele><time>2026-04-26T10:00:18.541Z</time></trkpt><trkpt lat="43.8680753" lon="12.5048894"><ele>382.5</ele><time>2026-04-26T10:00:19.54Z</time></trkpt><trkpt lat="43.8681374" lon="12.5047474"><ele>381.75</ele><time>2026-04-26T10:00:20.54Z</time></trkpt><trkpt lat="43.8682147" lon="12.504606"><ele>381.0</ele><time>2026-04-26T10:00:21.541Z</time></trkpt><trkpt lat="43.868297" lon="12.5044649"><ele>381.0</ele><time>2026-04-26T10:00:22.541Z</time></trkpt><trkpt lat="43.8683763" lon="12.5043261"><ele>381.0</ele><time>2026-04-26T10:00:23.54Z</time></trkpt><trkpt lat="43.8684417" lon="12.5041991"><ele>381.0</ele><time>2026-04-26T10:00:24.541Z</time></trkpt><trkpt lat="43.8684854" lon="12.504078"><ele>381.0</ele><time>2026-04-26T10:00:25.541Z</time></trkpt><trkpt lat="43.8685088" lon="12.5039509"><ele>381.0</ele><time>2026-04-26T10:00:26.541Z</time></trkpt><trkpt lat="43.8684966" lon="12.5038286"><ele>379.25</ele><time>2026-04-26T10:00:27.541Z</time></trkpt><trkpt lat="43.8684509" lon="12.5037278"><ele>377.5</ele><time>2026-04-26T10:00:28.54Z</time></trkpt><trkpt lat="43.8683685" lon="12.5036496"><ele>375.75</ele><time>2026-04-26T10:00:29.541Z</time></trkpt><trkpt lat="43.8682367" lon="12.5036023"><ele>374.0</ele><time>2026-04-26T10:00:30.541Z</time></trkpt><trkpt lat="43.8680618" lon="12.5035753"><ele>374.0</ele><time>2026-04-26T10:00:31.541Z</time></trkpt><trkpt lat="43.8678853" lon="12.5035479"><ele>374.0</ele><time>2026-04-26T10:00:32.541Z</time></trkpt><trkpt lat="43.8677189" lon="12.5035179"><ele>374.0</ele><time>2026-04-26T10:00:33.541Z</time></trkpt><trkpt lat="43.8675628" lon="12.5034951"><ele>374.25</ele><time>2026-04-26T10:00:34.54Z</time></trkpt><trkpt lat="43.8674261" lon="12.5034743"><ele>374.5</ele><time>2026-04-26T10:00:35.541Z</time></trkpt><trkpt lat="43.867312" lon="12.5034324"><ele>374.75</ele><time>2026-04-26T10:00:36.541Z</time></trkpt><trkpt lat="43.8672222" lon="12.5033617"><ele>375.0</ele><time>2026-04-26T10:00:37.541Z</time></trkpt><trkpt lat="43.8671526" lon="12.5032598"><ele>375.0</ele><time>2026-04-26T10:00:38.541Z</time></trkpt><trkpt lat="43.8671041" lon="12.5031225"><ele>375.0</ele><time>2026-04-26T10:00:39.54Z</time></trkpt><trkpt lat="43.8670872" lon="12.5029674"><ele>375.0</ele><time>2026-04-26T10:00:40.541Z</time></trkpt><trkpt lat="43.8670906" lon="12.5028069"><ele>375.0</ele><time>2026-04-26T10:00:41.54Z</time></trkpt><trkpt lat="43.8671161" lon="12.5026443"><ele>372.5</ele><time>2026-04-26T10:00:42.541Z</time></trkpt><trkpt lat="43.8671643" lon="12.5024923"><ele>370.0</ele><time>2026-04-26T10:00:43.541Z</time></trkpt><trkpt lat="43.8672406" lon="12.5023584"><ele>367.5</ele><time>2026-04-26T10:00:44.541Z</time></trkpt><trkpt lat="43.8673445" lon="12.5022544"><ele>365.0</ele><time>2026-04-26T10:00:45.54Z</time></trkpt><trkpt lat="43.8674742" lon="12.5021787"><ele>364.6666666666667</ele><time>2026-04-26T10:00:46.541Z</time></trkpt><trkpt lat="43.867624" lon="12.502112"><ele>364.3333333333333</ele><time>2026-04-26T10:00:47.541Z</time></trkpt><trkpt lat="43.8677701" lon="12.5020464"><ele>364.0</ele><time>2026-04-26T10:00:48.54Z</time></trkpt><trkpt lat="43.8679117" lon="12.5019783"><ele>360.3333333333333</ele><time>2026-04-26T10:00:49.541Z</time></trkpt><trkpt lat="43.8680517" lon="12.5019117"><ele>356.6666666666667</ele><time>2026-04-26T10:00:50.54Z</time></trkpt><trkpt lat="43.8681967" lon="12.5018483"><ele>353.0</ele><time>2026-04-26T10:00:51.541Z</time></trkpt><trkpt lat="43.8683467" lon="12.5017983"><ele>351.75</ele><time>2026-04-26T10:00:52.54Z</time></trkpt><trkpt lat="43.8684833" lon="12.501755"><ele>350.5</ele><time>2026-04-26T10:00:53.541Z</time></trkpt><trkpt lat="43.8686233" lon="12.5017"><ele>349.25</ele><time>2026-04-26T10:00:54.541Z</time></trkpt><trkpt lat="43.8687567" lon="12.501645"><ele>348.0</ele><time>2026-04-26T10:00:55.541Z</time></trkpt><trkpt lat="43.8688933" lon="12.5015733"><ele>348.0</ele><time>2026-04-26T10:00:56.541Z</time></trkpt><trkpt lat="43.869025" lon="12.501495"><ele>348.0</ele><time>2026-04-26T10:00:57.541Z</time></trkpt><trkpt lat="43.86915" lon="12.50142"><ele>348.0</ele><time>2026-04-26T10:00:58.541Z</time></trkpt><trkpt lat="43.86927" lon="12.5013483"><ele>348.0</ele><time>2026-04-26T10:00:59.54Z</time></trkpt><trkpt lat="43.8693867" lon="12.5012783"><ele>345.2</ele><time>2026-04-26T10:01:00.54Z</time></trkpt><trkpt lat="43.869495" lon="12.5012283"><ele>342.4</ele><time>2026-04-26T10:01:01.54Z</time></trkpt><trkpt lat="43.8696" lon="12.5012083"><ele>339.59999999999997</ele><time>2026-04-26T10:01:02.541Z</time></trkpt><trkpt lat="43.8697083" lon="12.501225"><ele>336.79999999999995</ele><time>2026-04-26T10:01:03.54Z</time></trkpt><trkpt lat="43.8698083" lon="12.5012933"><ele>334.0</ele><time>2026-04-26T10:01:04.541Z</time></trkpt><trkpt lat="43.8698967" lon="12.5014033"><ele>334.0</ele><time>2026-04-26T10:01:05.541Z</time></trkpt><trkpt lat="43.86997" lon="12.5015633"><ele>334.0</ele><time>2026-04-26T10:01:06.54Z</time></trkpt><trkpt lat="43.87003" lon="12.5017567"><ele>334.0</ele><time>2026-04-26T10:01:07.541Z</time></trkpt><trkpt lat="43.8700867" lon="12.50196"><ele>334.0</ele><time>2026-04-26T10:01:08.541Z</time></trkpt><trkpt lat="43.8701417" lon="12.5021583"><ele>329.66666666666663</ele><time>2026-04-26T10:01:09.541Z</time></trkpt><trkpt lat="43.87021" lon="12.5023383"><ele>325.3333333333333</ele><time>2026-04-26T10:01:10.541Z</time></trkpt><trkpt lat="43.8702983" lon="12.5025083"><ele>321.0</ele><time>2026-04-26T10:01:11.541Z</time></trkpt><trkpt lat="43.87041" lon="12.5026633"><ele>321.0</ele><time>2026-04-26T10:01:12.54Z</time></trkpt><trkpt lat="43.8705417" lon="12.5027967"><ele>321.0</ele><time>2026-04-26T10:01:13.541Z</time></trkpt><trkpt lat="43.8706683" lon="12.5029117"><ele>321.0</ele><time>2026-04-26T10:01:14.541Z</time></trkpt><trkpt lat="43.8707783" lon="12.5029983"><ele>321.0</ele><time>2026-04-26T10:01:15.541Z</time></trkpt><trkpt lat="43.870875" lon="12.503055"><ele>318.0</ele><time>2026-04-26T10:01:16.541Z</time></trkpt><trkpt lat="43.8709567" lon="12.503085"><ele>315.0</ele><time>2026-04-26T10:01:17.54Z</time></trkpt><trkpt lat="43.871035" lon="12.50305"><ele>312.0</ele><time>2026-04-26T10:01:18.54Z</time></trkpt><trkpt lat="43.871085" lon="12.5029633"><ele>309.0</ele><time>2026-04-26T10:01:19.54Z</time></trkpt><trkpt lat="43.8710983" lon="12.5028467"><ele>306.0</ele><time>2026-04-26T10:01:20.541Z</time></trkpt><trkpt lat="43.87108" lon="12.5027267"><ele>303.0</ele><time>2026-04-26T10:01:21.541Z</time></trkpt><trkpt lat="43.87103" lon="12.502605"><ele>301.5</ele><time>2026-04-26T10:01:22.541Z</time></trkpt><trkpt lat="43.8709483" lon="12.502485"><ele>300.0</ele><time>2026-04-26T10:01:23.541Z</time></trkpt><trkpt lat="43.8708667" lon="12.5023683"><ele>298.5</ele><time>2026-04-26T10:01:24.541Z</time></trkpt><trkpt lat="43.8708117" lon="12.5022233"><ele>297.0</ele><time>2026-04-26T10:01:25.541Z</time></trkpt><trkpt lat="43.8707883" lon="12.5020383"><ele>302.3333333333333</ele><time>2026-04-26T10:01:26.541Z</time></trkpt><trkpt lat="43.8707967" lon="12.5018133"><ele>307.66666666666663</ele><time>2026-04-26T10:01:27.541Z</time></trkpt><trkpt lat="43.870835" lon="12.5015783"><ele>313.0</ele><time>2026-04-26T10:01:28.541Z</time></trkpt><trkpt lat="43.8708817" lon="12.5013717"><ele>312.0</ele><time>2026-04-26T10:01:29.54Z</time></trkpt><trkpt lat="43.8709283" lon="12.50118"><ele>311.0</ele><time>2026-04-26T10:01:30.541Z</time></trkpt><trkpt lat="43.8709517" lon="12.5009883"><ele>310.0</ele><time>2026-04-26T10:01:31.541Z</time></trkpt><trkpt lat="43.870945" lon="12.5007767"><ele>309.0</ele><time>2026-04-26T10:01:32.54Z</time></trkpt><trkpt lat="43.8709117" lon="12.5005317"><ele>305.6666666666667</ele><time>2026-04-26T10:01:33.54Z</time></trkpt><trkpt lat="43.87088" lon="12.5002833"><ele>302.33333333333337</ele><time>2026-04-26T10:01:34.541Z</time></trkpt><trkpt lat="43.8708533" lon="12.500035"><ele>299.0</ele><time>2026-04-26T10:01:35.54Z</time></trkpt><trkpt lat="43.87082" lon="12.499795"><ele>297.6666666666667</ele><time>2026-04-26T10:01:36.541Z</time></trkpt><trkpt lat="43.8707833" lon="12.49956"><ele>296.3333333333333</ele><time>2026-04-26T10:01:37.541Z</time></trkpt><trkpt lat="43.870765" lon="12.499345"><ele>295.0</ele><time>2026-04-26T10:01:38.54Z</time></trkpt><trkpt lat="43.87077" lon="12.49914"><ele>295.0</ele><time>2026-04-26T10:01:39.541Z</time></trkpt><trkpt lat="43.8708017" lon="12.49895"><ele>295.0</ele><time>2026-04-26T10:01:40.541Z</time></trkpt><trkpt lat="43.8708583" lon="12.4987833"><ele>295.0</ele><time>2026-04-26T10:01:41.541Z</time></trkpt><trkpt lat="43.8709233" lon="12.4986283"><ele>295.0</ele><time>2026-04-26T10:01:42.541Z</time></trkpt><trkpt lat="43.8709767" lon="12.4984583"><ele>292.0</ele><time>2026-04-26T10:01:43.541Z</time></trkpt><trkpt lat="43.8710067" lon="12.4982817"><ele>289.0</ele><time>2026-04-26T10:01:44.541Z</time></trkpt><trkpt lat="43.8710067" lon="12.4981083"><ele>286.0</ele><time>2026-04-26T10:01:45.54Z</time></trkpt><trkpt lat="43.8709767" lon="12.4979233"><ele>283.0</ele><time>2026-04-26T10:01:46.541Z</time></trkpt><trkpt lat="43.8709283" lon="12.4977217"><ele>283.0</ele><time>2026-04-26T10:01:47.541Z</time></trkpt><trkpt lat="43.8708633" lon="12.4975317"><ele>283.0</ele><time>2026-04-26T10:01:48.541Z</time></trkpt><trkpt lat="43.8708067" lon="12.497345"><ele>283.0</ele><time>2026-04-26T10:01:49.54Z</time></trkpt><trkpt lat="43.8707467" lon="12.497165"><ele>283.0</ele><time>2026-04-26T10:01:50.541Z</time></trkpt><trkpt lat="43.87069" lon="12.496985"><ele>281.4</ele><time>2026-04-26T10:01:51.54Z</time></trkpt><trkpt lat="43.8706367" lon="12.496825"><ele>279.8</ele><time>2026-04-26T10:01:52.541Z</time></trkpt><trkpt lat="43.8706117" lon="12.4966783"><ele>278.2</ele><time>2026-04-26T10:01:53.541Z</time></trkpt><trkpt lat="43.870605" lon="12.496535"><ele>276.6</ele><time>2026-04-26T10:01:54.541Z</time></trkpt><trkpt lat="43.87063" lon="12.49639"><ele>275.0</ele><time>2026-04-26T10:01:55.54Z</time></trkpt><trkpt lat="43.8706783" lon="12.4962533"><ele>273.5</ele><time>2026-04-26T10:01:56.54Z</time></trkpt><trkpt lat="43.870755" lon="12.49611"><ele>272.0</ele><time>2026-04-26T10:01:57.541Z</time></trkpt><trkpt lat="43.8708333" lon="12.49596"><ele>270.5</ele><time>2026-04-26T10:01:58.541Z</time></trkpt><trkpt lat="43.87091" lon="12.4958283"><ele>269.0</ele><time>2026-04-26T10:01:59.541Z</time></trkpt><trkpt lat="43.870985" lon="12.495695"><ele>269.0</ele><time>2026-04-26T10:02:00.54Z</time></trkpt><trkpt lat="43.8710617" lon="12.4955583"><ele>269.0</ele><time>2026-04-26T10:02:01.54Z</time></trkpt><trkpt lat="43.87114" lon="12.4954117"><ele>269.0</ele><time>2026-04-26T10:02:02.541Z</time></trkpt><trkpt lat="43.8712183" lon="12.495275"><ele>269.0</ele><time>2026-04-26T10:02:03.541Z</time></trkpt><trkpt lat="43.8712933" lon="12.4951433"><ele>269.0</ele><time>2026-04-26T10:02:04.541Z</time></trkpt><trkpt lat="43.8713567" lon="12.4950317"><ele>269.0</ele><time>2026-04-26T10:02:05.541Z</time></trkpt><trkpt lat="43.8714133" lon="12.494925"><ele>269.0</ele><time>2026-04-26T10:02:06.54Z</time></trkpt><trkpt lat="43.8714667" lon="12.4948217"><ele>269.0</ele><time>2026-04-26T10:02:07.541Z</time></trkpt><trkpt lat="43.871515" lon="12.4947183"><ele>269.0</ele><time>2026-04-26T10:02:08.541Z</time></trkpt><trkpt lat="43.8715617" lon="12.4945917"><ele>269.59999999999997</ele><time>2026-04-26T10:02:09.54Z</time></trkpt><trkpt lat="43.8716083" lon="12.4944567"><ele>270.2</ele><time>2026-04-26T10:02:10.541Z</time></trkpt><trkpt lat="43.8716467" lon="12.4943183"><ele>270.79999999999995</ele><time>2026-04-26T10:02:11.541Z</time></trkpt><trkpt lat="43.87168" lon="12.494185"><ele>271.4</ele><time>2026-04-26T10:02:12.541Z</time></trkpt><trkpt lat="43.8717083" lon="12.4940617"><ele>272.0</ele><time>2026-04-26T10:02:13.541Z</time></trkpt><trkpt lat="43.871735" lon="12.49395"><ele>272.0</ele><time>2026-04-26T10:02:14.541Z</time></trkpt><trkpt lat="43.8717617" lon="12.4938517"><ele>272.0</ele><time>2026-04-26T10:02:15.541Z</time></trkpt><trkpt lat="43.8717933" lon="12.493775"><ele>272.0</ele><time>2026-04-26T10:02:16.541Z</time></trkpt><trkpt lat="43.871875" lon="12.49369"><ele>272.0</ele><time>2026-04-26T10:02:18.541Z</time></trkpt><trkpt lat="43.8720067" lon="12.4937233"><ele>272.0</ele><time>2026-04-26T10:02:20.541Z</time></trkpt><trkpt lat="43.8720967" lon="12.493765"><ele>272.0</ele><time>2026-04-26T10:02:21.54Z</time></trkpt><trkpt lat="43.8722067" lon="12.4938233"><ele>272.0</ele><time>2026-04-26T10:02:22.541Z</time></trkpt><trkpt lat="43.8723233" lon="12.4938833"><ele>272.0</ele><time>2026-04-26T10:02:23.54Z</time></trkpt><trkpt lat="43.8724417" lon="12.4939483"><ele>272.0</ele><time>2026-04-26T10:02:24.541Z</time></trkpt><trkpt lat="43.87255" lon="12.4940167"><ele>275.25</ele><time>2026-04-26T10:02:25.541Z</time></trkpt><trkpt lat="43.8726667" lon="12.494095"><ele>278.5</ele><time>2026-04-26T10:02:26.541Z</time></trkpt><trkpt lat="43.8727867" lon="12.49418"><ele>281.75</ele><time>2026-04-26T10:02:27.54Z</time></trkpt><trkpt lat="43.8729133" lon="12.49427"><ele>285.0</ele><time>2026-04-26T10:02:28.541Z</time></trkpt><trkpt lat="43.8730467" lon="12.4943717"><ele>285.0</ele><time>2026-04-26T10:02:29.541Z</time></trkpt><trkpt lat="43.873175" lon="12.4944633"><ele>285.0</ele><time>2026-04-26T10:02:30.541Z</time></trkpt><trkpt lat="43.8733067" lon="12.4945683"><ele>285.0</ele><time>2026-04-26T10:02:31.541Z</time></trkpt><trkpt lat="43.8734383" lon="12.4946767"><ele>285.0</ele><time>2026-04-26T10:02:32.54Z</time></trkpt><trkpt lat="43.8735633" lon="12.49478"><ele>284.75</ele><time>2026-04-26T10:02:33.541Z</time></trkpt><trkpt lat="43.873685" lon="12.494885"><ele>284.5</ele><time>2026-04-26T10:02:34.54Z</time></trkpt><trkpt lat="43.8738033" lon="12.4949933"><ele>284.25</ele><time>2026-04-26T10:02:35.541Z</time></trkpt><trkpt lat="43.8739183" lon="12.49511"><ele>284.0</ele><time>2026-04-26T10:02:36.541Z</time></trkpt><trkpt lat="43.8740283" lon="12.4952333"><ele>284.0</ele><time>2026-04-26T10:02:37.541Z</time></trkpt><trkpt lat="43.8741283" lon="12.49536"><ele>284.0</ele><time>2026-04-26T10:02:38.541Z</time></trkpt><trkpt lat="43.8742183" lon="12.4954867"><ele>284.0</ele><time>2026-04-26T10:02:39.541Z</time></trkpt><trkpt lat="43.8743133" lon="12.495605"><ele>284.0</ele><time>2026-04-26T10:02:40.54Z</time></trkpt><trkpt lat="43.874415" lon="12.4957083"><ele>282.0</ele><time>2026-04-26T10:02:41.541Z</time></trkpt><trkpt lat="43.8745283" lon="12.4957867"><ele>280.0</ele><time>2026-04-26T10:02:42.541Z</time></trkpt><trkpt lat="43.87464" lon="12.4958517"><ele>278.0</ele><time>2026-04-26T10:02:43.54Z</time></trkpt><trkpt lat="43.874745" lon="12.495895"><ele>276.0</ele><time>2026-04-26T10:02:44.541Z</time></trkpt><trkpt lat="43.8748483" lon="12.49591"><ele>276.0</ele><time>2026-04-26T10:02:45.54Z</time></trkpt><trkpt lat="43.8749517" lon="12.4959183"><ele>276.0</ele><time>2026-04-26T10:02:46.54Z</time></trkpt><trkpt lat="43.87506" lon="12.4959167"><ele>276.0</ele><time>2026-04-26T10:02:47.54Z</time></trkpt><trkpt lat="43.875165" lon="12.4959267"><ele>276.0</ele><time>2026-04-26T10:02:48.541Z</time></trkpt><trkpt lat="43.8752633" lon="12.4959717"><ele>276.0</ele><time>2026-04-26T10:02:49.541Z</time></trkpt><trkpt lat="43.8753617" lon="12.4960617"><ele>276.5</ele><time>2026-04-26T10:02:50.541Z</time></trkpt><trkpt lat="43.8754617" lon="12.4961833"><ele>277.0</ele><time>2026-04-26T10:02:51.541Z</time></trkpt><trkpt lat="43.87556" lon="12.4963217"><ele>277.5</ele><time>2026-04-26T10:02:52.54Z</time></trkpt><trkpt lat="43.8756617" lon="12.49647"><ele>278.0</ele><time>2026-04-26T10:02:53.541Z</time></trkpt><trkpt lat="43.8757533" lon="12.496625"><ele>279.0</ele><time>2026-04-26T10:02:54.541Z</time></trkpt><trkpt lat="43.875835" lon="12.496795"><ele>280.0</ele><time>2026-04-26T10:02:55.541Z</time></trkpt><trkpt lat="43.8759033" lon="12.4969667"><ele>281.0</ele><time>2026-04-26T10:02:56.541Z</time></trkpt><trkpt lat="43.8759533" lon="12.4971417"><ele>282.0</ele><time>2026-04-26T10:02:57.54Z</time></trkpt><trkpt lat="43.8759917" lon="12.4973217"><ele>282.0</ele><time>2026-04-26T10:02:58.541Z</time></trkpt><trkpt lat="43.8760217" lon="12.4974967"><ele>282.0</ele><time>2026-04-26T10:02:59.541Z</time></trkpt><trkpt lat="43.8760633" lon="12.497675"><ele>282.0</ele><time>2026-04-26T10:03:00.541Z</time></trkpt><trkpt lat="43.8761" lon="12.4978567"><ele>282.0</ele><time>2026-04-26T10:03:01.541Z</time></trkpt><trkpt lat="43.8761367" lon="12.4980517"><ele>278.6666666666667</ele><time>2026-04-26T10:03:02.541Z</time></trkpt><trkpt lat="43.8761767" lon="12.4982567"><ele>275.33333333333337</ele><time>2026-04-26T10:03:03.541Z</time></trkpt><trkpt lat="43.8762133" lon="12.4984583"><ele>272.0</ele><time>2026-04-26T10:03:04.54Z</time></trkpt><trkpt lat="43.8762583" lon="12.4986567"><ele>270.75</ele><time>2026-04-26T10:03:05.54Z</time></trkpt><trkpt lat="43.8763017" lon="12.4988517"><ele>269.5</ele><time>2026-04-26T10:03:06.54Z</time></trkpt><trkpt lat="43.8763583" lon="12.499035"><ele>268.25</ele><time>2026-04-26T10:03:07.541Z</time></trkpt><trkpt lat="43.87642" lon="12.4992233"><ele>267.0</ele><time>2026-04-26T10:03:08.54Z</time></trkpt><trkpt lat="43.876485" lon="12.4994117"><ele>266.0</ele><time>2026-04-26T10:03:09.541Z</time></trkpt><trkpt lat="43.8765583" lon="12.4996"><ele>265.0</ele><time>2026-04-26T10:03:10.541Z</time></trkpt><trkpt lat="43.876635" lon="12.4997933"><ele>264.0</ele><time>2026-04-26T10:03:11.541Z</time></trkpt><trkpt lat="43.87672" lon="12.499985"><ele>265.0</ele><time>2026-04-26T10:03:12.541Z</time></trkpt><trkpt lat="43.8768017" lon="12.5001767"><ele>266.0</ele><time>2026-04-26T10:03:13.54Z</time></trkpt><trkpt lat="43.8768833" lon="12.5003717"><ele>267.0</ele><time>2026-04-26T10:03:14.54Z</time></trkpt><trkpt lat="43.8769683" lon="12.5005667"><ele>267.0</ele><time>2026-04-26T10:03:15.541Z</time></trkpt><trkpt lat="43.8770483" lon="12.50076"><ele>267.0</ele><time>2026-04-26T10:03:16.54Z</time></trkpt><trkpt lat="43.8771333" lon="12.500955"><ele>267.0</ele><time>2026-04-26T10:03:17.541Z</time></trkpt><trkpt lat="43.8772183" lon="12.5011467"><ele>265.3333333333333</ele><time>2026-04-26T10:03:18.541Z</time></trkpt><trkpt lat="43.8772917" lon="12.5013317"><ele>263.66666666666663</ele><time>2026-04-26T10:03:19.541Z</time></trkpt><trkpt lat="43.87737" lon="12.5015183"><ele>262.0</ele><time>2026-04-26T10:03:20.541Z</time></trkpt><trkpt lat="43.8774433" lon="12.5017117"><ele>262.0</ele><time>2026-04-26T10:03:21.541Z</time></trkpt><trkpt lat="43.8775217" lon="12.501905"><ele>262.0</ele><time>2026-04-26T10:03:22.541Z</time></trkpt><trkpt lat="43.8775983" lon="12.50209"><ele>262.0</ele><time>2026-04-26T10:03:23.54Z</time></trkpt><trkpt lat="43.8776767" lon="12.5022783"><ele>264.66666666666663</ele><time>2026-04-26T10:03:24.54Z</time></trkpt><trkpt lat="43.8777533" lon="12.5024683"><ele>267.3333333333333</ele><time>2026-04-26T10:03:25.541Z</time></trkpt><trkpt lat="43.87783" lon="12.5026583"><ele>270.0</ele><time>2026-04-26T10:03:26.541Z</time></trkpt><trkpt lat="43.8779067" lon="12.50285"><ele>268.0</ele><time>2026-04-26T10:03:27.54Z</time></trkpt><trkpt lat="43.87798" lon="12.5030367"><ele>266.0</ele><time>2026-04-26T10:03:28.541Z</time></trkpt><trkpt lat="43.87806" lon="12.5032267"><ele>264.0</ele><time>2026-04-26T10:03:29.54Z</time></trkpt><trkpt lat="43.8781417" lon="12.5034233"><ele>264.0</ele><time>2026-04-26T10:03:30.541Z</time></trkpt><trkpt lat="43.8782333" lon="12.5036283"><ele>264.0</ele><time>2026-04-26T10:03:31.541Z</time></trkpt><trkpt lat="43.87833" lon="12.503835"><ele>264.0</ele><time>2026-04-26T10:03:32.541Z</time></trkpt><trkpt lat="43.878435" lon="12.5040383"><ele>264.6666666666667</ele><time>2026-04-26T10:03:33.541Z</time></trkpt><trkpt lat="43.8785517" lon="12.5042417"><ele>265.33333333333337</ele><time>2026-04-26T10:03:34.541Z</time></trkpt><trkpt lat="43.878665" lon="12.504445"><ele>266.0</ele><time>2026-04-26T10:03:35.541Z</time></trkpt><trkpt lat="43.8787817" lon="12.5046567"><ele>264.0</ele><time>2026-04-26T10:03:36.541Z</time></trkpt><trkpt lat="43.8789" lon="12.50488"><ele>262.0</ele><time>2026-04-26T10:03:37.54Z</time></trkpt><trkpt lat="43.879025" lon="12.50509"><ele>260.0</ele><time>2026-04-26T10:03:38.54Z</time></trkpt><trkpt lat="43.87914" lon="12.50529"><ele>261.0</ele><time>2026-04-26T10:03:39.541Z</time></trkpt><trkpt lat="43.8792433" lon="12.5054967"><ele>262.0</ele><time>2026-04-26T10:03:40.54Z</time></trkpt><trkpt lat="43.879335" lon="12.50572"><ele>263.0</ele><time>2026-04-26T10:03:41.54Z</time></trkpt><trkpt lat="43.8794217" lon="12.5059683"><ele>263.0</ele><time>2026-04-26T10:03:42.541Z</time></trkpt><trkpt lat="43.8794933" lon="12.5062133"><ele>263.0</ele><time>2026-04-26T10:03:43.54Z</time></trkpt><trkpt lat="43.87955" lon="12.506465"><ele>263.0</ele><time>2026-04-26T10:03:44.541Z</time></trkpt><trkpt lat="43.8796017" lon="12.506725"><ele>261.0</ele><time>2026-04-26T10:03:45.541Z</time></trkpt><trkpt lat="43.879665" lon="12.50698"><ele>259.0</ele><time>2026-04-26T10:03:46.541Z</time></trkpt><trkpt lat="43.8797467" lon="12.50722"><ele>257.0</ele><time>2026-04-26T10:03:47.54Z</time></trkpt><trkpt lat="43.8798433" lon="12.5074567"><ele>256.33333333333337</ele><time>2026-04-26T10:03:48.54Z</time></trkpt><trkpt lat="43.87994" lon="12.5076883"><ele>255.66666666666669</ele><time>2026-04-26T10:03:49.541Z</time></trkpt><trkpt lat="43.880035" lon="12.5079133"><ele>255.0</ele><time>2026-04-26T10:03:50.54Z</time></trkpt><trkpt lat="43.8801367" lon="12.5081367"><ele>255.0</ele><time>2026-04-26T10:03:51.54Z</time></trkpt><trkpt lat="43.88023" lon="12.50835"><ele>255.0</ele><time>2026-04-26T10:03:52.541Z</time></trkpt><trkpt lat="43.88032" lon="12.5085667"><ele>255.0</ele><time>2026-04-26T10:03:53.541Z</time></trkpt><trkpt lat="43.88041" lon="12.50879"><ele>254.66666666666669</ele><time>2026-04-26T10:03:54.541Z</time></trkpt><trkpt lat="43.8805" lon="12.50902"><ele>254.33333333333334</ele><time>2026-04-26T10:03:55.54Z</time></trkpt><trkpt lat="43.8805883" lon="12.5092533"><ele>254.0</ele><time>2026-04-26T10:03:56.541Z</time></trkpt><trkpt lat="43.880685" lon="12.5094883"><ele>256.33333333333337</ele><time>2026-04-26T10:03:57.541Z</time></trkpt><trkpt lat="43.8807817" lon="12.5097183"><ele>258.6666666666667</ele><time>2026-04-26T10:03:58.54Z</time></trkpt><trkpt lat="43.8808667" lon="12.5099467"><ele>261.0</ele><time>2026-04-26T10:03:59.54Z</time></trkpt><trkpt lat="43.8809467" lon="12.51018"><ele>256.6666666666667</ele><time>2026-04-26T10:04:00.541Z</time></trkpt><trkpt lat="43.881015" lon="12.5104117"><ele>252.33333333333334</ele><time>2026-04-26T10:04:01.541Z</time></trkpt><trkpt lat="43.881085" lon="12.5106517"><ele>248.0</ele><time>2026-04-26T10:04:02.541Z</time></trkpt><trkpt lat="43.88116" lon="12.5108933"><ele>248.0</ele><time>2026-04-26T10:04:03.541Z</time></trkpt><trkpt lat="43.8812267" lon="12.5111367"><ele>248.0</ele><time>2026-04-26T10:04:04.541Z</time></trkpt><trkpt lat="43.88129" lon="12.5113917"><ele>248.0</ele><time>2026-04-26T10:04:05.54Z</time></trkpt><trkpt lat="43.8813533" lon="12.51165"><ele>246.0</ele><time>2026-04-26T10:04:06.541Z</time></trkpt><trkpt lat="43.8814133" lon="12.51191"><ele>244.0</ele><time>2026-04-26T10:04:07.54Z</time></trkpt><trkpt lat="43.8814783" lon="12.5121683"><ele>242.0</ele><time>2026-04-26T10:04:08.541Z</time></trkpt><trkpt lat="43.88154" lon="12.5124383"><ele>241.66666666666669</ele><time>2026-04-26T10:04:09.541Z</time></trkpt><trkpt lat="43.8815983" lon="12.5127233"><ele>241.33333333333331</ele><time>2026-04-26T10:04:10.541Z</time></trkpt><trkpt lat="43.88165" lon="12.51301"><ele>241.0</ele><time>2026-04-26T10:04:11.541Z</time></trkpt><trkpt lat="43.881685" lon="12.5133267"><ele>240.5</ele><time>2026-04-26T10:04:12.541Z</time></trkpt><trkpt lat="43.8817138" lon="12.5136594"><ele>240.0</ele><time>2026-04-26T10:04:13.541Z</time></trkpt><trkpt lat="43.881727" lon="12.5139941"><ele>238.5</ele><time>2026-04-26T10:04:14.54Z</time></trkpt><trkpt lat="43.8817365" lon="12.5143201"><ele>237.0</ele><time>2026-04-26T10:04:15.541Z</time></trkpt><trkpt lat="43.8817462" lon="12.5146356"><ele>236.0</ele><time>2026-04-26T10:04:16.541Z</time></trkpt><trkpt lat="43.8817618" lon="12.5149431"><ele>235.0</ele><time>2026-04-26T10:04:17.541Z</time></trkpt><trkpt lat="43.881785" lon="12.5152483"><ele>234.0</ele><time>2026-04-26T10:04:18.541Z</time></trkpt><trkpt lat="43.8818164" lon="12.5155539"><ele>236.66666666666669</ele><time>2026-04-26T10:04:19.541Z</time></trkpt><trkpt lat="43.8818536" lon="12.5158553"><ele>239.33333333333334</ele><time>2026-04-26T10:04:20.54Z</time></trkpt><trkpt lat="43.8818895" lon="12.5161592"><ele>242.0</ele><time>2026-04-26T10:04:21.54Z</time></trkpt><trkpt lat="43.8819317" lon="12.516466"><ele>242.0</ele><time>2026-04-26T10:04:22.541Z</time></trkpt><trkpt lat="43.8819738" lon="12.5167692"><ele>242.0</ele><time>2026-04-26T10:04:23.54Z</time></trkpt><trkpt lat="43.8820169" lon="12.5170778"><ele>242.0</ele><time>2026-04-26T10:04:24.541Z</time></trkpt><trkpt lat="43.8820625" lon="12.5173887"><ele>240.5</ele><time>2026-04-26T10:04:25.541Z</time></trkpt><trkpt lat="43.8821088" lon="12.5177008"><ele>239.0</ele><time>2026-04-26T10:04:26.541Z</time></trkpt><trkpt lat="43.8821531" lon="12.5180078"><ele>237.0</ele><time>2026-04-26T10:04:27.541Z</time></trkpt><trkpt lat="43.8821906" lon="12.5183064"><ele>235.0</ele><time>2026-04-26T10:04:28.541Z</time></trkpt><trkpt lat="43.8822319" lon="12.5185986"><ele>233.0</ele><time>2026-04-26T10:04:29.54Z</time></trkpt><trkpt lat="43.8822767" lon="12.5188894"><ele>231.33333333333334</ele><time>2026-04-26T10:04:30.541Z</time></trkpt><trkpt lat="43.8823114" lon="12.5191812"><ele>229.66666666666669</ele><time>2026-04-26T10:04:31.541Z</time></trkpt><trkpt lat="43.8823429" lon="12.5194792"><ele>228.0</ele><time>2026-04-26T10:04:32.541Z</time></trkpt><trkpt lat="43.882371" lon="12.5197777"><ele>227.33333333333331</ele><time>2026-04-26T10:04:33.54Z</time></trkpt><trkpt lat="43.8823912" lon="12.5200756"><ele>226.66666666666666</ele><time>2026-04-26T10:04:34.54Z</time></trkpt><trkpt lat="43.8824079" lon="12.5203785"><ele>226.0</ele><time>2026-04-26T10:04:35.54Z</time></trkpt><trkpt lat="43.8824248" lon="12.5206954"><ele>226.0</ele><time>2026-04-26T10:04:36.54Z</time></trkpt><trkpt lat="43.8824454" lon="12.5210262"><ele>226.0</ele><time>2026-04-26T10:04:37.54Z</time></trkpt><trkpt lat="43.8824698" lon="12.5213408"><ele>226.66666666666666</ele><time>2026-04-26T10:04:38.541Z</time></trkpt><trkpt lat="43.8824945" lon="12.5216482"><ele>227.33333333333331</ele><time>2026-04-26T10:04:39.541Z</time></trkpt><trkpt lat="43.8825183" lon="12.5219584"><ele>228.0</ele><time>2026-04-26T10:04:40.54Z</time></trkpt><trkpt lat="43.8825406" lon="12.5222682"><ele>228.0</ele><time>2026-04-26T10:04:41.541Z</time></trkpt><trkpt lat="43.8825623" lon="12.5225621"><ele>228.0</ele><time>2026-04-26T10:04:42.54Z</time></trkpt><trkpt lat="43.8825812" lon="12.5228408"><ele>228.0</ele><time>2026-04-26T10:04:43.541Z</time></trkpt><trkpt lat="43.8825976" lon="12.5231164"><ele>228.66666666666669</ele><time>2026-04-26T10:04:44.541Z</time></trkpt><trkpt lat="43.8826267" lon="12.5233883"><ele>229.33333333333334</ele><time>2026-04-26T10:04:45.541Z</time></trkpt><trkpt lat="43.8826733" lon="12.5236633"><ele>230.0</ele><time>2026-04-26T10:04:46.541Z</time></trkpt><trkpt lat="43.88273" lon="12.52393"><ele>226.66666666666669</ele><time>2026-04-26T10:04:47.541Z</time></trkpt><trkpt lat="43.8828117" lon="12.5242"><ele>223.33333333333331</ele><time>2026-04-26T10:04:48.54Z</time></trkpt><trkpt lat="43.8829067" lon="12.5244467"><ele>220.0</ele><time>2026-04-26T10:04:49.54Z</time></trkpt><trkpt lat="43.8830117" lon="12.5246917"><ele>218.66666666666666</ele><time>2026-04-26T10:04:50.541Z</time></trkpt><trkpt lat="43.8831267" lon="12.5249217"><ele>217.33333333333331</ele><time>2026-04-26T10:04:51.541Z</time></trkpt><trkpt lat="43.8832667" lon="12.525135"><ele>216.0</ele><time>2026-04-26T10:04:52.541Z</time></trkpt><trkpt lat="43.8834217" lon="12.5253283"><ele>215.0</ele><time>2026-04-26T10:04:53.541Z</time></trkpt><trkpt lat="43.8835933" lon="12.5255183"><ele>214.0</ele><time>2026-04-26T10:04:54.54Z</time></trkpt><trkpt lat="43.8837633" lon="12.5256967"><ele>213.0</ele><time>2026-04-26T10:04:55.541Z</time></trkpt><trkpt lat="43.8839317" lon="12.5258667"><ele>213.0</ele><time>2026-04-26T10:04:56.541Z</time></trkpt><trkpt lat="43.8840883" lon="12.52602"><ele>213.0</ele><time>2026-04-26T10:04:57.541Z</time></trkpt><trkpt lat="43.8842333" lon="12.526165"><ele>213.0</ele><time>2026-04-26T10:04:58.54Z</time></trkpt><trkpt lat="43.88437" lon="12.526295"><ele>212.75</ele><time>2026-04-26T10:04:59.54Z</time></trkpt><trkpt lat="43.8844917" lon="12.526415"><ele>212.5</ele><time>2026-04-26T10:05:00.541Z</time></trkpt><trkpt lat="43.8846117" lon="12.526515"><ele>212.25</ele><time>2026-04-26T10:05:01.541Z</time></trkpt><trkpt lat="43.884705" lon="12.526625"><ele>212.0</ele><time>2026-04-26T10:05:02.541Z</time></trkpt><trkpt lat="43.8848033" lon="12.52674"><ele>212.0</ele><time>2026-04-26T10:05:03.541Z</time></trkpt><trkpt lat="43.884905" lon="12.526855"><ele>212.0</ele><time>2026-04-26T10:05:04.54Z</time></trkpt><trkpt lat="43.8850367" lon="12.526975"><ele>212.0</ele><time>2026-04-26T10:05:05.54Z</time></trkpt><trkpt lat="43.88519" lon="12.5271083"><ele>212.0</ele><time>2026-04-26T10:05:06.541Z</time></trkpt><trkpt lat="43.8853533" lon="12.5272717"><ele>212.0</ele><time>2026-04-26T10:05:07.541Z</time></trkpt><trkpt lat="43.8855267" lon="12.5274617"><ele>212.0</ele><time>2026-04-26T10:05:08.541Z</time></trkpt><trkpt lat="43.8857067" lon="12.5276617"><ele>212.0</ele><time>2026-04-26T10:05:09.541Z</time></trkpt><trkpt lat="43.8858683" lon="12.52786"><ele>212.0</ele><time>2026-04-26T10:05:10.541Z</time></trkpt><trkpt lat="43.8860183" lon="12.528055"><ele>212.0</ele><time>2026-04-26T10:05:11.541Z</time></trkpt><trkpt lat="43.8861683" lon="12.5282483"><ele>211.33333333333334</ele><time>2026-04-26T10:05:12.54Z</time></trkpt><trkpt lat="43.8863117" lon="12.5284483"><ele>210.66666666666669</ele><time>2026-04-26T10:05:13.541Z</time></trkpt><trkpt lat="43.8864533" lon="12.528645"><ele>210.0</ele><time>2026-04-26T10:05:14.541Z</time></trkpt><trkpt lat="43.8866" lon="12.5288483"><ele>210.0</ele><time>2026-04-26T10:05:15.54Z</time></trkpt><trkpt lat="43.8867433" lon="12.5290533"><ele>210.0</ele><time>2026-04-26T10:05:16.541Z</time></trkpt><trkpt lat="43.8868933" lon="12.5292567"><ele>210.0</ele><time>2026-04-26T10:05:17.541Z</time></trkpt><trkpt lat="43.88704" lon="12.529455"><ele>210.0</ele><time>2026-04-26T10:05:18.54Z</time></trkpt><trkpt lat="43.8871767" lon="12.5296433"><ele>210.0</ele><time>2026-04-26T10:05:19.54Z</time></trkpt><trkpt lat="43.8873167" lon="12.5298333"><ele>210.0</ele><time>2026-04-26T10:05:20.54Z</time></trkpt><trkpt lat="43.8874567" lon="12.5300233"><ele>209.66666666666669</ele><time>2026-04-26T10:05:21.541Z</time></trkpt><trkpt lat="43.8876033" lon="12.5302167"><ele>209.33333333333334</ele><time>2026-04-26T10:05:22.54Z</time></trkpt><trkpt lat="43.8877383" lon="12.5304083"><ele>209.0</ele><time>2026-04-26T10:05:23.541Z</time></trkpt><trkpt lat="43.8878867" lon="12.5306117"><ele>209.0</ele><time>2026-04-26T10:05:24.541Z</time></trkpt><trkpt lat="43.888035" lon="12.53081"><ele>209.0</ele><time>2026-04-26T10:05:25.541Z</time></trkpt><trkpt lat="43.8881833" lon="12.5310167"><ele>209.0</ele><time>2026-04-26T10:05:26.54Z</time></trkpt><trkpt lat="43.888335" lon="12.5312233"><ele>210.33333333333334</ele><time>2026-04-26T10:05:27.541Z</time></trkpt><trkpt lat="43.88849" lon="12.531425"><ele>211.66666666666669</ele><time>2026-04-26T10:05:28.541Z</time></trkpt><trkpt lat="43.8886533" lon="12.5316167"><ele>213.0</ele><time>2026-04-26T10:05:29.54Z</time></trkpt><trkpt lat="43.8888183" lon="12.5318"><ele>213.0</ele><time>2026-04-26T10:05:30.541Z</time></trkpt><trkpt lat="43.8889867" lon="12.5319717"><ele>213.0</ele><time>2026-04-26T10:05:31.541Z</time></trkpt><trkpt lat="43.889165" lon="12.5321383"><ele>213.0</ele><time>2026-04-26T10:05:32.541Z</time></trkpt><trkpt lat="43.8893467" lon="12.5323"><ele>209.66666666666669</ele><time>2026-04-26T10:05:33.541Z</time></trkpt><trkpt lat="43.88953" lon="12.5324517"><ele>206.33333333333334</ele><time>2026-04-26T10:05:34.541Z</time></trkpt><trkpt lat="43.8897117" lon="12.532585"><ele>203.0</ele><time>2026-04-26T10:05:35.541Z</time></trkpt><trkpt lat="43.8898983" lon="12.532715"><ele>203.0</ele><time>2026-04-26T10:05:36.541Z</time></trkpt><trkpt lat="43.8900783" lon="12.5328383"><ele>203.0</ele><time>2026-04-26T10:05:37.54Z</time></trkpt><trkpt lat="43.890255" lon="12.532965"><ele>203.0</ele><time>2026-04-26T10:05:38.541Z</time></trkpt><trkpt lat="43.8904317" lon="12.5330783"><ele>201.66666666666669</ele><time>2026-04-26T10:05:39.541Z</time></trkpt><trkpt lat="43.890615" lon="12.5331733"><ele>200.33333333333331</ele><time>2026-04-26T10:05:40.541Z</time></trkpt><trkpt lat="43.8908033" lon="12.53325"><ele>199.0</ele><time>2026-04-26T10:05:41.541Z</time></trkpt><trkpt lat="43.8909983" lon="12.5333133"><ele>198.33333333333331</ele><time>2026-04-26T10:05:42.541Z</time></trkpt><trkpt lat="43.891195" lon="12.5333683"><ele>197.66666666666669</ele><time>2026-04-26T10:05:43.541Z</time></trkpt><trkpt lat="43.891395" lon="12.5334233"><ele>197.0</ele><time>2026-04-26T10:05:44.541Z</time></trkpt><trkpt lat="43.8916033" lon="12.5334667"><ele>196.66666666666669</ele><time>2026-04-26T10:05:45.541Z</time></trkpt><trkpt lat="43.8918067" lon="12.5335133"><ele>196.33333333333331</ele><time>2026-04-26T10:05:46.541Z</time></trkpt><trkpt lat="43.8920133" lon="12.5335483"><ele>196.0</ele><time>2026-04-26T10:05:47.541Z</time></trkpt><trkpt lat="43.8922117" lon="12.5335817"><ele>196.0</ele><time>2026-04-26T10:05:48.541Z</time></trkpt><trkpt lat="43.892415" lon="12.533615"><ele>196.0</ele><time>2026-04-26T10:05:49.541Z</time></trkpt><trkpt lat="43.8926233" lon="12.5336467"><ele>196.0</ele><time>2026-04-26T10:05:50.541Z</time></trkpt><trkpt lat="43.892845" lon="12.5336783"><ele>195.66666666666666</ele><time>2026-04-26T10:05:51.541Z</time></trkpt><trkpt lat="43.89306" lon="12.533695"><ele>195.33333333333331</ele><time>2026-04-26T10:05:52.541Z</time></trkpt><trkpt lat="43.89327" lon="12.5336983"><ele>195.0</ele><time>2026-04-26T10:05:53.541Z</time></trkpt><trkpt lat="43.8934817" lon="12.5336867"><ele>196.33333333333331</ele><time>2026-04-26T10:05:54.541Z</time></trkpt><trkpt lat="43.893695" lon="12.5336667"><ele>197.66666666666666</ele><time>2026-04-26T10:05:55.541Z</time></trkpt><trkpt lat="43.893905" lon="12.5336433"><ele>199.0</ele><time>2026-04-26T10:05:56.541Z</time></trkpt><trkpt lat="43.8941167" lon="12.5336117"><ele>199.33333333333331</ele><time>2026-04-26T10:05:57.541Z</time></trkpt><trkpt lat="43.89432" lon="12.53358"><ele>199.66666666666669</ele><time>2026-04-26T10:05:58.541Z</time></trkpt><trkpt lat="43.8945183" lon="12.5335483"><ele>200.0</ele><time>2026-04-26T10:05:59.541Z</time></trkpt><trkpt lat="43.8947183" lon="12.5335283"><ele>200.0</ele><time>2026-04-26T10:06:00.54Z</time></trkpt><trkpt lat="43.8949033" lon="12.533505"><ele>200.0</ele><time>2026-04-26T10:06:01.541Z</time></trkpt><trkpt lat="43.895075" lon="12.533495"><ele>200.0</ele><time>2026-04-26T10:06:02.541Z</time></trkpt><trkpt lat="43.895235" lon="12.5334633"><ele>199.66666666666669</ele><time>2026-04-26T10:06:03.54Z</time></trkpt><trkpt lat="43.8953917" lon="12.533445"><ele>199.33333333333331</ele><time>2026-04-26T10:06:04.541Z</time></trkpt><trkpt lat="43.8955467" lon="12.5334367"><ele>199.0</ele><time>2026-04-26T10:06:05.541Z</time></trkpt><trkpt lat="43.8957067" lon="12.5334217"><ele>199.0</ele><time>2026-04-26T10:06:06.541Z</time></trkpt><trkpt lat="43.8958617" lon="12.5334083"><ele>199.0</ele><time>2026-04-26T10:06:07.541Z</time></trkpt><trkpt lat="43.896015" lon="12.533395"><ele>199.0</ele><time>2026-04-26T10:06:08.541Z</time></trkpt><trkpt lat="43.8961633" lon="12.533395"><ele>199.0</ele><time>2026-04-26T10:06:09.541Z</time></trkpt><trkpt lat="43.8963217" lon="12.5333967"><ele>199.0</ele><time>2026-04-26T10:06:10.541Z</time></trkpt><trkpt lat="43.8964833" lon="12.5334117"><ele>199.0</ele><time>2026-04-26T10:06:11.541Z</time></trkpt><trkpt lat="43.89664" lon="12.5334283"><ele>200.0</ele><time>2026-04-26T10:06:12.541Z</time></trkpt><trkpt lat="43.8967933" lon="12.5334583"><ele>201.0</ele><time>2026-04-26T10:06:13.541Z</time></trkpt><trkpt lat="43.89694" lon="12.5334833"><ele>202.0</ele><time>2026-04-26T10:06:14.541Z</time></trkpt><trkpt lat="43.8970967" lon="12.533515"><ele>202.0</ele><time>2026-04-26T10:06:15.541Z</time></trkpt><trkpt lat="43.8972533" lon="12.5335467"><ele>202.0</ele><time>2026-04-26T10:06:16.54Z</time></trkpt><trkpt lat="43.8974083" lon="12.53358"><ele>202.0</ele><time>2026-04-26T10:06:17.54Z</time></trkpt><trkpt lat="43.89757" lon="12.5336117"><ele>203.33333333333331</ele><time>2026-04-26T10:06:18.541Z</time></trkpt><trkpt lat="43.897735" lon="12.5336367"><ele>204.66666666666669</ele><time>2026-04-26T10:06:19.541Z</time></trkpt><trkpt lat="43.8978967" lon="12.5336567"><ele>206.0</ele><time>2026-04-26T10:06:20.541Z</time></trkpt><trkpt lat="43.8980633" lon="12.5336817"><ele>206.0</ele><time>2026-04-26T10:06:21.541Z</time></trkpt><trkpt lat="43.8982317" lon="12.5337133"><ele>206.0</ele><time>2026-04-26T10:06:22.54Z</time></trkpt><trkpt lat="43.8984117" lon="12.5337483"><ele>206.0</ele><time>2026-04-26T10:06:23.541Z</time></trkpt><trkpt lat="43.8985933" lon="12.5337867"><ele>200.33333333333334</ele><time>2026-04-26T10:06:24.541Z</time></trkpt><trkpt lat="43.8987817" lon="12.5338233"><ele>194.66666666666669</ele><time>2026-04-26T10:06:25.54Z</time></trkpt><trkpt lat="43.8989983" lon="12.5338567"><ele>189.0</ele><time>2026-04-26T10:06:26.541Z</time></trkpt><trkpt lat="43.8992083" lon="12.53389"><ele>189.66666666666666</ele><time>2026-04-26T10:06:27.541Z</time></trkpt><trkpt lat="43.8994" lon="12.53392"><ele>190.33333333333331</ele><time>2026-04-26T10:06:28.54Z</time></trkpt><trkpt lat="43.8995833" lon="12.5339517"><ele>191.0</ele><time>2026-04-26T10:06:29.54Z</time></trkpt><trkpt lat="43.8997667" lon="12.5339783"><ele>191.0</ele><time>2026-04-26T10:06:30.539Z</time></trkpt><trkpt lat="43.8999483" lon="12.5340067"><ele>191.0</ele><time>2026-04-26T10:06:31.539Z</time></trkpt><trkpt lat="43.90013" lon="12.5340367"><ele>191.0</ele><time>2026-04-26T10:06:32.54Z</time></trkpt><trkpt lat="43.9003017" lon="12.53407"><ele>194.33333333333331</ele><time>2026-04-26T10:06:33.54Z</time></trkpt><trkpt lat="43.9004617" lon="12.5341133"><ele>197.66666666666666</ele><time>2026-04-26T10:06:34.54Z</time></trkpt><trkpt lat="43.9006067" lon="12.534165"><ele>201.0</ele><time>2026-04-26T10:06:35.54Z</time></trkpt><trkpt lat="43.9007533" lon="12.5342317"><ele>201.0</ele><time>2026-04-26T10:06:36.54Z</time></trkpt><trkpt lat="43.9009" lon="12.5343167"><ele>201.0</ele><time>2026-04-26T10:06:37.539Z</time></trkpt><trkpt lat="43.9010383" lon="12.5344017"><ele>201.0</ele><time>2026-04-26T10:06:38.54Z</time></trkpt><trkpt lat="43.9011683" lon="12.5345017"><ele>201.25</ele><time>2026-04-26T10:06:39.54Z</time></trkpt><trkpt lat="43.9012917" lon="12.5345917"><ele>201.5</ele><time>2026-04-26T10:06:40.539Z</time></trkpt><trkpt lat="43.9014067" lon="12.5347033"><ele>201.75</ele><time>2026-04-26T10:06:41.54Z</time></trkpt><trkpt lat="43.9015117" lon="12.5348217"><ele>202.0</ele><time>2026-04-26T10:06:42.54Z</time></trkpt><trkpt lat="43.9016083" lon="12.5349333"><ele>201.99999999999997</ele><time>2026-04-26T10:06:43.54Z</time></trkpt><trkpt lat="43.901695" lon="12.5350317"><ele>202.0</ele><time>2026-04-26T10:06:44.54Z</time></trkpt><trkpt lat="43.9017767" lon="12.5350867"><ele>202.0</ele><time>2026-04-26T10:06:45.54Z</time></trkpt><trkpt lat="43.901855" lon="12.53511"><ele>202.0</ele><time>2026-04-26T10:06:46.54Z</time></trkpt><trkpt lat="43.9019183" lon="12.535095"><ele>201.99999999999997</ele><time>2026-04-26T10:06:47.539Z</time></trkpt><trkpt lat="43.9019717" lon="12.53504"><ele>202.0</ele><time>2026-04-26T10:06:48.54Z</time></trkpt><trkpt lat="43.9020167" lon="12.534935"><ele>202.0</ele><time>2026-04-26T10:06:49.54Z</time></trkpt><trkpt lat="43.90206" lon="12.5347867"><ele>202.0</ele><time>2026-04-26T10:06:50.539Z</time></trkpt><trkpt lat="43.902105" lon="12.53464"><ele>202.0</ele><time>2026-04-26T10:06:51.54Z</time></trkpt><trkpt lat="43.902145" lon="12.5345117"><ele>202.0</ele><time>2026-04-26T10:06:52.539Z</time></trkpt><trkpt lat="43.902185" lon="12.534395"><ele>202.0</ele><time>2026-04-26T10:06:53.54Z</time></trkpt><trkpt lat="43.902225" lon="12.5342967"><ele>202.49999999999997</ele><time>2026-04-26T10:06:54.54Z</time></trkpt><trkpt lat="43.9022617" lon="12.5342083"><ele>203.0</ele><time>2026-04-26T10:06:55.54Z</time></trkpt><trkpt lat="43.9023" lon="12.534115"><ele>203.5</ele><time>2026-04-26T10:06:56.54Z</time></trkpt><trkpt lat="43.9023283" lon="12.5340233"><ele>204.0</ele><time>2026-04-26T10:06:57.54Z</time></trkpt><trkpt lat="43.902375" lon="12.5339017"><ele>204.49999999999997</ele><time>2026-04-26T10:06:59.54Z</time></trkpt><trkpt lat="43.9023945" lon="12.5338042"><ele>205.0</ele><time>2026-04-26T10:07:02.54Z</time></trkpt><trkpt lat="43.9023204" lon="12.5336877"><ele>206.25</ele><time>2026-04-26T10:07:04.54Z</time></trkpt><trkpt lat="43.9022374" lon="12.5336155"><ele>207.5</ele><time>2026-04-26T10:07:05.54Z</time></trkpt><trkpt lat="43.9021133" lon="12.53353"><ele>208.75</ele><time>2026-04-26T10:07:06.54Z</time></trkpt><trkpt lat="43.9019917" lon="12.53344"><ele>210.0</ele><time>2026-04-26T10:07:07.539Z</time></trkpt><trkpt lat="43.9018767" lon="12.5333567"><ele>210.0</ele><time>2026-04-26T10:07:08.54Z</time></trkpt><trkpt lat="43.9017633" lon="12.5332867"><ele>210.0</ele><time>2026-04-26T10:07:09.539Z</time></trkpt><trkpt lat="43.9016583" lon="12.5332167"><ele>210.0</ele><time>2026-04-26T10:07:10.54Z</time></trkpt><trkpt lat="43.9015517" lon="12.5331517"><ele>210.0</ele><time>2026-04-26T10:07:11.54Z</time></trkpt><trkpt lat="43.90146" lon="12.5330967"><ele>209.5</ele><time>2026-04-26T10:07:12.54Z</time></trkpt><trkpt lat="43.9013883" lon="12.53305"><ele>209.0</ele><time>2026-04-26T10:07:13.54Z</time></trkpt><trkpt lat="43.9013217" lon="12.5330333"><ele>208.5</ele><time>2026-04-26T10:07:14.54Z</time></trkpt><trkpt lat="43.9012017" lon="12.5330917"><ele>208.0</ele><time>2026-04-26T10:07:16.54Z</time></trkpt><trkpt lat="43.9011483" lon="12.533165"><ele>207.5</ele><time>2026-04-26T10:07:17.539Z</time></trkpt><trkpt lat="43.9010933" lon="12.5332667"><ele>207.0</ele><time>2026-04-26T10:07:18.54Z</time></trkpt><trkpt lat="43.90103" lon="12.53339"><ele>207.0</ele><time>2026-04-26T10:07:19.539Z</time></trkpt><trkpt lat="43.900955" lon="12.5335083"><ele>207.0</ele><time>2026-04-26T10:07:20.54Z</time></trkpt><trkpt lat="43.900875" lon="12.5336167"><ele>207.0</ele><time>2026-04-26T10:07:21.54Z</time></trkpt><trkpt lat="43.9007967" lon="12.5337183"><ele>207.0</ele><time>2026-04-26T10:07:22.54Z</time></trkpt><trkpt lat="43.9007233" lon="12.533805"><ele>207.0</ele><time>2026-04-26T10:07:23.54Z</time></trkpt><trkpt lat="43.9006483" lon="12.5338767"><ele>206.0</ele><time>2026-04-26T10:07:24.54Z</time></trkpt><trkpt lat="43.9005783" lon="12.5339417"><ele>205.0</ele><time>2026-04-26T10:07:25.539Z</time></trkpt><trkpt lat="43.9005183" lon="12.53401"><ele>204.0</ele><time>2026-04-26T10:07:26.54Z</time></trkpt><trkpt lat="43.90047" lon="12.53407"><ele>203.0</ele><time>2026-04-26T10:07:27.54Z</time></trkpt><trkpt lat="43.9004433" lon="12.534195"><ele>202.0</ele><time>2026-04-26T10:07:29.54Z</time></trkpt><trkpt lat="43.900485" lon="12.5342817"><ele>201.0</ele><time>2026-04-26T10:07:31.54Z</time></trkpt><trkpt lat="43.9004517" lon="12.5343883"><ele>201.0</ele><time>2026-04-26T10:07:34.54Z</time></trkpt><trkpt lat="43.9003817" lon="12.53443"><ele>201.0</ele><time>2026-04-26T10:07:36.539Z</time></trkpt><trkpt lat="43.9003183" lon="12.5344683"><ele>201.0</ele><time>2026-04-26T10:07:38.54Z</time></trkpt><trkpt lat="43.9002517" lon="12.534505"><ele>201.0</ele><time>2026-04-26T10:07:40.54Z</time></trkpt><trkpt lat="43.9001767" lon="12.53455"><ele>201.0</ele><time>2026-04-26T10:07:42.54Z</time></trkpt><trkpt lat="43.9000733" lon="12.5346533"><ele>201.0</ele><time>2026-04-26T10:07:44.54Z</time></trkpt><trkpt lat="43.9000133" lon="12.5347233"><ele>198.83333333333334</ele><time>2026-04-26T10:07:45.54Z</time></trkpt><trkpt lat="43.89994" lon="12.534795"><ele>196.66666666666666</ele><time>2026-04-26T10:07:46.54Z</time></trkpt><trkpt lat="43.8998617" lon="12.5348583"><ele>194.5</ele><time>2026-04-26T10:07:47.539Z</time></trkpt><trkpt lat="43.8997883" lon="12.5349067"><ele>192.33333333333331</ele><time>2026-04-26T10:07:48.54Z</time></trkpt><trkpt lat="43.89971" lon="12.5349467"><ele>190.16666666666666</ele><time>2026-04-26T10:07:49.539Z</time></trkpt><trkpt lat="43.899635" lon="12.53499"><ele>188.0</ele><time>2026-04-26T10:07:50.54Z</time></trkpt><trkpt lat="43.8995733" lon="12.5350283"><ele>188.0</ele><time>2026-04-26T10:07:51.539Z</time></trkpt><trkpt lat="43.8994917" lon="12.5350733"><ele>188.0</ele><time>2026-04-26T10:07:53.539Z</time></trkpt><trkpt lat="43.8994083" lon="12.53511"><ele>188.0</ele><time>2026-04-26T10:07:56.54Z</time></trkpt><trkpt lat="43.8993267" lon="12.5351417"><ele>188.0</ele><time>2026-04-26T10:07:59.539Z</time></trkpt><trkpt lat="43.899265" lon="12.5351683"><ele>188.0</ele><time>2026-04-26T10:08:01.539Z</time></trkpt><trkpt lat="43.899185" lon="12.5352183"><ele>188.0</ele><time>2026-04-26T10:08:03.54Z</time></trkpt><trkpt lat="43.8991017" lon="12.5353"><ele>187.5</ele><time>2026-04-26T10:08:05.54Z</time></trkpt><trkpt lat="43.89905" lon="12.5353817"><ele>187.0</ele><time>2026-04-26T10:08:07.54Z</time></trkpt><trkpt lat="43.8990483" lon="12.535495"><ele>186.5</ele><time>2026-04-26T10:08:09.539Z</time></trkpt><trkpt lat="43.8990667" lon="12.5356333"><ele>186.0</ele><time>2026-04-26T10:08:11.54Z</time></trkpt><trkpt lat="43.8990833" lon="12.5357417"><ele>185.5</ele><time>2026-04-26T10:08:14.54Z</time></trkpt><trkpt lat="43.8991033" lon="12.5358433"><ele>185.0</ele><time>2026-04-26T10:08:17.54Z</time></trkpt><trkpt lat="43.89911" lon="12.5359517"><ele>184.6</ele><time>2026-04-26T10:08:19.54Z</time></trkpt><trkpt lat="43.899145" lon="12.53609"><ele>184.2</ele><time>2026-04-26T10:08:21.539Z</time></trkpt><trkpt lat="43.8991533" lon="12.5362"><ele>183.8</ele><time>2026-04-26T10:08:23.54Z</time></trkpt><trkpt lat="43.8991433" lon="12.536305"><ele>183.4</ele><time>2026-04-26T10:08:25.539Z</time></trkpt><trkpt lat="43.8991117" lon="12.5364117"><ele>183.0</ele><time>2026-04-26T10:08:49.54Z</time></trkpt><trkpt lat="43.8990367" lon="12.536535"><ele>182.83333333333334</ele><time>2026-04-26T10:09:00.54Z</time></trkpt><trkpt lat="43.8989583" lon="12.5365517"><ele>182.66666666666666</ele><time>2026-04-26T10:09:04.54Z</time></trkpt><trkpt lat="43.898855" lon="12.5365683"><ele>182.5</ele><time>2026-04-26T10:09:07.54Z</time></trkpt><trkpt lat="43.89878" lon="12.536585"><ele>182.33333333333331</ele><time>2026-04-26T10:09:09.54Z</time></trkpt><trkpt lat="43.8987167" lon="12.5366017"><ele>182.16666666666666</ele><time>2026-04-26T10:09:11.539Z</time></trkpt><trkpt lat="43.8986033" lon="12.5366333"><ele>182.0</ele><time>2026-04-26T10:09:13.54Z</time></trkpt><trkpt lat="43.8984983" lon="12.53669"><ele>182.0</ele><time>2026-04-26T10:09:15.539Z</time></trkpt><trkpt lat="43.8984133" lon="12.5367933"><ele>182.0</ele><time>2026-04-26T10:09:17.54Z</time></trkpt><trkpt lat="43.8983633" lon="12.53686"><ele>182.0</ele><time>2026-04-26T10:09:18.54Z</time></trkpt><trkpt lat="43.898285" lon="12.5369683"><ele>182.0</ele><time>2026-04-26T10:09:20.54Z</time></trkpt><trkpt lat="43.898305" lon="12.5371083"><ele>182.0</ele><time>2026-04-26T10:09:23.54Z</time></trkpt><trkpt lat="43.8983667" lon="12.5372033"><ele>181.83333333333331</ele><time>2026-04-26T10:09:25.54Z</time></trkpt><trkpt lat="43.8984183" lon="12.53727"><ele>181.66666666666666</ele><time>2026-04-26T10:09:28.54Z</time></trkpt><trkpt lat="43.8984801" lon="12.5373135"><ele>181.5</ele><time>2026-04-26T10:09:32.647Z</time></trkpt><trkpt lat="43.8985717" lon="12.5373217"><ele>181.33333333333334</ele><time>2026-04-26T10:09:34.54Z</time></trkpt><trkpt lat="43.8986467" lon="12.537355"><ele>181.16666666666669</ele><time>2026-04-26T10:09:36.539Z</time></trkpt><trkpt lat="43.8987083" lon="12.5374117"><ele>181.0</ele><time>2026-04-26T10:09:39.54Z</time></trkpt><trkpt lat="43.8986283" lon="12.5373683"><ele>181.0</ele><time>2026-04-26T10:11:17.539Z</time></trkpt><trkpt lat="43.89857" lon="12.537325"><ele>181.0</ele><time>2026-04-26T10:11:19.539Z</time></trkpt><trkpt lat="43.8984933" lon="12.5373167"><ele>181.0</ele><time>2026-04-26T10:11:22.539Z</time></trkpt><trkpt lat="43.8984" lon="12.53729"><ele>181.0</ele><time>2026-04-26T10:11:36.54Z</time></trkpt><trkpt lat="43.8983533" lon="12.5372167"><ele>181.0</ele><time>2026-04-26T10:11:39.54Z</time></trkpt><trkpt lat="43.8983283" lon="12.5371233"><ele>181.0</ele><time>2026-04-26T10:11:41.54Z</time></trkpt><trkpt lat="43.8982817" lon="12.53704"><ele>181.0</ele><time>2026-04-26T10:11:43.539Z</time></trkpt><trkpt lat="43.8982317" lon="12.5369517"><ele>181.0</ele><time>2026-04-26T10:11:45.54Z</time></trkpt><trkpt lat="43.8982683" lon="12.5370567"><ele>181.0</ele><time>2026-04-26T10:12:07.539Z</time></trkpt><trkpt lat="43.898345" lon="12.5371867"><ele>181.0</ele><time>2026-04-26T10:12:09.539Z</time></trkpt><trkpt lat="43.8984067" lon="12.537315"><ele>181.0</ele><time>2026-04-26T10:12:11.539Z</time></trkpt><trkpt lat="43.89846" lon="12.5373917"><ele>181.0</ele><time>2026-04-26T10:12:13.539Z</time></trkpt><trkpt lat="43.8985317" lon="12.53748"><ele>181.0</ele><time>2026-04-26T10:12:16.539Z</time></trkpt><trkpt lat="43.8985883" lon="12.537565"><ele>181.0</ele><time>2026-04-26T10:12:18.539Z</time></trkpt><trkpt lat="43.8986417" lon="12.53763"><ele>181.0</ele><time>2026-04-26T10:12:20.539Z</time></trkpt><trkpt lat="43.8986951" lon="12.5377274"><ele>181.0</ele><time>2026-04-26T10:12:23.58Z</time></trkpt><trkpt lat="43.8987454" lon="12.537822"><ele>181.0</ele><time>2026-04-26T10:12:25.631Z</time></trkpt><trkpt lat="43.898785" lon="12.5378967"><ele>181.16666666666669</ele><time>2026-04-26T10:12:27.539Z</time></trkpt><trkpt lat="43.898835" lon="12.537975"><ele>181.33333333333334</ele><time>2026-04-26T10:12:29.539Z</time></trkpt><trkpt lat="43.8988783" lon="12.53804"><ele>181.5</ele><time>2026-04-26T10:12:32.538Z</time></trkpt><trkpt lat="43.89881" lon="12.5381017"><ele>181.66666666666666</ele><time>2026-04-26T10:16:12.539Z</time></trkpt><trkpt lat="43.89875" lon="12.5381817"><ele>181.83333333333331</ele><time>2026-04-26T10:16:14.537Z</time></trkpt><trkpt lat="43.89864" lon="12.5383083"><ele>182.0</ele><time>2026-04-26T10:16:16.538Z</time></trkpt><trkpt lat="43.8985717" lon="12.5383967"><ele>182.0</ele><time>2026-04-26T10:16:17.538Z</time></trkpt><trkpt lat="43.898485" lon="12.538495"><ele>182.0</ele><time>2026-04-26T10:16:18.538Z</time></trkpt><trkpt lat="43.898405" lon="12.538595"><ele>182.0</ele><time>2026-04-26T10:16:19.537Z</time></trkpt><trkpt lat="43.8983383" lon="12.5386967"><ele>182.0</ele><time>2026-04-26T10:16:20.537Z</time></trkpt><trkpt lat="43.8982667" lon="12.5388"><ele>182.0</ele><time>2026-04-26T10:16:21.538Z</time></trkpt><trkpt lat="43.8981933" lon="12.5389067"><ele>182.0</ele><time>2026-04-26T10:16:22.537Z</time></trkpt><trkpt lat="43.8981133" lon="12.5390067"><ele>182.0</ele><time>2026-04-26T10:16:23.537Z</time></trkpt><trkpt lat="43.8980483" lon="12.5391067"><ele>182.0</ele><time>2026-04-26T10:16:24.538Z</time></trkpt><trkpt lat="43.8979733" lon="12.539205"><ele>182.0</ele><time>2026-04-26T10:16:25.538Z</time></trkpt><trkpt lat="43.8979" lon="12.5393033"><ele>182.0</ele><time>2026-04-26T10:16:26.538Z</time></trkpt><trkpt lat="43.897845" lon="12.5394033"><ele>182.0</ele><time>2026-04-26T10:16:27.538Z</time></trkpt><trkpt lat="43.897775" lon="12.5394983"><ele>182.0</ele><time>2026-04-26T10:16:28.538Z</time></trkpt><trkpt lat="43.8977017" lon="12.53957"><ele>182.0</ele><time>2026-04-26T10:16:29.538Z</time></trkpt><trkpt lat="43.8976383" lon="12.53963"><ele>182.0</ele><time>2026-04-26T10:16:30.538Z</time></trkpt><trkpt lat="43.89757" lon="12.5397333"><ele>182.0</ele><time>2026-04-26T10:16:32.538Z</time></trkpt><trkpt lat="43.8976483" lon="12.5398433"><ele>182.25</ele><time>2026-04-26T10:16:35.537Z</time></trkpt><trkpt lat="43.8977133" lon="12.5398917"><ele>182.5</ele><time>2026-04-26T10:16:36.537Z</time></trkpt><trkpt lat="43.8978033" lon="12.5399633"><ele>182.75</ele><time>2026-04-26T10:16:37.537Z</time></trkpt><trkpt lat="43.8979683" lon="12.5400783"><ele>183.0</ele><time>2026-04-26T10:16:38.538Z</time></trkpt><trkpt lat="43.8981483" lon="12.54021"><ele>183.0</ele><time>2026-04-26T10:16:39.538Z</time></trkpt><trkpt lat="43.89831" lon="12.540325"><ele>183.0</ele><time>2026-04-26T10:16:40.537Z</time></trkpt><trkpt lat="43.8984533" lon="12.540425"><ele>183.0</ele><time>2026-04-26T10:16:41.538Z</time></trkpt><trkpt lat="43.8985833" lon="12.5405283"><ele>182.5</ele><time>2026-04-26T10:16:42.537Z</time></trkpt><trkpt lat="43.8987067" lon="12.540625"><ele>182.0</ele><time>2026-04-26T10:16:43.538Z</time></trkpt><trkpt lat="43.8988217" lon="12.5407083"><ele>181.5</ele><time>2026-04-26T10:16:44.538Z</time></trkpt><trkpt lat="43.898925" lon="12.5407917"><ele>181.0</ele><time>2026-04-26T10:16:45.537Z</time></trkpt><trkpt lat="43.899025" lon="12.54088"><ele>181.0</ele><time>2026-04-26T10:16:46.537Z</time></trkpt><trkpt lat="43.8991267" lon="12.5409733"><ele>181.0</ele><time>2026-04-26T10:16:47.538Z</time></trkpt><trkpt lat="43.89922" lon="12.5410533"><ele>181.0</ele><time>2026-04-26T10:16:48.538Z</time></trkpt><trkpt lat="43.8993217" lon="12.5411367"><ele>181.0</ele><time>2026-04-26T10:16:49.538Z</time></trkpt><trkpt lat="43.8994367" lon="12.5412133"><ele>181.20000000000002</ele><time>2026-04-26T10:16:50.538Z</time></trkpt><trkpt lat="43.8995467" lon="12.5412817"><ele>181.4</ele><time>2026-04-26T10:16:51.538Z</time></trkpt><trkpt lat="43.89964" lon="12.5413467"><ele>181.6</ele><time>2026-04-26T10:16:52.538Z</time></trkpt><trkpt lat="43.8997267" lon="12.541425"><ele>181.8</ele><time>2026-04-26T10:16:53.538Z</time></trkpt><trkpt lat="43.89981" lon="12.541515"><ele>182.0</ele><time>2026-04-26T10:16:54.538Z</time></trkpt><trkpt lat="43.89988" lon="12.541605"><ele>182.0</ele><time>2026-04-26T10:16:55.537Z</time></trkpt><trkpt lat="43.899955" lon="12.5416867"><ele>182.0</ele><time>2026-04-26T10:16:56.538Z</time></trkpt><trkpt lat="43.9000367" lon="12.5417617"><ele>182.0</ele><time>2026-04-26T10:16:57.538Z</time></trkpt><trkpt lat="43.900125" lon="12.541845"><ele>182.0</ele><time>2026-04-26T10:16:58.537Z</time></trkpt><trkpt lat="43.9002183" lon="12.5419317"><ele>182.0</ele><time>2026-04-26T10:16:59.538Z</time></trkpt><trkpt lat="43.9003117" lon="12.5420233"><ele>181.5</ele><time>2026-04-26T10:17:00.538Z</time></trkpt><trkpt lat="43.9004033" lon="12.5421083"><ele>181.0</ele><time>2026-04-26T10:17:01.538Z</time></trkpt><trkpt lat="43.9004967" lon="12.5422083"><ele>180.5</ele><time>2026-04-26T10:17:02.538Z</time></trkpt><trkpt lat="43.9006" lon="12.542305"><ele>180.0</ele><time>2026-04-26T10:17:03.538Z</time></trkpt><trkpt lat="43.9006883" lon="12.5424"><ele>180.0</ele><time>2026-04-26T10:17:04.538Z</time></trkpt><trkpt lat="43.900775" lon="12.542485"><ele>180.0</ele><time>2026-04-26T10:17:05.537Z</time></trkpt><trkpt lat="43.9008633" lon="12.5425717"><ele>180.0</ele><time>2026-04-26T10:17:06.537Z</time></trkpt><trkpt lat="43.9009417" lon="12.5426633"><ele>180.0</ele><time>2026-04-26T10:17:07.538Z</time></trkpt><trkpt lat="43.9010117" lon="12.54278"><ele>180.0</ele><time>2026-04-26T10:17:08.538Z</time></trkpt><trkpt lat="43.901085" lon="12.5428917"><ele>178.8</ele><time>2026-04-26T10:17:09.538Z</time></trkpt><trkpt lat="43.9011533" lon="12.543015"><ele>177.6</ele><time>2026-04-26T10:17:10.538Z</time></trkpt><trkpt lat="43.901225" lon="12.54311"><ele>176.39999999999998</ele><time>2026-04-26T10:17:11.538Z</time></trkpt><trkpt lat="43.90129" lon="12.5432383"><ele>175.2</ele><time>2026-04-26T10:17:12.538Z</time></trkpt><trkpt lat="43.9013783" lon="12.5433083"><ele>174.0</ele><time>2026-04-26T10:17:13.537Z</time></trkpt><trkpt lat="43.9014717" lon="12.543385"><ele>174.0</ele><time>2026-04-26T10:17:14.537Z</time></trkpt><trkpt lat="43.90158" lon="12.54348"><ele>174.0</ele><time>2026-04-26T10:17:15.538Z</time></trkpt><trkpt lat="43.9017" lon="12.543545"><ele>174.0</ele><time>2026-04-26T10:17:16.538Z</time></trkpt><trkpt lat="43.9018133" lon="12.5436233"><ele>174.0</ele><time>2026-04-26T10:17:17.537Z</time></trkpt><trkpt lat="43.901925" lon="12.5436967"><ele>173.5</ele><time>2026-04-26T10:17:18.538Z</time></trkpt><trkpt lat="43.90202" lon="12.5437983"><ele>173.0</ele><time>2026-04-26T10:17:19.537Z</time></trkpt><trkpt lat="43.902095" lon="12.5439267"><ele>172.5</ele><time>2026-04-26T10:17:20.538Z</time></trkpt><trkpt lat="43.9021617" lon="12.5441017"><ele>172.0</ele><time>2026-04-26T10:17:21.538Z</time></trkpt><trkpt lat="43.902255" lon="12.5442617"><ele>172.0</ele><time>2026-04-26T10:17:22.538Z</time></trkpt><trkpt lat="43.9023333" lon="12.5444267"><ele>172.0</ele><time>2026-04-26T10:17:23.538Z</time></trkpt><trkpt lat="43.9023983" lon="12.5445833"><ele>172.0</ele><time>2026-04-26T10:17:24.537Z</time></trkpt><trkpt lat="43.9024583" lon="12.5447417"><ele>172.0</ele><time>2026-04-26T10:17:25.537Z</time></trkpt><trkpt lat="43.9024917" lon="12.5449083"><ele>172.5</ele><time>2026-04-26T10:17:26.537Z</time></trkpt><trkpt lat="43.902495" lon="12.5451067"><ele>173.0</ele><time>2026-04-26T10:17:27.538Z</time></trkpt><trkpt lat="43.9025133" lon="12.5453167"><ele>173.5</ele><time>2026-04-26T10:17:28.538Z</time></trkpt><trkpt lat="43.902525" lon="12.5455"><ele>174.0</ele><time>2026-04-26T10:17:29.538Z</time></trkpt><trkpt lat="43.90254" lon="12.5456867"><ele>173.25</ele><time>2026-04-26T10:17:30.538Z</time></trkpt><trkpt lat="43.9025683" lon="12.5458667"><ele>172.5</ele><time>2026-04-26T10:17:31.538Z</time></trkpt><trkpt lat="43.9026067" lon="12.5460617"><ele>171.75</ele><time>2026-04-26T10:17:32.537Z</time></trkpt><trkpt lat="43.9026583" lon="12.546225"><ele>171.0</ele><time>2026-04-26T10:17:33.538Z</time></trkpt><trkpt lat="43.9027133" lon="12.5463533"><ele>172.75</ele><time>2026-04-26T10:17:34.538Z</time></trkpt><trkpt lat="43.902775" lon="12.5465283"><ele>174.5</ele><time>2026-04-26T10:17:35.538Z</time></trkpt><trkpt lat="43.9028383" lon="12.5466567"><ele>176.25</ele><time>2026-04-26T10:17:36.537Z</time></trkpt><trkpt lat="43.9028783" lon="12.54682"><ele>178.0</ele><time>2026-04-26T10:17:37.538Z</time></trkpt><trkpt lat="43.9029217" lon="12.546955"><ele>178.0</ele><time>2026-04-26T10:17:38.537Z</time></trkpt><trkpt lat="43.9029817" lon="12.5470433"><ele>178.0</ele><time>2026-04-26T10:17:39.538Z</time></trkpt><trkpt lat="43.9030417" lon="12.547125"><ele>178.0</ele><time>2026-04-26T10:17:40.537Z</time></trkpt><trkpt lat="43.9031267" lon="12.5472067"><ele>178.0</ele><time>2026-04-26T10:17:41.537Z</time></trkpt><trkpt lat="43.9032167" lon="12.5473117"><ele>178.0</ele><time>2026-04-26T10:17:42.538Z</time></trkpt><trkpt lat="43.9032967" lon="12.5474317"><ele>177.4</ele><time>2026-04-26T10:17:43.537Z</time></trkpt><trkpt lat="43.9033733" lon="12.5475483"><ele>176.8</ele><time>2026-04-26T10:17:44.538Z</time></trkpt><trkpt lat="43.90345" lon="12.5476683"><ele>176.2</ele><time>2026-04-26T10:17:45.537Z</time></trkpt><trkpt lat="43.9035267" lon="12.547775"><ele>175.6</ele><time>2026-04-26T10:17:46.537Z</time></trkpt><trkpt lat="43.9035983" lon="12.5478733"><ele>175.0</ele><time>2026-04-26T10:17:47.538Z</time></trkpt><trkpt lat="43.9036767" lon="12.5479667"><ele>175.0</ele><time>2026-04-26T10:17:48.538Z</time></trkpt><trkpt lat="43.9037583" lon="12.548045"><ele>175.0</ele><time>2026-04-26T10:17:49.538Z</time></trkpt><trkpt lat="43.9038467" lon="12.5480917"><ele>175.0</ele><time>2026-04-26T10:17:50.537Z</time></trkpt><trkpt lat="43.9039217" lon="12.5481283"><ele>175.0</ele><time>2026-04-26T10:17:51.537Z</time></trkpt><trkpt lat="43.9039817" lon="12.5481717"><ele>175.0</ele><time>2026-04-26T10:17:52.538Z</time></trkpt><trkpt lat="43.90403" lon="12.54825"><ele>175.0</ele><time>2026-04-26T10:17:53.537Z</time></trkpt><trkpt lat="43.90409" lon="12.5483367"><ele>175.0</ele><time>2026-04-26T10:17:54.538Z</time></trkpt><trkpt lat="43.9041617" lon="12.5484183"><ele>175.0</ele><time>2026-04-26T10:17:55.538Z</time></trkpt><trkpt lat="43.9041983" lon="12.5485383"><ele>175.0</ele><time>2026-04-26T10:17:56.537Z</time></trkpt><trkpt lat="43.904235" lon="12.5486667"><ele>175.0</ele><time>2026-04-26T10:17:57.538Z</time></trkpt><trkpt lat="43.9042967" lon="12.5487633"><ele>175.0</ele><time>2026-04-26T10:17:58.537Z</time></trkpt><trkpt lat="43.904355" lon="12.5488767"><ele>175.0</ele><time>2026-04-26T10:17:59.537Z</time></trkpt><trkpt lat="43.9043767" lon="12.5489983"><ele>175.0</ele><time>2026-04-26T10:18:00.538Z</time></trkpt><trkpt lat="43.9043933" lon="12.549105"><ele>175.0</ele><time>2026-04-26T10:18:01.538Z</time></trkpt><trkpt lat="43.9043883" lon="12.549205"><ele>175.0</ele><time>2026-04-26T10:18:02.537Z</time></trkpt><trkpt lat="43.9043983" lon="12.549315"><ele>175.0</ele><time>2026-04-26T10:18:03.537Z</time></trkpt><trkpt lat="43.9043633" lon="12.5494267"><ele>175.0</ele><time>2026-04-26T10:18:04.538Z</time></trkpt><trkpt lat="43.9043333" lon="12.5495567"><ele>176.25</ele><time>2026-04-26T10:18:05.537Z</time></trkpt><trkpt lat="43.9043133" lon="12.5497133"><ele>177.5</ele><time>2026-04-26T10:18:06.538Z</time></trkpt><trkpt lat="43.9043083" lon="12.5499033"><ele>178.75</ele><time>2026-04-26T10:18:07.538Z</time></trkpt><trkpt lat="43.9043367" lon="12.5500683"><ele>180.0</ele><time>2026-04-26T10:18:08.538Z</time></trkpt><trkpt lat="43.9043717" lon="12.5502383"><ele>180.5</ele><time>2026-04-26T10:18:09.538Z</time></trkpt><trkpt lat="43.90442" lon="12.5504517"><ele>181.0</ele><time>2026-04-26T10:18:10.537Z</time></trkpt><trkpt lat="43.9044433" lon="12.5506167"><ele>181.5</ele><time>2026-04-26T10:18:11.538Z</time></trkpt><trkpt lat="43.9044833" lon="12.5507783"><ele>182.0</ele><time>2026-04-26T10:18:12.538Z</time></trkpt><trkpt lat="43.9045283" lon="12.5509083"><ele>182.0</ele><time>2026-04-26T10:18:13.538Z</time></trkpt><trkpt lat="43.9045333" lon="12.5510067"><ele>182.0</ele><time>2026-04-26T10:18:14.538Z</time></trkpt><trkpt lat="43.9045283" lon="12.5511067"><ele>182.0</ele><time>2026-04-26T10:18:15.537Z</time></trkpt><trkpt lat="43.904505" lon="12.5512017"><ele>182.0</ele><time>2026-04-26T10:18:16.538Z</time></trkpt><trkpt lat="43.904455" lon="12.5513233"><ele>182.0</ele><time>2026-04-26T10:18:17.537Z</time></trkpt><trkpt lat="43.90438" lon="12.551455"><ele>182.0</ele><time>2026-04-26T10:18:18.538Z</time></trkpt><trkpt lat="43.9042917" lon="12.5515867"><ele>181.8</ele><time>2026-04-26T10:18:19.538Z</time></trkpt><trkpt lat="43.9042367" lon="12.551725"><ele>181.6</ele><time>2026-04-26T10:18:20.538Z</time></trkpt><trkpt lat="43.9042017" lon="12.5518783"><ele>181.4</ele><time>2026-04-26T10:18:21.538Z</time></trkpt><trkpt lat="43.90421" lon="12.55202"><ele>181.20000000000002</ele><time>2026-04-26T10:18:22.538Z</time></trkpt><trkpt lat="43.904245" lon="12.5521517"><ele>181.0</ele><time>2026-04-26T10:18:23.538Z</time></trkpt><trkpt lat="43.9042833" lon="12.5522633"><ele>179.5</ele><time>2026-04-26T10:18:24.538Z</time></trkpt><trkpt lat="43.90437" lon="12.5523433"><ele>178.0</ele><time>2026-04-26T10:18:26.538Z</time></trkpt><trkpt lat="43.9044417" lon="12.552315"><ele>176.5</ele><time>2026-04-26T10:18:27.538Z</time></trkpt><trkpt lat="43.9045067" lon="12.5522533"><ele>175.0</ele><time>2026-04-26T10:18:28.538Z</time></trkpt><trkpt lat="43.90458" lon="12.5522033"><ele>173.5</ele><time>2026-04-26T10:18:29.538Z</time></trkpt><trkpt lat="43.904675" lon="12.55214"><ele>172.0</ele><time>2026-04-26T10:18:31.538Z</time></trkpt><trkpt lat="43.9047417" lon="12.55213"><ele>172.0</ele><time>2026-04-26T10:18:32.537Z</time></trkpt><trkpt lat="43.9048317" lon="12.5521483"><ele>172.0</ele><time>2026-04-26T10:18:33.538Z</time></trkpt><trkpt lat="43.904945" lon="12.5521583"><ele>172.0</ele><time>2026-04-26T10:18:34.538Z</time></trkpt><trkpt lat="43.9050983" lon="12.55217"><ele>172.0</ele><time>2026-04-26T10:18:35.538Z</time></trkpt><trkpt lat="43.9052167" lon="12.552195"><ele>170.75</ele><time>2026-04-26T10:18:36.537Z</time></trkpt><trkpt lat="43.905345" lon="12.5522333"><ele>169.5</ele><time>2026-04-26T10:18:37.538Z</time></trkpt><trkpt lat="43.9054683" lon="12.552275"><ele>168.25</ele><time>2026-04-26T10:18:38.537Z</time></trkpt><trkpt lat="43.9055833" lon="12.552305"><ele>167.0</ele><time>2026-04-26T10:18:39.538Z</time></trkpt><trkpt lat="43.9056917" lon="12.5523333"><ele>167.0</ele><time>2026-04-26T10:18:40.537Z</time></trkpt><trkpt lat="43.9058067" lon="12.55232"><ele>167.0</ele><time>2026-04-26T10:18:41.537Z</time></trkpt><trkpt lat="43.9059283" lon="12.5522917"><ele>167.0</ele><time>2026-04-26T10:18:42.538Z</time></trkpt><trkpt lat="43.9060583" lon="12.55226"><ele>167.0</ele><time>2026-04-26T10:18:43.538Z</time></trkpt><trkpt lat="43.9061983" lon="12.5522233"><ele>165.75</ele><time>2026-04-26T10:18:44.538Z</time></trkpt><trkpt lat="43.9063383" lon="12.5521883"><ele>164.5</ele><time>2026-04-26T10:18:45.538Z</time></trkpt><trkpt lat="43.9064767" lon="12.552165"><ele>163.25</ele><time>2026-04-26T10:18:46.538Z</time></trkpt><trkpt lat="43.906605" lon="12.552155"><ele>162.0</ele><time>2026-04-26T10:18:47.538Z</time></trkpt><trkpt lat="43.9067283" lon="12.5521517"><ele>161.5</ele><time>2026-04-26T10:18:48.537Z</time></trkpt><trkpt lat="43.9068483" lon="12.5521567"><ele>161.0</ele><time>2026-04-26T10:18:49.538Z</time></trkpt><trkpt lat="43.9069783" lon="12.552175"><ele>160.5</ele><time>2026-04-26T10:18:50.537Z</time></trkpt><trkpt lat="43.9071017" lon="12.5522067"><ele>160.0</ele><time>2026-04-26T10:18:51.538Z</time></trkpt><trkpt lat="43.9072083" lon="12.5522383"><ele>160.0</ele><time>2026-04-26T10:18:52.537Z</time></trkpt><trkpt lat="43.9072767" lon="12.5523183"><ele>160.0</ele><time>2026-04-26T10:18:53.537Z</time></trkpt><trkpt lat="43.907335" lon="12.552395"><ele>160.0</ele><time>2026-04-26T10:18:54.538Z</time></trkpt><trkpt lat="43.9073783" lon="12.5524867"><ele>160.0</ele><time>2026-04-26T10:18:55.538Z</time></trkpt><trkpt lat="43.9074117" lon="12.5525733"><ele>160.0</ele><time>2026-04-26T10:18:56.537Z</time></trkpt><trkpt lat="43.9074483" lon="12.5527233"><ele>160.0</ele><time>2026-04-26T10:18:57.538Z</time></trkpt><trkpt lat="43.9074783" lon="12.5529383"><ele>160.0</ele><time>2026-04-26T10:18:58.537Z</time></trkpt><trkpt lat="43.9075333" lon="12.55312"><ele>160.0</ele><time>2026-04-26T10:18:59.538Z</time></trkpt><trkpt lat="43.9075833" lon="12.5533317"><ele>160.0</ele><time>2026-04-26T10:19:00.538Z</time></trkpt><trkpt lat="43.9076333" lon="12.553515"><ele>160.0</ele><time>2026-04-26T10:19:01.537Z</time></trkpt><trkpt lat="43.907685" lon="12.5537067"><ele>159.0</ele><time>2026-04-26T10:19:02.537Z</time></trkpt><trkpt lat="43.90773" lon="12.5539333"><ele>158.0</ele><time>2026-04-26T10:19:03.537Z</time></trkpt><trkpt lat="43.907775" lon="12.554175"><ele>157.0</ele><time>2026-04-26T10:19:04.537Z</time></trkpt><trkpt lat="43.9078183" lon="12.5544083"><ele>156.66666666666669</ele><time>2026-04-26T10:19:05.537Z</time></trkpt><trkpt lat="43.9078817" lon="12.5546083"><ele>156.33333333333334</ele><time>2026-04-26T10:19:06.538Z</time></trkpt><trkpt lat="43.9079317" lon="12.5548233"><ele>156.0</ele><time>2026-04-26T10:19:07.537Z</time></trkpt><trkpt lat="43.9079733" lon="12.5550417"><ele>156.0</ele><time>2026-04-26T10:19:08.538Z</time></trkpt><trkpt lat="43.9080233" lon="12.5552017"><ele>156.0</ele><time>2026-04-26T10:19:09.538Z</time></trkpt><trkpt lat="43.90806" lon="12.5553833"><ele>156.0</ele><time>2026-04-26T10:19:10.537Z</time></trkpt><trkpt lat="43.9081033" lon="12.5555833"><ele>156.0</ele><time>2026-04-26T10:19:11.537Z</time></trkpt><trkpt lat="43.9081367" lon="12.55577"><ele>155.75</ele><time>2026-04-26T10:19:12.537Z</time></trkpt><trkpt lat="43.908175" lon="12.555955"><ele>155.5</ele><time>2026-04-26T10:19:13.537Z</time></trkpt><trkpt lat="43.90822" lon="12.5561433"><ele>155.25</ele><time>2026-04-26T10:19:14.538Z</time></trkpt><trkpt lat="43.9082517" lon="12.55633"><ele>155.0</ele><time>2026-04-26T10:19:15.538Z</time></trkpt><trkpt lat="43.908295" lon="12.55651"><ele>155.0</ele><time>2026-04-26T10:19:16.538Z</time></trkpt><trkpt lat="43.9083367" lon="12.556675"><ele>155.0</ele><time>2026-04-26T10:19:17.538Z</time></trkpt><trkpt lat="43.9083667" lon="12.5568533"><ele>155.0</ele><time>2026-04-26T10:19:18.537Z</time></trkpt><trkpt lat="43.9083967" lon="12.5570283"><ele>155.0</ele><time>2026-04-26T10:19:19.538Z</time></trkpt><trkpt lat="43.9084317" lon="12.5571983"><ele>155.0</ele><time>2026-04-26T10:19:20.538Z</time></trkpt><trkpt lat="43.9084633" lon="12.557375"><ele>155.0</ele><time>2026-04-26T10:19:21.538Z</time></trkpt><trkpt lat="43.9084917" lon="12.5575517"><ele>155.0</ele><time>2026-04-26T10:19:22.538Z</time></trkpt><trkpt lat="43.9085233" lon="12.5577267"><ele>155.0</ele><time>2026-04-26T10:19:23.538Z</time></trkpt><trkpt lat="43.9085633" lon="12.5578967"><ele>154.75</ele><time>2026-04-26T10:19:24.538Z</time></trkpt><trkpt lat="43.9086083" lon="12.5580667"><ele>154.5</ele><time>2026-04-26T10:19:25.538Z</time></trkpt><trkpt lat="43.90865" lon="12.55823"><ele>154.25</ele><time>2026-04-26T10:19:26.538Z</time></trkpt><trkpt lat="43.9086917" lon="12.5583883"><ele>154.0</ele><time>2026-04-26T10:19:27.537Z</time></trkpt><trkpt lat="43.9087317" lon="12.5585633"><ele>153.5</ele><time>2026-04-26T10:19:28.538Z</time></trkpt><trkpt lat="43.90878" lon="12.558745"><ele>153.0</ele><time>2026-04-26T10:19:29.537Z</time></trkpt><trkpt lat="43.9088183" lon="12.5589133"><ele>152.5</ele><time>2026-04-26T10:19:30.538Z</time></trkpt><trkpt lat="43.9088583" lon="12.559085"><ele>152.0</ele><time>2026-04-26T10:19:31.538Z</time></trkpt><trkpt lat="43.9089017" lon="12.55926"><ele>152.0</ele><time>2026-04-26T10:19:32.538Z</time></trkpt><trkpt lat="43.90895" lon="12.5594233"><ele>152.0</ele><time>2026-04-26T10:19:33.538Z</time></trkpt><trkpt lat="43.9090083" lon="12.559575"><ele>152.0</ele><time>2026-04-26T10:19:34.538Z</time></trkpt><trkpt lat="43.9090833" lon="12.55972"><ele>152.0</ele><time>2026-04-26T10:19:35.538Z</time></trkpt><trkpt lat="43.9091633" lon="12.5598567"><ele>152.25</ele><time>2026-04-26T10:19:36.538Z</time></trkpt><trkpt lat="43.9092367" lon="12.5599733"><ele>152.5</ele><time>2026-04-26T10:19:37.538Z</time></trkpt><trkpt lat="43.9093133" lon="12.5600867"><ele>152.75</ele><time>2026-04-26T10:19:38.538Z</time></trkpt><trkpt lat="43.909405" lon="12.5602167"><ele>153.0</ele><time>2026-04-26T10:19:39.537Z</time></trkpt><trkpt lat="43.9095183" lon="12.5603483"><ele>152.75</ele><time>2026-04-26T10:19:40.538Z</time></trkpt><trkpt lat="43.9096333" lon="12.56049"><ele>152.5</ele><time>2026-04-26T10:19:41.537Z</time></trkpt><trkpt lat="43.9097417" lon="12.5606267"><ele>152.25</ele><time>2026-04-26T10:19:42.538Z</time></trkpt><trkpt lat="43.9098467" lon="12.5607633"><ele>152.0</ele><time>2026-04-26T10:19:43.538Z</time></trkpt><trkpt lat="43.9099383" lon="12.5608883"><ele>152.0</ele><time>2026-04-26T10:19:44.538Z</time></trkpt><trkpt lat="43.9100283" lon="12.561"><ele>152.0</ele><time>2026-04-26T10:19:45.537Z</time></trkpt><trkpt lat="43.9101183" lon="12.5611117"><ele>152.0</ele><time>2026-04-26T10:19:46.538Z</time></trkpt><trkpt lat="43.9102117" lon="12.56123"><ele>152.0</ele><time>2026-04-26T10:19:47.537Z</time></trkpt><trkpt lat="43.9102967" lon="12.5613367"><ele>151.33333333333331</ele><time>2026-04-26T10:19:48.538Z</time></trkpt><trkpt lat="43.910375" lon="12.5614233"><ele>150.66666666666666</ele><time>2026-04-26T10:19:49.538Z</time></trkpt><trkpt lat="43.9104317" lon="12.5615017"><ele>150.0</ele><time>2026-04-26T10:19:50.538Z</time></trkpt><trkpt lat="43.9104833" lon="12.5615633"><ele>149.33333333333334</ele><time>2026-04-26T10:19:51.538Z</time></trkpt><trkpt lat="43.910565" lon="12.561675"><ele>148.66666666666669</ele><time>2026-04-26T10:19:53.537Z</time></trkpt><trkpt lat="43.9106267" lon="12.5617217"><ele>148.0</ele><time>2026-04-26T10:19:55.538Z</time></trkpt><trkpt lat="43.9107067" lon="12.5616417"><ele>148.0</ele><time>2026-04-26T10:19:58.538Z</time></trkpt><trkpt lat="43.910755" lon="12.5615633"><ele>148.0</ele><time>2026-04-26T10:20:00.537Z</time></trkpt><trkpt lat="43.9107933" lon="12.56148"><ele>148.0</ele><time>2026-04-26T10:20:03.538Z</time></trkpt><trkpt lat="43.9108367" lon="12.56135"><ele>148.0</ele><time>2026-04-26T10:33:24.534Z</time></trkpt><trkpt lat="43.9108867" lon="12.5612617"><ele>148.0</ele><time>2026-04-26T10:33:26.535Z</time></trkpt><trkpt lat="43.910935" lon="12.56119"><ele>148.0</ele><time>2026-04-26T10:33:28.534Z</time></trkpt><trkpt lat="43.9110033" lon="12.5611217"><ele>148.4</ele><time>2026-04-26T10:33:30.534Z</time></trkpt><trkpt lat="43.9110567" lon="12.5610517"><ele>148.8</ele><time>2026-04-26T10:33:32.535Z</time></trkpt><trkpt lat="43.911115" lon="12.5609833"><ele>149.2</ele><time>2026-04-26T10:38:33.532Z</time></trkpt><trkpt lat="43.9111917" lon="12.5608867"><ele>149.6</ele><time>2026-04-26T10:46:34.531Z</time></trkpt><trkpt lat="43.9112733" lon="12.5607417"><ele>150.0</ele><time>2026-04-26T10:46:36.531Z</time></trkpt><trkpt lat="43.911335" lon="12.56064"><ele>150.0</ele><time>2026-04-26T10:46:37.531Z</time></trkpt><trkpt lat="43.911395" lon="12.560545"><ele>150.0</ele><time>2026-04-26T10:46:38.531Z</time></trkpt><trkpt lat="43.91145" lon="12.560455"><ele>150.0</ele><time>2026-04-26T10:46:39.53Z</time></trkpt><trkpt lat="43.91151" lon="12.5603517"><ele>150.0</ele><time>2026-04-26T10:46:40.531Z</time></trkpt><trkpt lat="43.9115783" lon="12.5602217"><ele>150.0</ele><time>2026-04-26T10:46:41.531Z</time></trkpt><trkpt lat="43.91165" lon="12.560085"><ele>150.8</ele><time>2026-04-26T10:46:42.531Z</time></trkpt><trkpt lat="43.911715" lon="12.5599633"><ele>151.6</ele><time>2026-04-26T10:46:43.531Z</time></trkpt><trkpt lat="43.9117733" lon="12.55986"><ele>152.4</ele><time>2026-04-26T10:46:44.53Z</time></trkpt><trkpt lat="43.911825" lon="12.5597633"><ele>153.2</ele><time>2026-04-26T10:46:45.53Z</time></trkpt><trkpt lat="43.9118817" lon="12.5596667"><ele>154.0</ele><time>2026-04-26T10:46:46.531Z</time></trkpt><trkpt lat="43.9119417" lon="12.5595767"><ele>155.66666666666669</ele><time>2026-04-26T10:46:47.531Z</time></trkpt><trkpt lat="43.9120033" lon="12.5595017"><ele>157.33333333333334</ele><time>2026-04-26T10:46:48.531Z</time></trkpt><trkpt lat="43.9120667" lon="12.5594433"><ele>159.0</ele><time>2026-04-26T10:46:49.531Z</time></trkpt><trkpt lat="43.9121383" lon="12.5594"><ele>160.66666666666666</ele><time>2026-04-26T10:46:50.531Z</time></trkpt><trkpt lat="43.912215" lon="12.5593683"><ele>162.33333333333331</ele><time>2026-04-26T10:46:51.531Z</time></trkpt><trkpt lat="43.9122917" lon="12.5593467"><ele>164.0</ele><time>2026-04-26T10:46:52.531Z</time></trkpt><trkpt lat="43.9123667" lon="12.55931"><ele>164.0</ele><time>2026-04-26T10:46:53.531Z</time></trkpt><trkpt lat="43.9124417" lon="12.5592817"><ele>164.0</ele><time>2026-04-26T10:46:54.531Z</time></trkpt><trkpt lat="43.912515" lon="12.5592483"><ele>164.0</ele><time>2026-04-26T10:46:55.53Z</time></trkpt><trkpt lat="43.9125817" lon="12.5592117"><ele>164.0</ele><time>2026-04-26T10:46:56.531Z</time></trkpt><trkpt lat="43.9126417" lon="12.559185"><ele>164.0</ele><time>2026-04-26T10:46:57.53Z</time></trkpt><trkpt lat="43.912715" lon="12.5591567"><ele>164.0</ele><time>2026-04-26T10:47:00.531Z</time></trkpt><trkpt lat="43.912795" lon="12.5591217"><ele>164.0</ele><time>2026-04-26T10:47:07.53Z</time></trkpt><trkpt lat="43.9128717" lon="12.5592017"><ele>164.0</ele><time>2026-04-26T10:47:09.531Z</time></trkpt><trkpt lat="43.912915" lon="12.559295"><ele>164.0</ele><time>2026-04-26T10:47:10.53Z</time></trkpt><trkpt lat="43.9129667" lon="12.5594167"><ele>164.0</ele><time>2026-04-26T10:47:11.531Z</time></trkpt><trkpt lat="43.913035" lon="12.5595533"><ele>164.0</ele><time>2026-04-26T10:47:12.53Z</time></trkpt><trkpt lat="43.9131167" lon="12.5597017"><ele>164.0</ele><time>2026-04-26T10:47:13.531Z</time></trkpt><trkpt lat="43.9131917" lon="12.5598567"><ele>164.0</ele><time>2026-04-26T10:47:14.531Z</time></trkpt><trkpt lat="43.9132667" lon="12.5600033"><ele>164.0</ele><time>2026-04-26T10:47:15.531Z</time></trkpt><trkpt lat="43.913345" lon="12.560145"><ele>164.0</ele><time>2026-04-26T10:47:16.531Z</time></trkpt><trkpt lat="43.9134217" lon="12.5602833"><ele>163.25</ele><time>2026-04-26T10:47:17.531Z</time></trkpt><trkpt lat="43.9134917" lon="12.5604233"><ele>162.5</ele><time>2026-04-26T10:47:18.531Z</time></trkpt><trkpt lat="43.913565" lon="12.5605633"><ele>161.75</ele><time>2026-04-26T10:47:19.53Z</time></trkpt><trkpt lat="43.9136367" lon="12.5607067"><ele>161.0</ele><time>2026-04-26T10:47:20.53Z</time></trkpt><trkpt lat="43.9137117" lon="12.5608367"><ele>161.0</ele><time>2026-04-26T10:47:21.531Z</time></trkpt><trkpt lat="43.9137817" lon="12.5609667"><ele>161.0</ele><time>2026-04-26T10:47:22.531Z</time></trkpt><trkpt lat="43.91385" lon="12.5611067"><ele>161.0</ele><time>2026-04-26T10:47:23.53Z</time></trkpt><trkpt lat="43.913925" lon="12.5612483"><ele>161.0</ele><time>2026-04-26T10:47:24.53Z</time></trkpt><trkpt lat="43.9140033" lon="12.5614017"><ele>160.66666666666666</ele><time>2026-04-26T10:47:25.53Z</time></trkpt><trkpt lat="43.91409" lon="12.561565"><ele>160.33333333333334</ele><time>2026-04-26T10:47:26.531Z</time></trkpt><trkpt lat="43.91418" lon="12.5617417"><ele>160.0</ele><time>2026-04-26T10:47:27.531Z</time></trkpt><trkpt lat="43.9142717" lon="12.56192"><ele>159.66666666666669</ele><time>2026-04-26T10:47:28.531Z</time></trkpt><trkpt lat="43.9143667" lon="12.5621017"><ele>159.33333333333334</ele><time>2026-04-26T10:47:29.531Z</time></trkpt><trkpt lat="43.91446" lon="12.5622733"><ele>159.0</ele><time>2026-04-26T10:47:30.531Z</time></trkpt><trkpt lat="43.91454" lon="12.5624283"><ele>159.0</ele><time>2026-04-26T10:47:31.53Z</time></trkpt><trkpt lat="43.9146333" lon="12.5625567"><ele>159.0</ele><time>2026-04-26T10:47:32.531Z</time></trkpt><trkpt lat="43.9147317" lon="12.5626583"><ele>159.0</ele><time>2026-04-26T10:47:33.531Z</time></trkpt><trkpt lat="43.9148533" lon="12.5627417"><ele>159.0</ele><time>2026-04-26T10:47:34.531Z</time></trkpt><trkpt lat="43.9149883" lon="12.5628083"><ele>159.25</ele><time>2026-04-26T10:47:35.531Z</time></trkpt><trkpt lat="43.9151167" lon="12.5628583"><ele>159.5</ele><time>2026-04-26T10:47:36.531Z</time></trkpt><trkpt lat="43.91524" lon="12.5629033"><ele>159.75</ele><time>2026-04-26T10:47:37.531Z</time></trkpt><trkpt lat="43.9153517" lon="12.56297"><ele>160.0</ele><time>2026-04-26T10:47:38.531Z</time></trkpt><trkpt lat="43.9154467" lon="12.5630567"><ele>160.0</ele><time>2026-04-26T10:47:39.53Z</time></trkpt><trkpt lat="43.9155283" lon="12.563165"><ele>160.0</ele><time>2026-04-26T10:47:40.531Z</time></trkpt><trkpt lat="43.9155917" lon="12.5633017"><ele>160.0</ele><time>2026-04-26T10:47:41.53Z</time></trkpt><trkpt lat="43.9156367" lon="12.5634583"><ele>160.0</ele><time>2026-04-26T10:47:42.53Z</time></trkpt><trkpt lat="43.9156483" lon="12.5636267"><ele>158.25</ele><time>2026-04-26T10:47:43.531Z</time></trkpt><trkpt lat="43.91565" lon="12.5638083"><ele>156.5</ele><time>2026-04-26T10:47:44.531Z</time></trkpt><trkpt lat="43.9156333" lon="12.563975"><ele>154.75</ele><time>2026-04-26T10:47:45.531Z</time></trkpt><trkpt lat="43.9156167" lon="12.5641317"><ele>153.0</ele><time>2026-04-26T10:47:46.53Z</time></trkpt><trkpt lat="43.9156" lon="12.5642767"><ele>153.0</ele><time>2026-04-26T10:47:47.531Z</time></trkpt><trkpt lat="43.91559" lon="12.5644033"><ele>153.0</ele><time>2026-04-26T10:47:48.531Z</time></trkpt><trkpt lat="43.91558" lon="12.5645367"><ele>153.0</ele><time>2026-04-26T10:47:49.531Z</time></trkpt><trkpt lat="43.91558" lon="12.56466"><ele>153.0</ele><time>2026-04-26T10:47:50.53Z</time></trkpt><trkpt lat="43.9155733" lon="12.5647883"><ele>153.0</ele><time>2026-04-26T10:47:51.531Z</time></trkpt><trkpt lat="43.915585" lon="12.5649117"><ele>152.0</ele><time>2026-04-26T10:47:52.531Z</time></trkpt><trkpt lat="43.9156117" lon="12.5650433"><ele>151.0</ele><time>2026-04-26T10:47:53.531Z</time></trkpt><trkpt lat="43.915655" lon="12.5651633"><ele>150.0</ele><time>2026-04-26T10:47:54.53Z</time></trkpt><trkpt lat="43.915715" lon="12.5652767"><ele>149.0</ele><time>2026-04-26T10:47:55.531Z</time></trkpt><trkpt lat="43.915795" lon="12.56538"><ele>148.0</ele><time>2026-04-26T10:47:56.531Z</time></trkpt><trkpt lat="43.91588" lon="12.56548"><ele>146.8</ele><time>2026-04-26T10:47:57.53Z</time></trkpt><trkpt lat="43.9159583" lon="12.56557"><ele>145.60000000000002</ele><time>2026-04-26T10:47:58.53Z</time></trkpt><trkpt lat="43.9160417" lon="12.5656517"><ele>144.39999999999998</ele><time>2026-04-26T10:47:59.53Z</time></trkpt><trkpt lat="43.9161183" lon="12.5657333"><ele>143.2</ele><time>2026-04-26T10:48:00.531Z</time></trkpt><trkpt lat="43.9161967" lon="12.565815"><ele>142.0</ele><time>2026-04-26T10:48:01.531Z</time></trkpt><trkpt lat="43.916275" lon="12.565895"><ele>142.0</ele><time>2026-04-26T10:48:02.531Z</time></trkpt><trkpt lat="43.9163633" lon="12.5659833"><ele>142.0</ele><time>2026-04-26T10:48:03.531Z</time></trkpt><trkpt lat="43.916455" lon="12.5660683"><ele>142.0</ele><time>2026-04-26T10:48:04.53Z</time></trkpt><trkpt lat="43.91655" lon="12.56616"><ele>142.0</ele><time>2026-04-26T10:48:05.531Z</time></trkpt><trkpt lat="43.9166433" lon="12.5662517"><ele>142.0</ele><time>2026-04-26T10:48:06.53Z</time></trkpt><trkpt lat="43.9167367" lon="12.5663433"><ele>142.4</ele><time>2026-04-26T10:48:07.53Z</time></trkpt><trkpt lat="43.9168283" lon="12.5664283"><ele>142.79999999999998</ele><time>2026-04-26T10:48:08.531Z</time></trkpt><trkpt lat="43.9169133" lon="12.5665067"><ele>143.2</ele><time>2026-04-26T10:48:09.531Z</time></trkpt><trkpt lat="43.916995" lon="12.5665883"><ele>143.6</ele><time>2026-04-26T10:48:10.53Z</time></trkpt><trkpt lat="43.917075" lon="12.5666683"><ele>144.0</ele><time>2026-04-26T10:48:11.53Z</time></trkpt><trkpt lat="43.9171583" lon="12.5667517"><ele>144.0</ele><time>2026-04-26T10:48:12.531Z</time></trkpt><trkpt lat="43.9172383" lon="12.5668333"><ele>144.0</ele><time>2026-04-26T10:48:13.531Z</time></trkpt><trkpt lat="43.9173217" lon="12.5669217"><ele>144.0</ele><time>2026-04-26T10:48:14.531Z</time></trkpt><trkpt lat="43.917405" lon="12.567015"><ele>144.0</ele><time>2026-04-26T10:48:15.531Z</time></trkpt><trkpt lat="43.9174867" lon="12.5671283"><ele>144.0</ele><time>2026-04-26T10:48:16.531Z</time></trkpt><trkpt lat="43.91756" lon="12.5672533"><ele>144.0</ele><time>2026-04-26T10:48:17.531Z</time></trkpt><trkpt lat="43.91762" lon="12.5673917"><ele>144.0</ele><time>2026-04-26T10:48:18.531Z</time></trkpt><trkpt lat="43.9176633" lon="12.5675333"><ele>144.0</ele><time>2026-04-26T10:48:19.531Z</time></trkpt><trkpt lat="43.9176867" lon="12.5676767"><ele>144.0</ele><time>2026-04-26T10:48:20.53Z</time></trkpt><trkpt lat="43.9177" lon="12.567815"><ele>144.0</ele><time>2026-04-26T10:48:21.531Z</time></trkpt><trkpt lat="43.9177" lon="12.56795"><ele>143.83333333333334</ele><time>2026-04-26T10:48:22.531Z</time></trkpt><trkpt lat="43.9176983" lon="12.5680733"><ele>143.66666666666666</ele><time>2026-04-26T10:48:23.531Z</time></trkpt><trkpt lat="43.917695" lon="12.5681867"><ele>143.5</ele><time>2026-04-26T10:48:24.531Z</time></trkpt><trkpt lat="43.9176917" lon="12.5683017"><ele>143.33333333333331</ele><time>2026-04-26T10:48:25.531Z</time></trkpt><trkpt lat="43.91769" lon="12.5684117"><ele>143.16666666666666</ele><time>2026-04-26T10:48:26.53Z</time></trkpt><trkpt lat="43.9176867" lon="12.568515"><ele>143.0</ele><time>2026-04-26T10:48:27.531Z</time></trkpt><trkpt lat="43.917685" lon="12.568615"><ele>143.0</ele><time>2026-04-26T10:48:28.531Z</time></trkpt><trkpt lat="43.917705" lon="12.56877"><ele>143.0</ele><time>2026-04-26T10:48:30.531Z</time></trkpt><trkpt lat="43.917795" lon="12.56882"><ele>143.0</ele><time>2026-04-26T10:48:32.531Z</time></trkpt><trkpt lat="43.91787" lon="12.5688133"><ele>143.0</ele><time>2026-04-26T10:48:33.531Z</time></trkpt><trkpt lat="43.9179567" lon="12.5687967"><ele>143.0</ele><time>2026-04-26T10:48:34.53Z</time></trkpt><trkpt lat="43.9180467" lon="12.5687767"><ele>143.0</ele><time>2026-04-26T10:48:35.531Z</time></trkpt><trkpt lat="43.91814" lon="12.5687517"><ele>143.0</ele><time>2026-04-26T10:48:36.531Z</time></trkpt><trkpt lat="43.9182533" lon="12.5687367"><ele>143.0</ele><time>2026-04-26T10:48:37.53Z</time></trkpt><trkpt lat="43.91839" lon="12.5687317"><ele>143.0</ele><time>2026-04-26T10:48:38.531Z</time></trkpt><trkpt lat="43.91852" lon="12.568735"><ele>144.25</ele><time>2026-04-26T10:48:39.53Z</time></trkpt><trkpt lat="43.91866" lon="12.568715"><ele>145.5</ele><time>2026-04-26T10:48:40.531Z</time></trkpt><trkpt lat="43.9187967" lon="12.5686683"><ele>146.75</ele><time>2026-04-26T10:48:41.53Z</time></trkpt><trkpt lat="43.91895" lon="12.5686133"><ele>148.0</ele><time>2026-04-26T10:48:42.53Z</time></trkpt><trkpt lat="43.9190917" lon="12.5685633"><ele>148.0</ele><time>2026-04-26T10:48:43.53Z</time></trkpt><trkpt lat="43.91923" lon="12.5685183"><ele>148.0</ele><time>2026-04-26T10:48:44.531Z</time></trkpt><trkpt lat="43.919375" lon="12.5684733"><ele>148.0</ele><time>2026-04-26T10:48:45.531Z</time></trkpt><trkpt lat="43.9195033" lon="12.5684233"><ele>148.0</ele><time>2026-04-26T10:48:46.531Z</time></trkpt><trkpt lat="43.91962" lon="12.5683817"><ele>149.8</ele><time>2026-04-26T10:48:47.531Z</time></trkpt><trkpt lat="43.9197283" lon="12.5683467"><ele>151.60000000000002</ele><time>2026-04-26T10:48:48.529Z</time></trkpt><trkpt lat="43.9198217" lon="12.5682983"><ele>153.39999999999998</ele><time>2026-04-26T10:48:49.53Z</time></trkpt><trkpt lat="43.919905" lon="12.568225"><ele>155.2</ele><time>2026-04-26T10:48:50.53Z</time></trkpt><trkpt lat="43.919985" lon="12.5681467"><ele>157.0</ele><time>2026-04-26T10:48:51.529Z</time></trkpt><trkpt lat="43.9200733" lon="12.5680667"><ele>158.39999999999998</ele><time>2026-04-26T10:48:52.53Z</time></trkpt><trkpt lat="43.920165" lon="12.56799"><ele>159.79999999999998</ele><time>2026-04-26T10:48:53.53Z</time></trkpt><trkpt lat="43.92025" lon="12.56792"><ele>161.2</ele><time>2026-04-26T10:48:54.53Z</time></trkpt><trkpt lat="43.9203367" lon="12.5678617"><ele>162.6</ele><time>2026-04-26T10:48:55.53Z</time></trkpt><trkpt lat="43.9204283" lon="12.567805"><ele>164.0</ele><time>2026-04-26T10:48:56.53Z</time></trkpt><trkpt lat="43.9205317" lon="12.5677433"><ele>164.6</ele><time>2026-04-26T10:48:57.53Z</time></trkpt><trkpt lat="43.92064" lon="12.567685"><ele>165.2</ele><time>2026-04-26T10:48:58.529Z</time></trkpt><trkpt lat="43.9207467" lon="12.5676267"><ele>165.79999999999998</ele><time>2026-04-26T10:48:59.53Z</time></trkpt><trkpt lat="43.92085" lon="12.5675767"><ele>166.39999999999998</ele><time>2026-04-26T10:49:00.53Z</time></trkpt><trkpt lat="43.9209517" lon="12.5675217"><ele>167.0</ele><time>2026-04-26T10:49:01.529Z</time></trkpt><trkpt lat="43.9210483" lon="12.56746"><ele>169.0</ele><time>2026-04-26T10:49:02.53Z</time></trkpt><trkpt lat="43.921145" lon="12.5674083"><ele>171.0</ele><time>2026-04-26T10:49:03.53Z</time></trkpt><trkpt lat="43.9212433" lon="12.5673567"><ele>173.0</ele><time>2026-04-26T10:49:04.529Z</time></trkpt><trkpt lat="43.9213367" lon="12.5673033"><ele>175.0</ele><time>2026-04-26T10:49:05.53Z</time></trkpt><trkpt lat="43.921425" lon="12.5672517"><ele>177.0</ele><time>2026-04-26T10:49:06.53Z</time></trkpt><trkpt lat="43.921495" lon="12.5672083"><ele>177.0</ele><time>2026-04-26T10:49:07.53Z</time></trkpt><trkpt lat="43.9215833" lon="12.567145"><ele>177.0</ele><time>2026-04-26T10:49:09.529Z</time></trkpt><trkpt lat="43.9216567" lon="12.5671567"><ele>177.0</ele><time>2026-04-26T10:49:11.53Z</time></trkpt><trkpt lat="43.9217217" lon="12.56721"><ele>177.0</ele><time>2026-04-26T10:49:12.529Z</time></trkpt><trkpt lat="43.9218083" lon="12.5672983"><ele>177.0</ele><time>2026-04-26T10:49:13.529Z</time></trkpt><trkpt lat="43.9219083" lon="12.5674017"><ele>177.0</ele><time>2026-04-26T10:49:14.53Z</time></trkpt><trkpt lat="43.9220017" lon="12.56752"><ele>177.0</ele><time>2026-04-26T10:49:15.53Z</time></trkpt><trkpt lat="43.9220833" lon="12.5676433"><ele>177.0</ele><time>2026-04-26T10:49:16.53Z</time></trkpt><trkpt lat="43.9221567" lon="12.5677683"><ele>177.0</ele><time>2026-04-26T10:49:17.53Z</time></trkpt><trkpt lat="43.9222383" lon="12.5678733"><ele>177.0</ele><time>2026-04-26T10:49:18.53Z</time></trkpt><trkpt lat="43.9223283" lon="12.5679383"><ele>177.0</ele><time>2026-04-26T10:49:19.53Z</time></trkpt><trkpt lat="43.9224383" lon="12.56798"><ele>177.0</ele><time>2026-04-26T10:49:20.53Z</time></trkpt><trkpt lat="43.92257" lon="12.5680083"><ele>177.0</ele><time>2026-04-26T10:49:21.53Z</time></trkpt><trkpt lat="43.922725" lon="12.5680217"><ele>179.0</ele><time>2026-04-26T10:49:22.53Z</time></trkpt><trkpt lat="43.9228983" lon="12.5680317"><ele>181.0</ele><time>2026-04-26T10:49:23.53Z</time></trkpt><trkpt lat="43.92307" lon="12.5680383"><ele>183.0</ele><time>2026-04-26T10:49:24.53Z</time></trkpt><trkpt lat="43.923235" lon="12.5680567"><ele>183.0</ele><time>2026-04-26T10:49:25.53Z</time></trkpt><trkpt lat="43.9233717" lon="12.5680767"><ele>183.0</ele><time>2026-04-26T10:49:26.53Z</time></trkpt><trkpt lat="43.9234783" lon="12.5681017"><ele>183.0</ele><time>2026-04-26T10:49:27.529Z</time></trkpt><trkpt lat="43.9235667" lon="12.5681683"><ele>183.0</ele><time>2026-04-26T10:49:28.53Z</time></trkpt><trkpt lat="43.9236417" lon="12.5682733"><ele>185.5</ele><time>2026-04-26T10:49:29.53Z</time></trkpt><trkpt lat="43.9237217" lon="12.5684183"><ele>188.0</ele><time>2026-04-26T10:49:30.53Z</time></trkpt><trkpt lat="43.92381" lon="12.568585"><ele>190.5</ele><time>2026-04-26T10:49:31.53Z</time></trkpt><trkpt lat="43.923905" lon="12.5687183"><ele>193.0</ele><time>2026-04-26T10:49:32.53Z</time></trkpt><trkpt lat="43.924005" lon="12.56881"><ele>193.25</ele><time>2026-04-26T10:49:33.53Z</time></trkpt><trkpt lat="43.9241117" lon="12.5688667"><ele>193.5</ele><time>2026-04-26T10:49:34.53Z</time></trkpt><trkpt lat="43.9242433" lon="12.5689117"><ele>193.75</ele><time>2026-04-26T10:49:35.53Z</time></trkpt><trkpt lat="43.9243817" lon="12.5689583"><ele>194.0</ele><time>2026-04-26T10:49:36.53Z</time></trkpt><trkpt lat="43.92451" lon="12.5690133"><ele>197.0</ele><time>2026-04-26T10:49:37.53Z</time></trkpt><trkpt lat="43.92464" lon="12.5690867"><ele>200.0</ele><time>2026-04-26T10:49:38.53Z</time></trkpt><trkpt lat="43.92477" lon="12.5691883"><ele>203.0</ele><time>2026-04-26T10:49:39.53Z</time></trkpt><trkpt lat="43.9249083" lon="12.5693033"><ele>203.0</ele><time>2026-04-26T10:49:40.529Z</time></trkpt><trkpt lat="43.92503" lon="12.5694117"><ele>203.0</ele><time>2026-04-26T10:49:41.529Z</time></trkpt><trkpt lat="43.9251517" lon="12.5694983"><ele>203.0</ele><time>2026-04-26T10:49:42.53Z</time></trkpt><trkpt lat="43.92529" lon="12.569565"><ele>203.0</ele><time>2026-04-26T10:49:43.53Z</time></trkpt><trkpt lat="43.9254383" lon="12.5696267"><ele>205.5</ele><time>2026-04-26T10:49:44.53Z</time></trkpt><trkpt lat="43.9255867" lon="12.56967"><ele>208.0</ele><time>2026-04-26T10:49:45.53Z</time></trkpt><trkpt lat="43.9257333" lon="12.5697"><ele>210.5</ele><time>2026-04-26T10:49:46.53Z</time></trkpt><trkpt lat="43.9258817" lon="12.5697233"><ele>213.0</ele><time>2026-04-26T10:49:47.53Z</time></trkpt><trkpt lat="43.9260133" lon="12.5697383"><ele>214.0</ele><time>2026-04-26T10:49:48.53Z</time></trkpt><trkpt lat="43.9261367" lon="12.5697467"><ele>215.0</ele><time>2026-04-26T10:49:49.529Z</time></trkpt><trkpt lat="43.926235" lon="12.56975"><ele>216.0</ele><time>2026-04-26T10:49:50.529Z</time></trkpt><trkpt lat="43.9263033" lon="12.56976"><ele>217.0</ele><time>2026-04-26T10:49:51.53Z</time></trkpt><trkpt lat="43.9263883" lon="12.569885"><ele>218.0</ele><time>2026-04-26T10:49:53.53Z</time></trkpt><trkpt lat="43.9263983" lon="12.5699833"><ele>218.0</ele><time>2026-04-26T10:49:54.529Z</time></trkpt><trkpt lat="43.9263983" lon="12.5701"><ele>218.0</ele><time>2026-04-26T10:49:55.529Z</time></trkpt><trkpt lat="43.9263917" lon="12.57022"><ele>218.0</ele><time>2026-04-26T10:49:56.529Z</time></trkpt><trkpt lat="43.9263733" lon="12.570365"><ele>218.0</ele><time>2026-04-26T10:49:57.529Z</time></trkpt><trkpt lat="43.9263517" lon="12.5705517"><ele>218.0</ele><time>2026-04-26T10:49:58.53Z</time></trkpt><trkpt lat="43.9263267" lon="12.57077"><ele>216.33333333333334</ele><time>2026-04-26T10:49:59.53Z</time></trkpt><trkpt lat="43.9263" lon="12.5710167"><ele>214.66666666666669</ele><time>2026-04-26T10:50:00.53Z</time></trkpt><trkpt lat="43.9262833" lon="12.57128"><ele>213.0</ele><time>2026-04-26T10:50:01.53Z</time></trkpt><trkpt lat="43.926265" lon="12.5715267"><ele>212.33333333333331</ele><time>2026-04-26T10:50:02.529Z</time></trkpt><trkpt lat="43.9262483" lon="12.571765"><ele>211.66666666666666</ele><time>2026-04-26T10:50:03.53Z</time></trkpt><trkpt lat="43.926235" lon="12.5719967"><ele>211.0</ele><time>2026-04-26T10:50:04.53Z</time></trkpt><trkpt lat="43.92622" lon="12.57224"><ele>211.0</ele><time>2026-04-26T10:50:05.53Z</time></trkpt><trkpt lat="43.9262" lon="12.5725033"><ele>211.0</ele><time>2026-04-26T10:50:06.529Z</time></trkpt><trkpt lat="43.92618" lon="12.572765"><ele>211.0</ele><time>2026-04-26T10:50:07.53Z</time></trkpt><trkpt lat="43.926165" lon="12.5730133"><ele>212.0</ele><time>2026-04-26T10:50:08.53Z</time></trkpt><trkpt lat="43.9261533" lon="12.57324"><ele>213.0</ele><time>2026-04-26T10:50:09.53Z</time></trkpt><trkpt lat="43.926145" lon="12.5734533"><ele>214.0</ele><time>2026-04-26T10:50:10.53Z</time></trkpt><trkpt lat="43.9261367" lon="12.5736633"><ele>214.66666666666666</ele><time>2026-04-26T10:50:11.53Z</time></trkpt><trkpt lat="43.9261217" lon="12.573875"><ele>215.33333333333331</ele><time>2026-04-26T10:50:12.53Z</time></trkpt><trkpt lat="43.926105" lon="12.5740917"><ele>216.0</ele><time>2026-04-26T10:50:13.53Z</time></trkpt><trkpt lat="43.9260883" lon="12.5743133"><ele>216.66666666666669</ele><time>2026-04-26T10:50:14.529Z</time></trkpt><trkpt lat="43.9260833" lon="12.57454"><ele>217.33333333333334</ele><time>2026-04-26T10:50:15.53Z</time></trkpt><trkpt lat="43.92609" lon="12.57477"><ele>218.0</ele><time>2026-04-26T10:50:16.53Z</time></trkpt><trkpt lat="43.9261033" lon="12.575005"><ele>218.0</ele><time>2026-04-26T10:50:17.53Z</time></trkpt><trkpt lat="43.92613" lon="12.5752467"><ele>218.0</ele><time>2026-04-26T10:50:18.53Z</time></trkpt><trkpt lat="43.926165" lon="12.5754783"><ele>218.0</ele><time>2026-04-26T10:50:19.53Z</time></trkpt><trkpt lat="43.9262017" lon="12.5757117"><ele>218.33333333333334</ele><time>2026-04-26T10:50:20.529Z</time></trkpt><trkpt lat="43.9262417" lon="12.575945"><ele>218.66666666666669</ele><time>2026-04-26T10:50:21.53Z</time></trkpt><trkpt lat="43.926275" lon="12.5761783"><ele>219.0</ele><time>2026-04-26T10:50:22.529Z</time></trkpt><trkpt lat="43.9262967" lon="12.5764117"><ele>221.0</ele><time>2026-04-26T10:50:23.53Z</time></trkpt><trkpt lat="43.9263117" lon="12.57665"><ele>223.0</ele><time>2026-04-26T10:50:24.53Z</time></trkpt><trkpt lat="43.9263183" lon="12.5768833"><ele>225.0</ele><time>2026-04-26T10:50:25.53Z</time></trkpt><trkpt lat="43.92632" lon="12.577105"><ele>227.0</ele><time>2026-04-26T10:50:26.529Z</time></trkpt><trkpt lat="43.9263167" lon="12.5773167"><ele>229.0</ele><time>2026-04-26T10:50:27.53Z</time></trkpt><trkpt lat="43.92631" lon="12.5775267"><ele>231.0</ele><time>2026-04-26T10:50:28.53Z</time></trkpt><trkpt lat="43.9262967" lon="12.5777367"><ele>231.5</ele><time>2026-04-26T10:50:29.53Z</time></trkpt><trkpt lat="43.9262733" lon="12.5779433"><ele>232.0</ele><time>2026-04-26T10:50:30.53Z</time></trkpt><trkpt lat="43.92625" lon="12.578145"><ele>232.5</ele><time>2026-04-26T10:50:31.53Z</time></trkpt><trkpt lat="43.92623" lon="12.5783433"><ele>233.0</ele><time>2026-04-26T10:50:32.529Z</time></trkpt><trkpt lat="43.9262217" lon="12.578555"><ele>232.5</ele><time>2026-04-26T10:50:33.53Z</time></trkpt><trkpt lat="43.9262233" lon="12.5787533"><ele>232.0</ele><time>2026-04-26T10:50:34.529Z</time></trkpt><trkpt lat="43.926235" lon="12.5789567"><ele>231.5</ele><time>2026-04-26T10:50:35.529Z</time></trkpt><trkpt lat="43.9262467" lon="12.579165"><ele>231.0</ele><time>2026-04-26T10:50:36.53Z</time></trkpt><trkpt lat="43.9262533" lon="12.5793633"><ele>229.5</ele><time>2026-04-26T10:50:37.53Z</time></trkpt><trkpt lat="43.9262583" lon="12.5795633"><ele>228.0</ele><time>2026-04-26T10:50:38.53Z</time></trkpt><trkpt lat="43.9262617" lon="12.5797533"><ele>226.5</ele><time>2026-04-26T10:50:39.529Z</time></trkpt><trkpt lat="43.9262583" lon="12.579935"><ele>225.0</ele><time>2026-04-26T10:50:40.53Z</time></trkpt><trkpt lat="43.9262517" lon="12.5801033"><ele>225.0</ele><time>2026-04-26T10:50:41.529Z</time></trkpt><trkpt lat="43.92624" lon="12.5802683"><ele>225.0</ele><time>2026-04-26T10:50:42.529Z</time></trkpt><trkpt lat="43.9262167" lon="12.5804183"><ele>225.0</ele><time>2026-04-26T10:50:43.529Z</time></trkpt><trkpt lat="43.9261883" lon="12.5805567"><ele>225.0</ele><time>2026-04-26T10:50:44.53Z</time></trkpt><trkpt lat="43.9261583" lon="12.5806783"><ele>225.0</ele><time>2026-04-26T10:50:45.53Z</time></trkpt><trkpt lat="43.9261383" lon="12.58078"><ele>223.8</ele><time>2026-04-26T10:50:46.53Z</time></trkpt><trkpt lat="43.92616" lon="12.580915"><ele>222.6</ele><time>2026-04-26T10:50:48.53Z</time></trkpt><trkpt lat="43.92628" lon="12.58098"><ele>221.39999999999998</ele><time>2026-04-26T10:50:50.529Z</time></trkpt><trkpt lat="43.9263617" lon="12.5810183"><ele>220.2</ele><time>2026-04-26T10:50:51.53Z</time></trkpt><trkpt lat="43.9264617" lon="12.581085"><ele>219.0</ele><time>2026-04-26T10:50:52.53Z</time></trkpt><trkpt lat="43.9265667" lon="12.581165"><ele>217.25</ele><time>2026-04-26T10:50:53.53Z</time></trkpt><trkpt lat="43.9266733" lon="12.581245"><ele>215.5</ele><time>2026-04-26T10:50:54.53Z</time></trkpt><trkpt lat="43.9267767" lon="12.5813233"><ele>213.75</ele><time>2026-04-26T10:50:55.53Z</time></trkpt><trkpt lat="43.9268833" lon="12.5814"><ele>212.0</ele><time>2026-04-26T10:50:56.529Z</time></trkpt><trkpt lat="43.926985" lon="12.5814733"><ele>210.5</ele><time>2026-04-26T10:50:57.53Z</time></trkpt><trkpt lat="43.9270917" lon="12.581545"><ele>209.0</ele><time>2026-04-26T10:50:58.53Z</time></trkpt><trkpt lat="43.927195" lon="12.5816283"><ele>207.5</ele><time>2026-04-26T10:50:59.53Z</time></trkpt><trkpt lat="43.9272967" lon="12.5817267"><ele>206.0</ele><time>2026-04-26T10:51:00.53Z</time></trkpt><trkpt lat="43.9273883" lon="12.58183"><ele>206.00000000000003</ele><time>2026-04-26T10:51:01.53Z</time></trkpt><trkpt lat="43.9274633" lon="12.5819333"><ele>206.0</ele><time>2026-04-26T10:51:02.53Z</time></trkpt><trkpt lat="43.9275267" lon="12.5820367"><ele>206.0</ele><time>2026-04-26T10:51:03.529Z</time></trkpt><trkpt lat="43.9275833" lon="12.5821217"><ele>206.0</ele><time>2026-04-26T10:51:04.529Z</time></trkpt><trkpt lat="43.927645" lon="12.582185"><ele>206.00000000000003</ele><time>2026-04-26T10:51:05.53Z</time></trkpt><trkpt lat="43.927715" lon="12.5822133"><ele>206.0</ele><time>2026-04-26T10:51:06.53Z</time></trkpt><trkpt lat="43.9277967" lon="12.58222"><ele>203.0</ele><time>2026-04-26T10:51:07.529Z</time></trkpt><trkpt lat="43.9279067" lon="12.5822067"><ele>200.0</ele><time>2026-04-26T10:51:08.53Z</time></trkpt><trkpt lat="43.92802" lon="12.5821933"><ele>197.0</ele><time>2026-04-26T10:51:09.53Z</time></trkpt><trkpt lat="43.9281433" lon="12.5821767"><ele>194.0</ele><time>2026-04-26T10:51:10.53Z</time></trkpt><trkpt lat="43.9282617" lon="12.5821533"><ele>194.0</ele><time>2026-04-26T10:51:11.53Z</time></trkpt><trkpt lat="43.9283783" lon="12.58212"><ele>194.0</ele><time>2026-04-26T10:51:12.529Z</time></trkpt><trkpt lat="43.9284933" lon="12.5820817"><ele>194.0</ele><time>2026-04-26T10:51:13.53Z</time></trkpt><trkpt lat="43.9286017" lon="12.582045"><ele>194.0</ele><time>2026-04-26T10:51:14.53Z</time></trkpt><trkpt lat="43.9286983" lon="12.5820183"><ele>194.0</ele><time>2026-04-26T10:51:15.53Z</time></trkpt><trkpt lat="43.928775" lon="12.58198"><ele>194.16666666666669</ele><time>2026-04-26T10:51:16.529Z</time></trkpt><trkpt lat="43.9288433" lon="12.5819333"><ele>194.33333333333334</ele><time>2026-04-26T10:51:17.53Z</time></trkpt><trkpt lat="43.9289067" lon="12.5818833"><ele>194.5</ele><time>2026-04-26T10:51:18.529Z</time></trkpt><trkpt lat="43.9290117" lon="12.581855"><ele>194.66666666666669</ele><time>2026-04-26T10:51:20.53Z</time></trkpt><trkpt lat="43.9290717" lon="12.5818817"><ele>194.83333333333334</ele><time>2026-04-26T10:51:21.529Z</time></trkpt><trkpt lat="43.9291417" lon="12.5819267"><ele>195.0</ele><time>2026-04-26T10:51:22.53Z</time></trkpt><trkpt lat="43.9292283" lon="12.5819633"><ele>191.6</ele><time>2026-04-26T10:51:23.529Z</time></trkpt><trkpt lat="43.9293233" lon="12.5819733"><ele>188.2</ele><time>2026-04-26T10:51:24.529Z</time></trkpt><trkpt lat="43.929425" lon="12.58196"><ele>184.8</ele><time>2026-04-26T10:51:25.529Z</time></trkpt><trkpt lat="43.9295183" lon="12.5819083"><ele>181.4</ele><time>2026-04-26T10:51:26.53Z</time></trkpt><trkpt lat="43.9296167" lon="12.58183"><ele>178.0</ele><time>2026-04-26T10:51:27.529Z</time></trkpt><trkpt lat="43.9297117" lon="12.5817417"><ele>178.0</ele><time>2026-04-26T10:51:28.53Z</time></trkpt><trkpt lat="43.9298067" lon="12.5816683"><ele>178.0</ele><time>2026-04-26T10:51:29.529Z</time></trkpt><trkpt lat="43.9299033" lon="12.581605"><ele>178.0</ele><time>2026-04-26T10:51:30.53Z</time></trkpt><trkpt lat="43.929995" lon="12.5815317"><ele>178.0</ele><time>2026-04-26T10:51:31.529Z</time></trkpt><trkpt lat="43.9300767" lon="12.58145"><ele>178.0</ele><time>2026-04-26T10:51:32.53Z</time></trkpt><trkpt lat="43.930145" lon="12.581355"><ele>176.5</ele><time>2026-04-26T10:51:33.529Z</time></trkpt><trkpt lat="43.9302067" lon="12.581255"><ele>175.0</ele><time>2026-04-26T10:51:34.529Z</time></trkpt><trkpt lat="43.93027" lon="12.5811833"><ele>173.5</ele><time>2026-04-26T10:51:35.53Z</time></trkpt><trkpt lat="43.9303333" lon="12.5811283"><ele>172.0</ele><time>2026-04-26T10:51:36.53Z</time></trkpt><trkpt lat="43.9304" lon="12.5811117"><ele>170.5</ele><time>2026-04-26T10:51:37.529Z</time></trkpt><trkpt lat="43.9304933" lon="12.5811317"><ele>169.0</ele><time>2026-04-26T10:51:38.529Z</time></trkpt><trkpt lat="43.9306067" lon="12.5811817"><ele>169.0</ele><time>2026-04-26T10:51:39.53Z</time></trkpt><trkpt lat="43.9307117" lon="12.5812417"><ele>169.0</ele><time>2026-04-26T10:51:40.53Z</time></trkpt><trkpt lat="43.930795" lon="12.5812867"><ele>169.0</ele><time>2026-04-26T10:51:41.529Z</time></trkpt><trkpt lat="43.9308567" lon="12.5813217"><ele>169.0</ele><time>2026-04-26T10:51:42.53Z</time></trkpt><trkpt lat="43.9309209" lon="12.5813462"><ele>169.0</ele><time>2026-04-26T10:51:43.53Z</time></trkpt><trkpt lat="43.9309876" lon="12.5813414"><ele>169.0</ele><time>2026-04-26T10:51:44.529Z</time></trkpt><trkpt lat="43.9310646" lon="12.5812914"><ele>166.39999999999998</ele><time>2026-04-26T10:51:45.53Z</time></trkpt><trkpt lat="43.9311485" lon="12.5811955"><ele>163.79999999999998</ele><time>2026-04-26T10:51:46.53Z</time></trkpt><trkpt lat="43.9312262" lon="12.581074"><ele>161.2</ele><time>2026-04-26T10:51:47.53Z</time></trkpt><trkpt lat="43.9313014" lon="12.5809593"><ele>158.6</ele><time>2026-04-26T10:51:48.53Z</time></trkpt><trkpt lat="43.9313793" lon="12.5808662"><ele>156.0</ele><time>2026-04-26T10:51:49.53Z</time></trkpt><trkpt lat="43.9314712" lon="12.5808145"><ele>156.0</ele><time>2026-04-26T10:51:50.529Z</time></trkpt><trkpt lat="43.9315924" lon="12.5807938"><ele>156.0</ele><time>2026-04-26T10:51:51.53Z</time></trkpt><trkpt lat="43.9317343" lon="12.5807874"><ele>156.0</ele><time>2026-04-26T10:51:52.529Z</time></trkpt><trkpt lat="43.9318803" lon="12.5807791"><ele>156.0</ele><time>2026-04-26T10:51:53.53Z</time></trkpt><trkpt lat="43.9320323" lon="12.5807593"><ele>154.0</ele><time>2026-04-26T10:51:54.529Z</time></trkpt><trkpt lat="43.9321885" lon="12.5807287"><ele>152.0</ele><time>2026-04-26T10:51:55.53Z</time></trkpt><trkpt lat="43.9323416" lon="12.5806985"><ele>150.0</ele><time>2026-04-26T10:51:56.529Z</time></trkpt><trkpt lat="43.932498" lon="12.5806763"><ele>149.33333333333334</ele><time>2026-04-26T10:51:57.53Z</time></trkpt><trkpt lat="43.9326536" lon="12.5806639"><ele>148.66666666666669</ele><time>2026-04-26T10:51:58.53Z</time></trkpt><trkpt lat="43.9328121" lon="12.58066"><ele>148.0</ele><time>2026-04-26T10:51:59.529Z</time></trkpt><trkpt lat="43.9329668" lon="12.5806634"><ele>148.0</ele><time>2026-04-26T10:52:00.53Z</time></trkpt><trkpt lat="43.9331225" lon="12.5806668"><ele>148.0</ele><time>2026-04-26T10:52:01.529Z</time></trkpt><trkpt lat="43.9332793" lon="12.5806759"><ele>148.0</ele><time>2026-04-26T10:52:02.53Z</time></trkpt><trkpt lat="43.9334378" lon="12.5806857"><ele>146.66666666666669</ele><time>2026-04-26T10:52:03.53Z</time></trkpt><trkpt lat="43.9335885" lon="12.5806921"><ele>145.33333333333334</ele><time>2026-04-26T10:52:04.53Z</time></trkpt><trkpt lat="43.9337385" lon="12.5807033"><ele>144.0</ele><time>2026-04-26T10:52:05.53Z</time></trkpt><trkpt lat="43.9338895" lon="12.5807171"><ele>144.0</ele><time>2026-04-26T10:52:06.53Z</time></trkpt><trkpt lat="43.934037" lon="12.5807316"><ele>144.0</ele><time>2026-04-26T10:52:07.53Z</time></trkpt><trkpt lat="43.9341773" lon="12.5807439"><ele>144.0</ele><time>2026-04-26T10:52:08.53Z</time></trkpt><trkpt lat="43.9343044" lon="12.5807567"><ele>144.0</ele><time>2026-04-26T10:52:09.529Z</time></trkpt><trkpt lat="43.9344294" lon="12.5807775"><ele>142.25</ele><time>2026-04-26T10:52:10.53Z</time></trkpt><trkpt lat="43.9345585" lon="12.5807932"><ele>140.5</ele><time>2026-04-26T10:52:11.529Z</time></trkpt><trkpt lat="43.9346762" lon="12.5808122"><ele>138.75</ele><time>2026-04-26T10:52:12.53Z</time></trkpt><trkpt lat="43.9347967" lon="12.5808257"><ele>137.0</ele><time>2026-04-26T10:52:13.53Z</time></trkpt><trkpt lat="43.9349215" lon="12.5808142"><ele>136.66666666666666</ele><time>2026-04-26T10:52:14.53Z</time></trkpt><trkpt lat="43.9350617" lon="12.5807783"><ele>136.33333333333334</ele><time>2026-04-26T10:52:15.53Z</time></trkpt><trkpt lat="43.9352133" lon="12.5807333"><ele>136.0</ele><time>2026-04-26T10:52:16.529Z</time></trkpt><trkpt lat="43.9353683" lon="12.5806867"><ele>136.0</ele><time>2026-04-26T10:52:17.53Z</time></trkpt><trkpt lat="43.9355183" lon="12.5806483"><ele>136.0</ele><time>2026-04-26T10:52:18.53Z</time></trkpt><trkpt lat="43.935675" lon="12.580615"><ele>136.0</ele><time>2026-04-26T10:52:19.53Z</time></trkpt><trkpt lat="43.9358333" lon="12.5805917"><ele>134.66666666666669</ele><time>2026-04-26T10:52:20.529Z</time></trkpt><trkpt lat="43.9359833" lon="12.5805717"><ele>133.33333333333334</ele><time>2026-04-26T10:52:21.53Z</time></trkpt><trkpt lat="43.936135" lon="12.5805483"><ele>132.0</ele><time>2026-04-26T10:52:22.529Z</time></trkpt><trkpt lat="43.9362833" lon="12.58052"><ele>132.0</ele><time>2026-04-26T10:52:23.53Z</time></trkpt><trkpt lat="43.9364317" lon="12.580495"><ele>132.0</ele><time>2026-04-26T10:52:24.53Z</time></trkpt><trkpt lat="43.9365817" lon="12.58046"><ele>132.0</ele><time>2026-04-26T10:52:25.529Z</time></trkpt><trkpt lat="43.9367317" lon="12.5804233"><ele>130.33333333333334</ele><time>2026-04-26T10:52:26.53Z</time></trkpt><trkpt lat="43.9368867" lon="12.58039"><ele>128.66666666666669</ele><time>2026-04-26T10:52:27.53Z</time></trkpt><trkpt lat="43.9370383" lon="12.5803617"><ele>127.0</ele><time>2026-04-26T10:52:28.529Z</time></trkpt><trkpt lat="43.937185" lon="12.5803417"><ele>127.0</ele><time>2026-04-26T10:52:29.53Z</time></trkpt><trkpt lat="43.9373267" lon="12.5803333"><ele>127.0</ele><time>2026-04-26T10:52:30.53Z</time></trkpt><trkpt lat="43.937465" lon="12.58034"><ele>127.0</ele><time>2026-04-26T10:52:31.53Z</time></trkpt><trkpt lat="43.9376017" lon="12.5803717"><ele>127.0</ele><time>2026-04-26T10:52:32.529Z</time></trkpt><trkpt lat="43.937745" lon="12.5804067"><ele>126.75</ele><time>2026-04-26T10:52:33.53Z</time></trkpt><trkpt lat="43.9378933" lon="12.580445"><ele>126.5</ele><time>2026-04-26T10:52:34.53Z</time></trkpt><trkpt lat="43.93804" lon="12.5804817"><ele>126.25</ele><time>2026-04-26T10:52:35.53Z</time></trkpt><trkpt lat="43.9381733" lon="12.5805133"><ele>126.0</ele><time>2026-04-26T10:52:36.53Z</time></trkpt><trkpt lat="43.9382833" lon="12.5805317"><ele>126.0</ele><time>2026-04-26T10:52:37.53Z</time></trkpt><trkpt lat="43.9383767" lon="12.5805533"><ele>126.0</ele><time>2026-04-26T10:52:38.53Z</time></trkpt><trkpt lat="43.9384533" lon="12.5805867"><ele>126.0</ele><time>2026-04-26T10:52:39.53Z</time></trkpt><trkpt lat="43.9385533" lon="12.5806467"><ele>126.0</ele><time>2026-04-26T10:52:41.53Z</time></trkpt><trkpt lat="43.93859" lon="12.58075"><ele>126.0</ele><time>2026-04-26T10:52:44.529Z</time></trkpt><trkpt lat="43.9385483" lon="12.5809"><ele>125.0</ele><time>2026-04-26T10:52:46.529Z</time></trkpt><trkpt lat="43.9385183" lon="12.58101"><ele>124.0</ele><time>2026-04-26T10:52:47.53Z</time></trkpt><trkpt lat="43.9384833" lon="12.58113"><ele>123.0</ele><time>2026-04-26T10:52:48.53Z</time></trkpt><trkpt lat="43.9384483" lon="12.58125"><ele>122.0</ele><time>2026-04-26T10:52:49.529Z</time></trkpt><trkpt lat="43.938415" lon="12.5813783"><ele>121.0</ele><time>2026-04-26T10:52:50.53Z</time></trkpt><trkpt lat="43.93838" lon="12.5815033"><ele>121.0</ele><time>2026-04-26T10:52:51.53Z</time></trkpt><trkpt lat="43.938345" lon="12.58163"><ele>121.0</ele><time>2026-04-26T10:52:52.53Z</time></trkpt><trkpt lat="43.9383067" lon="12.5817533"><ele>121.0</ele><time>2026-04-26T10:52:53.53Z</time></trkpt><trkpt lat="43.9382683" lon="12.5818767"><ele>121.0</ele><time>2026-04-26T10:52:54.529Z</time></trkpt><trkpt lat="43.9382333" lon="12.5819867"><ele>121.0</ele><time>2026-04-26T10:52:55.53Z</time></trkpt><trkpt lat="43.9381917" lon="12.582105"><ele>119.4</ele><time>2026-04-26T10:52:56.529Z</time></trkpt><trkpt lat="43.9381583" lon="12.582225"><ele>117.8</ele><time>2026-04-26T10:52:57.53Z</time></trkpt><trkpt lat="43.9381233" lon="12.58234"><ele>116.20000000000002</ele><time>2026-04-26T10:52:58.529Z</time></trkpt><trkpt lat="43.9380967" lon="12.58245"><ele>114.60000000000001</ele><time>2026-04-26T10:52:59.53Z</time></trkpt><trkpt lat="43.9380667" lon="12.5825667"><ele>113.0</ele><time>2026-04-26T10:53:00.529Z</time></trkpt><trkpt lat="43.938035" lon="12.5826917"><ele>112.99999999999999</ele><time>2026-04-26T10:53:01.53Z</time></trkpt><trkpt lat="43.938" lon="12.5828133"><ele>113.0</ele><time>2026-04-26T10:53:02.53Z</time></trkpt><trkpt lat="43.93796" lon="12.5829283"><ele>113.0</ele><time>2026-04-26T10:53:03.529Z</time></trkpt><trkpt lat="43.93792" lon="12.58304"><ele>113.0</ele><time>2026-04-26T10:53:04.53Z</time></trkpt><trkpt lat="43.9378867" lon="12.58315"><ele>112.99999999999999</ele><time>2026-04-26T10:53:05.529Z</time></trkpt><trkpt lat="43.937855" lon="12.58326"><ele>113.0</ele><time>2026-04-26T10:53:06.529Z</time></trkpt><trkpt lat="43.9378317" lon="12.5833683"><ele>111.60000000000001</ele><time>2026-04-26T10:53:07.529Z</time></trkpt><trkpt lat="43.9378217" lon="12.5834883"><ele>110.20000000000002</ele><time>2026-04-26T10:53:08.528Z</time></trkpt><trkpt lat="43.937815" lon="12.5836183"><ele>108.8</ele><time>2026-04-26T10:53:09.528Z</time></trkpt><trkpt lat="43.9378133" lon="12.5837483"><ele>107.4</ele><time>2026-04-26T10:53:10.529Z</time></trkpt><trkpt lat="43.9378183" lon="12.5838783"><ele>106.0</ele><time>2026-04-26T10:53:11.528Z</time></trkpt><trkpt lat="43.9378333" lon="12.58401"><ele>104.33333333333334</ele><time>2026-04-26T10:53:12.529Z</time></trkpt><trkpt lat="43.937845" lon="12.584145"><ele>102.66666666666667</ele><time>2026-04-26T10:53:13.528Z</time></trkpt><trkpt lat="43.93785" lon="12.584275"><ele>101.0</ele><time>2026-04-26T10:53:14.529Z</time></trkpt><trkpt lat="43.93785" lon="12.5844033"><ele>99.33333333333334</ele><time>2026-04-26T10:53:15.529Z</time></trkpt><trkpt lat="43.9378467" lon="12.5845133"><ele>97.66666666666667</ele><time>2026-04-26T10:53:16.529Z</time></trkpt><trkpt lat="43.93784" lon="12.5846067"><ele>96.0</ele><time>2026-04-26T10:53:17.529Z</time></trkpt><trkpt lat="43.9378283" lon="12.584695"><ele>94.85714285714285</ele><time>2026-04-26T10:53:18.529Z</time></trkpt><trkpt lat="43.937815" lon="12.5847817"><ele>93.71428571428571</ele><time>2026-04-26T10:53:19.528Z</time></trkpt><trkpt lat="43.937805" lon="12.58487"><ele>92.57142857142857</ele><time>2026-04-26T10:53:20.529Z</time></trkpt><trkpt lat="43.9377917" lon="12.584965"><ele>91.42857142857142</ele><time>2026-04-26T10:53:21.529Z</time></trkpt><trkpt lat="43.9377767" lon="12.5850617"><ele>90.28571428571428</ele><time>2026-04-26T10:53:22.529Z</time></trkpt><trkpt lat="43.93777" lon="12.5851567"><ele>89.14285714285714</ele><time>2026-04-26T10:53:23.529Z</time></trkpt><trkpt lat="43.9377783" lon="12.5852533"><ele>88.0</ele><time>2026-04-26T10:53:24.528Z</time></trkpt><trkpt lat="43.937795" lon="12.58534"><ele>86.80000000000001</ele><time>2026-04-26T10:53:25.528Z</time></trkpt><trkpt lat="43.9378667" lon="12.5854767"><ele>85.6</ele><time>2026-04-26T10:53:27.529Z</time></trkpt><trkpt lat="43.9379267" lon="12.58556"><ele>84.4</ele><time>2026-04-26T10:53:28.528Z</time></trkpt><trkpt lat="43.9380133" lon="12.5856517"><ele>83.19999999999999</ele><time>2026-04-26T10:53:29.529Z</time></trkpt><trkpt lat="43.9381083" lon="12.58575"><ele>82.0</ele><time>2026-04-26T10:53:30.529Z</time></trkpt><trkpt lat="43.9382" lon="12.5858433"><ele>82.0</ele><time>2026-04-26T10:53:31.528Z</time></trkpt><trkpt lat="43.9382933" lon="12.5859517"><ele>82.0</ele><time>2026-04-26T10:53:32.529Z</time></trkpt><trkpt lat="43.9383867" lon="12.5860567"><ele>82.0</ele><time>2026-04-26T10:53:33.529Z</time></trkpt><trkpt lat="43.938485" lon="12.5861667"><ele>82.0</ele><time>2026-04-26T10:53:34.528Z</time></trkpt><trkpt lat="43.9385833" lon="12.58627"><ele>80.25</ele><time>2026-04-26T10:53:35.528Z</time></trkpt><trkpt lat="43.9386733" lon="12.586365"><ele>78.5</ele><time>2026-04-26T10:53:36.529Z</time></trkpt><trkpt lat="43.9387617" lon="12.5864683"><ele>76.75</ele><time>2026-04-26T10:53:37.529Z</time></trkpt><trkpt lat="43.9388533" lon="12.586575"><ele>75.0</ele><time>2026-04-26T10:53:38.529Z</time></trkpt><trkpt lat="43.9389533" lon="12.586675"><ele>75.0</ele><time>2026-04-26T10:53:39.528Z</time></trkpt><trkpt lat="43.9390633" lon="12.5867767"><ele>75.0</ele><time>2026-04-26T10:53:40.528Z</time></trkpt><trkpt lat="43.9391783" lon="12.5868617"><ele>75.0</ele><time>2026-04-26T10:53:41.529Z</time></trkpt><trkpt lat="43.9393067" lon="12.58694"><ele>75.0</ele><time>2026-04-26T10:53:42.528Z</time></trkpt><trkpt lat="43.939435" lon="12.587015"><ele>73.4</ele><time>2026-04-26T10:53:43.529Z</time></trkpt><trkpt lat="43.939545" lon="12.5870917"><ele>71.8</ele><time>2026-04-26T10:53:44.529Z</time></trkpt><trkpt lat="43.9396333" lon="12.5871733"><ele>70.2</ele><time>2026-04-26T10:53:45.528Z</time></trkpt><trkpt lat="43.939695" lon="12.5872483"><ele>68.6</ele><time>2026-04-26T10:53:46.529Z</time></trkpt><trkpt lat="43.9397317" lon="12.5873233"><ele>67.0</ele><time>2026-04-26T10:53:47.529Z</time></trkpt><trkpt lat="43.9397133" lon="12.5874783"><ele>67.0</ele><time>2026-04-26T10:53:49.528Z</time></trkpt><trkpt lat="43.939655" lon="12.5875783"><ele>67.0</ele><time>2026-04-26T10:53:50.528Z</time></trkpt><trkpt lat="43.93957" lon="12.587695"><ele>67.0</ele><time>2026-04-26T10:53:51.529Z</time></trkpt><trkpt lat="43.9394533" lon="12.5878117"><ele>67.0</ele><time>2026-04-26T10:53:52.529Z</time></trkpt><trkpt lat="43.9393333" lon="12.5879233"><ele>67.6</ele><time>2026-04-26T10:53:53.529Z</time></trkpt><trkpt lat="43.93923" lon="12.5880333"><ele>68.2</ele><time>2026-04-26T10:53:54.528Z</time></trkpt><trkpt lat="43.93916" lon="12.5881317"><ele>68.8</ele><time>2026-04-26T10:53:55.528Z</time></trkpt><trkpt lat="43.939115" lon="12.5882217"><ele>69.4</ele><time>2026-04-26T10:53:56.529Z</time></trkpt><trkpt lat="43.9391" lon="12.588315"><ele>70.0</ele><time>2026-04-26T10:53:57.528Z</time></trkpt><trkpt lat="43.9391083" lon="12.5884217"><ele>70.0</ele><time>2026-04-26T10:53:58.528Z</time></trkpt><trkpt lat="43.9391483" lon="12.5885533"><ele>70.0</ele><time>2026-04-26T10:53:59.529Z</time></trkpt><trkpt lat="43.9392083" lon="12.5887117"><ele>70.0</ele><time>2026-04-26T10:54:00.529Z</time></trkpt><trkpt lat="43.9392667" lon="12.5889083"><ele>70.0</ele><time>2026-04-26T10:54:01.529Z</time></trkpt><trkpt lat="43.9393383" lon="12.5891383"><ele>71.66666666666666</ele><time>2026-04-26T10:54:02.529Z</time></trkpt><trkpt lat="43.9394167" lon="12.589375"><ele>73.33333333333333</ele><time>2026-04-26T10:54:03.529Z</time></trkpt><trkpt lat="43.9394983" lon="12.5896083"><ele>75.0</ele><time>2026-04-26T10:54:04.529Z</time></trkpt><trkpt lat="43.9395733" lon="12.589825"><ele>76.5</ele><time>2026-04-26T10:54:05.528Z</time></trkpt><trkpt lat="43.9396467" lon="12.59003"><ele>78.0</ele><time>2026-04-26T10:54:06.528Z</time></trkpt><trkpt lat="43.93971" lon="12.5902033"><ele>79.5</ele><time>2026-04-26T10:54:07.528Z</time></trkpt><trkpt lat="43.939755" lon="12.5903583"><ele>81.0</ele><time>2026-04-26T10:54:08.529Z</time></trkpt><trkpt lat="43.93978" lon="12.5905183"><ele>83.33333333333333</ele><time>2026-04-26T10:54:09.528Z</time></trkpt><trkpt lat="43.93978" lon="12.5907133"><ele>85.66666666666666</ele><time>2026-04-26T10:54:10.529Z</time></trkpt><trkpt lat="43.9397767" lon="12.5909467"><ele>88.0</ele><time>2026-04-26T10:54:11.528Z</time></trkpt><trkpt lat="43.9397567" lon="12.591205"><ele>90.33333333333333</ele><time>2026-04-26T10:54:12.528Z</time></trkpt><trkpt lat="43.9397483" lon="12.59147"><ele>92.66666666666667</ele><time>2026-04-26T10:54:13.529Z</time></trkpt><trkpt lat="43.939735" lon="12.5917033"><ele>95.0</ele><time>2026-04-26T10:54:14.529Z</time></trkpt><trkpt lat="43.9397317" lon="12.5918883"><ele>97.0</ele><time>2026-04-26T10:54:15.529Z</time></trkpt><trkpt lat="43.9397167" lon="12.5920317"><ele>99.0</ele><time>2026-04-26T10:54:16.528Z</time></trkpt><trkpt lat="43.9396817" lon="12.5921667"><ele>101.0</ele><time>2026-04-26T10:54:17.529Z</time></trkpt><trkpt lat="43.9396167" lon="12.5923067"><ele>103.0</ele><time>2026-04-26T10:54:18.529Z</time></trkpt><trkpt lat="43.9395317" lon="12.5924567"><ele>103.0</ele><time>2026-04-26T10:54:19.529Z</time></trkpt><trkpt lat="43.93945" lon="12.5926117"><ele>103.0</ele><time>2026-04-26T10:54:20.529Z</time></trkpt><trkpt lat="43.93938" lon="12.5927483"><ele>103.0</ele><time>2026-04-26T10:54:21.529Z</time></trkpt><trkpt lat="43.9393033" lon="12.5928983"><ele>103.0</ele><time>2026-04-26T10:54:22.529Z</time></trkpt><trkpt lat="43.939215" lon="12.5930567"><ele>109.0</ele><time>2026-04-26T10:54:23.528Z</time></trkpt><trkpt lat="43.9391283" lon="12.5932233"><ele>115.0</ele><time>2026-04-26T10:54:24.529Z</time></trkpt><trkpt lat="43.939045" lon="12.5934"><ele>121.0</ele><time>2026-04-26T10:54:25.528Z</time></trkpt><trkpt lat="43.938965" lon="12.5935817"><ele>125.66666666666667</ele><time>2026-04-26T10:54:26.528Z</time></trkpt><trkpt lat="43.9388883" lon="12.5937617"><ele>130.33333333333334</ele><time>2026-04-26T10:54:27.528Z</time></trkpt><trkpt lat="43.93881" lon="12.593965"><ele>135.0</ele><time>2026-04-26T10:54:28.529Z</time></trkpt><trkpt lat="43.9387267" lon="12.5941583"><ele>135.0</ele><time>2026-04-26T10:54:29.529Z</time></trkpt><trkpt lat="43.938655" lon="12.5943283"><ele>135.0</ele><time>2026-04-26T10:54:30.529Z</time></trkpt><trkpt lat="43.938595" lon="12.5944783"><ele>135.0</ele><time>2026-04-26T10:54:31.529Z</time></trkpt><trkpt lat="43.9385483" lon="12.5945917"><ele>135.0</ele><time>2026-04-26T10:54:32.529Z</time></trkpt><trkpt lat="43.9385167" lon="12.5946917"><ele>135.0</ele><time>2026-04-26T10:54:33.529Z</time></trkpt><trkpt lat="43.9384767" lon="12.59482"><ele>135.66666666666666</ele><time>2026-04-26T10:54:35.529Z</time></trkpt><trkpt lat="43.9384333" lon="12.5949117"><ele>136.33333333333334</ele><time>2026-04-26T10:54:38.529Z</time></trkpt><trkpt lat="43.9383867" lon="12.5949783"><ele>137.0</ele><time>2026-04-26T10:54:40.529Z</time></trkpt><trkpt lat="43.9383383" lon="12.5950417"><ele>137.66666666666669</ele><time>2026-04-26T10:54:42.528Z</time></trkpt><trkpt lat="43.9382483" lon="12.5950567"><ele>138.33333333333334</ele><time>2026-04-26T10:54:44.528Z</time></trkpt><trkpt lat="43.93818" lon="12.5950467"><ele>139.0</ele><time>2026-04-26T10:54:45.529Z</time></trkpt><trkpt lat="43.93809" lon="12.595055"><ele>139.0</ele><time>2026-04-26T10:54:46.529Z</time></trkpt><trkpt lat="43.9379967" lon="12.5950617"><ele>139.0</ele><time>2026-04-26T10:54:47.529Z</time></trkpt><trkpt lat="43.93791" lon="12.595065"><ele>139.0</ele><time>2026-04-26T10:54:48.529Z</time></trkpt><trkpt lat="43.9378383" lon="12.5950583"><ele>139.0</ele><time>2026-04-26T10:54:49.529Z</time></trkpt><trkpt lat="43.9377483" lon="12.5950433"><ele>139.0</ele><time>2026-04-26T10:54:51.529Z</time></trkpt><trkpt lat="43.9376517" lon="12.5950433"><ele>139.0</ele><time>2026-04-26T10:54:53.528Z</time></trkpt><trkpt lat="43.9375267" lon="12.5950367"><ele>139.2</ele><time>2026-04-26T10:54:55.529Z</time></trkpt><trkpt lat="43.937455" lon="12.5950283"><ele>139.4</ele><time>2026-04-26T10:54:56.529Z</time></trkpt><trkpt lat="43.9373733" lon="12.595015"><ele>139.6</ele><time>2026-04-26T10:54:57.529Z</time></trkpt><trkpt lat="43.9372833" lon="12.594995"><ele>139.8</ele><time>2026-04-26T10:54:58.529Z</time></trkpt><trkpt lat="43.9371833" lon="12.5949783"><ele>140.0</ele><time>2026-04-26T10:54:59.529Z</time></trkpt><trkpt lat="43.937075" lon="12.594975"><ele>140.0</ele><time>2026-04-26T10:55:00.528Z</time></trkpt><trkpt lat="43.936945" lon="12.5949917"><ele>140.0</ele><time>2026-04-26T10:55:01.529Z</time></trkpt><trkpt lat="43.9368133" lon="12.5949983"><ele>140.0</ele><time>2026-04-26T10:55:02.529Z</time></trkpt><trkpt lat="43.936705" lon="12.5949983"><ele>140.0</ele><time>2026-04-26T10:55:03.529Z</time></trkpt><trkpt lat="43.9366217" lon="12.5949933"><ele>141.0</ele><time>2026-04-26T10:55:04.529Z</time></trkpt><trkpt lat="43.9365433" lon="12.5949933"><ele>142.0</ele><time>2026-04-26T10:55:05.528Z</time></trkpt><trkpt lat="43.9364617" lon="12.595"><ele>143.0</ele><time>2026-04-26T10:55:06.529Z</time></trkpt><trkpt lat="43.9363767" lon="12.59501"><ele>144.0</ele><time>2026-04-26T10:55:07.529Z</time></trkpt><trkpt lat="43.93629" lon="12.595015"><ele>145.0</ele><time>2026-04-26T10:55:08.529Z</time></trkpt><trkpt lat="43.93621" lon="12.5950167"><ele>146.0</ele><time>2026-04-26T10:55:09.529Z</time></trkpt><trkpt lat="43.9361217" lon="12.5950233"><ele>146.0</ele><time>2026-04-26T10:55:10.529Z</time></trkpt><trkpt lat="43.936055" lon="12.59504"><ele>146.0</ele><time>2026-04-26T10:55:11.528Z</time></trkpt><trkpt lat="43.9359983" lon="12.595145"><ele>146.0</ele><time>2026-04-26T10:55:13.529Z</time></trkpt><trkpt lat="43.9360133" lon="12.5952583"><ele>146.0</ele><time>2026-04-26T10:55:14.529Z</time></trkpt><trkpt lat="43.9360267" lon="12.5954033"><ele>146.0</ele><time>2026-04-26T10:55:15.529Z</time></trkpt><trkpt lat="43.936045" lon="12.5955567"><ele>145.8</ele><time>2026-04-26T10:55:16.528Z</time></trkpt><trkpt lat="43.9360583" lon="12.5957"><ele>145.6</ele><time>2026-04-26T10:55:17.529Z</time></trkpt><trkpt lat="43.936075" lon="12.5958367"><ele>145.4</ele><time>2026-04-26T10:55:18.529Z</time></trkpt><trkpt lat="43.9360867" lon="12.59597"><ele>145.2</ele><time>2026-04-26T10:55:19.529Z</time></trkpt><trkpt lat="43.9361" lon="12.5961067"><ele>145.0</ele><time>2026-04-26T10:55:20.529Z</time></trkpt><trkpt lat="43.93612" lon="12.596235"><ele>143.75</ele><time>2026-04-26T10:55:21.529Z</time></trkpt><trkpt lat="43.936125" lon="12.5963667"><ele>142.5</ele><time>2026-04-26T10:55:22.529Z</time></trkpt><trkpt lat="43.9361317" lon="12.59652"><ele>141.25</ele><time>2026-04-26T10:55:23.529Z</time></trkpt><trkpt lat="43.93614" lon="12.5966933"><ele>140.0</ele><time>2026-04-26T10:55:24.528Z</time></trkpt><trkpt lat="43.9361467" lon="12.5968667"><ele>138.75</ele><time>2026-04-26T10:55:25.529Z</time></trkpt><trkpt lat="43.936155" lon="12.597035"><ele>137.5</ele><time>2026-04-26T10:55:26.529Z</time></trkpt><trkpt lat="43.9361683" lon="12.5972067"><ele>136.25</ele><time>2026-04-26T10:55:27.529Z</time></trkpt><trkpt lat="43.9361783" lon="12.597375"><ele>135.0</ele><time>2026-04-26T10:55:28.529Z</time></trkpt><trkpt lat="43.9361867" lon="12.5975433"><ele>135.0</ele><time>2026-04-26T10:55:29.528Z</time></trkpt><trkpt lat="43.9361933" lon="12.5977117"><ele>135.0</ele><time>2026-04-26T10:55:30.528Z</time></trkpt><trkpt lat="43.9361967" lon="12.5978783"><ele>135.0</ele><time>2026-04-26T10:55:31.529Z</time></trkpt><trkpt lat="43.9362017" lon="12.5980617"><ele>135.0</ele><time>2026-04-26T10:55:32.529Z</time></trkpt><trkpt lat="43.936215" lon="12.59824"><ele>133.0</ele><time>2026-04-26T10:55:33.529Z</time></trkpt><trkpt lat="43.9362267" lon="12.5984167"><ele>131.0</ele><time>2026-04-26T10:55:34.529Z</time></trkpt><trkpt lat="43.9362333" lon="12.59859"><ele>129.0</ele><time>2026-04-26T10:55:35.529Z</time></trkpt><trkpt lat="43.9362467" lon="12.5987633"><ele>127.0</ele><time>2026-04-26T10:55:36.529Z</time></trkpt><trkpt lat="43.9362633" lon="12.5989383"><ele>125.75</ele><time>2026-04-26T10:55:37.528Z</time></trkpt><trkpt lat="43.9362817" lon="12.5991133"><ele>124.5</ele><time>2026-04-26T10:55:38.529Z</time></trkpt><trkpt lat="43.9363083" lon="12.59929"><ele>123.25</ele><time>2026-04-26T10:55:39.528Z</time></trkpt><trkpt lat="43.9363333" lon="12.5994633"><ele>122.0</ele><time>2026-04-26T10:55:40.528Z</time></trkpt><trkpt lat="43.936365" lon="12.5996317"><ele>120.5</ele><time>2026-04-26T10:55:41.529Z</time></trkpt><trkpt lat="43.9364033" lon="12.599795"><ele>119.0</ele><time>2026-04-26T10:55:42.529Z</time></trkpt><trkpt lat="43.9364417" lon="12.5999517"><ele>117.5</ele><time>2026-04-26T10:55:43.529Z</time></trkpt><trkpt lat="43.9364883" lon="12.600105"><ele>116.0</ele><time>2026-04-26T10:55:44.529Z</time></trkpt><trkpt lat="43.936535" lon="12.60026"><ele>114.0</ele><time>2026-04-26T10:55:45.529Z</time></trkpt><trkpt lat="43.9365767" lon="12.6004367"><ele>112.0</ele><time>2026-04-26T10:55:46.529Z</time></trkpt><trkpt lat="43.9366033" lon="12.600635"><ele>110.0</ele><time>2026-04-26T10:55:47.529Z</time></trkpt><trkpt lat="43.9366233" lon="12.6008483"><ele>108.0</ele><time>2026-04-26T10:55:48.529Z</time></trkpt><trkpt lat="43.9366433" lon="12.6010633"><ele>105.66666666666666</ele><time>2026-04-26T10:55:49.529Z</time></trkpt><trkpt lat="43.9366667" lon="12.6012783"><ele>103.33333333333333</ele><time>2026-04-26T10:55:50.529Z</time></trkpt><trkpt lat="43.9366917" lon="12.6014967"><ele>101.0</ele><time>2026-04-26T10:55:51.529Z</time></trkpt><trkpt lat="43.9367133" lon="12.6017083"><ele>101.0</ele><time>2026-04-26T10:55:52.529Z</time></trkpt><trkpt lat="43.9367433" lon="12.6019167"><ele>101.0</ele><time>2026-04-26T10:55:53.529Z</time></trkpt><trkpt lat="43.93677" lon="12.602125"><ele>101.0</ele><time>2026-04-26T10:55:54.529Z</time></trkpt><trkpt lat="43.9367967" lon="12.6023333"><ele>99.5</ele><time>2026-04-26T10:55:55.529Z</time></trkpt><trkpt lat="43.93682" lon="12.602535"><ele>98.0</ele><time>2026-04-26T10:55:56.529Z</time></trkpt><trkpt lat="43.936845" lon="12.60272"><ele>96.5</ele><time>2026-04-26T10:55:57.529Z</time></trkpt><trkpt lat="43.9368617" lon="12.602885"><ele>95.0</ele><time>2026-04-26T10:55:58.529Z</time></trkpt><trkpt lat="43.9368783" lon="12.60303"><ele>94.0</ele><time>2026-04-26T10:55:59.529Z</time></trkpt><trkpt lat="43.93689" lon="12.6031567"><ele>93.0</ele><time>2026-04-26T10:56:00.529Z</time></trkpt><trkpt lat="43.9368983" lon="12.6032617"><ele>92.0</ele><time>2026-04-26T10:56:01.529Z</time></trkpt><trkpt lat="43.9369083" lon="12.6033517"><ele>91.0</ele><time>2026-04-26T10:56:02.528Z</time></trkpt><trkpt lat="43.9369567" lon="12.6034683"><ele>90.0</ele><time>2026-04-26T10:56:04.529Z</time></trkpt><trkpt lat="43.9370633" lon="12.6034783"><ele>89.0</ele><time>2026-04-26T10:56:06.528Z</time></trkpt><trkpt lat="43.937155" lon="12.6034617"><ele>89.0</ele><time>2026-04-26T10:56:07.528Z</time></trkpt><trkpt lat="43.9372583" lon="12.6034267"><ele>89.0</ele><time>2026-04-26T10:56:08.529Z</time></trkpt><trkpt lat="43.9373583" lon="12.603385"><ele>89.0</ele><time>2026-04-26T10:56:09.529Z</time></trkpt><trkpt lat="43.9374583" lon="12.6033367"><ele>89.0</ele><time>2026-04-26T10:56:10.529Z</time></trkpt><trkpt lat="43.9375683" lon="12.6032917"><ele>89.0</ele><time>2026-04-26T10:56:11.529Z</time></trkpt><trkpt lat="43.9376783" lon="12.6032633"><ele>88.0</ele><time>2026-04-26T10:56:12.529Z</time></trkpt><trkpt lat="43.9377783" lon="12.6032467"><ele>87.0</ele><time>2026-04-26T10:56:13.528Z</time></trkpt><trkpt lat="43.93787" lon="12.6032417"><ele>86.0</ele><time>2026-04-26T10:56:14.529Z</time></trkpt><trkpt lat="43.9379467" lon="12.6032683"><ele>85.0</ele><time>2026-04-26T10:56:15.529Z</time></trkpt><trkpt lat="43.938015" lon="12.603325"><ele>84.0</ele><time>2026-04-26T10:56:16.529Z</time></trkpt><trkpt lat="43.9380817" lon="12.603435"><ele>84.0</ele><time>2026-04-26T10:56:17.529Z</time></trkpt><trkpt lat="43.9381567" lon="12.6035717"><ele>84.0</ele><time>2026-04-26T10:56:18.528Z</time></trkpt><trkpt lat="43.938225" lon="12.6037083"><ele>84.0</ele><time>2026-04-26T10:56:19.528Z</time></trkpt><trkpt lat="43.9382967" lon="12.6038383"><ele>84.0</ele><time>2026-04-26T10:56:20.528Z</time></trkpt><trkpt lat="43.93837" lon="12.6039683"><ele>81.25</ele><time>2026-04-26T10:56:21.529Z</time></trkpt><trkpt lat="43.93844" lon="12.6041017"><ele>78.5</ele><time>2026-04-26T10:56:22.529Z</time></trkpt><trkpt lat="43.9385117" lon="12.604245"><ele>75.75</ele><time>2026-04-26T10:56:23.529Z</time></trkpt><trkpt lat="43.938575" lon="12.6043867"><ele>73.0</ele><time>2026-04-26T10:56:24.528Z</time></trkpt><trkpt lat="43.938635" lon="12.604525"><ele>72.6</ele><time>2026-04-26T10:56:25.529Z</time></trkpt><trkpt lat="43.938695" lon="12.60466"><ele>72.19999999999999</ele><time>2026-04-26T10:56:26.528Z</time></trkpt><trkpt lat="43.93875" lon="12.604795"><ele>71.8</ele><time>2026-04-26T10:56:27.529Z</time></trkpt><trkpt lat="43.9387983" lon="12.60492"><ele>71.39999999999999</ele><time>2026-04-26T10:56:28.529Z</time></trkpt><trkpt lat="43.9388417" lon="12.6050317"><ele>71.0</ele><time>2026-04-26T10:56:29.528Z</time></trkpt><trkpt lat="43.9388767" lon="12.605115"><ele>71.0</ele><time>2026-04-26T10:56:30.529Z</time></trkpt><trkpt lat="43.93893" lon="12.6052617"><ele>71.0</ele><time>2026-04-26T10:56:32.528Z</time></trkpt><trkpt lat="43.9389667" lon="12.6053433"><ele>71.0</ele><time>2026-04-26T10:56:33.529Z</time></trkpt><trkpt lat="43.9390017" lon="12.605445"><ele>71.0</ele><time>2026-04-26T10:56:34.529Z</time></trkpt><trkpt lat="43.9390483" lon="12.6055683"><ele>71.0</ele><time>2026-04-26T10:56:35.528Z</time></trkpt><trkpt lat="43.939075" lon="12.6057183"><ele>69.75</ele><time>2026-04-26T10:56:36.529Z</time></trkpt><trkpt lat="43.9390967" lon="12.60588"><ele>68.5</ele><time>2026-04-26T10:56:37.529Z</time></trkpt><trkpt lat="43.93912" lon="12.606045"><ele>67.25</ele><time>2026-04-26T10:56:38.529Z</time></trkpt><trkpt lat="43.9391383" lon="12.6062117"><ele>66.0</ele><time>2026-04-26T10:56:39.529Z</time></trkpt><trkpt lat="43.9391567" lon="12.6063733"><ele>64.5</ele><time>2026-04-26T10:56:40.529Z</time></trkpt><trkpt lat="43.93918" lon="12.6065367"><ele>63.0</ele><time>2026-04-26T10:56:41.528Z</time></trkpt><trkpt lat="43.9392033" lon="12.6066983"><ele>61.5</ele><time>2026-04-26T10:56:42.528Z</time></trkpt><trkpt lat="43.9392333" lon="12.606855"><ele>60.0</ele><time>2026-04-26T10:56:43.528Z</time></trkpt><trkpt lat="43.9392667" lon="12.60701"><ele>59.25</ele><time>2026-04-26T10:56:44.528Z</time></trkpt><trkpt lat="43.9392967" lon="12.6071617"><ele>58.5</ele><time>2026-04-26T10:56:45.529Z</time></trkpt><trkpt lat="43.93931" lon="12.60732"><ele>57.75</ele><time>2026-04-26T10:56:46.529Z</time></trkpt><trkpt lat="43.9393283" lon="12.6074717"><ele>57.0</ele><time>2026-04-26T10:56:47.529Z</time></trkpt><trkpt lat="43.93934" lon="12.607635"><ele>57.0</ele><time>2026-04-26T10:56:48.529Z</time></trkpt><trkpt lat="43.9393633" lon="12.6078017"><ele>57.0</ele><time>2026-04-26T10:56:49.529Z</time></trkpt><trkpt lat="43.93939" lon="12.607965"><ele>57.0</ele><time>2026-04-26T10:56:50.529Z</time></trkpt><trkpt lat="43.939425" lon="12.6081167"><ele>57.0</ele><time>2026-04-26T10:56:51.529Z</time></trkpt><trkpt lat="43.939475" lon="12.6082533"><ele>57.25</ele><time>2026-04-26T10:56:52.528Z</time></trkpt><trkpt lat="43.9395433" lon="12.6083933"><ele>57.5</ele><time>2026-04-26T10:56:53.529Z</time></trkpt><trkpt lat="43.93962" lon="12.6085483"><ele>57.75</ele><time>2026-04-26T10:56:54.529Z</time></trkpt><trkpt lat="43.9396867" lon="12.6087083"><ele>58.0</ele><time>2026-04-26T10:56:55.528Z</time></trkpt><trkpt lat="43.9397433" lon="12.6088633"><ele>58.0</ele><time>2026-04-26T10:56:56.529Z</time></trkpt><trkpt lat="43.9397933" lon="12.6090083"><ele>58.0</ele><time>2026-04-26T10:56:57.528Z</time></trkpt><trkpt lat="43.9398433" lon="12.6091517"><ele>58.0</ele><time>2026-04-26T10:56:58.529Z</time></trkpt><trkpt lat="43.9399" lon="12.6093017"><ele>58.0</ele><time>2026-04-26T10:56:59.528Z</time></trkpt><trkpt lat="43.9399567" lon="12.6094433"><ele>58.4</ele><time>2026-04-26T10:57:00.529Z</time></trkpt><trkpt lat="43.94001" lon="12.60957"><ele>58.8</ele><time>2026-04-26T10:57:01.529Z</time></trkpt><trkpt lat="43.940055" lon="12.6096667"><ele>59.2</ele><time>2026-04-26T10:57:02.528Z</time></trkpt><trkpt lat="43.9401233" lon="12.6097533"><ele>59.6</ele><time>2026-04-26T10:57:04.529Z</time></trkpt><trkpt lat="43.94023" lon="12.60974"><ele>60.0</ele><time>2026-04-26T10:57:06.529Z</time></trkpt><trkpt lat="43.9402967" lon="12.6097267"><ele>59.2</ele><time>2026-04-26T10:57:07.529Z</time></trkpt><trkpt lat="43.9404033" lon="12.6098083"><ele>58.4</ele><time>2026-04-26T10:57:09.529Z</time></trkpt><trkpt lat="43.9404433" lon="12.609905"><ele>57.599999999999994</ele><time>2026-04-26T10:57:10.529Z</time></trkpt><trkpt lat="43.9404683" lon="12.6100317"><ele>56.8</ele><time>2026-04-26T10:57:11.529Z</time></trkpt><trkpt lat="43.9404867" lon="12.6101767"><ele>56.0</ele><time>2026-04-26T10:57:12.529Z</time></trkpt><trkpt lat="43.9404983" lon="12.6103417"><ele>55.0</ele><time>2026-04-26T10:57:13.529Z</time></trkpt><trkpt lat="43.9405117" lon="12.61052"><ele>54.0</ele><time>2026-04-26T10:57:14.528Z</time></trkpt><trkpt lat="43.94053" lon="12.610685"><ele>53.0</ele><time>2026-04-26T10:57:15.529Z</time></trkpt><trkpt lat="43.940545" lon="12.6108383"><ele>52.0</ele><time>2026-04-26T10:57:16.529Z</time></trkpt><trkpt lat="43.9405567" lon="12.6109717"><ele>51.99999999999999</ele><time>2026-04-26T10:57:17.529Z</time></trkpt><trkpt lat="43.9405533" lon="12.611085"><ele>52.0</ele><time>2026-04-26T10:57:18.528Z</time></trkpt><trkpt lat="43.9405383" lon="12.6111883"><ele>52.0</ele><time>2026-04-26T10:57:19.529Z</time></trkpt><trkpt lat="43.9405183" lon="12.6112883"><ele>52.0</ele><time>2026-04-26T10:57:20.529Z</time></trkpt><trkpt lat="43.9404817" lon="12.6113967"><ele>51.99999999999999</ele><time>2026-04-26T10:57:21.529Z</time></trkpt><trkpt lat="43.9404183" lon="12.6115117"><ele>52.0</ele><time>2026-04-26T10:57:22.529Z</time></trkpt><trkpt lat="43.9403483" lon="12.6116367"><ele>52.0</ele><time>2026-04-26T10:57:23.529Z</time></trkpt><trkpt lat="43.940275" lon="12.6117667"><ele>52.0</ele><time>2026-04-26T10:57:24.529Z</time></trkpt><trkpt lat="43.9401933" lon="12.6118917"><ele>52.0</ele><time>2026-04-26T10:57:25.529Z</time></trkpt><trkpt lat="43.9401117" lon="12.612015"><ele>52.0</ele><time>2026-04-26T10:57:26.529Z</time></trkpt><trkpt lat="43.94003" lon="12.6121433"><ele>52.75</ele><time>2026-04-26T10:57:27.528Z</time></trkpt><trkpt lat="43.939955" lon="12.6122717"><ele>53.5</ele><time>2026-04-26T10:57:28.529Z</time></trkpt><trkpt lat="43.939885" lon="12.6124083"><ele>54.25</ele><time>2026-04-26T10:57:29.529Z</time></trkpt><trkpt lat="43.9398183" lon="12.6125467"><ele>55.0</ele><time>2026-04-26T10:57:30.528Z</time></trkpt><trkpt lat="43.9397617" lon="12.6126817"><ele>55.0</ele><time>2026-04-26T10:57:31.528Z</time></trkpt><trkpt lat="43.9397083" lon="12.6128183"><ele>55.0</ele><time>2026-04-26T10:57:32.529Z</time></trkpt><trkpt lat="43.9396617" lon="12.61297"><ele>55.0</ele><time>2026-04-26T10:57:33.529Z</time></trkpt><trkpt lat="43.9396183" lon="12.6131333"><ele>55.0</ele><time>2026-04-26T10:57:34.529Z</time></trkpt><trkpt lat="43.9395733" lon="12.6132967"><ele>55.5</ele><time>2026-04-26T10:57:35.529Z</time></trkpt><trkpt lat="43.9395333" lon="12.6134683"><ele>56.0</ele><time>2026-04-26T10:57:36.528Z</time></trkpt><trkpt lat="43.9394917" lon="12.6136467"><ele>56.5</ele><time>2026-04-26T10:57:37.528Z</time></trkpt><trkpt lat="43.9394467" lon="12.6138133"><ele>57.0</ele><time>2026-04-26T10:57:38.529Z</time></trkpt><trkpt lat="43.9394017" lon="12.61398"><ele>57.75</ele><time>2026-04-26T10:57:39.528Z</time></trkpt><trkpt lat="43.9393617" lon="12.6141467"><ele>58.5</ele><time>2026-04-26T10:57:40.529Z</time></trkpt><trkpt lat="43.9393167" lon="12.6143083"><ele>59.25</ele><time>2026-04-26T10:57:41.529Z</time></trkpt><trkpt lat="43.9392633" lon="12.6144633"><ele>60.0</ele><time>2026-04-26T10:57:42.529Z</time></trkpt><trkpt lat="43.939205" lon="12.6146033"><ele>61.5</ele><time>2026-04-26T10:57:43.527Z</time></trkpt><trkpt lat="43.939125" lon="12.6147417"><ele>63.0</ele><time>2026-04-26T10:57:44.528Z</time></trkpt><trkpt lat="43.939055" lon="12.6148617"><ele>64.5</ele><time>2026-04-26T10:57:45.527Z</time></trkpt><trkpt lat="43.93899" lon="12.6149867"><ele>66.0</ele><time>2026-04-26T10:57:46.528Z</time></trkpt><trkpt lat="43.9389383" lon="12.61511"><ele>66.0</ele><time>2026-04-26T10:57:47.528Z</time></trkpt><trkpt lat="43.9388967" lon="12.6152367"><ele>66.0</ele><time>2026-04-26T10:57:48.528Z</time></trkpt><trkpt lat="43.93886" lon="12.6153633"><ele>66.0</ele><time>2026-04-26T10:57:49.528Z</time></trkpt><trkpt lat="43.93883" lon="12.6154983"><ele>66.0</ele><time>2026-04-26T10:57:50.528Z</time></trkpt><trkpt lat="43.9387967" lon="12.6156433"><ele>66.0</ele><time>2026-04-26T10:57:51.528Z</time></trkpt><trkpt lat="43.9387583" lon="12.61579"><ele>67.39999999999999</ele><time>2026-04-26T10:57:52.528Z</time></trkpt><trkpt lat="43.9387117" lon="12.6159383"><ele>68.8</ele><time>2026-04-26T10:57:53.527Z</time></trkpt><trkpt lat="43.9386667" lon="12.6160567"><ele>70.19999999999999</ele><time>2026-04-26T10:57:54.528Z</time></trkpt><trkpt lat="43.9386183" lon="12.616145"><ele>71.6</ele><time>2026-04-26T10:57:55.528Z</time></trkpt><trkpt lat="43.9385417" lon="12.616255"><ele>73.0</ele><time>2026-04-26T10:57:57.528Z</time></trkpt><trkpt lat="43.9384817" lon="12.61639"><ele>74.2</ele><time>2026-04-26T10:57:59.528Z</time></trkpt><trkpt lat="43.9384317" lon="12.6165117"><ele>75.4</ele><time>2026-04-26T10:58:01.528Z</time></trkpt><trkpt lat="43.9383917" lon="12.6166117"><ele>76.60000000000001</ele><time>2026-04-26T10:58:03.527Z</time></trkpt><trkpt lat="43.9383483" lon="12.61672"><ele>77.8</ele><time>2026-04-26T10:58:05.528Z</time></trkpt><trkpt lat="43.93829" lon="12.6168617"><ele>79.0</ele><time>2026-04-26T10:58:07.528Z</time></trkpt><trkpt lat="43.9382567" lon="12.6169383"><ele>81.28571428571429</ele><time>2026-04-26T10:58:08.528Z</time></trkpt><trkpt lat="43.9382217" lon="12.6170133"><ele>83.57142857142857</ele><time>2026-04-26T10:58:09.528Z</time></trkpt><trkpt lat="43.93819" lon="12.6170917"><ele>85.85714285714286</ele><time>2026-04-26T10:58:10.528Z</time></trkpt><trkpt lat="43.938155" lon="12.6171917"><ele>88.14285714285714</ele><time>2026-04-26T10:58:11.527Z</time></trkpt><trkpt lat="43.9381267" lon="12.6172917"><ele>90.42857142857143</ele><time>2026-04-26T10:58:12.528Z</time></trkpt><trkpt lat="43.9381033" lon="12.6173967"><ele>92.71428571428572</ele><time>2026-04-26T10:58:13.527Z</time></trkpt><trkpt lat="43.938085" lon="12.6175"><ele>95.0</ele><time>2026-04-26T10:58:14.528Z</time></trkpt><trkpt lat="43.9380733" lon="12.6176"><ele>95.0</ele><time>2026-04-26T10:58:15.527Z</time></trkpt><trkpt lat="43.9380696" lon="12.6177043"><ele>95.0</ele><time>2026-04-26T10:58:16.528Z</time></trkpt><trkpt lat="43.9380794" lon="12.6178176"><ele>95.0</ele><time>2026-04-26T10:58:17.527Z</time></trkpt><trkpt lat="43.9380917" lon="12.6179376"><ele>95.0</ele><time>2026-04-26T10:58:18.528Z</time></trkpt><trkpt lat="43.938105" lon="12.6180572"><ele>95.0</ele><time>2026-04-26T10:58:19.528Z</time></trkpt><trkpt lat="43.9381121" lon="12.6181784"><ele>95.0</ele><time>2026-04-26T10:58:20.528Z</time></trkpt><trkpt lat="43.9381061" lon="12.6183135"><ele>96.2</ele><time>2026-04-26T10:58:21.528Z</time></trkpt><trkpt lat="43.9380859" lon="12.6184656"><ele>97.4</ele><time>2026-04-26T10:58:22.528Z</time></trkpt><trkpt lat="43.9380531" lon="12.6186314"><ele>98.6</ele><time>2026-04-26T10:58:23.528Z</time></trkpt><trkpt lat="43.9380254" lon="12.6187784"><ele>99.8</ele><time>2026-04-26T10:58:24.528Z</time></trkpt><trkpt lat="43.9380042" lon="12.6189085"><ele>101.0</ele><time>2026-04-26T10:58:25.528Z</time></trkpt><trkpt lat="43.9379813" lon="12.6190414"><ele>101.4</ele><time>2026-04-26T10:58:26.528Z</time></trkpt><trkpt lat="43.9379524" lon="12.6191857"><ele>101.8</ele><time>2026-04-26T10:58:27.528Z</time></trkpt><trkpt lat="43.9379156" lon="12.6193337"><ele>102.2</ele><time>2026-04-26T10:58:28.528Z</time></trkpt><trkpt lat="43.9378804" lon="12.6194839"><ele>102.60000000000001</ele><time>2026-04-26T10:58:29.528Z</time></trkpt><trkpt lat="43.9378546" lon="12.6196341"><ele>103.0</ele><time>2026-04-26T10:58:30.528Z</time></trkpt><trkpt lat="43.9378338" lon="12.6197883"><ele>104.60000000000001</ele><time>2026-04-26T10:58:31.527Z</time></trkpt><trkpt lat="43.937819" lon="12.6199347"><ele>106.2</ele><time>2026-04-26T10:58:32.528Z</time></trkpt><trkpt lat="43.9378075" lon="12.6200837"><ele>107.8</ele><time>2026-04-26T10:58:33.527Z</time></trkpt><trkpt lat="43.9377994" lon="12.62024"><ele>109.4</ele><time>2026-04-26T10:58:34.528Z</time></trkpt><trkpt lat="43.9378026" lon="12.6204062"><ele>111.0</ele><time>2026-04-26T10:58:35.527Z</time></trkpt><trkpt lat="43.937815" lon="12.620595"><ele>113.0</ele><time>2026-04-26T10:58:36.528Z</time></trkpt><trkpt lat="43.9378261" lon="12.6207847"><ele>115.0</ele><time>2026-04-26T10:58:37.528Z</time></trkpt><trkpt lat="43.9378367" lon="12.6209537"><ele>117.0</ele><time>2026-04-26T10:58:38.528Z</time></trkpt><trkpt lat="43.9378435" lon="12.6210894"><ele>119.0</ele><time>2026-04-26T10:58:39.527Z</time></trkpt><trkpt lat="43.9378392" lon="12.6212124"><ele>121.0</ele><time>2026-04-26T10:58:40.528Z</time></trkpt><trkpt lat="43.9378119" lon="12.6213411"><ele>123.6</ele><time>2026-04-26T10:58:41.528Z</time></trkpt><trkpt lat="43.9377597" lon="12.6214753"><ele>126.19999999999999</ele><time>2026-04-26T10:58:42.528Z</time></trkpt><trkpt lat="43.9377012" lon="12.6215841"><ele>128.8</ele><time>2026-04-26T10:58:43.528Z</time></trkpt><trkpt lat="43.9376483" lon="12.6216439"><ele>131.4</ele><time>2026-04-26T10:58:44.528Z</time></trkpt><trkpt lat="43.9375489" lon="12.6216836"><ele>134.0</ele><time>2026-04-26T10:58:46.528Z</time></trkpt><trkpt lat="43.9374383" lon="12.6217683"><ele>134.8</ele><time>2026-04-26T10:58:48.528Z</time></trkpt><trkpt lat="43.93737" lon="12.6218683"><ele>135.60000000000002</ele><time>2026-04-26T10:58:49.528Z</time></trkpt><trkpt lat="43.93731" lon="12.622"><ele>136.4</ele><time>2026-04-26T10:58:50.528Z</time></trkpt><trkpt lat="43.9372667" lon="12.62215"><ele>137.20000000000002</ele><time>2026-04-26T10:58:51.527Z</time></trkpt><trkpt lat="43.9372567" lon="12.622305"><ele>138.0</ele><time>2026-04-26T10:58:52.528Z</time></trkpt><trkpt lat="43.93727" lon="12.6224783"><ele>141.33333333333334</ele><time>2026-04-26T10:58:53.527Z</time></trkpt><trkpt lat="43.937305" lon="12.6226717"><ele>144.66666666666669</ele><time>2026-04-26T10:58:54.528Z</time></trkpt><trkpt lat="43.937355" lon="12.6228717"><ele>148.0</ele><time>2026-04-26T10:58:55.527Z</time></trkpt><trkpt lat="43.9374067" lon="12.6230817"><ele>149.33333333333334</ele><time>2026-04-26T10:58:56.528Z</time></trkpt><trkpt lat="43.9374667" lon="12.6233033"><ele>150.66666666666666</ele><time>2026-04-26T10:58:57.528Z</time></trkpt><trkpt lat="43.9375183" lon="12.6235233"><ele>152.0</ele><time>2026-04-26T10:58:58.528Z</time></trkpt><trkpt lat="43.937555" lon="12.623725"><ele>153.0</ele><time>2026-04-26T10:58:59.527Z</time></trkpt><trkpt lat="43.9375667" lon="12.6239083"><ele>154.0</ele><time>2026-04-26T10:59:00.527Z</time></trkpt><trkpt lat="43.93754" lon="12.6240733"><ele>155.0</ele><time>2026-04-26T10:59:01.527Z</time></trkpt><trkpt lat="43.9374817" lon="12.624235"><ele>156.0</ele><time>2026-04-26T10:59:02.528Z</time></trkpt><trkpt lat="43.9373817" lon="12.6243833"><ele>157.66666666666666</ele><time>2026-04-26T10:59:03.528Z</time></trkpt><trkpt lat="43.9372483" lon="12.62452"><ele>159.33333333333331</ele><time>2026-04-26T10:59:04.528Z</time></trkpt><trkpt lat="43.9370867" lon="12.6246483"><ele>161.0</ele><time>2026-04-26T10:59:05.527Z</time></trkpt><trkpt lat="43.9369283" lon="12.6247617"><ele>161.0</ele><time>2026-04-26T10:59:06.528Z</time></trkpt><trkpt lat="43.9367867" lon="12.6248517"><ele>161.0</ele><time>2026-04-26T10:59:07.528Z</time></trkpt><trkpt lat="43.936665" lon="12.6249217"><ele>161.0</ele><time>2026-04-26T10:59:08.528Z</time></trkpt><trkpt lat="43.9365583" lon="12.624945"><ele>161.0</ele><time>2026-04-26T10:59:09.528Z</time></trkpt><trkpt lat="43.9364533" lon="12.62494"><ele>160.20000000000002</ele><time>2026-04-26T10:59:10.528Z</time></trkpt><trkpt lat="43.9363567" lon="12.62492"><ele>159.4</ele><time>2026-04-26T10:59:11.528Z</time></trkpt><trkpt lat="43.9362617" lon="12.6248917"><ele>158.6</ele><time>2026-04-26T10:59:12.528Z</time></trkpt><trkpt lat="43.93615" lon="12.6248583"><ele>157.8</ele><time>2026-04-26T10:59:13.528Z</time></trkpt><trkpt lat="43.93603" lon="12.62483"><ele>157.0</ele><time>2026-04-26T10:59:14.528Z</time></trkpt><trkpt lat="43.9358933" lon="12.6247983"><ele>156.75</ele><time>2026-04-26T10:59:15.527Z</time></trkpt><trkpt lat="43.9357467" lon="12.6247683"><ele>156.5</ele><time>2026-04-26T10:59:16.528Z</time></trkpt><trkpt lat="43.9356" lon="12.6247383"><ele>156.25</ele><time>2026-04-26T10:59:17.528Z</time></trkpt><trkpt lat="43.93545" lon="12.6247083"><ele>156.0</ele><time>2026-04-26T10:59:18.528Z</time></trkpt><trkpt lat="43.9353067" lon="12.6246867"><ele>156.0</ele><time>2026-04-26T10:59:19.528Z</time></trkpt><trkpt lat="43.935175" lon="12.6246967"><ele>156.0</ele><time>2026-04-26T10:59:20.528Z</time></trkpt><trkpt lat="43.93505" lon="12.624715"><ele>156.0</ele><time>2026-04-26T10:59:21.528Z</time></trkpt><trkpt lat="43.9349233" lon="12.62475"><ele>156.0</ele><time>2026-04-26T10:59:22.528Z</time></trkpt><trkpt lat="43.93479" lon="12.6247767"><ele>156.5</ele><time>2026-04-26T10:59:23.528Z</time></trkpt><trkpt lat="43.93465" lon="12.6248017"><ele>157.0</ele><time>2026-04-26T10:59:24.528Z</time></trkpt><trkpt lat="43.9345133" lon="12.6248333"><ele>157.5</ele><time>2026-04-26T10:59:25.528Z</time></trkpt><trkpt lat="43.9343783" lon="12.6248683"><ele>158.0</ele><time>2026-04-26T10:59:26.528Z</time></trkpt><trkpt lat="43.9342367" lon="12.6249017"><ele>159.75</ele><time>2026-04-26T10:59:27.527Z</time></trkpt><trkpt lat="43.9341033" lon="12.6249367"><ele>161.5</ele><time>2026-04-26T10:59:28.528Z</time></trkpt><trkpt lat="43.933965" lon="12.62497"><ele>163.25</ele><time>2026-04-26T10:59:29.528Z</time></trkpt><trkpt lat="43.93383" lon="12.62499"><ele>165.0</ele><time>2026-04-26T10:59:30.528Z</time></trkpt><trkpt lat="43.9336933" lon="12.6250067"><ele>165.0</ele><time>2026-04-26T10:59:31.527Z</time></trkpt><trkpt lat="43.9335817" lon="12.6250117"><ele>165.0</ele><time>2026-04-26T10:59:32.527Z</time></trkpt><trkpt lat="43.9334733" lon="12.6250267"><ele>165.0</ele><time>2026-04-26T10:59:33.528Z</time></trkpt><trkpt lat="43.9333733" lon="12.6250733"><ele>165.0</ele><time>2026-04-26T10:59:34.528Z</time></trkpt><trkpt lat="43.9332783" lon="12.6251583"><ele>165.0</ele><time>2026-04-26T10:59:35.528Z</time></trkpt><trkpt lat="43.933195" lon="12.6252567"><ele>165.66666666666666</ele><time>2026-04-26T10:59:36.528Z</time></trkpt><trkpt lat="43.93312" lon="12.6253467"><ele>166.33333333333334</ele><time>2026-04-26T10:59:37.527Z</time></trkpt><trkpt lat="43.9330467" lon="12.6254267"><ele>167.0</ele><time>2026-04-26T10:59:38.528Z</time></trkpt><trkpt lat="43.9329767" lon="12.6255117"><ele>167.66666666666669</ele><time>2026-04-26T10:59:39.528Z</time></trkpt><trkpt lat="43.9329133" lon="12.625585"><ele>168.33333333333334</ele><time>2026-04-26T10:59:40.528Z</time></trkpt><trkpt lat="43.93285" lon="12.6256517"><ele>169.0</ele><time>2026-04-26T10:59:41.528Z</time></trkpt><trkpt lat="43.93279" lon="12.6257133"><ele>169.0</ele><time>2026-04-26T10:59:42.527Z</time></trkpt><trkpt lat="43.932735" lon="12.625775"><ele>169.0</ele><time>2026-04-26T10:59:43.527Z</time></trkpt><trkpt lat="43.9326783" lon="12.6258333"><ele>169.0</ele><time>2026-04-26T10:59:44.528Z</time></trkpt><trkpt lat="43.9326133" lon="12.6259"><ele>169.0</ele><time>2026-04-26T10:59:45.528Z</time></trkpt><trkpt lat="43.9325433" lon="12.62597"><ele>169.0</ele><time>2026-04-26T10:59:46.528Z</time></trkpt><trkpt lat="43.9324667" lon="12.626045"><ele>169.0</ele><time>2026-04-26T10:59:47.528Z</time></trkpt><trkpt lat="43.932385" lon="12.6261217"><ele>169.6</ele><time>2026-04-26T10:59:48.528Z</time></trkpt><trkpt lat="43.9323083" lon="12.6261817"><ele>170.2</ele><time>2026-04-26T10:59:49.528Z</time></trkpt><trkpt lat="43.9322267" lon="12.6262383"><ele>170.79999999999998</ele><time>2026-04-26T10:59:50.528Z</time></trkpt><trkpt lat="43.9321517" lon="12.6262867"><ele>171.39999999999998</ele><time>2026-04-26T10:59:51.528Z</time></trkpt><trkpt lat="43.932085" lon="12.6263283"><ele>172.0</ele><time>2026-04-26T10:59:52.528Z</time></trkpt><trkpt lat="43.9319883" lon="12.626445"><ele>172.0</ele><time>2026-04-26T10:59:54.528Z</time></trkpt><trkpt lat="43.9319367" lon="12.6265583"><ele>172.0</ele><time>2026-04-26T10:59:55.527Z</time></trkpt><trkpt lat="43.9318967" lon="12.626705"><ele>172.0</ele><time>2026-04-26T10:59:56.527Z</time></trkpt><trkpt lat="43.9318517" lon="12.626885"><ele>172.0</ele><time>2026-04-26T10:59:57.528Z</time></trkpt><trkpt lat="43.931815" lon="12.627075"><ele>172.0</ele><time>2026-04-26T10:59:58.528Z</time></trkpt><trkpt lat="43.9317817" lon="12.6272533"><ele>172.0</ele><time>2026-04-26T10:59:59.528Z</time></trkpt><trkpt lat="43.93175" lon="12.6274167"><ele>172.0</ele><time>2026-04-26T11:00:00.528Z</time></trkpt><trkpt lat="43.93172" lon="12.62759"><ele>172.0</ele><time>2026-04-26T11:00:01.528Z</time></trkpt><trkpt lat="43.9316917" lon="12.6277833"><ele>171.75</ele><time>2026-04-26T11:00:02.528Z</time></trkpt><trkpt lat="43.9316567" lon="12.62799"><ele>171.5</ele><time>2026-04-26T11:00:03.528Z</time></trkpt><trkpt lat="43.9316233" lon="12.6281917"><ele>171.25</ele><time>2026-04-26T11:00:04.527Z</time></trkpt><trkpt lat="43.9315983" lon="12.6283783"><ele>171.0</ele><time>2026-04-26T11:00:05.528Z</time></trkpt><trkpt lat="43.931575" lon="12.62856"><ele>170.75</ele><time>2026-04-26T11:00:06.528Z</time></trkpt><trkpt lat="43.931565" lon="12.6287333"><ele>170.5</ele><time>2026-04-26T11:00:07.527Z</time></trkpt><trkpt lat="43.931555" lon="12.6288983"><ele>170.25</ele><time>2026-04-26T11:00:08.528Z</time></trkpt><trkpt lat="43.93154" lon="12.62906"><ele>170.0</ele><time>2026-04-26T11:00:09.527Z</time></trkpt><trkpt lat="43.93153" lon="12.629225"><ele>170.0</ele><time>2026-04-26T11:00:10.528Z</time></trkpt><trkpt lat="43.9315183" lon="12.629405"><ele>170.0</ele><time>2026-04-26T11:00:11.528Z</time></trkpt><trkpt lat="43.9314967" lon="12.6295933"><ele>170.0</ele><time>2026-04-26T11:00:12.528Z</time></trkpt><trkpt lat="43.9314817" lon="12.6297667"><ele>170.0</ele><time>2026-04-26T11:00:13.527Z</time></trkpt><trkpt lat="43.9314617" lon="12.6299383"><ele>169.5</ele><time>2026-04-26T11:00:14.527Z</time></trkpt><trkpt lat="43.9314483" lon="12.6301067"><ele>169.0</ele><time>2026-04-26T11:00:15.528Z</time></trkpt><trkpt lat="43.9314367" lon="12.6302633"><ele>168.5</ele><time>2026-04-26T11:00:16.527Z</time></trkpt><trkpt lat="43.9314267" lon="12.6304233"><ele>168.0</ele><time>2026-04-26T11:00:17.528Z</time></trkpt><trkpt lat="43.9314183" lon="12.6305783"><ele>167.2</ele><time>2026-04-26T11:00:18.528Z</time></trkpt><trkpt lat="43.9314033" lon="12.630735"><ele>166.4</ele><time>2026-04-26T11:00:19.528Z</time></trkpt><trkpt lat="43.93139" lon="12.6308817"><ele>165.6</ele><time>2026-04-26T11:00:20.528Z</time></trkpt><trkpt lat="43.9313767" lon="12.631025"><ele>164.79999999999998</ele><time>2026-04-26T11:00:21.527Z</time></trkpt><trkpt lat="43.9313633" lon="12.6311667"><ele>164.0</ele><time>2026-04-26T11:00:22.527Z</time></trkpt><trkpt lat="43.9313533" lon="12.6312767"><ele>163.33333333333331</ele><time>2026-04-26T11:00:23.528Z</time></trkpt><trkpt lat="43.931345" lon="12.6314133"><ele>162.66666666666666</ele><time>2026-04-26T11:00:25.528Z</time></trkpt><trkpt lat="43.9313933" lon="12.6315133"><ele>162.0</ele><time>2026-04-26T11:00:27.528Z</time></trkpt><trkpt lat="43.93151" lon="12.6315317"><ele>161.33333333333334</ele><time>2026-04-26T11:00:29.527Z</time></trkpt><trkpt lat="43.931575" lon="12.6315367"><ele>160.66666666666669</ele><time>2026-04-26T11:00:30.527Z</time></trkpt><trkpt lat="43.9316383" lon="12.631565"><ele>160.0</ele><time>2026-04-26T11:00:31.528Z</time></trkpt><trkpt lat="43.9316917" lon="12.631625"><ele>159.5</ele><time>2026-04-26T11:00:32.528Z</time></trkpt><trkpt lat="43.93173" lon="12.63171"><ele>159.0</ele><time>2026-04-26T11:00:33.528Z</time></trkpt><trkpt lat="43.9317583" lon="12.6318117"><ele>158.5</ele><time>2026-04-26T11:00:34.527Z</time></trkpt><trkpt lat="43.93177" lon="12.63192"><ele>158.0</ele><time>2026-04-26T11:00:35.528Z</time></trkpt><trkpt lat="43.9317633" lon="12.6320533"><ele>157.5</ele><time>2026-04-26T11:00:36.528Z</time></trkpt><trkpt lat="43.931735" lon="12.6322017"><ele>157.0</ele><time>2026-04-26T11:00:37.528Z</time></trkpt><trkpt lat="43.9316867" lon="12.6323533"><ele>157.0</ele><time>2026-04-26T11:00:38.528Z</time></trkpt><trkpt lat="43.9316283" lon="12.63251"><ele>157.0</ele><time>2026-04-26T11:00:39.528Z</time></trkpt><trkpt lat="43.931575" lon="12.6326617"><ele>157.0</ele><time>2026-04-26T11:00:40.528Z</time></trkpt><trkpt lat="43.93152" lon="12.6328083"><ele>157.0</ele><time>2026-04-26T11:00:41.528Z</time></trkpt><trkpt lat="43.93146" lon="12.6329367"><ele>156.2</ele><time>2026-04-26T11:00:42.528Z</time></trkpt><trkpt lat="43.931415" lon="12.6330633"><ele>155.39999999999998</ele><time>2026-04-26T11:00:43.527Z</time></trkpt><trkpt lat="43.9313933" lon="12.63319"><ele>154.60000000000002</ele><time>2026-04-26T11:00:44.528Z</time></trkpt><trkpt lat="43.9313917" lon="12.6333317"><ele>153.8</ele><time>2026-04-26T11:00:45.527Z</time></trkpt><trkpt lat="43.93142" lon="12.6334917"><ele>153.0</ele><time>2026-04-26T11:00:46.527Z</time></trkpt><trkpt lat="43.93145" lon="12.6336517"><ele>152.0</ele><time>2026-04-26T11:00:47.528Z</time></trkpt><trkpt lat="43.9314683" lon="12.6338017"><ele>151.0</ele><time>2026-04-26T11:00:48.527Z</time></trkpt><trkpt lat="43.9314833" lon="12.6339533"><ele>150.0</ele><time>2026-04-26T11:00:49.528Z</time></trkpt><trkpt lat="43.9314983" lon="12.634105"><ele>149.0</ele><time>2026-04-26T11:00:50.527Z</time></trkpt><trkpt lat="43.93151" lon="12.6342583"><ele>148.0</ele><time>2026-04-26T11:00:51.528Z</time></trkpt><trkpt lat="43.9315133" lon="12.6344083"><ele>147.20000000000002</ele><time>2026-04-26T11:00:52.528Z</time></trkpt><trkpt lat="43.9315117" lon="12.6345583"><ele>146.4</ele><time>2026-04-26T11:00:53.528Z</time></trkpt><trkpt lat="43.9314933" lon="12.6347017"><ele>145.60000000000002</ele><time>2026-04-26T11:00:54.528Z</time></trkpt><trkpt lat="43.9314667" lon="12.6348417"><ele>144.8</ele><time>2026-04-26T11:00:55.528Z</time></trkpt><trkpt lat="43.931435" lon="12.6349983"><ele>144.0</ele><time>2026-04-26T11:00:56.528Z</time></trkpt><trkpt lat="43.9313983" lon="12.6351717"><ele>143.0</ele><time>2026-04-26T11:00:57.528Z</time></trkpt><trkpt lat="43.9313633" lon="12.6353483"><ele>142.0</ele><time>2026-04-26T11:00:58.528Z</time></trkpt><trkpt lat="43.93133" lon="12.6355233"><ele>141.0</ele><time>2026-04-26T11:00:59.528Z</time></trkpt><trkpt lat="43.9312967" lon="12.6357067"><ele>140.0</ele><time>2026-04-26T11:01:00.528Z</time></trkpt><trkpt lat="43.93127" lon="12.6358917"><ele>140.0</ele><time>2026-04-26T11:01:01.528Z</time></trkpt><trkpt lat="43.9312633" lon="12.636075"><ele>140.0</ele><time>2026-04-26T11:01:02.528Z</time></trkpt><trkpt lat="43.93127" lon="12.63625"><ele>140.0</ele><time>2026-04-26T11:01:03.528Z</time></trkpt><trkpt lat="43.9312833" lon="12.636425"><ele>140.0</ele><time>2026-04-26T11:01:04.528Z</time></trkpt><trkpt lat="43.9312883" lon="12.63659"><ele>138.75</ele><time>2026-04-26T11:01:05.528Z</time></trkpt><trkpt lat="43.93127" lon="12.636745"><ele>137.5</ele><time>2026-04-26T11:01:06.527Z</time></trkpt><trkpt lat="43.9312433" lon="12.6369"><ele>136.25</ele><time>2026-04-26T11:01:07.528Z</time></trkpt><trkpt lat="43.9312117" lon="12.6370567"><ele>135.0</ele><time>2026-04-26T11:01:08.528Z</time></trkpt><trkpt lat="43.93119" lon="12.63722"><ele>135.0</ele><time>2026-04-26T11:01:09.528Z</time></trkpt><trkpt lat="43.9311767" lon="12.63739"><ele>135.0</ele><time>2026-04-26T11:01:10.528Z</time></trkpt><trkpt lat="43.9311717" lon="12.6375617"><ele>135.0</ele><time>2026-04-26T11:01:11.527Z</time></trkpt><trkpt lat="43.9311767" lon="12.6377417"><ele>135.0</ele><time>2026-04-26T11:01:12.528Z</time></trkpt><trkpt lat="43.9311883" lon="12.6379133"><ele>135.2</ele><time>2026-04-26T11:01:13.528Z</time></trkpt><trkpt lat="43.9312033" lon="12.6380783"><ele>135.4</ele><time>2026-04-26T11:01:14.527Z</time></trkpt><trkpt lat="43.9312183" lon="12.6382333"><ele>135.6</ele><time>2026-04-26T11:01:15.527Z</time></trkpt><trkpt lat="43.9312367" lon="12.638385"><ele>135.8</ele><time>2026-04-26T11:01:16.528Z</time></trkpt><trkpt lat="43.9312567" lon="12.63853"><ele>136.0</ele><time>2026-04-26T11:01:17.528Z</time></trkpt><trkpt lat="43.9312767" lon="12.63866"><ele>135.0</ele><time>2026-04-26T11:01:18.528Z</time></trkpt><trkpt lat="43.9312967" lon="12.63878"><ele>134.0</ele><time>2026-04-26T11:01:19.528Z</time></trkpt><trkpt lat="43.9313317" lon="12.6388783"><ele>133.0</ele><time>2026-04-26T11:01:20.528Z</time></trkpt><trkpt lat="43.9313783" lon="12.6389667"><ele>132.0</ele><time>2026-04-26T11:01:21.528Z</time></trkpt><trkpt lat="43.93144" lon="12.6390283"><ele>131.0</ele><time>2026-04-26T11:01:22.528Z</time></trkpt><trkpt lat="43.9315167" lon="12.639075"><ele>130.0</ele><time>2026-04-26T11:01:23.527Z</time></trkpt><trkpt lat="43.9316117" lon="12.6391017"><ele>130.0</ele><time>2026-04-26T11:01:24.527Z</time></trkpt><trkpt lat="43.9317233" lon="12.63912"><ele>130.0</ele><time>2026-04-26T11:01:25.528Z</time></trkpt><trkpt lat="43.931865" lon="12.639135"><ele>130.0</ele><time>2026-04-26T11:01:26.528Z</time></trkpt><trkpt lat="43.932025" lon="12.639155"><ele>130.0</ele><time>2026-04-26T11:01:27.528Z</time></trkpt><trkpt lat="43.9322" lon="12.6391683"><ele>127.66666666666667</ele><time>2026-04-26T11:01:28.528Z</time></trkpt><trkpt lat="43.932375" lon="12.6391717"><ele>125.33333333333334</ele><time>2026-04-26T11:01:29.527Z</time></trkpt><trkpt lat="43.9325467" lon="12.6391767"><ele>123.0</ele><time>2026-04-26T11:01:30.527Z</time></trkpt><trkpt lat="43.932715" lon="12.6391783"><ele>120.0</ele><time>2026-04-26T11:01:31.528Z</time></trkpt><trkpt lat="43.9328767" lon="12.639175"><ele>117.0</ele><time>2026-04-26T11:01:32.528Z</time></trkpt><trkpt lat="43.9330383" lon="12.6391683"><ele>114.0</ele><time>2026-04-26T11:01:33.528Z</time></trkpt><trkpt lat="43.933185" lon="12.639165"><ele>114.0</ele><time>2026-04-26T11:01:34.528Z</time></trkpt><trkpt lat="43.9333183" lon="12.6391633"><ele>114.0</ele><time>2026-04-26T11:01:35.528Z</time></trkpt><trkpt lat="43.93343" lon="12.6391617"><ele>114.0</ele><time>2026-04-26T11:01:36.527Z</time></trkpt><trkpt lat="43.9335217" lon="12.639175"><ele>114.0</ele><time>2026-04-26T11:01:37.528Z</time></trkpt><trkpt lat="43.9336033" lon="12.6392133"><ele>114.0</ele><time>2026-04-26T11:01:38.528Z</time></trkpt><trkpt lat="43.9336667" lon="12.6392867"><ele>112.6</ele><time>2026-04-26T11:01:39.528Z</time></trkpt><trkpt lat="43.9337183" lon="12.6393883"><ele>111.2</ele><time>2026-04-26T11:01:40.528Z</time></trkpt><trkpt lat="43.9337667" lon="12.6395183"><ele>109.79999999999998</ele><time>2026-04-26T11:01:41.528Z</time></trkpt><trkpt lat="43.93382" lon="12.63967"><ele>108.39999999999999</ele><time>2026-04-26T11:01:42.527Z</time></trkpt><trkpt lat="43.933875" lon="12.6398117"><ele>107.0</ele><time>2026-04-26T11:01:43.528Z</time></trkpt><trkpt lat="43.93394" lon="12.6399633"><ele>107.0</ele><time>2026-04-26T11:01:44.528Z</time></trkpt><trkpt lat="43.9340083" lon="12.64011"><ele>107.0</ele><time>2026-04-26T11:01:45.528Z</time></trkpt><trkpt lat="43.9340767" lon="12.6402483"><ele>107.0</ele><time>2026-04-26T11:01:46.528Z</time></trkpt><trkpt lat="43.934145" lon="12.6403883"><ele>107.0</ele><time>2026-04-26T11:01:47.528Z</time></trkpt><trkpt lat="43.9342167" lon="12.6405217"><ele>103.75</ele><time>2026-04-26T11:01:48.528Z</time></trkpt><trkpt lat="43.9342867" lon="12.64066"><ele>100.5</ele><time>2026-04-26T11:01:49.528Z</time></trkpt><trkpt lat="43.9343567" lon="12.6408033"><ele>97.25</ele><time>2026-04-26T11:01:50.528Z</time></trkpt><trkpt lat="43.9344267" lon="12.6409533"><ele>94.0</ele><time>2026-04-26T11:01:51.528Z</time></trkpt><trkpt lat="43.9344917" lon="12.6411017"><ele>93.75</ele><time>2026-04-26T11:01:52.528Z</time></trkpt><trkpt lat="43.9345517" lon="12.6412517"><ele>93.5</ele><time>2026-04-26T11:01:53.527Z</time></trkpt><trkpt lat="43.9346133" lon="12.6413967"><ele>93.25</ele><time>2026-04-26T11:01:54.527Z</time></trkpt><trkpt lat="43.9346733" lon="12.64154"><ele>93.0</ele><time>2026-04-26T11:01:55.527Z</time></trkpt><trkpt lat="43.934735" lon="12.6416767"><ele>93.0</ele><time>2026-04-26T11:01:56.528Z</time></trkpt><trkpt lat="43.9347967" lon="12.6418067"><ele>93.0</ele><time>2026-04-26T11:01:57.527Z</time></trkpt><trkpt lat="43.9348567" lon="12.64193"><ele>93.0</ele><time>2026-04-26T11:01:58.528Z</time></trkpt><trkpt lat="43.9349183" lon="12.6420467"><ele>93.0</ele><time>2026-04-26T11:01:59.528Z</time></trkpt><trkpt lat="43.93498" lon="12.64216"><ele>93.0</ele><time>2026-04-26T11:02:00.527Z</time></trkpt><trkpt lat="43.93505" lon="12.6422633"><ele>92.5</ele><time>2026-04-26T11:02:01.528Z</time></trkpt><trkpt lat="43.935125" lon="12.6423567"><ele>92.0</ele><time>2026-04-26T11:02:02.528Z</time></trkpt><trkpt lat="43.9351917" lon="12.6424433"><ele>91.5</ele><time>2026-04-26T11:02:03.528Z</time></trkpt><trkpt lat="43.93525" lon="12.642525"><ele>91.0</ele><time>2026-04-26T11:02:04.528Z</time></trkpt><trkpt lat="43.9352967" lon="12.642595"><ele>90.5</ele><time>2026-04-26T11:02:05.528Z</time></trkpt><trkpt lat="43.9353283" lon="12.64272"><ele>90.0</ele><time>2026-04-26T11:02:07.528Z</time></trkpt><trkpt lat="43.93528" lon="12.642785"><ele>89.6</ele><time>2026-04-26T11:02:09.528Z</time></trkpt><trkpt lat="43.9351567" lon="12.6428467"><ele>89.2</ele><time>2026-04-26T11:02:11.527Z</time></trkpt><trkpt lat="43.93507" lon="12.6429083"><ele>88.80000000000001</ele><time>2026-04-26T11:02:12.528Z</time></trkpt><trkpt lat="43.9349833" lon="12.6429783"><ele>88.4</ele><time>2026-04-26T11:02:13.528Z</time></trkpt><trkpt lat="43.9349133" lon="12.6430417"><ele>88.0</ele><time>2026-04-26T11:02:14.527Z</time></trkpt><trkpt lat="43.9348633" lon="12.6431067"><ele>88.0</ele><time>2026-04-26T11:02:15.527Z</time></trkpt><trkpt lat="43.9348133" lon="12.6431983"><ele>88.0</ele><time>2026-04-26T11:02:16.528Z</time></trkpt><trkpt lat="43.934765" lon="12.6433117"><ele>88.0</ele><time>2026-04-26T11:02:17.528Z</time></trkpt><trkpt lat="43.934705" lon="12.6434517"><ele>88.0</ele><time>2026-04-26T11:02:18.528Z</time></trkpt><trkpt lat="43.9346433" lon="12.6436083"><ele>88.0</ele><time>2026-04-26T11:02:19.528Z</time></trkpt><trkpt lat="43.934585" lon="12.64375"><ele>88.5</ele><time>2026-04-26T11:02:20.528Z</time></trkpt><trkpt lat="43.9345267" lon="12.6438717"><ele>89.0</ele><time>2026-04-26T11:02:21.528Z</time></trkpt><trkpt lat="43.934475" lon="12.6439833"><ele>89.5</ele><time>2026-04-26T11:02:22.528Z</time></trkpt><trkpt lat="43.9344233" lon="12.64407"><ele>90.0</ele><time>2026-04-26T11:02:23.528Z</time></trkpt><trkpt lat="43.934365" lon="12.6441367"><ele>90.5</ele><time>2026-04-26T11:02:24.528Z</time></trkpt><trkpt lat="43.934305" lon="12.6442083"><ele>91.0</ele><time>2026-04-26T11:02:25.528Z</time></trkpt><trkpt lat="43.9342367" lon="12.644285"><ele>90.16666666666666</ele><time>2026-04-26T11:02:26.528Z</time></trkpt><trkpt lat="43.9341683" lon="12.6443617"><ele>89.33333333333333</ele><time>2026-04-26T11:02:27.528Z</time></trkpt><trkpt lat="43.9341" lon="12.6444383"><ele>88.5</ele><time>2026-04-26T11:02:28.528Z</time></trkpt><trkpt lat="43.9340367" lon="12.6444967"><ele>87.66666666666667</ele><time>2026-04-26T11:02:29.528Z</time></trkpt><trkpt lat="43.9339833" lon="12.644555"><ele>86.83333333333334</ele><time>2026-04-26T11:02:30.528Z</time></trkpt><trkpt lat="43.9339317" lon="12.644615"><ele>86.0</ele><time>2026-04-26T11:02:31.527Z</time></trkpt><trkpt lat="43.9338817" lon="12.6446817"><ele>85.83333333333334</ele><time>2026-04-26T11:02:32.528Z</time></trkpt><trkpt lat="43.93383" lon="12.6447617"><ele>85.66666666666667</ele><time>2026-04-26T11:02:33.528Z</time></trkpt><trkpt lat="43.933775" lon="12.6448517"><ele>85.5</ele><time>2026-04-26T11:02:34.528Z</time></trkpt><trkpt lat="43.93372" lon="12.6449483"><ele>85.33333333333333</ele><time>2026-04-26T11:02:35.527Z</time></trkpt><trkpt lat="43.9336617" lon="12.64504"><ele>85.16666666666666</ele><time>2026-04-26T11:02:36.528Z</time></trkpt><trkpt lat="43.933605" lon="12.6451367"><ele>85.0</ele><time>2026-04-26T11:02:37.528Z</time></trkpt><trkpt lat="43.933545" lon="12.645235"><ele>85.0</ele><time>2026-04-26T11:02:38.527Z</time></trkpt><trkpt lat="43.9334817" lon="12.6453383"><ele>85.0</ele><time>2026-04-26T11:02:39.527Z</time></trkpt><trkpt lat="43.9334183" lon="12.645435"><ele>85.0</ele><time>2026-04-26T11:02:40.528Z</time></trkpt><trkpt lat="43.9333683" lon="12.6455267"><ele>85.0</ele><time>2026-04-26T11:02:41.528Z</time></trkpt><trkpt lat="43.9333267" lon="12.64562"><ele>85.0</ele><time>2026-04-26T11:02:42.528Z</time></trkpt><trkpt lat="43.9333017" lon="12.6457067"><ele>85.0</ele><time>2026-04-26T11:02:43.527Z</time></trkpt><trkpt lat="43.9332633" lon="12.6458767"><ele>85.0</ele><time>2026-04-26T11:02:45.528Z</time></trkpt><trkpt lat="43.933215" lon="12.6460383"><ele>85.0</ele><time>2026-04-26T11:02:47.528Z</time></trkpt><trkpt lat="43.9331533" lon="12.6461767"><ele>85.0</ele><time>2026-04-26T11:02:49.527Z</time></trkpt><trkpt lat="43.9330933" lon="12.6463"><ele>85.0</ele><time>2026-04-26T11:02:51.527Z</time></trkpt><trkpt lat="43.9330217" lon="12.6464033"><ele>84.8</ele><time>2026-04-26T11:02:53.526Z</time></trkpt><trkpt lat="43.9329017" lon="12.6464483"><ele>84.6</ele><time>2026-04-26T11:02:55.527Z</time></trkpt><trkpt lat="43.9328267" lon="12.6464833"><ele>84.4</ele><time>2026-04-26T11:02:56.527Z</time></trkpt><trkpt lat="43.932755" lon="12.6465383"><ele>84.2</ele><time>2026-04-26T11:02:57.526Z</time></trkpt><trkpt lat="43.9326917" lon="12.6466133"><ele>84.0</ele><time>2026-04-26T11:02:58.527Z</time></trkpt><trkpt lat="43.9326333" lon="12.6467133"><ele>84.0</ele><time>2026-04-26T11:02:59.527Z</time></trkpt><trkpt lat="43.9325683" lon="12.6468233"><ele>84.0</ele><time>2026-04-26T11:03:00.527Z</time></trkpt><trkpt lat="43.9325017" lon="12.64693"><ele>84.0</ele><time>2026-04-26T11:03:01.527Z</time></trkpt><trkpt lat="43.9324517" lon="12.647025"><ele>84.0</ele><time>2026-04-26T11:03:02.526Z</time></trkpt><trkpt lat="43.93241" lon="12.6470983"><ele>84.0</ele><time>2026-04-26T11:03:03.526Z</time></trkpt><trkpt lat="43.9323567" lon="12.6471983"><ele>84.0</ele><time>2026-04-26T11:03:05.527Z</time></trkpt><trkpt lat="43.9323367" lon="12.6473117"><ele>84.80000000000001</ele><time>2026-04-26T11:03:08.526Z</time></trkpt><trkpt lat="43.9323433" lon="12.6474067"><ele>85.60000000000001</ele><time>2026-04-26T11:03:10.526Z</time></trkpt><trkpt lat="43.9323167" lon="12.6475467"><ele>86.4</ele><time>2026-04-26T11:03:12.527Z</time></trkpt><trkpt lat="43.9322383" lon="12.6476617"><ele>87.2</ele><time>2026-04-26T11:03:14.527Z</time></trkpt><trkpt lat="43.9321733" lon="12.6477117"><ele>88.0</ele><time>2026-04-26T11:03:15.526Z</time></trkpt><trkpt lat="43.9320817" lon="12.6477633"><ele>87.4</ele><time>2026-04-26T11:03:16.527Z</time></trkpt><trkpt lat="43.931975" lon="12.6478217"><ele>86.80000000000001</ele><time>2026-04-26T11:03:17.527Z</time></trkpt><trkpt lat="43.9318633" lon="12.6478867"><ele>86.2</ele><time>2026-04-26T11:03:18.527Z</time></trkpt><trkpt lat="43.931765" lon="12.6479483"><ele>85.6</ele><time>2026-04-26T11:03:19.527Z</time></trkpt><trkpt lat="43.9316817" lon="12.648"><ele>85.0</ele><time>2026-04-26T11:03:20.527Z</time></trkpt><trkpt lat="43.931605" lon="12.64805"><ele>86.33333333333333</ele><time>2026-04-26T11:03:21.527Z</time></trkpt><trkpt lat="43.9315383" lon="12.648095"><ele>87.66666666666666</ele><time>2026-04-26T11:03:22.526Z</time></trkpt><trkpt lat="43.9314517" lon="12.6481767"><ele>89.0</ele><time>2026-04-26T11:03:24.527Z</time></trkpt><trkpt lat="43.9314" lon="12.6482617"><ele>90.33333333333333</ele><time>2026-04-26T11:03:27.526Z</time></trkpt><trkpt lat="43.9313433" lon="12.64836"><ele>91.66666666666667</ele><time>2026-04-26T11:03:42.526Z</time></trkpt><trkpt lat="43.9313283" lon="12.6484583"><ele>93.0</ele><time>2026-04-26T11:03:44.526Z</time></trkpt><trkpt lat="43.9312983" lon="12.6486"><ele>92.4</ele><time>2026-04-26T11:03:46.527Z</time></trkpt><trkpt lat="43.9312817" lon="12.648765"><ele>91.80000000000001</ele><time>2026-04-26T11:03:48.527Z</time></trkpt><trkpt lat="43.931275" lon="12.64886"><ele>91.2</ele><time>2026-04-26T11:03:49.527Z</time></trkpt><trkpt lat="43.9312483" lon="12.649"><ele>90.6</ele><time>2026-04-26T11:03:51.527Z</time></trkpt><trkpt lat="43.931155" lon="12.6491117"><ele>90.0</ele><time>2026-04-26T11:03:53.526Z</time></trkpt><trkpt lat="43.931105" lon="12.6491767"><ele>90.0</ele><time>2026-04-26T11:03:54.526Z</time></trkpt><trkpt lat="43.9310567" lon="12.6492383"><ele>90.0</ele><time>2026-04-26T11:03:55.526Z</time></trkpt><trkpt lat="43.930995" lon="12.6493317"><ele>90.0</ele><time>2026-04-26T11:03:57.527Z</time></trkpt><trkpt lat="43.93095" lon="12.6494183"><ele>90.0</ele><time>2026-04-26T11:04:01.526Z</time></trkpt><trkpt lat="43.9309083" lon="12.6495"><ele>90.0</ele><time>2026-04-26T11:04:03.526Z</time></trkpt><trkpt lat="43.9308667" lon="12.6495767"><ele>90.0</ele><time>2026-04-26T11:04:04.526Z</time></trkpt><trkpt lat="43.9308167" lon="12.649655"><ele>90.6</ele><time>2026-04-26T11:04:05.526Z</time></trkpt><trkpt lat="43.930765" lon="12.6497333"><ele>91.2</ele><time>2026-04-26T11:04:06.527Z</time></trkpt><trkpt lat="43.9307083" lon="12.6498067"><ele>91.80000000000001</ele><time>2026-04-26T11:04:07.527Z</time></trkpt><trkpt lat="43.9306417" lon="12.6498917"><ele>92.4</ele><time>2026-04-26T11:04:08.526Z</time></trkpt><trkpt lat="43.9305733" lon="12.6500017"><ele>93.0</ele><time>2026-04-26T11:04:09.527Z</time></trkpt><trkpt lat="43.9305" lon="12.6501267"><ele>93.0</ele><time>2026-04-26T11:04:10.527Z</time></trkpt><trkpt lat="43.9304233" lon="12.6502617"><ele>93.0</ele><time>2026-04-26T11:04:11.527Z</time></trkpt><trkpt lat="43.9303583" lon="12.650395"><ele>93.0</ele><time>2026-04-26T11:04:12.527Z</time></trkpt><trkpt lat="43.930285" lon="12.6505267"><ele>93.0</ele><time>2026-04-26T11:04:13.527Z</time></trkpt><trkpt lat="43.930225" lon="12.6506567"><ele>92.16666666666667</ele><time>2026-04-26T11:04:14.527Z</time></trkpt><trkpt lat="43.9301717" lon="12.6507767"><ele>91.33333333333333</ele><time>2026-04-26T11:04:15.526Z</time></trkpt><trkpt lat="43.9301117" lon="12.65088"><ele>90.5</ele><time>2026-04-26T11:04:16.527Z</time></trkpt><trkpt lat="43.9300617" lon="12.6509683"><ele>89.66666666666666</ele><time>2026-04-26T11:04:17.526Z</time></trkpt><trkpt lat="43.9300033" lon="12.651075"><ele>88.83333333333333</ele><time>2026-04-26T11:04:19.527Z</time></trkpt><trkpt lat="43.9299767" lon="12.6511617"><ele>88.0</ele><time>2026-04-26T11:04:22.527Z</time></trkpt><trkpt lat="43.93003" lon="12.6512717"><ele>86.25</ele><time>2026-04-26T11:04:24.527Z</time></trkpt><trkpt lat="43.9300983" lon="12.651355"><ele>84.5</ele><time>2026-04-26T11:04:25.527Z</time></trkpt><trkpt lat="43.9302017" lon="12.6514533"><ele>82.75</ele><time>2026-04-26T11:04:26.526Z</time></trkpt><trkpt lat="43.930325" lon="12.651555"><ele>81.0</ele><time>2026-04-26T11:04:27.527Z</time></trkpt><trkpt lat="43.9304383" lon="12.6516517"><ele>81.0</ele><time>2026-04-26T11:04:28.526Z</time></trkpt><trkpt lat="43.93054" lon="12.65174"><ele>81.0</ele><time>2026-04-26T11:04:29.526Z</time></trkpt><trkpt lat="43.9306183" lon="12.651815"><ele>81.0</ele><time>2026-04-26T11:04:30.527Z</time></trkpt><trkpt lat="43.9306683" lon="12.6518883"><ele>81.0</ele><time>2026-04-26T11:04:31.526Z</time></trkpt><trkpt lat="43.93068" lon="12.652045"><ele>81.0</ele><time>2026-04-26T11:04:33.526Z</time></trkpt><trkpt lat="43.9306417" lon="12.6521533"><ele>80.0</ele><time>2026-04-26T11:04:34.526Z</time></trkpt><trkpt lat="43.930575" lon="12.6522833"><ele>79.0</ele><time>2026-04-26T11:04:35.526Z</time></trkpt><trkpt lat="43.9305" lon="12.6523933"><ele>78.0</ele><time>2026-04-26T11:04:36.527Z</time></trkpt><trkpt lat="43.9304367" lon="12.6524833"><ele>77.0</ele><time>2026-04-26T11:04:37.526Z</time></trkpt><trkpt lat="43.9303933" lon="12.65261"><ele>76.0</ele><time>2026-04-26T11:04:39.527Z</time></trkpt><trkpt lat="43.9304083" lon="12.652755"><ele>75.6</ele><time>2026-04-26T11:04:41.527Z</time></trkpt><trkpt lat="43.93045" lon="12.6528433"><ele>75.19999999999999</ele><time>2026-04-26T11:04:42.526Z</time></trkpt><trkpt lat="43.930525" lon="12.6529367"><ele>74.80000000000001</ele><time>2026-04-26T11:04:43.527Z</time></trkpt><trkpt lat="43.9306283" lon="12.6530283"><ele>74.4</ele><time>2026-04-26T11:04:44.527Z</time></trkpt><trkpt lat="43.9307483" lon="12.653145"><ele>74.0</ele><time>2026-04-26T11:04:45.527Z</time></trkpt><trkpt lat="43.93089" lon="12.65329"><ele>74.0</ele><time>2026-04-26T11:04:46.526Z</time></trkpt><trkpt lat="43.931035" lon="12.6534367"><ele>74.0</ele><time>2026-04-26T11:04:47.527Z</time></trkpt><trkpt lat="43.9311667" lon="12.6535667"><ele>74.0</ele><time>2026-04-26T11:04:48.527Z</time></trkpt><trkpt lat="43.9312883" lon="12.65369"><ele>74.4</ele><time>2026-04-26T11:04:49.527Z</time></trkpt><trkpt lat="43.931395" lon="12.6537967"><ele>74.80000000000001</ele><time>2026-04-26T11:04:50.527Z</time></trkpt><trkpt lat="43.9314883" lon="12.6538867"><ele>75.19999999999999</ele><time>2026-04-26T11:04:51.527Z</time></trkpt><trkpt lat="43.93156" lon="12.6539667"><ele>75.6</ele><time>2026-04-26T11:04:52.527Z</time></trkpt><trkpt lat="43.93161" lon="12.6540433"><ele>76.0</ele><time>2026-04-26T11:04:53.527Z</time></trkpt><trkpt lat="43.9316367" lon="12.6541267"><ele>76.0</ele><time>2026-04-26T11:04:54.527Z</time></trkpt><trkpt lat="43.9316" lon="12.6542717"><ele>76.0</ele><time>2026-04-26T11:04:56.526Z</time></trkpt><trkpt lat="43.9314683" lon="12.6543733"><ele>76.0</ele><time>2026-04-26T11:04:58.527Z</time></trkpt><trkpt lat="43.93137" lon="12.654455"><ele>76.0</ele><time>2026-04-26T11:04:59.526Z</time></trkpt><trkpt lat="43.9312667" lon="12.6545717"><ele>76.39999999999999</ele><time>2026-04-26T11:05:00.527Z</time></trkpt><trkpt lat="43.9311817" lon="12.6546833"><ele>76.8</ele><time>2026-04-26T11:05:01.527Z</time></trkpt><trkpt lat="43.9311233" lon="12.6547867"><ele>77.19999999999999</ele><time>2026-04-26T11:05:02.527Z</time></trkpt><trkpt lat="43.9310867" lon="12.6548917"><ele>77.6</ele><time>2026-04-26T11:05:03.527Z</time></trkpt><trkpt lat="43.931055" lon="12.6550133"><ele>78.0</ele><time>2026-04-26T11:05:04.527Z</time></trkpt><trkpt lat="43.9310067" lon="12.65515"><ele>78.0</ele><time>2026-04-26T11:05:05.527Z</time></trkpt><trkpt lat="43.9309467" lon="12.6552833"><ele>78.0</ele><time>2026-04-26T11:05:06.527Z</time></trkpt><trkpt lat="43.93087" lon="12.655395"><ele>78.0</ele><time>2026-04-26T11:05:07.527Z</time></trkpt><trkpt lat="43.9308133" lon="12.6554967"><ele>78.0</ele><time>2026-04-26T11:05:08.527Z</time></trkpt><trkpt lat="43.9307567" lon="12.65557"><ele>78.0</ele><time>2026-04-26T11:05:09.527Z</time></trkpt><trkpt lat="43.930705" lon="12.6556267"><ele>77.4</ele><time>2026-04-26T11:05:10.526Z</time></trkpt><trkpt lat="43.9306517" lon="12.65568"><ele>76.8</ele><time>2026-04-26T11:05:11.527Z</time></trkpt><trkpt lat="43.9305917" lon="12.6557183"><ele>76.2</ele><time>2026-04-26T11:05:12.527Z</time></trkpt><trkpt lat="43.930505" lon="12.655815"><ele>75.6</ele><time>2026-04-26T11:05:14.527Z</time></trkpt><trkpt lat="43.9304867" lon="12.6560033"><ele>75.0</ele><time>2026-04-26T11:05:16.527Z</time></trkpt><trkpt lat="43.9304517" lon="12.6561183"><ele>74.8</ele><time>2026-04-26T11:05:17.527Z</time></trkpt><trkpt lat="43.9303917" lon="12.6562217"><ele>74.6</ele><time>2026-04-26T11:05:18.526Z</time></trkpt><trkpt lat="43.9303283" lon="12.6563233"><ele>74.4</ele><time>2026-04-26T11:05:19.526Z</time></trkpt><trkpt lat="43.9302783" lon="12.656425"><ele>74.2</ele><time>2026-04-26T11:05:20.526Z</time></trkpt><trkpt lat="43.93023" lon="12.6565267"><ele>74.0</ele><time>2026-04-26T11:05:21.527Z</time></trkpt><trkpt lat="43.9301833" lon="12.6566467"><ele>74.0</ele><time>2026-04-26T11:05:22.527Z</time></trkpt><trkpt lat="43.9301217" lon="12.6567733"><ele>74.0</ele><time>2026-04-26T11:05:23.527Z</time></trkpt><trkpt lat="43.9300467" lon="12.6569233"><ele>74.0</ele><time>2026-04-26T11:05:24.526Z</time></trkpt><trkpt lat="43.9299717" lon="12.6570683"><ele>74.0</ele><time>2026-04-26T11:05:25.527Z</time></trkpt><trkpt lat="43.9299033" lon="12.6572117"><ele>73.75</ele><time>2026-04-26T11:05:26.526Z</time></trkpt><trkpt lat="43.9298317" lon="12.6573633"><ele>73.5</ele><time>2026-04-26T11:05:27.527Z</time></trkpt><trkpt lat="43.9297567" lon="12.65752"><ele>73.25</ele><time>2026-04-26T11:05:28.526Z</time></trkpt><trkpt lat="43.92968" lon="12.657675"><ele>73.0</ele><time>2026-04-26T11:05:29.527Z</time></trkpt><trkpt lat="43.92961" lon="12.6578167"><ele>72.5</ele><time>2026-04-26T11:05:30.527Z</time></trkpt><trkpt lat="43.9295433" lon="12.65795"><ele>72.0</ele><time>2026-04-26T11:05:31.527Z</time></trkpt><trkpt lat="43.9294733" lon="12.6580933"><ele>71.5</ele><time>2026-04-26T11:05:32.527Z</time></trkpt><trkpt lat="43.92941" lon="12.6582333"><ele>71.0</ele><time>2026-04-26T11:05:33.526Z</time></trkpt><trkpt lat="43.929335" lon="12.6583717"><ele>71.0</ele><time>2026-04-26T11:05:34.527Z</time></trkpt><trkpt lat="43.929255" lon="12.6584883"><ele>71.0</ele><time>2026-04-26T11:05:35.527Z</time></trkpt><trkpt lat="43.929185" lon="12.6586167"><ele>71.0</ele><time>2026-04-26T11:05:36.527Z</time></trkpt><trkpt lat="43.92913" lon="12.6587517"><ele>71.0</ele><time>2026-04-26T11:05:37.527Z</time></trkpt><trkpt lat="43.9290967" lon="12.6588883"><ele>71.0</ele><time>2026-04-26T11:05:38.526Z</time></trkpt><trkpt lat="43.9290867" lon="12.6590233"><ele>71.0</ele><time>2026-04-26T11:05:39.527Z</time></trkpt><trkpt lat="43.9291067" lon="12.6591533"><ele>71.0</ele><time>2026-04-26T11:05:40.527Z</time></trkpt><trkpt lat="43.92914" lon="12.6592817"><ele>71.0</ele><time>2026-04-26T11:05:41.527Z</time></trkpt><trkpt lat="43.92918" lon="12.659385"><ele>71.0</ele><time>2026-04-26T11:05:42.527Z</time></trkpt><trkpt lat="43.9292017" lon="12.6594767"><ele>71.0</ele><time>2026-04-26T11:05:43.527Z</time></trkpt><trkpt lat="43.9291433" lon="12.65965"><ele>71.0</ele><time>2026-04-26T11:05:45.526Z</time></trkpt><trkpt lat="43.929055" lon="12.6597583"><ele>71.0</ele><time>2026-04-26T11:05:46.527Z</time></trkpt><trkpt lat="43.9289417" lon="12.6598717"><ele>71.0</ele><time>2026-04-26T11:05:47.527Z</time></trkpt><trkpt lat="43.9288233" lon="12.6599983"><ele>71.0</ele><time>2026-04-26T11:05:48.526Z</time></trkpt><trkpt lat="43.9287183" lon="12.66013"><ele>71.0</ele><time>2026-04-26T11:05:49.527Z</time></trkpt><trkpt lat="43.928615" lon="12.660255"><ele>71.0</ele><time>2026-04-26T11:05:50.527Z</time></trkpt><trkpt lat="43.92851" lon="12.6603717"><ele>71.0</ele><time>2026-04-26T11:05:51.526Z</time></trkpt><trkpt lat="43.9284217" lon="12.6604783"><ele>71.0</ele><time>2026-04-26T11:05:52.527Z</time></trkpt><trkpt lat="43.92834" lon="12.6605767"><ele>70.0</ele><time>2026-04-26T11:05:53.527Z</time></trkpt><trkpt lat="43.9282717" lon="12.6606633"><ele>69.0</ele><time>2026-04-26T11:05:54.526Z</time></trkpt><trkpt lat="43.9282133" lon="12.6607367"><ele>68.0</ele><time>2026-04-26T11:05:55.527Z</time></trkpt><trkpt lat="43.9281567" lon="12.6607967"><ele>67.0</ele><time>2026-04-26T11:05:56.527Z</time></trkpt><trkpt lat="43.9281" lon="12.6608383"><ele>66.0</ele><time>2026-04-26T11:05:57.527Z</time></trkpt><trkpt lat="43.9279833" lon="12.6608483"><ele>65.0</ele><time>2026-04-26T11:05:59.527Z</time></trkpt><trkpt lat="43.9279133" lon="12.6608383"><ele>65.0</ele><time>2026-04-26T11:06:00.527Z</time></trkpt><trkpt lat="43.9278367" lon="12.6608533"><ele>65.0</ele><time>2026-04-26T11:06:01.526Z</time></trkpt><trkpt lat="43.92778" lon="12.6608983"><ele>65.0</ele><time>2026-04-26T11:06:02.526Z</time></trkpt><trkpt lat="43.9277483" lon="12.661065"><ele>65.0</ele><time>2026-04-26T11:06:04.527Z</time></trkpt><trkpt lat="43.9277717" lon="12.6611567"><ele>65.0</ele><time>2026-04-26T11:06:05.527Z</time></trkpt><trkpt lat="43.9278217" lon="12.6612433"><ele>65.0</ele><time>2026-04-26T11:06:06.527Z</time></trkpt><trkpt lat="43.9278967" lon="12.6613283"><ele>63.5</ele><time>2026-04-26T11:06:07.526Z</time></trkpt><trkpt lat="43.92798" lon="12.66143"><ele>62.0</ele><time>2026-04-26T11:06:08.527Z</time></trkpt><trkpt lat="43.9280567" lon="12.6615583"><ele>60.5</ele><time>2026-04-26T11:06:09.527Z</time></trkpt><trkpt lat="43.9281233" lon="12.6617217"><ele>59.0</ele><time>2026-04-26T11:06:10.526Z</time></trkpt><trkpt lat="43.92819" lon="12.6619117"><ele>58.0</ele><time>2026-04-26T11:06:11.527Z</time></trkpt><trkpt lat="43.92826" lon="12.6621167"><ele>57.0</ele><time>2026-04-26T11:06:12.527Z</time></trkpt><trkpt lat="43.92833" lon="12.662335"><ele>56.0</ele><time>2026-04-26T11:06:13.527Z</time></trkpt><trkpt lat="43.9284017" lon="12.662555"><ele>56.333333333333336</ele><time>2026-04-26T11:06:14.527Z</time></trkpt><trkpt lat="43.9284817" lon="12.66278"><ele>56.66666666666667</ele><time>2026-04-26T11:06:15.527Z</time></trkpt><trkpt lat="43.9285833" lon="12.6630217"><ele>57.0</ele><time>2026-04-26T11:06:16.526Z</time></trkpt><trkpt lat="43.928705" lon="12.6632733"><ele>57.0</ele><time>2026-04-26T11:06:17.527Z</time></trkpt><trkpt lat="43.92884" lon="12.6635267"><ele>57.0</ele><time>2026-04-26T11:06:18.527Z</time></trkpt><trkpt lat="43.92897" lon="12.6637683"><ele>57.0</ele><time>2026-04-26T11:06:19.527Z</time></trkpt><trkpt lat="43.9290983" lon="12.6639883"><ele>57.0</ele><time>2026-04-26T11:06:20.527Z</time></trkpt><trkpt lat="43.9292217" lon="12.6641983"><ele>57.0</ele><time>2026-04-26T11:06:21.527Z</time></trkpt><trkpt lat="43.929345" lon="12.6643883"><ele>57.0</ele><time>2026-04-26T11:06:22.527Z</time></trkpt><trkpt lat="43.9294717" lon="12.6645667"><ele>56.5</ele><time>2026-04-26T11:06:23.527Z</time></trkpt><trkpt lat="43.9295917" lon="12.6647317"><ele>56.0</ele><time>2026-04-26T11:06:24.527Z</time></trkpt><trkpt lat="43.9296967" lon="12.6648783"><ele>55.5</ele><time>2026-04-26T11:06:25.527Z</time></trkpt><trkpt lat="43.9297767" lon="12.6650183"><ele>55.0</ele><time>2026-04-26T11:06:26.527Z</time></trkpt><trkpt lat="43.9298283" lon="12.6651783"><ele>54.5</ele><time>2026-04-26T11:06:27.526Z</time></trkpt><trkpt lat="43.929865" lon="12.665365"><ele>54.0</ele><time>2026-04-26T11:06:28.526Z</time></trkpt><trkpt lat="43.9298817" lon="12.6655633"><ele>53.5</ele><time>2026-04-26T11:06:29.527Z</time></trkpt><trkpt lat="43.9298633" lon="12.6657683"><ele>53.0</ele><time>2026-04-26T11:06:30.527Z</time></trkpt><trkpt lat="43.9298133" lon="12.6659917"><ele>53.333333333333336</ele><time>2026-04-26T11:06:31.527Z</time></trkpt><trkpt lat="43.9297383" lon="12.6662317"><ele>53.66666666666667</ele><time>2026-04-26T11:06:32.527Z</time></trkpt><trkpt lat="43.9296367" lon="12.66648"><ele>54.0</ele><time>2026-04-26T11:06:33.527Z</time></trkpt><trkpt lat="43.929515" lon="12.6667217"><ele>53.66666666666667</ele><time>2026-04-26T11:06:34.527Z</time></trkpt><trkpt lat="43.9293833" lon="12.6669483"><ele>53.333333333333336</ele><time>2026-04-26T11:06:35.527Z</time></trkpt><trkpt lat="43.92924" lon="12.667155"><ele>53.0</ele><time>2026-04-26T11:06:36.527Z</time></trkpt><trkpt lat="43.9290867" lon="12.6673467"><ele>53.0</ele><time>2026-04-26T11:06:37.527Z</time></trkpt><trkpt lat="43.92892" lon="12.6675267"><ele>53.0</ele><time>2026-04-26T11:06:38.527Z</time></trkpt><trkpt lat="43.92874" lon="12.6676867"><ele>53.0</ele><time>2026-04-26T11:06:39.527Z</time></trkpt><trkpt lat="43.9285533" lon="12.6678417"><ele>51.5</ele><time>2026-04-26T11:06:40.527Z</time></trkpt><trkpt lat="43.9283567" lon="12.66799"><ele>50.0</ele><time>2026-04-26T11:06:41.527Z</time></trkpt><trkpt lat="43.928155" lon="12.6681383"><ele>50.0</ele><time>2026-04-26T11:06:42.526Z</time></trkpt><trkpt lat="43.9279533" lon="12.6682983"><ele>50.0</ele><time>2026-04-26T11:06:43.527Z</time></trkpt><trkpt lat="43.927755" lon="12.6684683"><ele>50.333333333333336</ele><time>2026-04-26T11:06:44.527Z</time></trkpt><trkpt lat="43.9275717" lon="12.6686433"><ele>50.66666666666667</ele><time>2026-04-26T11:06:45.527Z</time></trkpt><trkpt lat="43.9274033" lon="12.6688233"><ele>51.0</ele><time>2026-04-26T11:06:46.527Z</time></trkpt><trkpt lat="43.9272433" lon="12.6690017"><ele>49.666666666666664</ele><time>2026-04-26T11:06:47.526Z</time></trkpt><trkpt lat="43.9270883" lon="12.669185"><ele>48.33333333333333</ele><time>2026-04-26T11:06:48.527Z</time></trkpt><trkpt lat="43.9269417" lon="12.6693683"><ele>47.0</ele><time>2026-04-26T11:06:49.527Z</time></trkpt><trkpt lat="43.9267917" lon="12.66955"><ele>46.0</ele><time>2026-04-26T11:06:50.526Z</time></trkpt><trkpt lat="43.9266433" lon="12.669735"><ele>45.0</ele><time>2026-04-26T11:06:51.527Z</time></trkpt><trkpt lat="43.9264933" lon="12.669925"><ele>44.0</ele><time>2026-04-26T11:06:52.526Z</time></trkpt><trkpt lat="43.926345" lon="12.670115"><ele>43.666666666666664</ele><time>2026-04-26T11:06:53.527Z</time></trkpt><trkpt lat="43.926195" lon="12.6702983"><ele>43.333333333333336</ele><time>2026-04-26T11:06:54.527Z</time></trkpt><trkpt lat="43.9260433" lon="12.670485"><ele>43.0</ele><time>2026-04-26T11:06:55.526Z</time></trkpt><trkpt lat="43.925895" lon="12.6706683"><ele>42.333333333333336</ele><time>2026-04-26T11:06:56.527Z</time></trkpt><trkpt lat="43.9257417" lon="12.670865"><ele>41.666666666666664</ele><time>2026-04-26T11:06:57.527Z</time></trkpt><trkpt lat="43.9255883" lon="12.6710617"><ele>41.0</ele><time>2026-04-26T11:06:58.527Z</time></trkpt><trkpt lat="43.925435" lon="12.6712567"><ele>41.0</ele><time>2026-04-26T11:06:59.526Z</time></trkpt><trkpt lat="43.9252817" lon="12.67145"><ele>41.0</ele><time>2026-04-26T11:07:00.527Z</time></trkpt><trkpt lat="43.9251333" lon="12.67163"><ele>41.0</ele><time>2026-04-26T11:07:01.526Z</time></trkpt><trkpt lat="43.9249883" lon="12.6718"><ele>43.33333333333333</ele><time>2026-04-26T11:07:02.527Z</time></trkpt><trkpt lat="43.9248583" lon="12.671955"><ele>45.666666666666664</ele><time>2026-04-26T11:07:03.526Z</time></trkpt><trkpt lat="43.9247333" lon="12.6721167"><ele>48.0</ele><time>2026-04-26T11:07:04.527Z</time></trkpt><trkpt lat="43.924615" lon="12.6722817"><ele>48.0</ele><time>2026-04-26T11:07:05.527Z</time></trkpt><trkpt lat="43.9244967" lon="12.672465"><ele>48.0</ele><time>2026-04-26T11:07:06.527Z</time></trkpt><trkpt lat="43.9243867" lon="12.6726717"><ele>48.0</ele><time>2026-04-26T11:07:07.527Z</time></trkpt><trkpt lat="43.92428" lon="12.6728917"><ele>49.33333333333333</ele><time>2026-04-26T11:07:08.527Z</time></trkpt><trkpt lat="43.9241767" lon="12.6731083"><ele>50.666666666666664</ele><time>2026-04-26T11:07:09.527Z</time></trkpt><trkpt lat="43.9240933" lon="12.6733117"><ele>52.0</ele><time>2026-04-26T11:07:10.527Z</time></trkpt><trkpt lat="43.9240233" lon="12.6734783"><ele>51.6</ele><time>2026-04-26T11:07:11.527Z</time></trkpt><trkpt lat="43.9239383" lon="12.6736117"><ele>51.2</ele><time>2026-04-26T11:07:12.526Z</time></trkpt><trkpt lat="43.923845" lon="12.67371"><ele>50.8</ele><time>2026-04-26T11:07:13.527Z</time></trkpt><trkpt lat="43.9237567" lon="12.6737767"><ele>50.4</ele><time>2026-04-26T11:07:14.527Z</time></trkpt><trkpt lat="43.9236917" lon="12.6738667"><ele>50.0</ele><time>2026-04-26T11:07:15.527Z</time></trkpt><trkpt lat="43.9236633" lon="12.6739783"><ele>50.0</ele><time>2026-04-26T11:07:16.527Z</time></trkpt><trkpt lat="43.9236683" lon="12.67409"><ele>50.0</ele><time>2026-04-26T11:07:17.527Z</time></trkpt><trkpt lat="43.923705" lon="12.6741933"><ele>50.0</ele><time>2026-04-26T11:07:18.526Z</time></trkpt><trkpt lat="43.9237817" lon="12.6742733"><ele>50.0</ele><time>2026-04-26T11:07:19.526Z</time></trkpt><trkpt lat="43.92389" lon="12.67434"><ele>50.0</ele><time>2026-04-26T11:07:20.527Z</time></trkpt><trkpt lat="43.9240167" lon="12.67442"><ele>50.0</ele><time>2026-04-26T11:07:21.527Z</time></trkpt><trkpt lat="43.92414" lon="12.674555"><ele>50.0</ele><time>2026-04-26T11:07:22.527Z</time></trkpt><trkpt lat="43.9242617" lon="12.67473"><ele>50.0</ele><time>2026-04-26T11:07:23.527Z</time></trkpt><trkpt lat="43.9243783" lon="12.674915"><ele>49.66666666666667</ele><time>2026-04-26T11:07:24.527Z</time></trkpt><trkpt lat="43.9244917" lon="12.675095"><ele>49.33333333333333</ele><time>2026-04-26T11:07:25.527Z</time></trkpt><trkpt lat="43.9246083" lon="12.67527"><ele>49.0</ele><time>2026-04-26T11:07:26.526Z</time></trkpt><trkpt lat="43.9247183" lon="12.6754417"><ele>49.0</ele><time>2026-04-26T11:07:27.527Z</time></trkpt><trkpt lat="43.924825" lon="12.675615"><ele>49.0</ele><time>2026-04-26T11:07:28.526Z</time></trkpt><trkpt lat="43.9249333" lon="12.67579"><ele>49.0</ele><time>2026-04-26T11:07:29.527Z</time></trkpt><trkpt lat="43.9250417" lon="12.675965"><ele>48.666666666666664</ele><time>2026-04-26T11:07:30.527Z</time></trkpt><trkpt lat="43.9251517" lon="12.676145"><ele>48.33333333333333</ele><time>2026-04-26T11:07:31.527Z</time></trkpt><trkpt lat="43.9252633" lon="12.67633"><ele>48.0</ele><time>2026-04-26T11:07:32.526Z</time></trkpt><trkpt lat="43.9253733" lon="12.67652"><ele>48.0</ele><time>2026-04-26T11:07:33.527Z</time></trkpt><trkpt lat="43.925485" lon="12.6767067"><ele>48.0</ele><time>2026-04-26T11:07:34.527Z</time></trkpt><trkpt lat="43.9256017" lon="12.676895"><ele>48.0</ele><time>2026-04-26T11:07:35.527Z</time></trkpt><trkpt lat="43.9257083" lon="12.6770883"><ele>48.0</ele><time>2026-04-26T11:07:36.527Z</time></trkpt><trkpt lat="43.92582" lon="12.67728"><ele>48.0</ele><time>2026-04-26T11:07:37.527Z</time></trkpt><trkpt lat="43.92593" lon="12.677475"><ele>48.0</ele><time>2026-04-26T11:07:38.527Z</time></trkpt><trkpt lat="43.926035" lon="12.67767"><ele>48.0</ele><time>2026-04-26T11:07:39.527Z</time></trkpt><trkpt lat="43.92614" lon="12.6778683"><ele>48.0</ele><time>2026-04-26T11:07:40.526Z</time></trkpt><trkpt lat="43.9262467" lon="12.67807"><ele>48.0</ele><time>2026-04-26T11:07:41.527Z</time></trkpt><trkpt lat="43.9263533" lon="12.6782717"><ele>48.0</ele><time>2026-04-26T11:07:42.527Z</time></trkpt><trkpt lat="43.9264617" lon="12.6784717"><ele>48.0</ele><time>2026-04-26T11:07:43.527Z</time></trkpt><trkpt lat="43.9265717" lon="12.6786767"><ele>48.0</ele><time>2026-04-26T11:07:44.527Z</time></trkpt><trkpt lat="43.92668" lon="12.67888"><ele>48.0</ele><time>2026-04-26T11:07:45.526Z</time></trkpt><trkpt lat="43.9267883" lon="12.6790833"><ele>48.0</ele><time>2026-04-26T11:07:46.526Z</time></trkpt><trkpt lat="43.9268933" lon="12.679285"><ele>48.0</ele><time>2026-04-26T11:07:47.526Z</time></trkpt><trkpt lat="43.927" lon="12.679495"><ele>48.0</ele><time>2026-04-26T11:07:48.526Z</time></trkpt><trkpt lat="43.9271067" lon="12.6797083"><ele>48.0</ele><time>2026-04-26T11:07:49.526Z</time></trkpt><trkpt lat="43.9272167" lon="12.6799217"><ele>48.0</ele><time>2026-04-26T11:07:50.526Z</time></trkpt><trkpt lat="43.92733" lon="12.68014"><ele>48.33333333333333</ele><time>2026-04-26T11:07:51.526Z</time></trkpt><trkpt lat="43.92745" lon="12.6803583"><ele>48.666666666666664</ele><time>2026-04-26T11:07:52.526Z</time></trkpt><trkpt lat="43.9275717" lon="12.6805767"><ele>49.0</ele><time>2026-04-26T11:07:53.525Z</time></trkpt><trkpt lat="43.9276967" lon="12.6807933"><ele>49.33333333333333</ele><time>2026-04-26T11:07:54.526Z</time></trkpt><trkpt lat="43.9278233" lon="12.6810017"><ele>49.66666666666667</ele><time>2026-04-26T11:07:55.526Z</time></trkpt><trkpt lat="43.927955" lon="12.6812"><ele>50.0</ele><time>2026-04-26T11:07:56.526Z</time></trkpt><trkpt lat="43.9280883" lon="12.6813983"><ele>50.0</ele><time>2026-04-26T11:07:57.526Z</time></trkpt><trkpt lat="43.9282183" lon="12.68159"><ele>50.0</ele><time>2026-04-26T11:07:58.526Z</time></trkpt><trkpt lat="43.9283517" lon="12.6817783"><ele>50.0</ele><time>2026-04-26T11:07:59.526Z</time></trkpt><trkpt lat="43.9284867" lon="12.6819683"><ele>49.333333333333336</ele><time>2026-04-26T11:08:00.526Z</time></trkpt><trkpt lat="43.9286283" lon="12.68216"><ele>48.66666666666667</ele><time>2026-04-26T11:08:01.525Z</time></trkpt><trkpt lat="43.92877" lon="12.6823433"><ele>48.0</ele><time>2026-04-26T11:08:02.526Z</time></trkpt><trkpt lat="43.928905" lon="12.682515"><ele>48.0</ele><time>2026-04-26T11:08:03.526Z</time></trkpt><trkpt lat="43.92903" lon="12.6826733"><ele>48.0</ele><time>2026-04-26T11:08:04.525Z</time></trkpt><trkpt lat="43.9291367" lon="12.6828083"><ele>48.0</ele><time>2026-04-26T11:08:05.526Z</time></trkpt><trkpt lat="43.9292317" lon="12.6829217"><ele>48.0</ele><time>2026-04-26T11:08:06.526Z</time></trkpt><trkpt lat="43.9293167" lon="12.6830217"><ele>48.0</ele><time>2026-04-26T11:08:07.526Z</time></trkpt><trkpt lat="43.9293917" lon="12.6831133"><ele>48.0</ele><time>2026-04-26T11:08:08.525Z</time></trkpt><trkpt lat="43.9294583" lon="12.6831983"><ele>48.0</ele><time>2026-04-26T11:08:09.526Z</time></trkpt><trkpt lat="43.9295267" lon="12.6832833"><ele>48.0</ele><time>2026-04-26T11:08:10.526Z</time></trkpt><trkpt lat="43.9295967" lon="12.6833733"><ele>48.0</ele><time>2026-04-26T11:08:11.526Z</time></trkpt><trkpt lat="43.9296783" lon="12.6834733"><ele>48.0</ele><time>2026-04-26T11:08:12.525Z</time></trkpt><trkpt lat="43.9297667" lon="12.683585"><ele>48.0</ele><time>2026-04-26T11:08:13.525Z</time></trkpt><trkpt lat="43.9298617" lon="12.6837017"><ele>48.0</ele><time>2026-04-26T11:08:14.526Z</time></trkpt><trkpt lat="43.92996" lon="12.683825"><ele>48.0</ele><time>2026-04-26T11:08:15.526Z</time></trkpt><trkpt lat="43.930065" lon="12.6839583"><ele>47.75</ele><time>2026-04-26T11:08:16.526Z</time></trkpt><trkpt lat="43.9301717" lon="12.6840933"><ele>47.5</ele><time>2026-04-26T11:08:17.526Z</time></trkpt><trkpt lat="43.9302783" lon="12.6842233"><ele>47.25</ele><time>2026-04-26T11:08:18.526Z</time></trkpt><trkpt lat="43.9303767" lon="12.6843433"><ele>47.0</ele><time>2026-04-26T11:08:19.526Z</time></trkpt><trkpt lat="43.9304717" lon="12.6844583"><ele>47.0</ele><time>2026-04-26T11:08:20.526Z</time></trkpt><trkpt lat="43.9305667" lon="12.684575"><ele>47.0</ele><time>2026-04-26T11:08:21.526Z</time></trkpt><trkpt lat="43.9306633" lon="12.6846983"><ele>47.0</ele><time>2026-04-26T11:08:22.525Z</time></trkpt><trkpt lat="43.930765" lon="12.6848233"><ele>47.0</ele><time>2026-04-26T11:08:23.525Z</time></trkpt><trkpt lat="43.930865" lon="12.6849533"><ele>47.0</ele><time>2026-04-26T11:08:24.526Z</time></trkpt><trkpt lat="43.9309717" lon="12.6850867"><ele>47.0</ele><time>2026-04-26T11:08:25.526Z</time></trkpt><trkpt lat="43.9310783" lon="12.6852233"><ele>47.0</ele><time>2026-04-26T11:08:26.526Z</time></trkpt><trkpt lat="43.9311883" lon="12.6853583"><ele>47.0</ele><time>2026-04-26T11:08:27.525Z</time></trkpt><trkpt lat="43.9312967" lon="12.6854933"><ele>47.0</ele><time>2026-04-26T11:08:28.526Z</time></trkpt><trkpt lat="43.931395" lon="12.6856217"><ele>47.0</ele><time>2026-04-26T11:08:29.525Z</time></trkpt><trkpt lat="43.9314983" lon="12.6857433"><ele>47.0</ele><time>2026-04-26T11:08:30.526Z</time></trkpt><trkpt lat="43.931605" lon="12.6858683"><ele>47.0</ele><time>2026-04-26T11:08:31.526Z</time></trkpt><trkpt lat="43.9317117" lon="12.6859983"><ele>46.5</ele><time>2026-04-26T11:08:32.526Z</time></trkpt><trkpt lat="43.9318083" lon="12.686135"><ele>46.0</ele><time>2026-04-26T11:08:33.526Z</time></trkpt><trkpt lat="43.931885" lon="12.68629"><ele>45.5</ele><time>2026-04-26T11:08:34.526Z</time></trkpt><trkpt lat="43.9319533" lon="12.6864617"><ele>45.0</ele><time>2026-04-26T11:08:35.526Z</time></trkpt><trkpt lat="43.9320033" lon="12.68665"><ele>45.0</ele><time>2026-04-26T11:08:36.526Z</time></trkpt><trkpt lat="43.9320417" lon="12.6868367"><ele>45.0</ele><time>2026-04-26T11:08:37.526Z</time></trkpt><trkpt lat="43.93206" lon="12.6870067"><ele>45.0</ele><time>2026-04-26T11:08:38.525Z</time></trkpt><trkpt lat="43.9320533" lon="12.6871667"><ele>45.0</ele><time>2026-04-26T11:08:39.526Z</time></trkpt><trkpt lat="43.9320167" lon="12.68733"><ele>44.666666666666664</ele><time>2026-04-26T11:08:40.526Z</time></trkpt><trkpt lat="43.931945" lon="12.68751"><ele>44.33333333333333</ele><time>2026-04-26T11:08:41.526Z</time></trkpt><trkpt lat="43.9318433" lon="12.68771"><ele>44.0</ele><time>2026-04-26T11:08:42.526Z</time></trkpt><trkpt lat="43.9317183" lon="12.68793"><ele>44.0</ele><time>2026-04-26T11:08:43.526Z</time></trkpt><trkpt lat="43.93158" lon="12.688145"><ele>44.0</ele><time>2026-04-26T11:08:44.526Z</time></trkpt><trkpt lat="43.9314433" lon="12.6883467"><ele>44.0</ele><time>2026-04-26T11:08:45.526Z</time></trkpt><trkpt lat="43.9313033" lon="12.6885367"><ele>44.0</ele><time>2026-04-26T11:08:46.526Z</time></trkpt><trkpt lat="43.93116" lon="12.688715"><ele>44.0</ele><time>2026-04-26T11:08:47.526Z</time></trkpt><trkpt lat="43.9310167" lon="12.6888783"><ele>44.0</ele><time>2026-04-26T11:08:48.525Z</time></trkpt><trkpt lat="43.93088" lon="12.6890383"><ele>44.0</ele><time>2026-04-26T11:08:49.525Z</time></trkpt><trkpt lat="43.9307433" lon="12.6891883"><ele>44.0</ele><time>2026-04-26T11:08:50.526Z</time></trkpt><trkpt lat="43.930605" lon="12.6893333"><ele>44.0</ele><time>2026-04-26T11:08:51.526Z</time></trkpt><trkpt lat="43.9304733" lon="12.6894733"><ele>43.666666666666664</ele><time>2026-04-26T11:08:52.525Z</time></trkpt><trkpt lat="43.9303417" lon="12.6896167"><ele>43.333333333333336</ele><time>2026-04-26T11:08:53.525Z</time></trkpt><trkpt lat="43.9302117" lon="12.6897633"><ele>43.0</ele><time>2026-04-26T11:08:54.526Z</time></trkpt><trkpt lat="43.93008" lon="12.6899083"><ele>43.25</ele><time>2026-04-26T11:08:55.526Z</time></trkpt><trkpt lat="43.9299567" lon="12.6900483"><ele>43.5</ele><time>2026-04-26T11:08:56.526Z</time></trkpt><trkpt lat="43.9298467" lon="12.690175"><ele>43.75</ele><time>2026-04-26T11:08:57.526Z</time></trkpt><trkpt lat="43.9297567" lon="12.69028"><ele>44.0</ele><time>2026-04-26T11:08:58.526Z</time></trkpt><trkpt lat="43.9296733" lon="12.6903533"><ele>44.0</ele><time>2026-04-26T11:08:59.526Z</time></trkpt><trkpt lat="43.929585" lon="12.6903867"><ele>44.0</ele><time>2026-04-26T11:09:00.525Z</time></trkpt><trkpt lat="43.9295067" lon="12.690375"><ele>44.0</ele><time>2026-04-26T11:09:01.525Z</time></trkpt><trkpt lat="43.9294267" lon="12.69033"><ele>44.0</ele><time>2026-04-26T11:09:02.525Z</time></trkpt><trkpt lat="43.9293467" lon="12.690225"><ele>44.0</ele><time>2026-04-26T11:09:03.526Z</time></trkpt><trkpt lat="43.9292683" lon="12.6900783"><ele>44.5</ele><time>2026-04-26T11:09:04.526Z</time></trkpt><trkpt lat="43.9291883" lon="12.689915"><ele>45.0</ele><time>2026-04-26T11:09:05.525Z</time></trkpt><trkpt lat="43.9290967" lon="12.689765"><ele>45.5</ele><time>2026-04-26T11:09:06.526Z</time></trkpt><trkpt lat="43.929" lon="12.6896283"><ele>46.0</ele><time>2026-04-26T11:09:07.525Z</time></trkpt><trkpt lat="43.9288867" lon="12.6895083"><ele>46.0</ele><time>2026-04-26T11:09:08.526Z</time></trkpt><trkpt lat="43.9287783" lon="12.6893783"><ele>46.0</ele><time>2026-04-26T11:09:09.526Z</time></trkpt><trkpt lat="43.9286667" lon="12.6892533"><ele>46.0</ele><time>2026-04-26T11:09:10.526Z</time></trkpt><trkpt lat="43.9285567" lon="12.6891367"><ele>46.0</ele><time>2026-04-26T11:09:11.526Z</time></trkpt><trkpt lat="43.9284583" lon="12.6890283"><ele>46.25</ele><time>2026-04-26T11:09:12.526Z</time></trkpt><trkpt lat="43.9283633" lon="12.6889317"><ele>46.5</ele><time>2026-04-26T11:09:13.526Z</time></trkpt><trkpt lat="43.9282717" lon="12.68883"><ele>46.75</ele><time>2026-04-26T11:09:14.526Z</time></trkpt><trkpt lat="43.9281783" lon="12.68873"><ele>47.0</ele><time>2026-04-26T11:09:15.526Z</time></trkpt><trkpt lat="43.92809" lon="12.6886383"><ele>47.25</ele><time>2026-04-26T11:09:16.526Z</time></trkpt><trkpt lat="43.9280067" lon="12.688545"><ele>47.5</ele><time>2026-04-26T11:09:17.526Z</time></trkpt><trkpt lat="43.9279283" lon="12.688445"><ele>47.75</ele><time>2026-04-26T11:09:18.526Z</time></trkpt><trkpt lat="43.9278333" lon="12.6883383"><ele>48.0</ele><time>2026-04-26T11:09:19.526Z</time></trkpt><trkpt lat="43.9277433" lon="12.6882333"><ele>48.0</ele><time>2026-04-26T11:09:20.525Z</time></trkpt><trkpt lat="43.9276667" lon="12.6881267"><ele>48.0</ele><time>2026-04-26T11:09:21.526Z</time></trkpt><trkpt lat="43.9275983" lon="12.68802"><ele>48.0</ele><time>2026-04-26T11:09:22.526Z</time></trkpt><trkpt lat="43.9275383" lon="12.68792"><ele>48.0</ele><time>2026-04-26T11:09:23.525Z</time></trkpt><trkpt lat="43.9274817" lon="12.6878167"><ele>48.0</ele><time>2026-04-26T11:09:24.526Z</time></trkpt><trkpt lat="43.927425" lon="12.6876967"><ele>48.2</ele><time>2026-04-26T11:09:25.526Z</time></trkpt><trkpt lat="43.9273717" lon="12.6875717"><ele>48.4</ele><time>2026-04-26T11:09:26.526Z</time></trkpt><trkpt lat="43.9273083" lon="12.68746"><ele>48.6</ele><time>2026-04-26T11:09:27.526Z</time></trkpt><trkpt lat="43.9272533" lon="12.6873367"><ele>48.800000000000004</ele><time>2026-04-26T11:09:28.525Z</time></trkpt><trkpt lat="43.9271983" lon="12.6872233"><ele>49.0</ele><time>2026-04-26T11:09:29.526Z</time></trkpt><trkpt lat="43.9271367" lon="12.6871083"><ele>49.0</ele><time>2026-04-26T11:09:30.526Z</time></trkpt><trkpt lat="43.92708" lon="12.6869733"><ele>49.0</ele><time>2026-04-26T11:09:31.526Z</time></trkpt><trkpt lat="43.9270167" lon="12.6868433"><ele>49.0</ele><time>2026-04-26T11:09:32.526Z</time></trkpt><trkpt lat="43.92696" lon="12.686695"><ele>49.0</ele><time>2026-04-26T11:09:33.526Z</time></trkpt><trkpt lat="43.926885" lon="12.6865567"><ele>49.0</ele><time>2026-04-26T11:09:34.526Z</time></trkpt><trkpt lat="43.926805" lon="12.686435"><ele>49.0</ele><time>2026-04-26T11:09:35.526Z</time></trkpt><trkpt lat="43.9267033" lon="12.6863"><ele>49.0</ele><time>2026-04-26T11:09:36.525Z</time></trkpt><trkpt lat="43.92659" lon="12.6861717"><ele>49.0</ele><time>2026-04-26T11:09:37.526Z</time></trkpt><trkpt lat="43.9264817" lon="12.6860417"><ele>49.25</ele><time>2026-04-26T11:09:38.526Z</time></trkpt><trkpt lat="43.92638" lon="12.68593"><ele>49.5</ele><time>2026-04-26T11:09:39.526Z</time></trkpt><trkpt lat="43.9262933" lon="12.6858133"><ele>49.75</ele><time>2026-04-26T11:09:40.526Z</time></trkpt><trkpt lat="43.9262" lon="12.6857083"><ele>50.0</ele><time>2026-04-26T11:09:41.526Z</time></trkpt><trkpt lat="43.9260933" lon="12.68561"><ele>50.0</ele><time>2026-04-26T11:09:42.525Z</time></trkpt><trkpt lat="43.9259883" lon="12.6855017"><ele>50.0</ele><time>2026-04-26T11:09:43.526Z</time></trkpt><trkpt lat="43.925875" lon="12.6853883"><ele>50.0</ele><time>2026-04-26T11:09:44.526Z</time></trkpt><trkpt lat="43.92576" lon="12.68527"><ele>50.0</ele><time>2026-04-26T11:09:45.525Z</time></trkpt><trkpt lat="43.925645" lon="12.6851467"><ele>50.0</ele><time>2026-04-26T11:09:46.526Z</time></trkpt><trkpt lat="43.92552" lon="12.6850183"><ele>50.0</ele><time>2026-04-26T11:09:47.526Z</time></trkpt><trkpt lat="43.92539" lon="12.6848833"><ele>50.0</ele><time>2026-04-26T11:09:48.525Z</time></trkpt><trkpt lat="43.9252567" lon="12.684745"><ele>50.0</ele><time>2026-04-26T11:09:49.525Z</time></trkpt><trkpt lat="43.9251383" lon="12.68461"><ele>50.0</ele><time>2026-04-26T11:09:50.526Z</time></trkpt><trkpt lat="43.9250317" lon="12.6844683"><ele>50.0</ele><time>2026-04-26T11:09:51.526Z</time></trkpt><trkpt lat="43.9249283" lon="12.6843317"><ele>50.0</ele><time>2026-04-26T11:09:52.526Z</time></trkpt><trkpt lat="43.9248333" lon="12.684175"><ele>50.66666666666667</ele><time>2026-04-26T11:09:53.526Z</time></trkpt><trkpt lat="43.9247533" lon="12.6840083"><ele>51.33333333333333</ele><time>2026-04-26T11:09:54.526Z</time></trkpt><trkpt lat="43.924675" lon="12.6838317"><ele>52.0</ele><time>2026-04-26T11:09:55.526Z</time></trkpt><trkpt lat="43.9245917" lon="12.6836433"><ele>52.0</ele><time>2026-04-26T11:09:56.525Z</time></trkpt><trkpt lat="43.9245067" lon="12.6834617"><ele>52.0</ele><time>2026-04-26T11:09:57.526Z</time></trkpt><trkpt lat="43.92443" lon="12.68327"><ele>52.0</ele><time>2026-04-26T11:09:58.525Z</time></trkpt><trkpt lat="43.9243517" lon="12.68308"><ele>52.0</ele><time>2026-04-26T11:09:59.526Z</time></trkpt><trkpt lat="43.92427" lon="12.6828817"><ele>52.0</ele><time>2026-04-26T11:10:00.526Z</time></trkpt><trkpt lat="43.9241867" lon="12.6826817"><ele>52.0</ele><time>2026-04-26T11:10:01.525Z</time></trkpt><trkpt lat="43.9241033" lon="12.68249"><ele>52.0</ele><time>2026-04-26T11:10:02.526Z</time></trkpt><trkpt lat="43.9240217" lon="12.6822867"><ele>52.0</ele><time>2026-04-26T11:10:03.526Z</time></trkpt><trkpt lat="43.9239383" lon="12.6820867"><ele>52.0</ele><time>2026-04-26T11:10:04.526Z</time></trkpt><trkpt lat="43.9238567" lon="12.6818783"><ele>51.666666666666664</ele><time>2026-04-26T11:10:05.526Z</time></trkpt><trkpt lat="43.923775" lon="12.6816733"><ele>51.33333333333333</ele><time>2026-04-26T11:10:06.526Z</time></trkpt><trkpt lat="43.9236967" lon="12.6814867"><ele>51.0</ele><time>2026-04-26T11:10:07.526Z</time></trkpt><trkpt lat="43.92363" lon="12.681315"><ele>51.0</ele><time>2026-04-26T11:10:08.526Z</time></trkpt><trkpt lat="43.923575" lon="12.68117"><ele>51.0</ele><time>2026-04-26T11:10:09.526Z</time></trkpt><trkpt lat="43.9235333" lon="12.68105"><ele>51.0</ele><time>2026-04-26T11:10:10.526Z</time></trkpt><trkpt lat="43.9234983" lon="12.680955"><ele>51.0</ele><time>2026-04-26T11:10:11.526Z</time></trkpt><trkpt lat="43.9234167" lon="12.6808583"><ele>51.0</ele><time>2026-04-26T11:10:13.526Z</time></trkpt><trkpt lat="43.92329" lon="12.6809167"><ele>51.4</ele><time>2026-04-26T11:10:15.526Z</time></trkpt><trkpt lat="43.9232067" lon="12.6809667"><ele>51.8</ele><time>2026-04-26T11:10:16.525Z</time></trkpt><trkpt lat="43.9231117" lon="12.681025"><ele>52.199999999999996</ele><time>2026-04-26T11:10:17.526Z</time></trkpt><trkpt lat="43.9230067" lon="12.681085"><ele>52.599999999999994</ele><time>2026-04-26T11:10:18.526Z</time></trkpt><trkpt lat="43.9228983" lon="12.68115"><ele>53.0</ele><time>2026-04-26T11:10:19.526Z</time></trkpt><trkpt lat="43.9227917" lon="12.6812067"><ele>53.0</ele><time>2026-04-26T11:10:20.526Z</time></trkpt><trkpt lat="43.9226783" lon="12.6812783"><ele>53.0</ele><time>2026-04-26T11:10:21.526Z</time></trkpt><trkpt lat="43.9225667" lon="12.6813467"><ele>53.0</ele><time>2026-04-26T11:10:22.525Z</time></trkpt><trkpt lat="43.922455" lon="12.6814167"><ele>53.0</ele><time>2026-04-26T11:10:23.526Z</time></trkpt><trkpt lat="43.922345" lon="12.6814917"><ele>52.75</ele><time>2026-04-26T11:10:24.525Z</time></trkpt><trkpt lat="43.9222383" lon="12.6815583"><ele>52.5</ele><time>2026-04-26T11:10:25.526Z</time></trkpt><trkpt lat="43.9221317" lon="12.68163"><ele>52.25</ele><time>2026-04-26T11:10:26.526Z</time></trkpt><trkpt lat="43.9220317" lon="12.6817"><ele>52.0</ele><time>2026-04-26T11:10:27.525Z</time></trkpt><trkpt lat="43.921935" lon="12.681755"><ele>52.0</ele><time>2026-04-26T11:10:28.526Z</time></trkpt><trkpt lat="43.9218333" lon="12.6818033"><ele>52.0</ele><time>2026-04-26T11:10:29.525Z</time></trkpt><trkpt lat="43.9217183" lon="12.6818633"><ele>52.0</ele><time>2026-04-26T11:10:30.526Z</time></trkpt><trkpt lat="43.9216133" lon="12.6819267"><ele>52.0</ele><time>2026-04-26T11:10:31.526Z</time></trkpt><trkpt lat="43.9214967" lon="12.6819983"><ele>51.75</ele><time>2026-04-26T11:10:32.526Z</time></trkpt><trkpt lat="43.9213767" lon="12.6820617"><ele>51.5</ele><time>2026-04-26T11:10:33.526Z</time></trkpt><trkpt lat="43.921265" lon="12.68214"><ele>51.25</ele><time>2026-04-26T11:10:34.525Z</time></trkpt><trkpt lat="43.9211567" lon="12.68221"><ele>51.0</ele><time>2026-04-26T11:10:35.526Z</time></trkpt><trkpt lat="43.921045" lon="12.6822683"><ele>51.0</ele><time>2026-04-26T11:10:36.526Z</time></trkpt><trkpt lat="43.9209467" lon="12.6823317"><ele>51.0</ele><time>2026-04-26T11:10:37.526Z</time></trkpt><trkpt lat="43.92085" lon="12.68238"><ele>51.0</ele><time>2026-04-26T11:10:38.526Z</time></trkpt><trkpt lat="43.9207533" lon="12.6824367"><ele>51.0</ele><time>2026-04-26T11:10:39.526Z</time></trkpt><trkpt lat="43.9206633" lon="12.6824817"><ele>51.0</ele><time>2026-04-26T11:10:40.526Z</time></trkpt><trkpt lat="43.9205883" lon="12.6825383"><ele>51.0</ele><time>2026-04-26T11:10:41.526Z</time></trkpt><trkpt lat="43.9205283" lon="12.68259"><ele>51.0</ele><time>2026-04-26T11:10:42.526Z</time></trkpt><trkpt lat="43.9204933" lon="12.68276"><ele>51.0</ele><time>2026-04-26T11:10:44.526Z</time></trkpt><trkpt lat="43.9205" lon="12.6829017"><ele>51.0</ele><time>2026-04-26T11:10:45.526Z</time></trkpt><trkpt lat="43.9205" lon="12.683065"><ele>51.0</ele><time>2026-04-26T11:10:46.526Z</time></trkpt><trkpt lat="43.92049" lon="12.683205"><ele>50.599999999999994</ele><time>2026-04-26T11:10:47.526Z</time></trkpt><trkpt lat="43.920485" lon="12.6833217"><ele>50.2</ele><time>2026-04-26T11:10:48.526Z</time></trkpt><trkpt lat="43.9203967" lon="12.6834333"><ele>49.8</ele><time>2026-04-26T11:10:50.525Z</time></trkpt><trkpt lat="43.92029" lon="12.68348"><ele>49.400000000000006</ele><time>2026-04-26T11:10:51.526Z</time></trkpt><trkpt lat="43.9201667" lon="12.6835367"><ele>49.0</ele><time>2026-04-26T11:10:52.526Z</time></trkpt><trkpt lat="43.9200467" lon="12.6836283"><ele>49.0</ele><time>2026-04-26T11:10:53.526Z</time></trkpt><trkpt lat="43.91995" lon="12.6837433"><ele>49.0</ele><time>2026-04-26T11:10:54.525Z</time></trkpt><trkpt lat="43.919875" lon="12.6838983"><ele>49.0</ele><time>2026-04-26T11:10:55.526Z</time></trkpt><trkpt lat="43.9198233" lon="12.6840817"><ele>49.0</ele><time>2026-04-26T11:10:56.526Z</time></trkpt><trkpt lat="43.9197833" lon="12.6842733"><ele>50.0</ele><time>2026-04-26T11:10:57.526Z</time></trkpt><trkpt lat="43.919735" lon="12.6844433"><ele>51.0</ele><time>2026-04-26T11:10:58.525Z</time></trkpt><trkpt lat="43.919685" lon="12.6846"><ele>52.0</ele><time>2026-04-26T11:10:59.526Z</time></trkpt><trkpt lat="43.9196367" lon="12.6847367"><ele>53.0</ele><time>2026-04-26T11:11:00.526Z</time></trkpt><trkpt lat="43.9195933" lon="12.6848617"><ele>53.0</ele><time>2026-04-26T11:11:01.526Z</time></trkpt><trkpt lat="43.9195567" lon="12.6849767"><ele>53.0</ele><time>2026-04-26T11:11:02.525Z</time></trkpt><trkpt lat="43.91953" lon="12.6850917"><ele>53.0</ele><time>2026-04-26T11:11:03.526Z</time></trkpt><trkpt lat="43.9195017" lon="12.6852283"><ele>53.0</ele><time>2026-04-26T11:11:04.525Z</time></trkpt><trkpt lat="43.9194733" lon="12.685385"><ele>53.0</ele><time>2026-04-26T11:11:05.526Z</time></trkpt><trkpt lat="43.9194367" lon="12.6855583"><ele>53.0</ele><time>2026-04-26T11:11:06.526Z</time></trkpt><trkpt lat="43.9194017" lon="12.685725"><ele>53.0</ele><time>2026-04-26T11:11:07.526Z</time></trkpt><trkpt lat="43.9193683" lon="12.6858867"><ele>53.0</ele><time>2026-04-26T11:11:08.526Z</time></trkpt><trkpt lat="43.9193367" lon="12.6860483"><ele>53.0</ele><time>2026-04-26T11:11:09.526Z</time></trkpt><trkpt lat="43.9193" lon="12.686215"><ele>53.75</ele><time>2026-04-26T11:11:10.526Z</time></trkpt><trkpt lat="43.919265" lon="12.6863717"><ele>54.5</ele><time>2026-04-26T11:11:11.526Z</time></trkpt><trkpt lat="43.919235" lon="12.6865367"><ele>55.25</ele><time>2026-04-26T11:11:12.526Z</time></trkpt><trkpt lat="43.9192333" lon="12.6867233"><ele>56.0</ele><time>2026-04-26T11:11:13.525Z</time></trkpt><trkpt lat="43.91925" lon="12.6869183"><ele>59.0</ele><time>2026-04-26T11:11:14.526Z</time></trkpt><trkpt lat="43.9192833" lon="12.6871167"><ele>62.0</ele><time>2026-04-26T11:11:15.526Z</time></trkpt><trkpt lat="43.9193233" lon="12.6873167"><ele>65.0</ele><time>2026-04-26T11:11:16.526Z</time></trkpt><trkpt lat="43.9193683" lon="12.687525"><ele>65.0</ele><time>2026-04-26T11:11:17.526Z</time></trkpt><trkpt lat="43.919405" lon="12.6877283"><ele>65.0</ele><time>2026-04-26T11:11:18.526Z</time></trkpt><trkpt lat="43.9194283" lon="12.6879417"><ele>65.0</ele><time>2026-04-26T11:11:19.526Z</time></trkpt><trkpt lat="43.91945" lon="12.6881583"><ele>67.66666666666667</ele><time>2026-04-26T11:11:20.526Z</time></trkpt><trkpt lat="43.919475" lon="12.6883833"><ele>70.33333333333333</ele><time>2026-04-26T11:11:21.526Z</time></trkpt><trkpt lat="43.9195083" lon="12.6886217"><ele>73.0</ele><time>2026-04-26T11:11:22.526Z</time></trkpt><trkpt lat="43.9195483" lon="12.6888817"><ele>76.33333333333333</ele><time>2026-04-26T11:11:23.526Z</time></trkpt><trkpt lat="43.9195917" lon="12.6891667"><ele>79.66666666666667</ele><time>2026-04-26T11:11:24.525Z</time></trkpt><trkpt lat="43.9196283" lon="12.68945"><ele>83.0</ele><time>2026-04-26T11:11:25.526Z</time></trkpt><trkpt lat="43.9196633" lon="12.68972"><ele>85.66666666666667</ele><time>2026-04-26T11:11:26.525Z</time></trkpt><trkpt lat="43.9196967" lon="12.6899783"><ele>88.33333333333333</ele><time>2026-04-26T11:11:27.526Z</time></trkpt><trkpt lat="43.9197233" lon="12.6902283"><ele>91.0</ele><time>2026-04-26T11:11:28.526Z</time></trkpt><trkpt lat="43.9197533" lon="12.6904717"><ele>93.66666666666666</ele><time>2026-04-26T11:11:29.525Z</time></trkpt><trkpt lat="43.9197883" lon="12.6907083"><ele>96.33333333333333</ele><time>2026-04-26T11:11:30.526Z</time></trkpt><trkpt lat="43.9198283" lon="12.6909467"><ele>99.0</ele><time>2026-04-26T11:11:31.526Z</time></trkpt><trkpt lat="43.9198683" lon="12.6912017"><ele>101.33333333333334</ele><time>2026-04-26T11:11:32.525Z</time></trkpt><trkpt lat="43.91991" lon="12.6914567"><ele>103.66666666666667</ele><time>2026-04-26T11:11:33.525Z</time></trkpt><trkpt lat="43.9199517" lon="12.691715"><ele>106.0</ele><time>2026-04-26T11:11:34.525Z</time></trkpt><trkpt lat="43.9199983" lon="12.6919783"><ele>109.0</ele><time>2026-04-26T11:11:35.526Z</time></trkpt><trkpt lat="43.9200467" lon="12.692245"><ele>112.0</ele><time>2026-04-26T11:11:36.526Z</time></trkpt><trkpt lat="43.920095" lon="12.6925"><ele>115.0</ele><time>2026-04-26T11:11:37.526Z</time></trkpt><trkpt lat="43.920135" lon="12.6927283"><ele>117.5</ele><time>2026-04-26T11:11:38.526Z</time></trkpt><trkpt lat="43.9201717" lon="12.6929317"><ele>120.0</ele><time>2026-04-26T11:11:39.525Z</time></trkpt><trkpt lat="43.9202083" lon="12.693125"><ele>122.5</ele><time>2026-04-26T11:11:40.526Z</time></trkpt><trkpt lat="43.9202417" lon="12.6933"><ele>125.0</ele><time>2026-04-26T11:11:41.526Z</time></trkpt><trkpt lat="43.9202617" lon="12.6934617"><ele>123.83333333333333</ele><time>2026-04-26T11:11:42.525Z</time></trkpt><trkpt lat="43.9202883" lon="12.693605"><ele>122.66666666666666</ele><time>2026-04-26T11:11:43.525Z</time></trkpt><trkpt lat="43.92031" lon="12.69372"><ele>121.5</ele><time>2026-04-26T11:11:44.526Z</time></trkpt><trkpt lat="43.9203233" lon="12.6938067"><ele>120.33333333333334</ele><time>2026-04-26T11:11:45.526Z</time></trkpt><trkpt lat="43.920345" lon="12.6939183"><ele>119.16666666666667</ele><time>2026-04-26T11:11:47.525Z</time></trkpt><trkpt lat="43.9203767" lon="12.693995"><ele>118.0</ele><time>2026-04-26T11:11:50.525Z</time></trkpt><trkpt lat="43.920495" lon="12.69406"><ele>118.0</ele><time>2026-04-26T11:11:52.526Z</time></trkpt><trkpt lat="43.9206017" lon="12.6941017"><ele>118.0</ele><time>2026-04-26T11:11:53.526Z</time></trkpt><trkpt lat="43.9207317" lon="12.6941517"><ele>118.0</ele><time>2026-04-26T11:11:54.525Z</time></trkpt><trkpt lat="43.9208833" lon="12.69422"><ele>118.0</ele><time>2026-04-26T11:11:55.526Z</time></trkpt><trkpt lat="43.92105" lon="12.69429"><ele>117.33333333333334</ele><time>2026-04-26T11:11:56.526Z</time></trkpt><trkpt lat="43.921215" lon="12.6943717"><ele>116.66666666666666</ele><time>2026-04-26T11:11:57.526Z</time></trkpt><trkpt lat="43.921375" lon="12.6944483"><ele>116.0</ele><time>2026-04-26T11:11:58.526Z</time></trkpt><trkpt lat="43.9215367" lon="12.6945267"><ele>114.33333333333333</ele><time>2026-04-26T11:11:59.526Z</time></trkpt><trkpt lat="43.9217033" lon="12.694615"><ele>112.66666666666666</ele><time>2026-04-26T11:12:00.525Z</time></trkpt><trkpt lat="43.9218633" lon="12.694705"><ele>111.0</ele><time>2026-04-26T11:12:01.526Z</time></trkpt><trkpt lat="43.9220117" lon="12.6947983"><ele>111.0</ele><time>2026-04-26T11:12:02.525Z</time></trkpt><trkpt lat="43.9221517" lon="12.6948917"><ele>111.0</ele><time>2026-04-26T11:12:03.526Z</time></trkpt><trkpt lat="43.9222833" lon="12.6950067"><ele>111.0</ele><time>2026-04-26T11:12:04.526Z</time></trkpt><trkpt lat="43.92241" lon="12.6951533"><ele>110.33333333333334</ele><time>2026-04-26T11:12:05.526Z</time></trkpt><trkpt lat="43.9225267" lon="12.6953233"><ele>109.66666666666667</ele><time>2026-04-26T11:12:06.526Z</time></trkpt><trkpt lat="43.9226383" lon="12.695485"><ele>109.0</ele><time>2026-04-26T11:12:07.526Z</time></trkpt><trkpt lat="43.9227617" lon="12.6956317"><ele>109.0</ele><time>2026-04-26T11:12:08.526Z</time></trkpt><trkpt lat="43.9228983" lon="12.69576"><ele>109.0</ele><time>2026-04-26T11:12:09.526Z</time></trkpt><trkpt lat="43.9230483" lon="12.69587"><ele>109.0</ele><time>2026-04-26T11:12:10.525Z</time></trkpt><trkpt lat="43.9232083" lon="12.6959767"><ele>109.0</ele><time>2026-04-26T11:12:11.525Z</time></trkpt><trkpt lat="43.9233833" lon="12.6960917"><ele>109.0</ele><time>2026-04-26T11:12:12.526Z</time></trkpt><trkpt lat="43.9235567" lon="12.6962067"><ele>109.0</ele><time>2026-04-26T11:12:13.525Z</time></trkpt><trkpt lat="43.923725" lon="12.6963167"><ele>109.0</ele><time>2026-04-26T11:12:14.526Z</time></trkpt><trkpt lat="43.9238833" lon="12.69642"><ele>109.0</ele><time>2026-04-26T11:12:15.525Z</time></trkpt><trkpt lat="43.9240333" lon="12.69652"><ele>109.0</ele><time>2026-04-26T11:12:16.526Z</time></trkpt><trkpt lat="43.9241733" lon="12.69663"><ele>109.0</ele><time>2026-04-26T11:12:17.526Z</time></trkpt><trkpt lat="43.9243067" lon="12.6967567"><ele>109.0</ele><time>2026-04-26T11:12:18.526Z</time></trkpt><trkpt lat="43.9244317" lon="12.6969033"><ele>109.0</ele><time>2026-04-26T11:12:19.526Z</time></trkpt><trkpt lat="43.9245383" lon="12.6970567"><ele>109.0</ele><time>2026-04-26T11:12:20.526Z</time></trkpt><trkpt lat="43.9246317" lon="12.6972167"><ele>109.0</ele><time>2026-04-26T11:12:21.526Z</time></trkpt><trkpt lat="43.9247217" lon="12.6974083"><ele>109.0</ele><time>2026-04-26T11:12:22.526Z</time></trkpt><trkpt lat="43.924805" lon="12.69763"><ele>109.33333333333334</ele><time>2026-04-26T11:12:23.525Z</time></trkpt><trkpt lat="43.92488" lon="12.6978667"><ele>109.66666666666666</ele><time>2026-04-26T11:12:24.526Z</time></trkpt><trkpt lat="43.92495" lon="12.6981167"><ele>110.0</ele><time>2026-04-26T11:12:25.525Z</time></trkpt><trkpt lat="43.9250183" lon="12.698355"><ele>107.33333333333333</ele><time>2026-04-26T11:12:26.526Z</time></trkpt><trkpt lat="43.92508" lon="12.6985783"><ele>104.66666666666666</ele><time>2026-04-26T11:12:27.526Z</time></trkpt><trkpt lat="43.92514" lon="12.6988067"><ele>102.0</ele><time>2026-04-26T11:12:28.526Z</time></trkpt><trkpt lat="43.9252067" lon="12.69902"><ele>102.0</ele><time>2026-04-26T11:12:29.526Z</time></trkpt><trkpt lat="43.9252917" lon="12.6992183"><ele>102.0</ele><time>2026-04-26T11:12:30.525Z</time></trkpt><trkpt lat="43.9253833" lon="12.69941"><ele>102.0</ele><time>2026-04-26T11:12:31.526Z</time></trkpt><trkpt lat="43.92548" lon="12.6996017"><ele>104.0</ele><time>2026-04-26T11:12:32.526Z</time></trkpt><trkpt lat="43.9255683" lon="12.6997867"><ele>106.0</ele><time>2026-04-26T11:12:33.526Z</time></trkpt><trkpt lat="43.92565" lon="12.6999783"><ele>108.0</ele><time>2026-04-26T11:12:34.525Z</time></trkpt><trkpt lat="43.925735" lon="12.700195"><ele>110.0</ele><time>2026-04-26T11:12:35.526Z</time></trkpt><trkpt lat="43.92582" lon="12.7004167"><ele>112.0</ele><time>2026-04-26T11:12:36.526Z</time></trkpt><trkpt lat="43.9258967" lon="12.7006417"><ele>114.0</ele><time>2026-04-26T11:12:37.526Z</time></trkpt><trkpt lat="43.9259717" lon="12.7008633"><ele>112.0</ele><time>2026-04-26T11:12:38.526Z</time></trkpt><trkpt lat="43.9260317" lon="12.7010733"><ele>110.0</ele><time>2026-04-26T11:12:39.525Z</time></trkpt><trkpt lat="43.9261" lon="12.7012567"><ele>108.0</ele><time>2026-04-26T11:12:40.526Z</time></trkpt><trkpt lat="43.9261817" lon="12.7014183"><ele>108.0</ele><time>2026-04-26T11:12:41.526Z</time></trkpt><trkpt lat="43.9262917" lon="12.701585"><ele>108.0</ele><time>2026-04-26T11:12:42.526Z</time></trkpt><trkpt lat="43.9264117" lon="12.7017283"><ele>108.0</ele><time>2026-04-26T11:12:43.526Z</time></trkpt><trkpt lat="43.9265333" lon="12.7018617"><ele>108.5</ele><time>2026-04-26T11:12:44.526Z</time></trkpt><trkpt lat="43.9266517" lon="12.7019933"><ele>109.0</ele><time>2026-04-26T11:12:45.526Z</time></trkpt><trkpt lat="43.9267683" lon="12.702115"><ele>109.5</ele><time>2026-04-26T11:12:46.526Z</time></trkpt><trkpt lat="43.926885" lon="12.702235"><ele>110.0</ele><time>2026-04-26T11:12:47.526Z</time></trkpt><trkpt lat="43.927" lon="12.702355"><ele>108.0</ele><time>2026-04-26T11:12:48.526Z</time></trkpt><trkpt lat="43.9271133" lon="12.70247"><ele>106.0</ele><time>2026-04-26T11:12:49.525Z</time></trkpt><trkpt lat="43.9272233" lon="12.7025683"><ele>104.0</ele><time>2026-04-26T11:12:50.526Z</time></trkpt><trkpt lat="43.9273367" lon="12.7026633"><ele>102.0</ele><time>2026-04-26T11:12:51.526Z</time></trkpt><trkpt lat="43.9274417" lon="12.70278"><ele>101.66666666666666</ele><time>2026-04-26T11:12:52.525Z</time></trkpt><trkpt lat="43.9275517" lon="12.7029167"><ele>101.33333333333333</ele><time>2026-04-26T11:12:53.526Z</time></trkpt><trkpt lat="43.927655" lon="12.7030683"><ele>101.0</ele><time>2026-04-26T11:12:54.526Z</time></trkpt><trkpt lat="43.927765" lon="12.70323"><ele>99.66666666666666</ele><time>2026-04-26T11:12:55.526Z</time></trkpt><trkpt lat="43.9278817" lon="12.7033983"><ele>98.33333333333334</ele><time>2026-04-26T11:12:56.526Z</time></trkpt><trkpt lat="43.9280017" lon="12.703565"><ele>97.0</ele><time>2026-04-26T11:12:57.525Z</time></trkpt><trkpt lat="43.9281383" lon="12.703725"><ele>97.0</ele><time>2026-04-26T11:12:58.526Z</time></trkpt><trkpt lat="43.928285" lon="12.7038733"><ele>97.0</ele><time>2026-04-26T11:12:59.526Z</time></trkpt><trkpt lat="43.9284283" lon="12.70401"><ele>97.0</ele><time>2026-04-26T11:13:00.526Z</time></trkpt><trkpt lat="43.9285683" lon="12.70414"><ele>97.33333333333334</ele><time>2026-04-26T11:13:01.526Z</time></trkpt><trkpt lat="43.928705" lon="12.7042633"><ele>97.66666666666666</ele><time>2026-04-26T11:13:02.526Z</time></trkpt><trkpt lat="43.9288333" lon="12.7043767"><ele>98.0</ele><time>2026-04-26T11:13:03.526Z</time></trkpt><trkpt lat="43.928955" lon="12.704495"><ele>98.0</ele><time>2026-04-26T11:13:04.526Z</time></trkpt><trkpt lat="43.9290617" lon="12.7046217"><ele>98.0</ele><time>2026-04-26T11:13:05.526Z</time></trkpt><trkpt lat="43.9291617" lon="12.7047733"><ele>98.0</ele><time>2026-04-26T11:13:06.526Z</time></trkpt><trkpt lat="43.9292367" lon="12.7049667"><ele>98.0</ele><time>2026-04-26T11:13:07.526Z</time></trkpt><trkpt lat="43.9292983" lon="12.7051717"><ele>98.33333333333333</ele><time>2026-04-26T11:13:08.526Z</time></trkpt><trkpt lat="43.9293667" lon="12.70536"><ele>98.66666666666666</ele><time>2026-04-26T11:13:09.526Z</time></trkpt><trkpt lat="43.9294483" lon="12.70554"><ele>99.0</ele><time>2026-04-26T11:13:10.526Z</time></trkpt><trkpt lat="43.9295517" lon="12.7057217"><ele>99.0</ele><time>2026-04-26T11:13:11.526Z</time></trkpt><trkpt lat="43.9296667" lon="12.705905"><ele>99.0</ele><time>2026-04-26T11:13:12.525Z</time></trkpt><trkpt lat="43.92979" lon="12.7060717"><ele>99.0</ele><time>2026-04-26T11:13:13.526Z</time></trkpt><trkpt lat="43.929905" lon="12.70624"><ele>98.66666666666666</ele><time>2026-04-26T11:13:14.526Z</time></trkpt><trkpt lat="43.9300167" lon="12.70639"><ele>98.33333333333333</ele><time>2026-04-26T11:13:15.526Z</time></trkpt><trkpt lat="43.93013" lon="12.7065333"><ele>98.0</ele><time>2026-04-26T11:13:16.525Z</time></trkpt><trkpt lat="43.9302483" lon="12.7066483"><ele>97.5</ele><time>2026-04-26T11:13:17.526Z</time></trkpt><trkpt lat="43.9303717" lon="12.7067367"><ele>97.0</ele><time>2026-04-26T11:13:18.525Z</time></trkpt><trkpt lat="43.9304983" lon="12.7068067"><ele>96.5</ele><time>2026-04-26T11:13:19.525Z</time></trkpt><trkpt lat="43.9306183" lon="12.7068717"><ele>96.0</ele><time>2026-04-26T11:13:20.525Z</time></trkpt><trkpt lat="43.9307367" lon="12.7069667"><ele>96.0</ele><time>2026-04-26T11:13:21.525Z</time></trkpt><trkpt lat="43.93085" lon="12.7070933"><ele>96.0</ele><time>2026-04-26T11:13:22.525Z</time></trkpt><trkpt lat="43.9309467" lon="12.7072333"><ele>96.0</ele><time>2026-04-26T11:13:23.525Z</time></trkpt><trkpt lat="43.9310433" lon="12.7073683"><ele>96.0</ele><time>2026-04-26T11:13:24.524Z</time></trkpt><trkpt lat="43.9311583" lon="12.7074833"><ele>93.0</ele><time>2026-04-26T11:13:25.525Z</time></trkpt><trkpt lat="43.93129" lon="12.7075833"><ele>90.0</ele><time>2026-04-26T11:13:26.525Z</time></trkpt><trkpt lat="43.931435" lon="12.70767"><ele>87.0</ele><time>2026-04-26T11:13:27.525Z</time></trkpt><trkpt lat="43.9315667" lon="12.7077583"><ele>87.0</ele><time>2026-04-26T11:13:28.525Z</time></trkpt><trkpt lat="43.9316983" lon="12.7078567"><ele>87.0</ele><time>2026-04-26T11:13:29.524Z</time></trkpt><trkpt lat="43.9318217" lon="12.707985"><ele>87.0</ele><time>2026-04-26T11:13:30.525Z</time></trkpt><trkpt lat="43.931945" lon="12.70813"><ele>84.33333333333333</ele><time>2026-04-26T11:13:31.524Z</time></trkpt><trkpt lat="43.932065" lon="12.7082717"><ele>81.66666666666666</ele><time>2026-04-26T11:13:32.524Z</time></trkpt><trkpt lat="43.9321867" lon="12.7084017"><ele>79.0</ele><time>2026-04-26T11:13:33.524Z</time></trkpt><trkpt lat="43.93231" lon="12.7085317"><ele>78.33333333333333</ele><time>2026-04-26T11:13:34.524Z</time></trkpt><trkpt lat="43.93244" lon="12.7086667"><ele>77.66666666666667</ele><time>2026-04-26T11:13:35.525Z</time></trkpt><trkpt lat="43.93258" lon="12.7088067"><ele>77.0</ele><time>2026-04-26T11:13:36.525Z</time></trkpt><trkpt lat="43.9327183" lon="12.7089467"><ele>72.33333333333334</ele><time>2026-04-26T11:13:37.524Z</time></trkpt><trkpt lat="43.9328467" lon="12.7090817"><ele>67.66666666666667</ele><time>2026-04-26T11:13:38.525Z</time></trkpt><trkpt lat="43.9329733" lon="12.709215"><ele>63.0</ele><time>2026-04-26T11:13:39.525Z</time></trkpt><trkpt lat="43.9330917" lon="12.7093433"><ele>64.5</ele><time>2026-04-26T11:13:40.525Z</time></trkpt><trkpt lat="43.9331983" lon="12.7094767"><ele>66.0</ele><time>2026-04-26T11:13:41.524Z</time></trkpt><trkpt lat="43.9332867" lon="12.7096233"><ele>67.5</ele><time>2026-04-26T11:13:42.525Z</time></trkpt><trkpt lat="43.93337" lon="12.709775"><ele>69.0</ele><time>2026-04-26T11:13:43.524Z</time></trkpt><trkpt lat="43.9334517" lon="12.7099383"><ele>66.5</ele><time>2026-04-26T11:13:44.525Z</time></trkpt><trkpt lat="43.9335283" lon="12.7100917"><ele>64.0</ele><time>2026-04-26T11:13:45.525Z</time></trkpt><trkpt lat="43.9336" lon="12.7102417"><ele>61.5</ele><time>2026-04-26T11:13:46.524Z</time></trkpt><trkpt lat="43.9336717" lon="12.71038"><ele>59.0</ele><time>2026-04-26T11:13:47.524Z</time></trkpt><trkpt lat="43.9337333" lon="12.7105167"><ele>59.0</ele><time>2026-04-26T11:13:48.525Z</time></trkpt><trkpt lat="43.9337867" lon="12.7106583"><ele>59.00000000000001</ele><time>2026-04-26T11:13:49.525Z</time></trkpt><trkpt lat="43.933835" lon="12.7108"><ele>59.00000000000001</ele><time>2026-04-26T11:13:50.524Z</time></trkpt><trkpt lat="43.933865" lon="12.7109483"><ele>59.0</ele><time>2026-04-26T11:13:51.525Z</time></trkpt><trkpt lat="43.9338833" lon="12.7110867"><ele>59.0</ele><time>2026-04-26T11:13:52.525Z</time></trkpt><trkpt lat="43.9339033" lon="12.7112217"><ele>58.6</ele><time>2026-04-26T11:13:53.525Z</time></trkpt><trkpt lat="43.9339233" lon="12.71136"><ele>58.2</ele><time>2026-04-26T11:13:54.524Z</time></trkpt><trkpt lat="43.9339383" lon="12.7114917"><ele>57.800000000000004</ele><time>2026-04-26T11:13:55.525Z</time></trkpt><trkpt lat="43.9339383" lon="12.7116283"><ele>57.400000000000006</ele><time>2026-04-26T11:13:56.525Z</time></trkpt><trkpt lat="43.9339267" lon="12.7117633"><ele>57.0</ele><time>2026-04-26T11:13:57.525Z</time></trkpt><trkpt lat="43.933895" lon="12.711915"><ele>55.75</ele><time>2026-04-26T11:13:58.525Z</time></trkpt><trkpt lat="43.9338467" lon="12.712075"><ele>54.5</ele><time>2026-04-26T11:13:59.525Z</time></trkpt><trkpt lat="43.9337933" lon="12.7122283"><ele>53.25</ele><time>2026-04-26T11:14:00.525Z</time></trkpt><trkpt lat="43.93375" lon="12.7123767"><ele>52.0</ele><time>2026-04-26T11:14:01.524Z</time></trkpt><trkpt lat="43.9337167" lon="12.71252"><ele>52.0</ele><time>2026-04-26T11:14:02.525Z</time></trkpt><trkpt lat="43.9336983" lon="12.71266"><ele>52.0</ele><time>2026-04-26T11:14:03.525Z</time></trkpt><trkpt lat="43.93369" lon="12.7128033"><ele>52.0</ele><time>2026-04-26T11:14:04.525Z</time></trkpt><trkpt lat="43.9336967" lon="12.712945"><ele>52.0</ele><time>2026-04-26T11:14:05.525Z</time></trkpt><trkpt lat="43.933705" lon="12.713095"><ele>52.0</ele><time>2026-04-26T11:14:06.525Z</time></trkpt><trkpt lat="43.9337317" lon="12.71326"><ele>51.75</ele><time>2026-04-26T11:14:07.525Z</time></trkpt><trkpt lat="43.933765" lon="12.7134317"><ele>51.5</ele><time>2026-04-26T11:14:08.525Z</time></trkpt><trkpt lat="43.933805" lon="12.7136133"><ele>51.25</ele><time>2026-04-26T11:14:09.525Z</time></trkpt><trkpt lat="43.9338583" lon="12.7138"><ele>51.0</ele><time>2026-04-26T11:14:10.524Z</time></trkpt><trkpt lat="43.933905" lon="12.713985"><ele>51.0</ele><time>2026-04-26T11:14:11.525Z</time></trkpt><trkpt lat="43.93396" lon="12.7141567"><ele>51.0</ele><time>2026-04-26T11:14:12.524Z</time></trkpt><trkpt lat="43.9340067" lon="12.7143267"><ele>51.0</ele><time>2026-04-26T11:14:13.525Z</time></trkpt><trkpt lat="43.9340533" lon="12.7144883"><ele>51.0</ele><time>2026-04-26T11:14:14.525Z</time></trkpt><trkpt lat="43.9340967" lon="12.714635"><ele>51.199999999999996</ele><time>2026-04-26T11:14:15.525Z</time></trkpt><trkpt lat="43.934115" lon="12.7147767"><ele>51.4</ele><time>2026-04-26T11:14:16.525Z</time></trkpt><trkpt lat="43.9341083" lon="12.7149183"><ele>51.6</ele><time>2026-04-26T11:14:17.524Z</time></trkpt><trkpt lat="43.9340867" lon="12.71505"><ele>51.8</ele><time>2026-04-26T11:14:18.524Z</time></trkpt><trkpt lat="43.9340483" lon="12.7151933"><ele>52.0</ele><time>2026-04-26T11:14:19.525Z</time></trkpt><trkpt lat="43.9340067" lon="12.71533"><ele>51.33333333333333</ele><time>2026-04-26T11:14:20.525Z</time></trkpt><trkpt lat="43.9339717" lon="12.715455"><ele>50.666666666666664</ele><time>2026-04-26T11:14:21.525Z</time></trkpt><trkpt lat="43.9339467" lon="12.71557"><ele>50.0</ele><time>2026-04-26T11:14:22.525Z</time></trkpt><trkpt lat="43.9339383" lon="12.71568"><ele>49.33333333333333</ele><time>2026-04-26T11:14:23.525Z</time></trkpt><trkpt lat="43.933945" lon="12.7157817"><ele>48.666666666666664</ele><time>2026-04-26T11:14:24.525Z</time></trkpt><trkpt lat="43.933975" lon="12.715875"><ele>48.0</ele><time>2026-04-26T11:14:25.525Z</time></trkpt><trkpt lat="43.9340233" lon="12.7159433"><ele>48.0</ele><time>2026-04-26T11:14:26.524Z</time></trkpt><trkpt lat="43.93409" lon="12.7159817"><ele>48.0</ele><time>2026-04-26T11:14:27.525Z</time></trkpt><trkpt lat="43.934165" lon="12.7159833"><ele>48.0</ele><time>2026-04-26T11:14:28.525Z</time></trkpt><trkpt lat="43.9342433" lon="12.7159517"><ele>48.0</ele><time>2026-04-26T11:14:29.524Z</time></trkpt><trkpt lat="43.93431" lon="12.7158983"><ele>48.0</ele><time>2026-04-26T11:14:30.524Z</time></trkpt><trkpt lat="43.9343683" lon="12.71582"><ele>48.0</ele><time>2026-04-26T11:14:31.525Z</time></trkpt><trkpt lat="43.934415" lon="12.71572"><ele>45.5</ele><time>2026-04-26T11:14:32.525Z</time></trkpt><trkpt lat="43.9344467" lon="12.715595"><ele>43.0</ele><time>2026-04-26T11:14:33.525Z</time></trkpt><trkpt lat="43.9344633" lon="12.71544"><ele>40.5</ele><time>2026-04-26T11:14:34.525Z</time></trkpt><trkpt lat="43.9344783" lon="12.71527"><ele>38.0</ele><time>2026-04-26T11:14:35.525Z</time></trkpt><trkpt lat="43.9345" lon="12.715085"><ele>38.0</ele><time>2026-04-26T11:14:36.524Z</time></trkpt><trkpt lat="43.93452" lon="12.7149167"><ele>38.0</ele><time>2026-04-26T11:14:37.525Z</time></trkpt><trkpt lat="43.93454" lon="12.7147567"><ele>38.0</ele><time>2026-04-26T11:14:38.525Z</time></trkpt><trkpt lat="43.9345483" lon="12.7146083"><ele>38.0</ele><time>2026-04-26T11:14:39.525Z</time></trkpt><trkpt lat="43.9345733" lon="12.7144833"><ele>38.0</ele><time>2026-04-26T11:14:40.524Z</time></trkpt><trkpt lat="43.9346183" lon="12.7144017"><ele>38.0</ele><time>2026-04-26T11:14:41.525Z</time></trkpt><trkpt lat="43.9346633" lon="12.71434"><ele>38.0</ele><time>2026-04-26T11:14:42.525Z</time></trkpt><trkpt lat="43.9347667" lon="12.714395"><ele>38.0</ele><time>2026-04-26T11:14:44.525Z</time></trkpt><trkpt lat="43.9348233" lon="12.7145"><ele>38.0</ele><time>2026-04-26T11:14:45.525Z</time></trkpt><trkpt lat="43.93488" lon="12.7146233"><ele>38.0</ele><time>2026-04-26T11:14:46.525Z</time></trkpt><trkpt lat="43.9349383" lon="12.7147417"><ele>38.0</ele><time>2026-04-26T11:14:47.525Z</time></trkpt><trkpt lat="43.9350067" lon="12.7148433"><ele>38.0</ele><time>2026-04-26T11:14:48.525Z</time></trkpt><trkpt lat="43.9350917" lon="12.7149083"><ele>38.0</ele><time>2026-04-26T11:14:49.525Z</time></trkpt><trkpt lat="43.9352017" lon="12.7149417"><ele>38.0</ele><time>2026-04-26T11:14:50.525Z</time></trkpt><trkpt lat="43.9353383" lon="12.7149333"><ele>38.0</ele><time>2026-04-26T11:14:51.525Z</time></trkpt><trkpt lat="43.935495" lon="12.7149267"><ele>36.0</ele><time>2026-04-26T11:14:52.525Z</time></trkpt><trkpt lat="43.9356617" lon="12.714935"><ele>34.0</ele><time>2026-04-26T11:14:53.524Z</time></trkpt><trkpt lat="43.9358233" lon="12.7149533"><ele>32.0</ele><time>2026-04-26T11:14:54.525Z</time></trkpt><trkpt lat="43.93597" lon="12.7149533"><ele>31.6</ele><time>2026-04-26T11:14:55.525Z</time></trkpt><trkpt lat="43.9360867" lon="12.7149683"><ele>31.200000000000003</ele><time>2026-04-26T11:14:56.525Z</time></trkpt><trkpt lat="43.9361817" lon="12.71498"><ele>30.8</ele><time>2026-04-26T11:14:57.524Z</time></trkpt><trkpt lat="43.936255" lon="12.7149933"><ele>30.4</ele><time>2026-04-26T11:14:58.525Z</time></trkpt><trkpt lat="43.936335" lon="12.715035"><ele>30.0</ele><time>2026-04-26T11:15:00.525Z</time></trkpt><trkpt lat="43.9364233" lon="12.7150683"><ele>30.0</ele><time>2026-04-26T11:15:02.524Z</time></trkpt><trkpt lat="43.9364933" lon="12.715115"><ele>30.0</ele><time>2026-04-26T11:15:03.525Z</time></trkpt><trkpt lat="43.936565" lon="12.7151867"><ele>30.0</ele><time>2026-04-26T11:15:04.525Z</time></trkpt><trkpt lat="43.936625" lon="12.715285"><ele>30.0</ele><time>2026-04-26T11:15:05.524Z</time></trkpt><trkpt lat="43.93668" lon="12.7153967"><ele>30.0</ele><time>2026-04-26T11:15:06.525Z</time></trkpt><trkpt lat="43.936705" lon="12.7155117"><ele>30.0</ele><time>2026-04-26T11:15:07.525Z</time></trkpt><trkpt lat="43.9367083" lon="12.715605"><ele>30.0</ele><time>2026-04-26T11:15:08.524Z</time></trkpt><trkpt lat="43.93663" lon="12.7157783"><ele>30.0</ele><time>2026-04-26T11:15:10.524Z</time></trkpt><trkpt lat="43.9365417" lon="12.7158967"><ele>30.0</ele><time>2026-04-26T11:15:11.525Z</time></trkpt><trkpt lat="43.9364367" lon="12.716015"><ele>30.0</ele><time>2026-04-26T11:15:12.525Z</time></trkpt><trkpt lat="43.93634" lon="12.7161367"><ele>29.75</ele><time>2026-04-26T11:15:13.525Z</time></trkpt><trkpt lat="43.9362483" lon="12.7162483"><ele>29.5</ele><time>2026-04-26T11:15:14.525Z</time></trkpt><trkpt lat="43.9361567" lon="12.7163617"><ele>29.25</ele><time>2026-04-26T11:15:15.525Z</time></trkpt><trkpt lat="43.9360633" lon="12.7164783"><ele>29.0</ele><time>2026-04-26T11:15:16.525Z</time></trkpt><trkpt lat="43.93597" lon="12.7166033"><ele>29.0</ele><time>2026-04-26T11:15:17.524Z</time></trkpt><trkpt lat="43.9358817" lon="12.7167383"><ele>29.0</ele><time>2026-04-26T11:15:18.524Z</time></trkpt><trkpt lat="43.9357917" lon="12.71685"><ele>29.0</ele><time>2026-04-26T11:15:19.525Z</time></trkpt><trkpt lat="43.9357133" lon="12.71696"><ele>29.0</ele><time>2026-04-26T11:15:20.525Z</time></trkpt><trkpt lat="43.93564" lon="12.71705"><ele>28.999999999999996</ele><time>2026-04-26T11:15:21.524Z</time></trkpt><trkpt lat="43.9355833" lon="12.71713"><ele>29.0</ele><time>2026-04-26T11:15:22.525Z</time></trkpt><trkpt lat="43.9355333" lon="12.7171883"><ele>29.0</ele><time>2026-04-26T11:15:23.525Z</time></trkpt><trkpt lat="43.9354517" lon="12.7172633"><ele>29.0</ele><time>2026-04-26T11:15:25.524Z</time></trkpt><trkpt lat="43.935345" lon="12.71724"><ele>28.999999999999996</ele><time>2026-04-26T11:15:27.525Z</time></trkpt><trkpt lat="43.935265" lon="12.7171933"><ele>29.0</ele><time>2026-04-26T11:15:28.525Z</time></trkpt><trkpt lat="43.9351883" lon="12.717135"><ele>28.999999999999996</ele><time>2026-04-26T11:15:29.524Z</time></trkpt><trkpt lat="43.935125" lon="12.71709"><ele>29.0</ele><time>2026-04-26T11:15:30.524Z</time></trkpt><trkpt lat="43.9350433" lon="12.7170283"><ele>29.0</ele><time>2026-04-26T11:15:32.525Z</time></trkpt><trkpt lat="43.9349717" lon="12.7170017"><ele>29.0</ele><time>2026-04-26T11:15:35.524Z</time></trkpt><trkpt lat="43.9348717" lon="12.7170567"><ele>28.999999999999996</ele><time>2026-04-26T11:15:37.525Z</time></trkpt><trkpt lat="43.9348017" lon="12.7171467"><ele>29.0</ele><time>2026-04-26T11:15:38.525Z</time></trkpt><trkpt lat="43.9347233" lon="12.7172617"><ele>29.25</ele><time>2026-04-26T11:15:39.524Z</time></trkpt><trkpt lat="43.9346417" lon="12.7173867"><ele>29.5</ele><time>2026-04-26T11:15:40.524Z</time></trkpt><trkpt lat="43.9345533" lon="12.7175317"><ele>29.75</ele><time>2026-04-26T11:15:41.525Z</time></trkpt><trkpt lat="43.9344633" lon="12.717685"><ele>30.0</ele><time>2026-04-26T11:15:42.525Z</time></trkpt><trkpt lat="43.9343567" lon="12.7178383"><ele>29.75</ele><time>2026-04-26T11:15:43.525Z</time></trkpt><trkpt lat="43.934255" lon="12.7179917"><ele>29.5</ele><time>2026-04-26T11:15:44.525Z</time></trkpt><trkpt lat="43.9341633" lon="12.7181333"><ele>29.25</ele><time>2026-04-26T11:15:45.524Z</time></trkpt><trkpt lat="43.9340783" lon="12.7182617"><ele>29.0</ele><time>2026-04-26T11:15:46.525Z</time></trkpt><trkpt lat="43.9340017" lon="12.7183867"><ele>29.0</ele><time>2026-04-26T11:15:47.525Z</time></trkpt><trkpt lat="43.9339283" lon="12.7185017"><ele>29.0</ele><time>2026-04-26T11:15:48.525Z</time></trkpt><trkpt lat="43.93386" lon="12.71861"><ele>29.0</ele><time>2026-04-26T11:15:49.525Z</time></trkpt><trkpt lat="43.9337983" lon="12.718715"><ele>29.0</ele><time>2026-04-26T11:15:50.525Z</time></trkpt><trkpt lat="43.9337333" lon="12.7188117"><ele>29.0</ele><time>2026-04-26T11:15:51.524Z</time></trkpt><trkpt lat="43.93367" lon="12.7189183"><ele>28.833333333333332</ele><time>2026-04-26T11:15:52.525Z</time></trkpt><trkpt lat="43.9336017" lon="12.71903"><ele>28.666666666666664</ele><time>2026-04-26T11:15:53.525Z</time></trkpt><trkpt lat="43.933535" lon="12.7191333"><ele>28.5</ele><time>2026-04-26T11:15:54.525Z</time></trkpt><trkpt lat="43.9334783" lon="12.719225"><ele>28.333333333333336</ele><time>2026-04-26T11:15:55.524Z</time></trkpt><trkpt lat="43.933425" lon="12.71931"><ele>28.166666666666668</ele><time>2026-04-26T11:15:56.525Z</time></trkpt><trkpt lat="43.9333833" lon="12.719385"><ele>28.0</ele><time>2026-04-26T11:15:57.525Z</time></trkpt><trkpt lat="43.93339" lon="12.71954"><ele>27.799999999999997</ele><time>2026-04-26T11:15:59.525Z</time></trkpt><trkpt lat="43.93343" lon="12.7196167"><ele>27.599999999999998</ele><time>2026-04-26T11:16:00.525Z</time></trkpt><trkpt lat="43.9334883" lon="12.7197"><ele>27.400000000000002</ele><time>2026-04-26T11:16:01.524Z</time></trkpt><trkpt lat="43.9335517" lon="12.7198083"><ele>27.200000000000003</ele><time>2026-04-26T11:16:02.525Z</time></trkpt><trkpt lat="43.93363" lon="12.7199383"><ele>27.0</ele><time>2026-04-26T11:16:03.525Z</time></trkpt><trkpt lat="43.9337133" lon="12.7200733"><ele>27.0</ele><time>2026-04-26T11:16:04.525Z</time></trkpt><trkpt lat="43.933805" lon="12.7202133"><ele>27.0</ele><time>2026-04-26T11:16:05.525Z</time></trkpt><trkpt lat="43.9339017" lon="12.7203583"><ele>27.0</ele><time>2026-04-26T11:16:06.525Z</time></trkpt><trkpt lat="43.9340017" lon="12.720505"><ele>27.0</ele><time>2026-04-26T11:16:07.525Z</time></trkpt><trkpt lat="43.9341033" lon="12.7206533"><ele>26.666666666666664</ele><time>2026-04-26T11:16:08.525Z</time></trkpt><trkpt lat="43.934205" lon="12.7208033"><ele>26.333333333333332</ele><time>2026-04-26T11:16:09.525Z</time></trkpt><trkpt lat="43.9343083" lon="12.7209617"><ele>26.0</ele><time>2026-04-26T11:16:10.525Z</time></trkpt><trkpt lat="43.9344067" lon="12.7211267"><ele>25.5</ele><time>2026-04-26T11:16:11.525Z</time></trkpt><trkpt lat="43.934495" lon="12.721285"><ele>25.0</ele><time>2026-04-26T11:16:12.525Z</time></trkpt><trkpt lat="43.9345767" lon="12.7214417"><ele>24.5</ele><time>2026-04-26T11:16:13.525Z</time></trkpt><trkpt lat="43.934655" lon="12.7216"><ele>24.0</ele><time>2026-04-26T11:16:14.525Z</time></trkpt><trkpt lat="43.9347383" lon="12.72176"><ele>24.0</ele><time>2026-04-26T11:16:15.524Z</time></trkpt><trkpt lat="43.9348283" lon="12.72192"><ele>24.0</ele><time>2026-04-26T11:16:16.525Z</time></trkpt><trkpt lat="43.9349183" lon="12.722085"><ele>24.0</ele><time>2026-04-26T11:16:17.525Z</time></trkpt><trkpt lat="43.935005" lon="12.7222433"><ele>24.0</ele><time>2026-04-26T11:16:18.525Z</time></trkpt><trkpt lat="43.9350867" lon="12.722395"><ele>24.0</ele><time>2026-04-26T11:16:19.525Z</time></trkpt><trkpt lat="43.935165" lon="12.72254"><ele>24.0</ele><time>2026-04-26T11:16:20.525Z</time></trkpt><trkpt lat="43.93524" lon="12.7226683"><ele>24.0</ele><time>2026-04-26T11:16:21.525Z</time></trkpt><trkpt lat="43.93531" lon="12.722805"><ele>24.0</ele><time>2026-04-26T11:16:22.525Z</time></trkpt><trkpt lat="43.93539" lon="12.7229517"><ele>24.0</ele><time>2026-04-26T11:16:23.525Z</time></trkpt><trkpt lat="43.93548" lon="12.7231"><ele>24.0</ele><time>2026-04-26T11:16:24.524Z</time></trkpt><trkpt lat="43.935575" lon="12.7232417"><ele>24.0</ele><time>2026-04-26T11:16:25.525Z</time></trkpt><trkpt lat="43.935685" lon="12.7233767"><ele>24.0</ele><time>2026-04-26T11:16:26.525Z</time></trkpt><trkpt lat="43.935795" lon="12.7235133"><ele>24.25</ele><time>2026-04-26T11:16:27.525Z</time></trkpt><trkpt lat="43.935905" lon="12.7236367"><ele>24.5</ele><time>2026-04-26T11:16:28.525Z</time></trkpt><trkpt lat="43.93601" lon="12.7237617"><ele>24.75</ele><time>2026-04-26T11:16:29.525Z</time></trkpt><trkpt lat="43.9361083" lon="12.723895"><ele>25.0</ele><time>2026-04-26T11:16:30.524Z</time></trkpt><trkpt lat="43.9361967" lon="12.7240333"><ele>25.0</ele><time>2026-04-26T11:16:31.525Z</time></trkpt><trkpt lat="43.936265" lon="12.72419"><ele>25.0</ele><time>2026-04-26T11:16:32.525Z</time></trkpt><trkpt lat="43.93632" lon="12.7243733"><ele>25.0</ele><time>2026-04-26T11:16:33.525Z</time></trkpt><trkpt lat="43.9363633" lon="12.724585"><ele>25.0</ele><time>2026-04-26T11:16:34.525Z</time></trkpt><trkpt lat="43.936405" lon="12.7248083"><ele>24.333333333333336</ele><time>2026-04-26T11:16:35.525Z</time></trkpt><trkpt lat="43.93645" lon="12.7250333"><ele>23.666666666666668</ele><time>2026-04-26T11:16:36.525Z</time></trkpt><trkpt lat="43.9365133" lon="12.725255"><ele>23.0</ele><time>2026-04-26T11:16:37.525Z</time></trkpt><trkpt lat="43.93659" lon="12.7254617"><ele>23.333333333333336</ele><time>2026-04-26T11:16:38.524Z</time></trkpt><trkpt lat="43.9366783" lon="12.7256667"><ele>23.666666666666668</ele><time>2026-04-26T11:16:39.525Z</time></trkpt><trkpt lat="43.93677" lon="12.7258733"><ele>24.0</ele><time>2026-04-26T11:16:40.524Z</time></trkpt><trkpt lat="43.9368583" lon="12.7260833"><ele>23.333333333333332</ele><time>2026-04-26T11:16:41.525Z</time></trkpt><trkpt lat="43.936935" lon="12.7262867"><ele>22.666666666666664</ele><time>2026-04-26T11:16:42.525Z</time></trkpt><trkpt lat="43.937005" lon="12.7264767"><ele>22.0</ele><time>2026-04-26T11:16:43.525Z</time></trkpt><trkpt lat="43.9370767" lon="12.7266533"><ele>22.0</ele><time>2026-04-26T11:16:44.525Z</time></trkpt><trkpt lat="43.9371567" lon="12.7268267"><ele>22.0</ele><time>2026-04-26T11:16:45.525Z</time></trkpt><trkpt lat="43.93724" lon="12.727005"><ele>22.0</ele><time>2026-04-26T11:16:46.525Z</time></trkpt><trkpt lat="43.93733" lon="12.7271883"><ele>22.0</ele><time>2026-04-26T11:16:47.525Z</time></trkpt><trkpt lat="43.9374133" lon="12.7273583"><ele>22.0</ele><time>2026-04-26T11:16:48.525Z</time></trkpt><trkpt lat="43.9374917" lon="12.7275183"><ele>22.0</ele><time>2026-04-26T11:16:49.524Z</time></trkpt><trkpt lat="43.9375667" lon="12.7276617"><ele>22.0</ele><time>2026-04-26T11:16:50.524Z</time></trkpt><trkpt lat="43.937625" lon="12.727785"><ele>21.8</ele><time>2026-04-26T11:16:51.524Z</time></trkpt><trkpt lat="43.93767" lon="12.7278867"><ele>21.6</ele><time>2026-04-26T11:16:52.525Z</time></trkpt><trkpt lat="43.93772" lon="12.7279617"><ele>21.400000000000002</ele><time>2026-04-26T11:16:53.525Z</time></trkpt><trkpt lat="43.93784" lon="12.7279767"><ele>21.200000000000003</ele><time>2026-04-26T11:16:55.525Z</time></trkpt><trkpt lat="43.9379167" lon="12.727915"><ele>21.0</ele><time>2026-04-26T11:16:56.525Z</time></trkpt><trkpt lat="43.93801" lon="12.7278067"><ele>21.0</ele><time>2026-04-26T11:16:57.525Z</time></trkpt><trkpt lat="43.93812" lon="12.727685"><ele>21.0</ele><time>2026-04-26T11:16:58.525Z</time></trkpt><trkpt lat="43.9382383" lon="12.7275617"><ele>21.0</ele><time>2026-04-26T11:16:59.525Z</time></trkpt><trkpt lat="43.9383667" lon="12.72744"><ele>21.0</ele><time>2026-04-26T11:17:00.524Z</time></trkpt><trkpt lat="43.9384883" lon="12.7273217"><ele>21.0</ele><time>2026-04-26T11:17:01.525Z</time></trkpt><trkpt lat="43.9386" lon="12.7272033"><ele>21.0</ele><time>2026-04-26T11:17:02.524Z</time></trkpt><trkpt lat="43.9387017" lon="12.7270783"><ele>21.0</ele><time>2026-04-26T11:17:03.524Z</time></trkpt><trkpt lat="43.9387867" lon="12.7269333"><ele>21.0</ele><time>2026-04-26T11:17:04.524Z</time></trkpt><trkpt lat="43.93886" lon="12.7267683"><ele>21.666666666666668</ele><time>2026-04-26T11:17:05.525Z</time></trkpt><trkpt lat="43.9389267" lon="12.726575"><ele>22.333333333333336</ele><time>2026-04-26T11:17:06.524Z</time></trkpt><trkpt lat="43.93899" lon="12.72637"><ele>23.0</ele><time>2026-04-26T11:17:07.525Z</time></trkpt><trkpt lat="43.9390517" lon="12.7261717"><ele>22.75</ele><time>2026-04-26T11:17:08.525Z</time></trkpt><trkpt lat="43.93912" lon="12.725995"><ele>22.5</ele><time>2026-04-26T11:17:09.525Z</time></trkpt><trkpt lat="43.9391883" lon="12.7258217"><ele>22.25</ele><time>2026-04-26T11:17:10.524Z</time></trkpt><trkpt lat="43.9392617" lon="12.7256533"><ele>22.0</ele><time>2026-04-26T11:17:11.525Z</time></trkpt><trkpt lat="43.939325" lon="12.72549"><ele>21.75</ele><time>2026-04-26T11:17:12.525Z</time></trkpt><trkpt lat="43.9394033" lon="12.7253483"><ele>21.5</ele><time>2026-04-26T11:17:13.525Z</time></trkpt><trkpt lat="43.939505" lon="12.7252167"><ele>21.25</ele><time>2026-04-26T11:17:14.524Z</time></trkpt><trkpt lat="43.9396267" lon="12.725095"><ele>21.0</ele><time>2026-04-26T11:17:15.525Z</time></trkpt><trkpt lat="43.9397533" lon="12.7249667"><ele>21.0</ele><time>2026-04-26T11:17:16.525Z</time></trkpt><trkpt lat="43.93987" lon="12.72485"><ele>21.0</ele><time>2026-04-26T11:17:17.524Z</time></trkpt><trkpt lat="43.9399817" lon="12.724735"><ele>21.0</ele><time>2026-04-26T11:17:18.524Z</time></trkpt><trkpt lat="43.9400883" lon="12.7246267"><ele>21.0</ele><time>2026-04-26T11:17:19.525Z</time></trkpt><trkpt lat="43.9401817" lon="12.7245067"><ele>21.0</ele><time>2026-04-26T11:17:20.525Z</time></trkpt><trkpt lat="43.9402617" lon="12.72437"><ele>21.0</ele><time>2026-04-26T11:17:21.525Z</time></trkpt><trkpt lat="43.94032" lon="12.7242083"><ele>21.0</ele><time>2026-04-26T11:17:22.525Z</time></trkpt><trkpt lat="43.9403767" lon="12.7240183"><ele>21.0</ele><time>2026-04-26T11:17:23.525Z</time></trkpt><trkpt lat="43.940425" lon="12.7238317"><ele>21.0</ele><time>2026-04-26T11:17:24.525Z</time></trkpt><trkpt lat="43.9404833" lon="12.72367"><ele>21.0</ele><time>2026-04-26T11:17:25.525Z</time></trkpt><trkpt lat="43.9405533" lon="12.72353"><ele>21.0</ele><time>2026-04-26T11:17:26.525Z</time></trkpt><trkpt lat="43.94062" lon="12.7234017"><ele>21.0</ele><time>2026-04-26T11:17:27.525Z</time></trkpt><trkpt lat="43.9406817" lon="12.7232883"><ele>21.0</ele><time>2026-04-26T11:17:28.524Z</time></trkpt><trkpt lat="43.940735" lon="12.7232033"><ele>21.0</ele><time>2026-04-26T11:17:29.524Z</time></trkpt><trkpt lat="43.94079" lon="12.72315"><ele>21.0</ele><time>2026-04-26T11:17:30.525Z</time></trkpt><trkpt lat="43.94085" lon="12.7231033"><ele>21.0</ele><time>2026-04-26T11:17:31.524Z</time></trkpt><trkpt lat="43.940915" lon="12.7230467"><ele>21.0</ele><time>2026-04-26T11:17:32.525Z</time></trkpt><trkpt lat="43.94098" lon="12.723"><ele>21.0</ele><time>2026-04-26T11:17:33.525Z</time></trkpt><trkpt lat="43.9410433" lon="12.7229533"><ele>21.0</ele><time>2026-04-26T11:17:34.524Z</time></trkpt><trkpt lat="43.9410983" lon="12.7229017"><ele>21.333333333333332</ele><time>2026-04-26T11:17:35.525Z</time></trkpt><trkpt lat="43.9411767" lon="12.7228733"><ele>21.666666666666668</ele><time>2026-04-26T11:17:37.525Z</time></trkpt><trkpt lat="43.941195" lon="12.7229583"><ele>22.0</ele><time>2026-04-26T11:17:39.525Z</time></trkpt><trkpt lat="43.9411033" lon="12.723065"><ele>22.333333333333336</ele><time>2026-04-26T11:17:41.525Z</time></trkpt><trkpt lat="43.9410383" lon="12.7231433"><ele>22.666666666666668</ele><time>2026-04-26T11:17:42.525Z</time></trkpt><trkpt lat="43.9409733" lon="12.7232383"><ele>23.0</ele><time>2026-04-26T11:17:43.525Z</time></trkpt><trkpt lat="43.9409083" lon="12.7233233"><ele>22.599999999999998</ele><time>2026-04-26T11:17:44.525Z</time></trkpt><trkpt lat="43.9408333" lon="12.723415"><ele>22.2</ele><time>2026-04-26T11:17:45.525Z</time></trkpt><trkpt lat="43.940765" lon="12.72351"><ele>21.8</ele><time>2026-04-26T11:17:46.525Z</time></trkpt><trkpt lat="43.9406983" lon="12.7235933"><ele>21.4</ele><time>2026-04-26T11:17:47.525Z</time></trkpt><trkpt lat="43.9406367" lon="12.7236667"><ele>21.0</ele><time>2026-04-26T11:17:48.525Z</time></trkpt><trkpt lat="43.9405633" lon="12.7237767"><ele>21.0</ele><time>2026-04-26T11:17:50.525Z</time></trkpt><trkpt lat="43.9405633" lon="12.72387"><ele>21.0</ele><time>2026-04-26T11:17:52.525Z</time></trkpt><trkpt lat="43.9405667" lon="12.7239767"><ele>21.0</ele><time>2026-04-26T11:17:54.525Z</time></trkpt><trkpt lat="43.9406083" lon="12.7241067"><ele>21.0</ele><time>2026-04-26T11:17:56.524Z</time></trkpt><trkpt lat="43.9406567" lon="12.7241883"><ele>21.0</ele><time>2026-04-26T11:17:57.525Z</time></trkpt><trkpt lat="43.94072" lon="12.72429"><ele>21.0</ele><time>2026-04-26T11:17:58.525Z</time></trkpt><trkpt lat="43.94079" lon="12.7244117"><ele>21.200000000000003</ele><time>2026-04-26T11:17:59.525Z</time></trkpt><trkpt lat="43.9408633" lon="12.7245267"><ele>21.400000000000002</ele><time>2026-04-26T11:18:00.525Z</time></trkpt><trkpt lat="43.940925" lon="12.7246333"><ele>21.6</ele><time>2026-04-26T11:18:01.524Z</time></trkpt><trkpt lat="43.94099" lon="12.7247533"><ele>21.8</ele><time>2026-04-26T11:18:02.525Z</time></trkpt><trkpt lat="43.9410517" lon="12.724865"><ele>22.0</ele><time>2026-04-26T11:18:03.524Z</time></trkpt><trkpt lat="43.9411217" lon="12.724975"><ele>22.0</ele><time>2026-04-26T11:18:04.525Z</time></trkpt><trkpt lat="43.9411833" lon="12.72508"><ele>22.0</ele><time>2026-04-26T11:18:05.525Z</time></trkpt><trkpt lat="43.9412533" lon="12.72519"><ele>22.0</ele><time>2026-04-26T11:18:06.525Z</time></trkpt><trkpt lat="43.9413233" lon="12.7252967"><ele>22.0</ele><time>2026-04-26T11:18:07.525Z</time></trkpt><trkpt lat="43.9413817" lon="12.7253933"><ele>22.0</ele><time>2026-04-26T11:18:08.524Z</time></trkpt><trkpt lat="43.9414383" lon="12.7254967"><ele>22.0</ele><time>2026-04-26T11:18:09.525Z</time></trkpt><trkpt lat="43.941495" lon="12.7256067"><ele>22.0</ele><time>2026-04-26T11:18:10.525Z</time></trkpt><trkpt lat="43.941555" lon="12.7257117"><ele>22.0</ele><time>2026-04-26T11:18:11.524Z</time></trkpt><trkpt lat="43.9416067" lon="12.7257983"><ele>22.0</ele><time>2026-04-26T11:18:12.524Z</time></trkpt><trkpt lat="43.941665" lon="12.7258617"><ele>22.0</ele><time>2026-04-26T11:18:13.525Z</time></trkpt><trkpt lat="43.9417283" lon="12.7259"><ele>22.0</ele><time>2026-04-26T11:18:14.524Z</time></trkpt><trkpt lat="43.9417883" lon="12.7259283"><ele>22.0</ele><time>2026-04-26T11:18:15.525Z</time></trkpt><trkpt lat="43.9418717" lon="12.7260317"><ele>22.0</ele><time>2026-04-26T11:18:17.525Z</time></trkpt><trkpt lat="43.9418917" lon="12.7261217"><ele>22.0</ele><time>2026-04-26T11:18:18.525Z</time></trkpt><trkpt lat="43.9419017" lon="12.72622"><ele>22.0</ele><time>2026-04-26T11:18:19.525Z</time></trkpt><trkpt lat="43.9419117" lon="12.7263267"><ele>22.0</ele><time>2026-04-26T11:18:20.525Z</time></trkpt><trkpt lat="43.9419183" lon="12.726445"><ele>22.0</ele><time>2026-04-26T11:18:21.524Z</time></trkpt><trkpt lat="43.941945" lon="12.726575"><ele>21.5</ele><time>2026-04-26T11:18:22.525Z</time></trkpt><trkpt lat="43.9419967" lon="12.726725"><ele>21.0</ele><time>2026-04-26T11:18:23.525Z</time></trkpt><trkpt lat="43.942075" lon="12.72689"><ele>20.5</ele><time>2026-04-26T11:18:24.525Z</time></trkpt><trkpt lat="43.9421783" lon="12.7270683"><ele>20.0</ele><time>2026-04-26T11:18:25.525Z</time></trkpt><trkpt lat="43.9422917" lon="12.727265"><ele>20.0</ele><time>2026-04-26T11:18:26.525Z</time></trkpt><trkpt lat="43.9424083" lon="12.727475"><ele>20.0</ele><time>2026-04-26T11:18:27.525Z</time></trkpt><trkpt lat="43.9425233" lon="12.7276767"><ele>20.0</ele><time>2026-04-26T11:18:28.524Z</time></trkpt><trkpt lat="43.9426267" lon="12.7278667"><ele>20.333333333333336</ele><time>2026-04-26T11:18:29.524Z</time></trkpt><trkpt lat="43.9427333" lon="12.7280467"><ele>20.666666666666668</ele><time>2026-04-26T11:18:30.525Z</time></trkpt><trkpt lat="43.9428383" lon="12.7282233"><ele>21.0</ele><time>2026-04-26T11:18:31.525Z</time></trkpt><trkpt lat="43.9429367" lon="12.728395"><ele>21.0</ele><time>2026-04-26T11:18:32.525Z</time></trkpt><trkpt lat="43.94303" lon="12.7285567"><ele>21.0</ele><time>2026-04-26T11:18:33.525Z</time></trkpt><trkpt lat="43.9431267" lon="12.72873"><ele>21.0</ele><time>2026-04-26T11:18:34.525Z</time></trkpt><trkpt lat="43.9432217" lon="12.7289017"><ele>20.666666666666668</ele><time>2026-04-26T11:18:35.525Z</time></trkpt><trkpt lat="43.943325" lon="12.7290783"><ele>20.333333333333336</ele><time>2026-04-26T11:18:36.525Z</time></trkpt><trkpt lat="43.9434333" lon="12.7292583"><ele>20.0</ele><time>2026-04-26T11:18:37.525Z</time></trkpt><trkpt lat="43.9435383" lon="12.7294417"><ele>17.666666666666668</ele><time>2026-04-26T11:18:38.524Z</time></trkpt><trkpt lat="43.9436483" lon="12.7296283"><ele>15.333333333333332</ele><time>2026-04-26T11:18:39.524Z</time></trkpt><trkpt lat="43.9437567" lon="12.729815"><ele>13.0</ele><time>2026-04-26T11:18:40.524Z</time></trkpt><trkpt lat="43.94387" lon="12.7300083"><ele>13.0</ele><time>2026-04-26T11:18:41.524Z</time></trkpt><trkpt lat="43.94398" lon="12.7301983"><ele>13.0</ele><time>2026-04-26T11:18:42.524Z</time></trkpt><trkpt lat="43.9440883" lon="12.7303817"><ele>13.0</ele><time>2026-04-26T11:18:43.524Z</time></trkpt><trkpt lat="43.94419" lon="12.73055"><ele>14.0</ele><time>2026-04-26T11:18:44.524Z</time></trkpt><trkpt lat="43.9442883" lon="12.7307067"><ele>15.0</ele><time>2026-04-26T11:18:45.524Z</time></trkpt><trkpt lat="43.9443817" lon="12.730845"><ele>16.0</ele><time>2026-04-26T11:18:46.524Z</time></trkpt><trkpt lat="43.94447" lon="12.730965"><ele>17.0</ele><time>2026-04-26T11:18:47.524Z</time></trkpt><trkpt lat="43.94456" lon="12.73107"><ele>17.25</ele><time>2026-04-26T11:18:48.524Z</time></trkpt><trkpt lat="43.9446583" lon="12.7311683"><ele>17.5</ele><time>2026-04-26T11:18:49.524Z</time></trkpt><trkpt lat="43.94476" lon="12.73127"><ele>17.75</ele><time>2026-04-26T11:18:50.524Z</time></trkpt><trkpt lat="43.9448633" lon="12.7313767"><ele>18.0</ele><time>2026-04-26T11:18:51.524Z</time></trkpt><trkpt lat="43.944965" lon="12.7314817"><ele>18.0</ele><time>2026-04-26T11:18:52.524Z</time></trkpt><trkpt lat="43.9450583" lon="12.731585"><ele>18.0</ele><time>2026-04-26T11:18:53.524Z</time></trkpt><trkpt lat="43.9451483" lon="12.7316883"><ele>18.0</ele><time>2026-04-26T11:18:54.524Z</time></trkpt><trkpt lat="43.9452417" lon="12.731795"><ele>18.0</ele><time>2026-04-26T11:18:55.524Z</time></trkpt><trkpt lat="43.9453283" lon="12.7319133"><ele>17.6</ele><time>2026-04-26T11:18:56.523Z</time></trkpt><trkpt lat="43.9454183" lon="12.732025"><ele>17.200000000000003</ele><time>2026-04-26T11:18:57.524Z</time></trkpt><trkpt lat="43.9455083" lon="12.7321217"><ele>16.8</ele><time>2026-04-26T11:18:58.524Z</time></trkpt><trkpt lat="43.945595" lon="12.7322083"><ele>16.400000000000002</ele><time>2026-04-26T11:18:59.524Z</time></trkpt><trkpt lat="43.9456833" lon="12.7322617"><ele>16.0</ele><time>2026-04-26T11:19:00.523Z</time></trkpt><trkpt lat="43.9457817" lon="12.7323033"><ele>16.75</ele><time>2026-04-26T11:19:01.524Z</time></trkpt><trkpt lat="43.945895" lon="12.7323367"><ele>17.5</ele><time>2026-04-26T11:19:02.524Z</time></trkpt><trkpt lat="43.9459983" lon="12.7323733"><ele>18.25</ele><time>2026-04-26T11:19:03.523Z</time></trkpt><trkpt lat="43.9460967" lon="12.73244"><ele>19.0</ele><time>2026-04-26T11:19:04.523Z</time></trkpt><trkpt lat="43.9462083" lon="12.7325467"><ele>19.0</ele><time>2026-04-26T11:19:05.524Z</time></trkpt><trkpt lat="43.946315" lon="12.7326683"><ele>19.0</ele><time>2026-04-26T11:19:06.524Z</time></trkpt><trkpt lat="43.9464117" lon="12.73277"><ele>19.0</ele><time>2026-04-26T11:19:07.524Z</time></trkpt><trkpt lat="43.9464883" lon="12.73286"><ele>19.0</ele><time>2026-04-26T11:19:08.523Z</time></trkpt><trkpt lat="43.9465733" lon="12.73293"><ele>18.8</ele><time>2026-04-26T11:19:09.524Z</time></trkpt><trkpt lat="43.946655" lon="12.7329833"><ele>18.599999999999998</ele><time>2026-04-26T11:19:10.524Z</time></trkpt><trkpt lat="43.9467417" lon="12.7329967"><ele>18.4</ele><time>2026-04-26T11:19:11.523Z</time></trkpt><trkpt lat="43.94684" lon="12.7329783"><ele>18.2</ele><time>2026-04-26T11:19:12.524Z</time></trkpt><trkpt lat="43.94694" lon="12.7329467"><ele>18.0</ele><time>2026-04-26T11:19:13.523Z</time></trkpt><trkpt lat="43.9470267" lon="12.7329033"><ele>17.6</ele><time>2026-04-26T11:19:14.524Z</time></trkpt><trkpt lat="43.9471067" lon="12.73286"><ele>17.200000000000003</ele><time>2026-04-26T11:19:15.524Z</time></trkpt><trkpt lat="43.9471733" lon="12.7328433"><ele>16.8</ele><time>2026-04-26T11:19:16.524Z</time></trkpt><trkpt lat="43.9472467" lon="12.732905"><ele>16.400000000000002</ele><time>2026-04-26T11:19:18.523Z</time></trkpt><trkpt lat="43.9472433" lon="12.733095"><ele>16.0</ele><time>2026-04-26T11:19:20.523Z</time></trkpt><trkpt lat="43.9472167" lon="12.7332467"><ele>16.0</ele><time>2026-04-26T11:19:21.524Z</time></trkpt><trkpt lat="43.9471867" lon="12.73343"><ele>16.0</ele><time>2026-04-26T11:19:22.524Z</time></trkpt><trkpt lat="43.9471667" lon="12.7336067"><ele>16.0</ele><time>2026-04-26T11:19:23.523Z</time></trkpt><trkpt lat="43.94717" lon="12.7337683"><ele>16.0</ele><time>2026-04-26T11:19:24.524Z</time></trkpt><trkpt lat="43.947195" lon="12.7339217"><ele>16.0</ele><time>2026-04-26T11:19:25.524Z</time></trkpt><trkpt lat="43.9472583" lon="12.734085"><ele>16.0</ele><time>2026-04-26T11:19:26.524Z</time></trkpt><trkpt lat="43.947335" lon="12.7342533"><ele>16.0</ele><time>2026-04-26T11:19:27.524Z</time></trkpt><trkpt lat="43.947405" lon="12.73441"><ele>16.0</ele><time>2026-04-26T11:19:28.524Z</time></trkpt><trkpt lat="43.947455" lon="12.7345617"><ele>16.0</ele><time>2026-04-26T11:19:29.524Z</time></trkpt><trkpt lat="43.9474917" lon="12.7347033"><ele>16.0</ele><time>2026-04-26T11:19:30.523Z</time></trkpt><trkpt lat="43.9475117" lon="12.73485"><ele>16.0</ele><time>2026-04-26T11:19:31.523Z</time></trkpt><trkpt lat="43.947505" lon="12.7349867"><ele>16.0</ele><time>2026-04-26T11:19:32.524Z</time></trkpt><trkpt lat="43.9474783" lon="12.7351017"><ele>16.0</ele><time>2026-04-26T11:19:33.524Z</time></trkpt><trkpt lat="43.9474233" lon="12.7351983"><ele>16.0</ele><time>2026-04-26T11:19:34.524Z</time></trkpt><trkpt lat="43.9473317" lon="12.73528"><ele>16.0</ele><time>2026-04-26T11:19:35.524Z</time></trkpt><trkpt lat="43.9472167" lon="12.73535"><ele>16.0</ele><time>2026-04-26T11:19:36.523Z</time></trkpt><trkpt lat="43.9471217" lon="12.735405"><ele>16.0</ele><time>2026-04-26T11:19:37.524Z</time></trkpt><trkpt lat="43.9470667" lon="12.735475"><ele>16.0</ele><time>2026-04-26T11:19:38.524Z</time></trkpt><trkpt lat="43.9470417" lon="12.73557"><ele>16.0</ele><time>2026-04-26T11:19:39.524Z</time></trkpt><trkpt lat="43.9470483" lon="12.7356967"><ele>16.0</ele><time>2026-04-26T11:19:40.523Z</time></trkpt><trkpt lat="43.9470767" lon="12.7358583"><ele>16.0</ele><time>2026-04-26T11:19:41.523Z</time></trkpt><trkpt lat="43.9471367" lon="12.7360483"><ele>16.0</ele><time>2026-04-26T11:19:42.524Z</time></trkpt><trkpt lat="43.947215" lon="12.7362433"><ele>15.666666666666666</ele><time>2026-04-26T11:19:43.524Z</time></trkpt><trkpt lat="43.947305" lon="12.736455"><ele>15.333333333333332</ele><time>2026-04-26T11:19:44.523Z</time></trkpt><trkpt lat="43.947385" lon="12.73667"><ele>15.0</ele><time>2026-04-26T11:19:45.524Z</time></trkpt><trkpt lat="43.94746" lon="12.7368767"><ele>14.333333333333332</ele><time>2026-04-26T11:19:46.524Z</time></trkpt><trkpt lat="43.9475283" lon="12.73708"><ele>13.666666666666666</ele><time>2026-04-26T11:19:47.524Z</time></trkpt><trkpt lat="43.9475933" lon="12.737275"><ele>13.0</ele><time>2026-04-26T11:19:48.523Z</time></trkpt><trkpt lat="43.9476583" lon="12.7374717"><ele>13.0</ele><time>2026-04-26T11:19:49.524Z</time></trkpt><trkpt lat="43.94773" lon="12.737665"><ele>13.0</ele><time>2026-04-26T11:19:50.524Z</time></trkpt><trkpt lat="43.947805" lon="12.73786"><ele>13.0</ele><time>2026-04-26T11:19:51.524Z</time></trkpt><trkpt lat="43.9478783" lon="12.73806"><ele>13.0</ele><time>2026-04-26T11:19:52.523Z</time></trkpt><trkpt lat="43.9479483" lon="12.7382633"><ele>13.0</ele><time>2026-04-26T11:19:53.524Z</time></trkpt><trkpt lat="43.9480167" lon="12.7384667"><ele>13.0</ele><time>2026-04-26T11:19:54.523Z</time></trkpt><trkpt lat="43.9480883" lon="12.7386767"><ele>13.666666666666666</ele><time>2026-04-26T11:19:55.523Z</time></trkpt><trkpt lat="43.9481617" lon="12.738885"><ele>14.333333333333332</ele><time>2026-04-26T11:19:56.524Z</time></trkpt><trkpt lat="43.94823" lon="12.7390983"><ele>15.0</ele><time>2026-04-26T11:19:57.523Z</time></trkpt><trkpt lat="43.9483067" lon="12.739305"><ele>15.666666666666668</ele><time>2026-04-26T11:19:58.524Z</time></trkpt><trkpt lat="43.9483817" lon="12.7395067"><ele>16.333333333333336</ele><time>2026-04-26T11:19:59.524Z</time></trkpt><trkpt lat="43.9484533" lon="12.739695"><ele>17.0</ele><time>2026-04-26T11:20:00.523Z</time></trkpt><trkpt lat="43.94852" lon="12.7398817"><ele>17.0</ele><time>2026-04-26T11:20:01.524Z</time></trkpt><trkpt lat="43.94859" lon="12.7400683"><ele>17.0</ele><time>2026-04-26T11:20:02.524Z</time></trkpt><trkpt lat="43.94866" lon="12.740255"><ele>17.0</ele><time>2026-04-26T11:20:03.524Z</time></trkpt><trkpt lat="43.9487217" lon="12.740445"><ele>17.25</ele><time>2026-04-26T11:20:04.523Z</time></trkpt><trkpt lat="43.9487867" lon="12.7406317"><ele>17.5</ele><time>2026-04-26T11:20:05.524Z</time></trkpt><trkpt lat="43.9488467" lon="12.740825"><ele>17.75</ele><time>2026-04-26T11:20:06.523Z</time></trkpt><trkpt lat="43.948905" lon="12.7410133"><ele>18.0</ele><time>2026-04-26T11:20:07.524Z</time></trkpt><trkpt lat="43.9489633" lon="12.7411883"><ele>18.0</ele><time>2026-04-26T11:20:08.523Z</time></trkpt><trkpt lat="43.94902" lon="12.7413517"><ele>18.0</ele><time>2026-04-26T11:20:09.523Z</time></trkpt><trkpt lat="43.9490767" lon="12.7415117"><ele>18.0</ele><time>2026-04-26T11:20:10.523Z</time></trkpt><trkpt lat="43.9491383" lon="12.7416667"><ele>18.0</ele><time>2026-04-26T11:20:11.524Z</time></trkpt><trkpt lat="43.9491917" lon="12.7418083"><ele>17.4</ele><time>2026-04-26T11:20:12.524Z</time></trkpt><trkpt lat="43.9492433" lon="12.7419367"><ele>16.8</ele><time>2026-04-26T11:20:13.524Z</time></trkpt><trkpt lat="43.9492917" lon="12.742045"><ele>16.2</ele><time>2026-04-26T11:20:14.523Z</time></trkpt><trkpt lat="43.949315" lon="12.7421317"><ele>15.6</ele><time>2026-04-26T11:20:15.524Z</time></trkpt><trkpt lat="43.9493017" lon="12.7423067"><ele>15.0</ele><time>2026-04-26T11:20:17.524Z</time></trkpt><trkpt lat="43.9492883" lon="12.7424067"><ele>15.0</ele><time>2026-04-26T11:20:18.523Z</time></trkpt><trkpt lat="43.9493733" lon="12.742555"><ele>15.0</ele><time>2026-04-26T11:20:20.524Z</time></trkpt><trkpt lat="43.9494667" lon="12.7426167"><ele>15.0</ele><time>2026-04-26T11:20:21.524Z</time></trkpt><trkpt lat="43.94957" lon="12.7426933"><ele>15.0</ele><time>2026-04-26T11:20:22.524Z</time></trkpt><trkpt lat="43.9496867" lon="12.7428033"><ele>15.0</ele><time>2026-04-26T11:20:23.524Z</time></trkpt><trkpt lat="43.949815" lon="12.7429467"><ele>15.0</ele><time>2026-04-26T11:20:24.524Z</time></trkpt><trkpt lat="43.9499567" lon="12.7431133"><ele>15.0</ele><time>2026-04-26T11:20:25.524Z</time></trkpt><trkpt lat="43.9501083" lon="12.7433067"><ele>15.0</ele><time>2026-04-26T11:20:26.524Z</time></trkpt><trkpt lat="43.95026" lon="12.7435067"><ele>15.0</ele><time>2026-04-26T11:20:27.524Z</time></trkpt><trkpt lat="43.950415" lon="12.7437083"><ele>15.0</ele><time>2026-04-26T11:20:28.524Z</time></trkpt><trkpt lat="43.950565" lon="12.7439"><ele>14.0</ele><time>2026-04-26T11:20:29.523Z</time></trkpt><trkpt lat="43.9507017" lon="12.7440917"><ele>13.0</ele><time>2026-04-26T11:20:30.524Z</time></trkpt><trkpt lat="43.9508317" lon="12.7442633"><ele>12.0</ele><time>2026-04-26T11:20:31.524Z</time></trkpt><trkpt lat="43.9509567" lon="12.7444217"><ele>12.0</ele><time>2026-04-26T11:20:32.524Z</time></trkpt><trkpt lat="43.9510767" lon="12.7445633"><ele>12.0</ele><time>2026-04-26T11:20:33.523Z</time></trkpt><trkpt lat="43.9511767" lon="12.74468"><ele>12.0</ele><time>2026-04-26T11:20:34.524Z</time></trkpt><trkpt lat="43.95125" lon="12.7447767"><ele>12.0</ele><time>2026-04-26T11:20:35.524Z</time></trkpt><trkpt lat="43.9512983" lon="12.7448667"><ele>12.0</ele><time>2026-04-26T11:20:36.524Z</time></trkpt><trkpt lat="43.9512817" lon="12.7450417"><ele>12.0</ele><time>2026-04-26T11:20:38.523Z</time></trkpt><trkpt lat="43.9512133" lon="12.7451817"><ele>12.0</ele><time>2026-04-26T11:20:39.524Z</time></trkpt><trkpt lat="43.9511233" lon="12.74535"><ele>12.0</ele><time>2026-04-26T11:20:40.524Z</time></trkpt><trkpt lat="43.95105" lon="12.7454983"><ele>12.0</ele><time>2026-04-26T11:20:41.523Z</time></trkpt><trkpt lat="43.951005" lon="12.7456217"><ele>12.0</ele><time>2026-04-26T11:20:42.524Z</time></trkpt><trkpt lat="43.9509917" lon="12.7457217"><ele>12.0</ele><time>2026-04-26T11:20:43.524Z</time></trkpt><trkpt lat="43.9510083" lon="12.7458083"><ele>12.0</ele><time>2026-04-26T11:20:44.524Z</time></trkpt><trkpt lat="43.951075" lon="12.74589"><ele>12.0</ele><time>2026-04-26T11:20:45.523Z</time></trkpt><trkpt lat="43.95119" lon="12.7459733"><ele>11.333333333333334</ele><time>2026-04-26T11:20:46.524Z</time></trkpt><trkpt lat="43.9513433" lon="12.746055"><ele>10.666666666666668</ele><time>2026-04-26T11:20:47.524Z</time></trkpt><trkpt lat="43.9515167" lon="12.74614"><ele>10.0</ele><time>2026-04-26T11:20:48.524Z</time></trkpt><trkpt lat="43.95169" lon="12.7462167"><ele>9.666666666666668</ele><time>2026-04-26T11:20:49.524Z</time></trkpt><trkpt lat="43.9518483" lon="12.7462833"><ele>9.333333333333334</ele><time>2026-04-26T11:20:50.523Z</time></trkpt><trkpt lat="43.9519917" lon="12.7463333"><ele>9.0</ele><time>2026-04-26T11:20:51.524Z</time></trkpt><trkpt lat="43.9521217" lon="12.7463933"><ele>9.0</ele><time>2026-04-26T11:20:52.524Z</time></trkpt><trkpt lat="43.9522317" lon="12.74646"><ele>9.0</ele><time>2026-04-26T11:20:53.524Z</time></trkpt><trkpt lat="43.9523183" lon="12.74655"><ele>9.0</ele><time>2026-04-26T11:20:54.524Z</time></trkpt><trkpt lat="43.9523967" lon="12.746665"><ele>9.0</ele><time>2026-04-26T11:20:55.524Z</time></trkpt><trkpt lat="43.95247" lon="12.7467983"><ele>9.0</ele><time>2026-04-26T11:20:56.524Z</time></trkpt><trkpt lat="43.9525167" lon="12.7469433"><ele>9.0</ele><time>2026-04-26T11:20:57.524Z</time></trkpt><trkpt lat="43.9525367" lon="12.7470983"><ele>9.0</ele><time>2026-04-26T11:20:58.524Z</time></trkpt><trkpt lat="43.9525483" lon="12.7472433"><ele>9.0</ele><time>2026-04-26T11:20:59.524Z</time></trkpt><trkpt lat="43.952575" lon="12.747375"><ele>9.0</ele><time>2026-04-26T11:21:00.524Z</time></trkpt><trkpt lat="43.95263" lon="12.7474767"><ele>9.25</ele><time>2026-04-26T11:21:01.524Z</time></trkpt><trkpt lat="43.952715" lon="12.7475633"><ele>9.5</ele><time>2026-04-26T11:21:02.524Z</time></trkpt><trkpt lat="43.9528283" lon="12.74765"><ele>9.75</ele><time>2026-04-26T11:21:03.524Z</time></trkpt><trkpt lat="43.9529333" lon="12.74773"><ele>10.0</ele><time>2026-04-26T11:21:04.524Z</time></trkpt><trkpt lat="43.9530933" lon="12.747835"><ele>10.0</ele><time>2026-04-26T11:21:05.523Z</time></trkpt><trkpt lat="43.953205" lon="12.7479117"><ele>10.0</ele><time>2026-04-26T11:21:06.523Z</time></trkpt><trkpt lat="43.9533183" lon="12.747975"><ele>10.0</ele><time>2026-04-26T11:21:07.523Z</time></trkpt><trkpt lat="43.95341" lon="12.7480433"><ele>10.0</ele><time>2026-04-26T11:21:08.523Z</time></trkpt><trkpt lat="43.9535117" lon="12.748125"><ele>10.25</ele><time>2026-04-26T11:21:09.524Z</time></trkpt><trkpt lat="43.953645" lon="12.74822"><ele>10.5</ele><time>2026-04-26T11:21:10.524Z</time></trkpt><trkpt lat="43.9537717" lon="12.7483283"><ele>10.75</ele><time>2026-04-26T11:21:11.524Z</time></trkpt><trkpt lat="43.9539" lon="12.7484367"><ele>11.0</ele><time>2026-04-26T11:21:12.524Z</time></trkpt><trkpt lat="43.9540217" lon="12.7485383"><ele>11.0</ele><time>2026-04-26T11:21:13.524Z</time></trkpt><trkpt lat="43.9541383" lon="12.7486483"><ele>11.0</ele><time>2026-04-26T11:21:14.524Z</time></trkpt><trkpt lat="43.9542583" lon="12.7487783"><ele>11.0</ele><time>2026-04-26T11:21:15.524Z</time></trkpt><trkpt lat="43.9543833" lon="12.7489267"><ele>11.0</ele><time>2026-04-26T11:21:16.524Z</time></trkpt><trkpt lat="43.9544983" lon="12.74907"><ele>11.0</ele><time>2026-04-26T11:21:17.524Z</time></trkpt><trkpt lat="43.9546017" lon="12.74921"><ele>11.0</ele><time>2026-04-26T11:21:18.524Z</time></trkpt><trkpt lat="43.9547067" lon="12.74934"><ele>11.0</ele><time>2026-04-26T11:21:19.523Z</time></trkpt><trkpt lat="43.9548117" lon="12.749465"><ele>10.75</ele><time>2026-04-26T11:21:20.523Z</time></trkpt><trkpt lat="43.95491" lon="12.7495867"><ele>10.5</ele><time>2026-04-26T11:21:21.524Z</time></trkpt><trkpt lat="43.9550083" lon="12.7496967"><ele>10.25</ele><time>2026-04-26T11:21:22.524Z</time></trkpt><trkpt lat="43.9551017" lon="12.7497683"><ele>10.0</ele><time>2026-04-26T11:21:23.524Z</time></trkpt><trkpt lat="43.95519" lon="12.7497933"><ele>10.0</ele><time>2026-04-26T11:21:24.524Z</time></trkpt><trkpt lat="43.95527" lon="12.7497733"><ele>10.0</ele><time>2026-04-26T11:21:25.523Z</time></trkpt><trkpt lat="43.9553533" lon="12.749705"><ele>10.0</ele><time>2026-04-26T11:21:26.524Z</time></trkpt><trkpt lat="43.95543" lon="12.7495883"><ele>10.0</ele><time>2026-04-26T11:21:27.524Z</time></trkpt><trkpt lat="43.9555083" lon="12.7494283"><ele>10.0</ele><time>2026-04-26T11:21:28.524Z</time></trkpt><trkpt lat="43.955585" lon="12.7492233"><ele>10.0</ele><time>2026-04-26T11:21:29.523Z</time></trkpt><trkpt lat="43.9556667" lon="12.749025"><ele>10.0</ele><time>2026-04-26T11:21:30.524Z</time></trkpt><trkpt lat="43.955755" lon="12.7488333"><ele>10.0</ele><time>2026-04-26T11:21:31.524Z</time></trkpt><trkpt lat="43.9558333" lon="12.74865"><ele>10.25</ele><time>2026-04-26T11:21:32.524Z</time></trkpt><trkpt lat="43.9559133" lon="12.748485"><ele>10.5</ele><time>2026-04-26T11:21:33.524Z</time></trkpt><trkpt lat="43.956" lon="12.74834"><ele>10.75</ele><time>2026-04-26T11:21:34.523Z</time></trkpt><trkpt lat="43.95609" lon="12.7482283"><ele>11.0</ele><time>2026-04-26T11:21:35.524Z</time></trkpt><trkpt lat="43.9561783" lon="12.74815"><ele>11.0</ele><time>2026-04-26T11:21:36.523Z</time></trkpt><trkpt lat="43.95627" lon="12.7480967"><ele>11.0</ele><time>2026-04-26T11:21:37.524Z</time></trkpt><trkpt lat="43.95636" lon="12.748075"><ele>11.0</ele><time>2026-04-26T11:21:38.524Z</time></trkpt><trkpt lat="43.9564483" lon="12.7480867"><ele>11.0</ele><time>2026-04-26T11:21:39.524Z</time></trkpt><trkpt lat="43.95655" lon="12.748135"><ele>11.0</ele><time>2026-04-26T11:21:40.524Z</time></trkpt><trkpt lat="43.9566683" lon="12.74823"><ele>11.0</ele><time>2026-04-26T11:21:41.524Z</time></trkpt><trkpt lat="43.9567933" lon="12.7483783"><ele>11.0</ele><time>2026-04-26T11:21:42.524Z</time></trkpt><trkpt lat="43.9569267" lon="12.7485383"><ele>11.0</ele><time>2026-04-26T11:21:43.524Z</time></trkpt><trkpt lat="43.95707" lon="12.74869"><ele>10.333333333333332</ele><time>2026-04-26T11:21:44.524Z</time></trkpt><trkpt lat="43.957205" lon="12.74883"><ele>9.666666666666666</ele><time>2026-04-26T11:21:45.523Z</time></trkpt><trkpt lat="43.957325" lon="12.7489667"><ele>9.0</ele><time>2026-04-26T11:21:46.524Z</time></trkpt><trkpt lat="43.9574367" lon="12.749115"><ele>8.5</ele><time>2026-04-26T11:21:47.523Z</time></trkpt><trkpt lat="43.9575383" lon="12.749265"><ele>8.0</ele><time>2026-04-26T11:21:48.524Z</time></trkpt><trkpt lat="43.957645" lon="12.7494033"><ele>7.5</ele><time>2026-04-26T11:21:49.524Z</time></trkpt><trkpt lat="43.95775" lon="12.7495233"><ele>7.0</ele><time>2026-04-26T11:21:50.524Z</time></trkpt><trkpt lat="43.957875" lon="12.7496533"><ele>7.0</ele><time>2026-04-26T11:21:51.524Z</time></trkpt><trkpt lat="43.95798" lon="12.74977"><ele>7.0</ele><time>2026-04-26T11:21:52.523Z</time></trkpt><trkpt lat="43.9581017" lon="12.74986"><ele>7.0</ele><time>2026-04-26T11:21:53.523Z</time></trkpt><trkpt lat="43.958215" lon="12.749935"><ele>7.0</ele><time>2026-04-26T11:21:54.524Z</time></trkpt><trkpt lat="43.9583033" lon="12.7500217"><ele>7.000000000000001</ele><time>2026-04-26T11:21:55.523Z</time></trkpt><trkpt lat="43.9583967" lon="12.750095"><ele>7.0</ele><time>2026-04-26T11:21:56.524Z</time></trkpt><trkpt lat="43.95847" lon="12.75017"><ele>7.0</ele><time>2026-04-26T11:21:57.524Z</time></trkpt><trkpt lat="43.9585367" lon="12.7502333"><ele>7.0</ele><time>2026-04-26T11:21:58.524Z</time></trkpt><trkpt lat="43.9585967" lon="12.7502767"><ele>7.000000000000001</ele><time>2026-04-26T11:21:59.524Z</time></trkpt><trkpt lat="43.95866" lon="12.75029"><ele>7.0</ele><time>2026-04-26T11:22:00.524Z</time></trkpt><trkpt lat="43.9587217" lon="12.75027"><ele>7.0</ele><time>2026-04-26T11:22:01.524Z</time></trkpt><trkpt lat="43.9587917" lon="12.75022"><ele>6.999999999999999</ele><time>2026-04-26T11:22:02.523Z</time></trkpt><trkpt lat="43.9588767" lon="12.7501833"><ele>6.999999999999999</ele><time>2026-04-26T11:22:03.523Z</time></trkpt><trkpt lat="43.958995" lon="12.7501817"><ele>7.0</ele><time>2026-04-26T11:22:04.523Z</time></trkpt><trkpt lat="43.9591233" lon="12.75022"><ele>7.0</ele><time>2026-04-26T11:22:05.524Z</time></trkpt><trkpt lat="43.9592483" lon="12.750265"><ele>7.75</ele><time>2026-04-26T11:22:06.523Z</time></trkpt><trkpt lat="43.9593717" lon="12.7503117"><ele>8.5</ele><time>2026-04-26T11:22:07.524Z</time></trkpt><trkpt lat="43.9594867" lon="12.75035"><ele>9.25</ele><time>2026-04-26T11:22:08.524Z</time></trkpt><trkpt lat="43.9595883" lon="12.75038"><ele>10.0</ele><time>2026-04-26T11:22:09.524Z</time></trkpt><trkpt lat="43.9596917" lon="12.750385"><ele>10.0</ele><time>2026-04-26T11:22:10.524Z</time></trkpt><trkpt lat="43.9597783" lon="12.7503667"><ele>10.0</ele><time>2026-04-26T11:22:11.523Z</time></trkpt><trkpt lat="43.9598617" lon="12.7503483"><ele>10.0</ele><time>2026-04-26T11:22:12.524Z</time></trkpt><trkpt lat="43.95993" lon="12.7503483"><ele>10.0</ele><time>2026-04-26T11:22:13.524Z</time></trkpt><trkpt lat="43.9599967" lon="12.7503633"><ele>10.0</ele><time>2026-04-26T11:22:14.524Z</time></trkpt><trkpt lat="43.9600633" lon="12.7503833"><ele>10.0</ele><time>2026-04-26T11:22:16.524Z</time></trkpt><trkpt lat="43.96008" lon="12.7504917"><ele>9.75</ele><time>2026-04-26T11:22:18.523Z</time></trkpt><trkpt lat="43.960075" lon="12.7506017"><ele>9.5</ele><time>2026-04-26T11:22:19.524Z</time></trkpt><trkpt lat="43.9600617" lon="12.75076"><ele>9.25</ele><time>2026-04-26T11:22:20.523Z</time></trkpt><trkpt lat="43.960035" lon="12.75095"><ele>9.0</ele><time>2026-04-26T11:22:21.524Z</time></trkpt><trkpt lat="43.9600133" lon="12.75115"><ele>8.8</ele><time>2026-04-26T11:22:22.523Z</time></trkpt><trkpt lat="43.9599817" lon="12.7513217"><ele>8.600000000000001</ele><time>2026-04-26T11:22:23.524Z</time></trkpt><trkpt lat="43.9599583" lon="12.7514633"><ele>8.4</ele><time>2026-04-26T11:22:24.523Z</time></trkpt><trkpt lat="43.9599367" lon="12.7515883"><ele>8.200000000000001</ele><time>2026-04-26T11:22:25.524Z</time></trkpt><trkpt lat="43.959915" lon="12.7516983"><ele>8.0</ele><time>2026-04-26T11:22:26.524Z</time></trkpt><trkpt lat="43.9598967" lon="12.7517983"><ele>7.857142857142857</ele><time>2026-04-26T11:22:27.524Z</time></trkpt><trkpt lat="43.9598867" lon="12.7518967"><ele>7.7142857142857135</ele><time>2026-04-26T11:22:28.523Z</time></trkpt><trkpt lat="43.9598767" lon="12.7520017"><ele>7.571428571428571</ele><time>2026-04-26T11:22:29.524Z</time></trkpt><trkpt lat="43.95986" lon="12.7521017"><ele>7.428571428571429</ele><time>2026-04-26T11:22:30.524Z</time></trkpt><trkpt lat="43.959855" lon="12.7522"><ele>7.285714285714286</ele><time>2026-04-26T11:22:31.523Z</time></trkpt><trkpt lat="43.9598433" lon="12.7523033"><ele>7.142857142857142</ele><time>2026-04-26T11:22:32.524Z</time></trkpt><trkpt lat="43.9598317" lon="12.752415"><ele>7.0</ele><time>2026-04-26T11:22:33.524Z</time></trkpt><trkpt lat="43.9598233" lon="12.7525317"><ele>7.0</ele><time>2026-04-26T11:22:34.524Z</time></trkpt><trkpt lat="43.9598117" lon="12.7526467"><ele>6.999999999999999</ele><time>2026-04-26T11:22:35.523Z</time></trkpt><trkpt lat="43.9598033" lon="12.7527667"><ele>6.999999999999999</ele><time>2026-04-26T11:22:36.524Z</time></trkpt><trkpt lat="43.959795" lon="12.7528933"><ele>7.0</ele><time>2026-04-26T11:22:37.524Z</time></trkpt><trkpt lat="43.9597867" lon="12.7530383"><ele>7.0</ele><time>2026-04-26T11:22:38.524Z</time></trkpt><trkpt lat="43.9597733" lon="12.7531833"><ele>6.75</ele><time>2026-04-26T11:22:39.524Z</time></trkpt><trkpt lat="43.9597633" lon="12.7533433"><ele>6.5</ele><time>2026-04-26T11:22:40.524Z</time></trkpt><trkpt lat="43.9597517" lon="12.7535067"><ele>6.25</ele><time>2026-04-26T11:22:41.523Z</time></trkpt><trkpt lat="43.95973" lon="12.753655"><ele>6.0</ele><time>2026-04-26T11:22:42.523Z</time></trkpt><trkpt lat="43.95971" lon="12.7538033"><ele>6.0</ele><time>2026-04-26T11:22:43.524Z</time></trkpt><trkpt lat="43.9596983" lon="12.7539533"><ele>6.0</ele><time>2026-04-26T11:22:44.524Z</time></trkpt><trkpt lat="43.9596833" lon="12.7541133"><ele>6.0</ele><time>2026-04-26T11:22:45.523Z</time></trkpt><trkpt lat="43.959675" lon="12.7542817"><ele>6.0</ele><time>2026-04-26T11:22:46.524Z</time></trkpt><trkpt lat="43.9596617" lon="12.7544517"><ele>6.75</ele><time>2026-04-26T11:22:47.523Z</time></trkpt><trkpt lat="43.9596467" lon="12.7546217"><ele>7.5</ele><time>2026-04-26T11:22:48.524Z</time></trkpt><trkpt lat="43.9596367" lon="12.7547917"><ele>8.25</ele><time>2026-04-26T11:22:49.523Z</time></trkpt><trkpt lat="43.95962" lon="12.75496"><ele>9.0</ele><time>2026-04-26T11:22:50.523Z</time></trkpt><trkpt lat="43.9596017" lon="12.7551183"><ele>9.0</ele><time>2026-04-26T11:22:51.524Z</time></trkpt><trkpt lat="43.959585" lon="12.755275"><ele>9.0</ele><time>2026-04-26T11:22:52.524Z</time></trkpt><trkpt lat="43.9595717" lon="12.7554167"><ele>9.0</ele><time>2026-04-26T11:22:53.523Z</time></trkpt><trkpt lat="43.95956" lon="12.7555567"><ele>9.0</ele><time>2026-04-26T11:22:54.524Z</time></trkpt><trkpt lat="43.95955" lon="12.75568"><ele>9.0</ele><time>2026-04-26T11:22:55.524Z</time></trkpt><trkpt lat="43.9595383" lon="12.7558033"><ele>9.0</ele><time>2026-04-26T11:22:56.524Z</time></trkpt><trkpt lat="43.9595267" lon="12.755905"><ele>9.0</ele><time>2026-04-26T11:22:57.524Z</time></trkpt><trkpt lat="43.9595133" lon="12.75605"><ele>9.0</ele><time>2026-04-26T11:22:59.524Z</time></trkpt><trkpt lat="43.9594917" lon="12.7561667"><ele>9.0</ele><time>2026-04-26T11:23:02.524Z</time></trkpt><trkpt lat="43.9595167" lon="12.756255"><ele>9.0</ele><time>2026-04-26T11:23:04.523Z</time></trkpt><trkpt lat="43.9596283" lon="12.75629"><ele>9.0</ele><time>2026-04-26T11:23:06.524Z</time></trkpt><trkpt lat="43.9597267" lon="12.7562767"><ele>9.0</ele><time>2026-04-26T11:23:07.524Z</time></trkpt><trkpt lat="43.9598533" lon="12.75627"><ele>9.0</ele><time>2026-04-26T11:23:08.524Z</time></trkpt><trkpt lat="43.9599883" lon="12.756275"><ele>9.0</ele><time>2026-04-26T11:23:09.522Z</time></trkpt><trkpt lat="43.96014" lon="12.7562817"><ele>9.0</ele><time>2026-04-26T11:23:10.524Z</time></trkpt><trkpt lat="43.960285" lon="12.7563017"><ele>9.0</ele><time>2026-04-26T11:23:11.524Z</time></trkpt><trkpt lat="43.9604367" lon="12.756335"><ele>9.0</ele><time>2026-04-26T11:23:12.524Z</time></trkpt><trkpt lat="43.9605917" lon="12.7563483"><ele>9.0</ele><time>2026-04-26T11:23:13.524Z</time></trkpt><trkpt lat="43.9607433" lon="12.7563717"><ele>7.666666666666667</ele><time>2026-04-26T11:23:14.524Z</time></trkpt><trkpt lat="43.9609017" lon="12.75639"><ele>6.333333333333334</ele><time>2026-04-26T11:23:15.524Z</time></trkpt><trkpt lat="43.9610533" lon="12.756405"><ele>5.0</ele><time>2026-04-26T11:23:16.524Z</time></trkpt><trkpt lat="43.9611967" lon="12.7564183"><ele>5.0</ele><time>2026-04-26T11:23:17.524Z</time></trkpt><trkpt lat="43.9613533" lon="12.7564333"><ele>5.0</ele><time>2026-04-26T11:23:18.524Z</time></trkpt><trkpt lat="43.9615117" lon="12.7564567"><ele>5.0</ele><time>2026-04-26T11:23:19.524Z</time></trkpt><trkpt lat="43.961655" lon="12.7564783"><ele>5.25</ele><time>2026-04-26T11:23:20.524Z</time></trkpt><trkpt lat="43.9617883" lon="12.7564983"><ele>5.5</ele><time>2026-04-26T11:23:21.524Z</time></trkpt><trkpt lat="43.9619033" lon="12.7565117"><ele>5.75</ele><time>2026-04-26T11:23:22.524Z</time></trkpt><trkpt lat="43.96202" lon="12.756525"><ele>6.0</ele><time>2026-04-26T11:23:23.523Z</time></trkpt><trkpt lat="43.962115" lon="12.756535"><ele>6.0</ele><time>2026-04-26T11:23:24.523Z</time></trkpt><trkpt lat="43.9621983" lon="12.7565733"><ele>6.0</ele><time>2026-04-26T11:23:25.524Z</time></trkpt><trkpt lat="43.9622667" lon="12.7566367"><ele>6.0</ele><time>2026-04-26T11:23:26.524Z</time></trkpt><trkpt lat="43.96233" lon="12.7567033"><ele>6.0</ele><time>2026-04-26T11:23:27.523Z</time></trkpt><trkpt lat="43.9623817" lon="12.7567533"><ele>6.0</ele><time>2026-04-26T11:23:28.524Z</time></trkpt><trkpt lat="43.9625033" lon="12.7567317"><ele>6.0</ele><time>2026-04-26T11:23:30.524Z</time></trkpt><trkpt lat="43.962595" lon="12.7566783"><ele>6.5</ele><time>2026-04-26T11:23:31.524Z</time></trkpt><trkpt lat="43.9627133" lon="12.7566217"><ele>7.0</ele><time>2026-04-26T11:23:32.523Z</time></trkpt><trkpt lat="43.96286" lon="12.7565867"><ele>7.5</ele><time>2026-04-26T11:23:33.524Z</time></trkpt><trkpt lat="43.9630133" lon="12.7565667"><ele>8.0</ele><time>2026-04-26T11:23:34.523Z</time></trkpt><trkpt lat="43.963185" lon="12.7565467"><ele>8.0</ele><time>2026-04-26T11:23:35.524Z</time></trkpt><trkpt lat="43.9633533" lon="12.7565317"><ele>8.0</ele><time>2026-04-26T11:23:36.524Z</time></trkpt><trkpt lat="43.96352" lon="12.756515"><ele>8.0</ele><time>2026-04-26T11:23:37.524Z</time></trkpt><trkpt lat="43.9636767" lon="12.7564983"><ele>9.0</ele><time>2026-04-26T11:23:38.523Z</time></trkpt><trkpt lat="43.9638167" lon="12.75648"><ele>10.0</ele><time>2026-04-26T11:23:39.524Z</time></trkpt><trkpt lat="43.9639383" lon="12.7564533"><ele>11.0</ele><time>2026-04-26T11:23:40.524Z</time></trkpt><trkpt lat="43.9640533" lon="12.7564333"><ele>12.0</ele><time>2026-04-26T11:23:41.524Z</time></trkpt><trkpt lat="43.9641533" lon="12.75642"><ele>12.6</ele><time>2026-04-26T11:23:42.523Z</time></trkpt><trkpt lat="43.9642533" lon="12.7564133"><ele>13.2</ele><time>2026-04-26T11:23:43.522Z</time></trkpt><trkpt lat="43.96435" lon="12.756405"><ele>13.8</ele><time>2026-04-26T11:23:44.523Z</time></trkpt><trkpt lat="43.9644367" lon="12.7563983"><ele>14.4</ele><time>2026-04-26T11:23:45.523Z</time></trkpt><trkpt lat="43.964525" lon="12.7563817"><ele>15.0</ele><time>2026-04-26T11:23:46.523Z</time></trkpt><trkpt lat="43.9646183" lon="12.7563767"><ele>15.0</ele><time>2026-04-26T11:23:47.522Z</time></trkpt><trkpt lat="43.9647133" lon="12.756375"><ele>15.0</ele><time>2026-04-26T11:23:48.523Z</time></trkpt><trkpt lat="43.964795" lon="12.75638"><ele>15.0</ele><time>2026-04-26T11:23:49.523Z</time></trkpt><trkpt lat="43.964865" lon="12.7563867"><ele>15.0</ele><time>2026-04-26T11:23:50.523Z</time></trkpt><trkpt lat="43.9649467" lon="12.7563933"><ele>15.0</ele><time>2026-04-26T11:23:51.523Z</time></trkpt><trkpt lat="43.965025" lon="12.756395"><ele>15.0</ele><time>2026-04-26T11:23:52.523Z</time></trkpt><trkpt lat="43.9651" lon="12.7564033"><ele>14.333333333333334</ele><time>2026-04-26T11:23:53.522Z</time></trkpt><trkpt lat="43.9651783" lon="12.7564233"><ele>13.666666666666666</ele><time>2026-04-26T11:23:54.522Z</time></trkpt><trkpt lat="43.9652583" lon="12.75644"><ele>13.0</ele><time>2026-04-26T11:23:55.522Z</time></trkpt><trkpt lat="43.9653317" lon="12.7564783"><ele>12.333333333333332</ele><time>2026-04-26T11:23:56.523Z</time></trkpt><trkpt lat="43.9654233" lon="12.7564983"><ele>11.666666666666666</ele><time>2026-04-26T11:23:58.523Z</time></trkpt><trkpt lat="43.9655167" lon="12.7565033"><ele>11.0</ele><time>2026-04-26T11:24:01.522Z</time></trkpt><trkpt lat="43.9656217" lon="12.7565283"><ele>11.0</ele><time>2026-04-26T11:24:03.523Z</time></trkpt><trkpt lat="43.965715" lon="12.7565433"><ele>11.0</ele><time>2026-04-26T11:24:05.523Z</time></trkpt><trkpt lat="43.9657933" lon="12.75655"><ele>11.0</ele><time>2026-04-26T11:24:07.523Z</time></trkpt><trkpt lat="43.96587" lon="12.756545"><ele>11.0</ele><time>2026-04-26T11:24:09.522Z</time></trkpt><trkpt lat="43.9659617" lon="12.75656"><ele>11.0</ele><time>2026-04-26T11:24:11.523Z</time></trkpt><trkpt lat="43.9660833" lon="12.7565867"><ele>10.666666666666666</ele><time>2026-04-26T11:24:13.523Z</time></trkpt><trkpt lat="43.966155" lon="12.7565983"><ele>10.333333333333332</ele><time>2026-04-26T11:24:14.522Z</time></trkpt><trkpt lat="43.9662467" lon="12.756615"><ele>10.0</ele><time>2026-04-26T11:24:15.523Z</time></trkpt><trkpt lat="43.966345" lon="12.75662"><ele>9.666666666666666</ele><time>2026-04-26T11:24:16.522Z</time></trkpt><trkpt lat="43.9664283" lon="12.7566267"><ele>9.333333333333334</ele><time>2026-04-26T11:24:17.522Z</time></trkpt><trkpt lat="43.9665" lon="12.7566517"><ele>9.0</ele><time>2026-04-26T11:24:18.523Z</time></trkpt><trkpt lat="43.9665567" lon="12.7566967"><ele>9.0</ele><time>2026-04-26T11:24:19.523Z</time></trkpt><trkpt lat="43.9666017" lon="12.7567733"><ele>9.0</ele><time>2026-04-26T11:24:20.523Z</time></trkpt><trkpt lat="43.9666217" lon="12.7568783"><ele>9.0</ele><time>2026-04-26T11:24:21.523Z</time></trkpt><trkpt lat="43.966625" lon="12.756985"><ele>9.0</ele><time>2026-04-26T11:24:22.522Z</time></trkpt><trkpt lat="43.9666033" lon="12.757115"><ele>9.0</ele><time>2026-04-26T11:24:23.523Z</time></trkpt><trkpt lat="43.9665683" lon="12.7572717"><ele>9.0</ele><time>2026-04-26T11:24:24.523Z</time></trkpt><trkpt lat="43.9665217" lon="12.7574717"><ele>9.0</ele><time>2026-04-26T11:24:25.523Z</time></trkpt><trkpt lat="43.9664767" lon="12.7576533"><ele>9.0</ele><time>2026-04-26T11:24:26.523Z</time></trkpt><trkpt lat="43.96643" lon="12.7578083"><ele>9.0</ele><time>2026-04-26T11:24:27.523Z</time></trkpt><trkpt lat="43.966385" lon="12.75795"><ele>9.0</ele><time>2026-04-26T11:24:28.523Z</time></trkpt><trkpt lat="43.9663517" lon="12.7580683"><ele>9.0</ele><time>2026-04-26T11:24:29.523Z</time></trkpt><trkpt lat="43.96633" lon="12.7581717"><ele>9.0</ele><time>2026-04-26T11:24:30.523Z</time></trkpt><trkpt lat="43.9663133" lon="12.7582633"><ele>9.0</ele><time>2026-04-26T11:24:31.523Z</time></trkpt><trkpt lat="43.9662883" lon="12.7583617"><ele>9.0</ele><time>2026-04-26T11:24:33.523Z</time></trkpt><trkpt lat="43.96623" lon="12.7584617"><ele>9.0</ele><time>2026-04-26T11:24:41.523Z</time></trkpt><trkpt lat="43.9662433" lon="12.75858"><ele>9.0</ele><time>2026-04-26T11:24:43.523Z</time></trkpt><trkpt lat="43.966335" lon="12.7586683"><ele>8.8</ele><time>2026-04-26T11:24:45.523Z</time></trkpt><trkpt lat="43.96645" lon="12.75871"><ele>8.600000000000001</ele><time>2026-04-26T11:24:47.523Z</time></trkpt><trkpt lat="43.9665517" lon="12.75876"><ele>8.4</ele><time>2026-04-26T11:24:49.523Z</time></trkpt><trkpt lat="43.9666133" lon="12.758845"><ele>8.200000000000001</ele><time>2026-04-26T11:24:51.523Z</time></trkpt><trkpt lat="43.9666267" lon="12.75903"><ele>8.0</ele><time>2026-04-26T11:24:53.522Z</time></trkpt><trkpt lat="43.9665933" lon="12.75915"><ele>7.999999999999999</ele><time>2026-04-26T11:24:54.523Z</time></trkpt><trkpt lat="43.9665633" lon="12.75927"><ele>8.0</ele><time>2026-04-26T11:24:55.523Z</time></trkpt><trkpt lat="43.9665317" lon="12.7593917"><ele>8.0</ele><time>2026-04-26T11:24:56.522Z</time></trkpt><trkpt lat="43.9665017" lon="12.7595"><ele>8.0</ele><time>2026-04-26T11:24:57.523Z</time></trkpt><trkpt lat="43.9664767" lon="12.759595"><ele>7.999999999999999</ele><time>2026-04-26T11:24:58.522Z</time></trkpt><trkpt lat="43.9664533" lon="12.7596983"><ele>8.0</ele><time>2026-04-26T11:24:59.522Z</time></trkpt><trkpt lat="43.9664267" lon="12.7597917"><ele>7.4</ele><time>2026-04-26T11:25:00.523Z</time></trkpt><trkpt lat="43.9664" lon="12.75988"><ele>6.800000000000001</ele><time>2026-04-26T11:25:01.522Z</time></trkpt><trkpt lat="43.9663617" lon="12.7600417"><ele>6.2</ele><time>2026-04-26T11:25:03.522Z</time></trkpt><trkpt lat="43.96632" lon="12.7602133"><ele>5.6</ele><time>2026-04-26T11:25:05.522Z</time></trkpt><trkpt lat="43.9662967" lon="12.7602967"><ele>5.0</ele><time>2026-04-26T11:25:06.523Z</time></trkpt><trkpt lat="43.9662617" lon="12.7603983"><ele>4.833333333333334</ele><time>2026-04-26T11:25:07.523Z</time></trkpt><trkpt lat="43.9662383" lon="12.7605017"><ele>4.666666666666667</ele><time>2026-04-26T11:25:08.523Z</time></trkpt><trkpt lat="43.9662133" lon="12.76061"><ele>4.5</ele><time>2026-04-26T11:25:09.522Z</time></trkpt><trkpt lat="43.96619" lon="12.7607233"><ele>4.333333333333333</ele><time>2026-04-26T11:25:10.523Z</time></trkpt><trkpt lat="43.9661633" lon="12.7608283"><ele>4.166666666666666</ele><time>2026-04-26T11:25:11.522Z</time></trkpt><trkpt lat="43.966135" lon="12.7609317"><ele>4.0</ele><time>2026-04-26T11:25:12.523Z</time></trkpt><trkpt lat="43.9661" lon="12.76103"><ele>4.6</ele><time>2026-04-26T11:25:13.523Z</time></trkpt><trkpt lat="43.9660667" lon="12.7611183"><ele>5.2</ele><time>2026-04-26T11:25:14.523Z</time></trkpt><trkpt lat="43.96604" lon="12.7612067"><ele>5.799999999999999</ele><time>2026-04-26T11:25:15.522Z</time></trkpt><trkpt lat="43.9659917" lon="12.76137"><ele>6.3999999999999995</ele><time>2026-04-26T11:25:17.523Z</time></trkpt><trkpt lat="43.9659767" lon="12.7615233"><ele>7.0</ele><time>2026-04-26T11:25:19.523Z</time></trkpt><trkpt lat="43.965975" lon="12.7616733"><ele>7.0</ele><time>2026-04-26T11:25:21.523Z</time></trkpt><trkpt lat="43.9659767" lon="12.7617617"><ele>7.0</ele><time>2026-04-26T11:25:22.522Z</time></trkpt><trkpt lat="43.9659867" lon="12.76186"><ele>7.0</ele><time>2026-04-26T11:25:23.523Z</time></trkpt><trkpt lat="43.9659967" lon="12.7619583"><ele>7.0</ele><time>2026-04-26T11:25:24.522Z</time></trkpt><trkpt lat="43.966015" lon="12.762055"><ele>7.0</ele><time>2026-04-26T11:25:25.523Z</time></trkpt><trkpt lat="43.9660467" lon="12.7621483"><ele>7.0</ele><time>2026-04-26T11:25:26.523Z</time></trkpt><trkpt lat="43.966075" lon="12.7622283"><ele>7.0</ele><time>2026-04-26T11:25:27.523Z</time></trkpt><trkpt lat="43.966145" lon="12.7623633"><ele>6.333333333333334</ele><time>2026-04-26T11:25:29.522Z</time></trkpt><trkpt lat="43.9661867" lon="12.7625033"><ele>5.666666666666667</ele><time>2026-04-26T11:25:31.523Z</time></trkpt><trkpt lat="43.9661967" lon="12.762625"><ele>5.0</ele><time>2026-04-26T11:25:33.523Z</time></trkpt><trkpt lat="43.9661933" lon="12.7627233"><ele>4.333333333333334</ele><time>2026-04-26T11:25:35.523Z</time></trkpt><trkpt lat="43.9661833" lon="12.76283"><ele>3.666666666666667</ele><time>2026-04-26T11:25:37.523Z</time></trkpt><trkpt lat="43.9661417" lon="12.7629117"><ele>3.0</ele><time>2026-04-26T11:25:40.523Z</time></trkpt><trkpt lat="43.9661433" lon="12.7630017"><ele>2.8333333333333335</ele><time>2026-04-26T11:27:39.523Z</time></trkpt><trkpt lat="43.9660917" lon="12.76314"><ele>2.6666666666666665</ele><time>2026-04-26T11:29:54.522Z</time></trkpt><trkpt lat="43.96608" lon="12.7632433"><ele>2.5</ele><time>2026-04-26T11:30:01.522Z</time></trkpt><trkpt lat="43.9660867" lon="12.76334"><ele>2.333333333333333</ele><time>2026-04-26T11:30:07.522Z</time></trkpt><trkpt lat="43.9660908" lon="12.7634277"><ele>2.1666666666666665</ele><time>2026-04-26T11:30:13.625Z</time></trkpt><trkpt lat="43.9661376" lon="12.7634966"><ele>2.0</ele><time>2026-04-26T11:30:20.631Z</time></trkpt><trkpt lat="43.9661756" lon="12.763578"><ele>1.857142857142857</ele><time>2026-04-26T11:30:26.59Z</time></trkpt><trkpt lat="43.9661987" lon="12.7636608"><ele>1.714285714285714</ele><time>2026-04-26T11:30:32.624Z</time></trkpt><trkpt lat="43.966222" lon="12.7637494"><ele>1.5714285714285714</ele><time>2026-04-26T11:30:39.658Z</time></trkpt><trkpt lat="43.9662471" lon="12.7638373"><ele>1.4285714285714284</ele><time>2026-04-26T11:30:46.558Z</time></trkpt><trkpt lat="43.9663168" lon="12.7638159"><ele>1.2857142857142856</ele><time>2026-04-26T11:47:47.628Z</time></trkpt><trkpt lat="43.966328" lon="12.7637202"><ele>1.1428571428571428</ele><time>2026-04-26T11:47:53.691Z</time></trkpt><trkpt lat="43.9663067" lon="12.7636342"><ele>1.0</ele><time>2026-04-26T11:48:00.694Z</time></trkpt><trkpt lat="43.9662358" lon="12.7635955"><ele>1.1428571428571428</ele><time>2026-04-26T11:48:06.685Z</time></trkpt><trkpt lat="43.9662002" lon="12.7635052"><ele>1.2857142857142856</ele><time>2026-04-26T11:48:12.715Z</time></trkpt><trkpt lat="43.9661458" lon="12.7634515"><ele>1.4285714285714284</ele><time>2026-04-26T11:48:19.628Z</time></trkpt><trkpt lat="43.9661308" lon="12.763362"><ele>1.5714285714285714</ele><time>2026-04-26T11:48:25.678Z</time></trkpt><trkpt lat="43.9661534" lon="12.7632528"><ele>1.714285714285714</ele><time>2026-04-26T11:48:40.626Z</time></trkpt><trkpt lat="43.9661713" lon="12.7631599"><ele>1.857142857142857</ele><time>2026-04-26T11:48:46.688Z</time></trkpt><trkpt lat="43.9661878" lon="12.7630657"><ele>2.0</ele><time>2026-04-26T11:48:52.647Z</time></trkpt><trkpt lat="43.9662088" lon="12.7629809"><ele>1.9999999999999998</ele><time>2026-04-26T11:48:57.664Z</time></trkpt><trkpt lat="43.966211" lon="12.7628792"><ele>2.0</ele><time>2026-04-26T11:49:04.668Z</time></trkpt><trkpt lat="43.9661446" lon="12.7628608"><ele>2.0</ele><time>2026-04-26T11:49:16.689Z</time></trkpt><trkpt lat="43.9662076" lon="12.7628508"><ele>2.0</ele><time>2026-04-26T11:50:07.702Z</time></trkpt><trkpt lat="43.9662783" lon="12.7628683"><ele>1.9999999999999998</ele><time>2026-04-26T11:50:22.522Z</time></trkpt><trkpt lat="43.9662033" lon="12.7629267"><ele>2.0</ele><time>2026-04-26T11:50:56.521Z</time></trkpt><trkpt lat="43.966219" lon="12.7630719"><ele>2.0</ele><time>2026-04-26T11:51:22.658Z</time></trkpt><trkpt lat="43.9661898" lon="12.7631545"><ele>1.9999999999999998</ele><time>2026-04-26T11:51:26.629Z</time></trkpt><trkpt lat="43.9661527" lon="12.7632408"><ele>2.0</ele><time>2026-04-26T11:51:31.647Z</time></trkpt><trkpt lat="43.9661362" lon="12.7633254"><ele>2.0</ele><time>2026-04-26T11:51:36.626Z</time></trkpt><trkpt lat="43.9661232" lon="12.7634227"><ele>1.9999999999999998</ele><time>2026-04-26T11:51:43.669Z</time></trkpt><trkpt lat="43.966158" lon="12.7634984"><ele>2.0</ele><time>2026-04-26T11:51:51.615Z</time></trkpt><trkpt lat="43.9661771" lon="12.7635867"><ele>2.0</ele><time>2026-04-26T11:51:58.619Z</time></trkpt><trkpt lat="43.9662373" lon="12.763634"><ele>2.0</ele><time>2026-04-26T11:52:04.682Z</time></trkpt><trkpt lat="43.9662914" lon="12.7636888"><ele>1.9999999999999998</ele><time>2026-04-26T11:52:11.686Z</time></trkpt><trkpt lat="43.9663392" lon="12.7637606"><ele>2.0</ele><time>2026-04-26T11:52:17.645Z</time></trkpt><trkpt lat="43.966404" lon="12.7637279"><ele>2.0</ele><time>2026-04-26T11:52:57.604Z</time></trkpt><trkpt lat="43.9664332" lon="12.7636143"><ele>1.9999999999999998</ele><time>2026-04-26T11:55:03.647Z</time></trkpt><trkpt lat="43.9663797" lon="12.7635519"><ele>2.0</ele><time>2026-04-26T11:55:09.606Z</time></trkpt><trkpt lat="43.9663298" lon="12.7634879"><ele>2.0</ele><time>2026-04-26T11:55:17.705Z</time></trkpt><trkpt lat="43.9662669" lon="12.7634515"><ele>2.0</ele><time>2026-04-26T11:55:26.645Z</time></trkpt><trkpt lat="43.9661998" lon="12.7634072"><ele>1.9999999999999998</ele><time>2026-04-26T11:55:34.59Z</time></trkpt><trkpt lat="43.966136" lon="12.7633955"><ele>2.0</ele><time>2026-04-26T11:55:40.627Z</time></trkpt><trkpt lat="43.966103" lon="12.7633187"><ele>2.0</ele><time>2026-04-26T11:55:47.657Z</time></trkpt><trkpt lat="43.9661099" lon="12.7632261"><ele>1.9999999999999998</ele><time>2026-04-26T11:55:55.601Z</time></trkpt><trkpt lat="43.9661378" lon="12.7631406"><ele>2.0</ele><time>2026-04-26T11:56:03.651Z</time></trkpt><trkpt lat="43.9661477" lon="12.7630508"><ele>2.0</ele><time>2026-04-26T11:56:10.55Z</time></trkpt><trkpt lat="43.9661585" lon="12.7629566"><ele>2.0</ele><time>2026-04-26T11:57:48.71Z</time></trkpt><trkpt lat="43.9662005" lon="12.762835"><ele>1.9999999999999998</ele><time>2026-04-26T11:58:03.688Z</time></trkpt><trkpt lat="43.966218" lon="12.762745"><ele>2.0</ele><time>2026-04-26T11:58:07.633Z</time></trkpt><trkpt lat="43.9662131" lon="12.762655"><ele>2.0</ele><time>2026-04-26T11:58:12.57Z</time></trkpt><trkpt lat="43.9662244" lon="12.76255"><ele>1.9999999999999998</ele><time>2026-04-26T11:58:18.464Z</time></trkpt><trkpt lat="43.9662464" lon="12.7624481"><ele>2.0</ele><time>2026-04-26T11:58:26.659Z</time></trkpt><trkpt lat="43.9662368" lon="12.7623598"><ele>2.0</ele><time>2026-04-26T11:58:34.604Z</time></trkpt><trkpt lat="43.9662578" lon="12.7622753"><ele>3.0</ele><time>2026-04-26T11:58:42.55Z</time></trkpt><trkpt lat="43.9662825" lon="12.7621802"><ele>3.0</ele><time>2026-04-26T11:58:48.587Z</time></trkpt><trkpt lat="43.9663007" lon="12.762081"><ele>3.0</ele><time>2026-04-26T11:58:54.573Z</time></trkpt><trkpt lat="43.966311" lon="12.7619907"><ele>3.0</ele><time>2026-04-26T11:58:59.602Z</time></trkpt><trkpt lat="43.9663181" lon="12.7618947"><ele>3.0</ele><time>2026-04-26T11:59:06.564Z</time></trkpt><trkpt lat="43.9663273" lon="12.7618074"><ele>7.0</ele><time>2026-04-26T11:59:11.614Z</time></trkpt><trkpt lat="43.9663478" lon="12.7617164"><ele>7.0</ele><time>2026-04-26T11:59:17.574Z</time></trkpt></trkseg></trk></gpx>